<?xml version="1.0" encoding="UTF-8" standalone="no" ?>
<gpx xmlns="http://www.topografix.com/GPX/1/1" xmlns:xsi="http://www.w3.org/2001/XMLSchema-instance" xsi:schemaLocation="http://www.topografix.com/GPX/1/1 http://www.topografix.com/GPX/1/1/gpx.xsd" version="1.1" creator="VisuGPX - https://www.visugpx.com">
  <metadata>
    <name>Randonnée Radepont</name>
    <desc><![CDATA[Circuit au départ de Radepont avec retour par Charleval]]></desc>
  </metadata>
  <trk>
    <name><![CDATA[Randonnée Radepont_1]]></name>
    <trkseg>
      <trkpt lat="49.35481" lon="1.325">
        <ele>30</ele>
        <time>2017-10-10T14:01:04Z</time>
      </trkpt>
      <trkpt lat="49.35479" lon="1.32504">
        <ele>30</ele>
        <time>2017-10-10T14:01:05Z</time>
      </trkpt>
      <trkpt lat="49.35479" lon="1.32507">
        <ele>30</ele>
        <time>2017-10-10T14:01:05Z</time>
      </trkpt>
      <trkpt lat="49.35474" lon="1.32512">
        <ele>30</ele>
        <time>2017-10-10T14:01:05Z</time>
      </trkpt>
      <trkpt lat="49.35471" lon="1.32516">
        <ele>30</ele>
        <time>2017-10-10T14:01:20Z</time>
      </trkpt>
      <trkpt lat="49.35468" lon="1.32518">
        <ele>30</ele>
        <time>2017-10-10T14:01:21Z</time>
      </trkpt>
      <trkpt lat="49.35464" lon="1.32522">
        <ele>30</ele>
        <time>2017-10-10T14:01:21Z</time>
      </trkpt>
      <trkpt lat="49.3546" lon="1.32526">
        <ele>30</ele>
        <time>2017-10-10T14:01:21Z</time>
      </trkpt>
      <trkpt lat="49.35457" lon="1.3253">
        <ele>29</ele>
        <time>2017-10-10T14:01:36Z</time>
      </trkpt>
      <trkpt lat="49.35454" lon="1.32535">
        <ele>29</ele>
        <time>2017-10-10T14:01:36Z</time>
      </trkpt>
      <trkpt lat="49.3545" lon="1.32539">
        <ele>29</ele>
        <time>2017-10-10T14:01:37Z</time>
      </trkpt>
      <trkpt lat="49.35445" lon="1.32543">
        <ele>25</ele>
        <time>2017-10-10T14:01:37Z</time>
      </trkpt>
      <trkpt lat="49.35442" lon="1.32547">
        <ele>25</ele>
        <time>2017-10-10T14:01:52Z</time>
      </trkpt>
      <trkpt lat="49.35438" lon="1.32551">
        <ele>25</ele>
        <time>2017-10-10T14:01:53Z</time>
      </trkpt>
      <trkpt lat="49.35434" lon="1.32555">
        <ele>25</ele>
        <time>2017-10-10T14:01:53Z</time>
      </trkpt>
      <trkpt lat="49.3543" lon="1.32557">
        <ele>25</ele>
        <time>2017-10-10T14:01:53Z</time>
      </trkpt>
      <trkpt lat="49.3543" lon="1.32556">
        <ele>25</ele>
        <time>2017-10-10T14:02:08Z</time>
      </trkpt>
      <trkpt lat="49.35429" lon="1.32556">
        <ele>25</ele>
        <time>2017-10-10T14:02:09Z</time>
      </trkpt>
      <trkpt lat="49.35426" lon="1.32561">
        <ele>25</ele>
        <time>2017-10-10T14:02:09Z</time>
      </trkpt>
      <trkpt lat="49.35423" lon="1.32565">
        <ele>25</ele>
        <time>2017-10-10T14:02:09Z</time>
      </trkpt>
      <trkpt lat="49.35421" lon="1.32573">
        <ele>25</ele>
        <time>2017-10-10T14:02:24Z</time>
      </trkpt>
      <trkpt lat="49.35417" lon="1.32579">
        <ele>25</ele>
        <time>2017-10-10T14:02:25Z</time>
      </trkpt>
      <trkpt lat="49.35415" lon="1.32584">
        <ele>25</ele>
        <time>2017-10-10T14:02:25Z</time>
      </trkpt>
      <trkpt lat="49.35416" lon="1.3259">
        <ele>25</ele>
        <time>2017-10-10T14:02:25Z</time>
      </trkpt>
      <trkpt lat="49.35419" lon="1.32595">
        <ele>25</ele>
        <time>2017-10-10T14:02:44Z</time>
      </trkpt>
      <trkpt lat="49.35422" lon="1.32594">
        <ele>25</ele>
        <time>2017-10-10T14:02:45Z</time>
      </trkpt>
      <trkpt lat="49.35422" lon="1.32597">
        <ele>25</ele>
        <time>2017-10-10T14:02:45Z</time>
      </trkpt>
      <trkpt lat="49.35424" lon="1.32602">
        <ele>25</ele>
        <time>2017-10-10T14:02:45Z</time>
      </trkpt>
      <trkpt lat="49.35426" lon="1.32607">
        <ele>25</ele>
        <time>2017-10-10T14:02:45Z</time>
      </trkpt>
      <trkpt lat="49.35428" lon="1.3261">
        <ele>25</ele>
        <time>2017-10-10T14:03:40Z</time>
      </trkpt>
      <trkpt lat="49.35429" lon="1.32611">
        <ele>25</ele>
        <time>2017-10-10T14:03:41Z</time>
      </trkpt>
      <trkpt lat="49.3543" lon="1.32614">
        <ele>25</ele>
        <time>2017-10-10T14:03:41Z</time>
      </trkpt>
      <trkpt lat="49.35431" lon="1.32618">
        <ele>25</ele>
        <time>2017-10-10T14:03:41Z</time>
      </trkpt>
      <trkpt lat="49.35434" lon="1.32623">
        <ele>25</ele>
        <time>2017-10-10T14:03:41Z</time>
      </trkpt>
      <trkpt lat="49.35436" lon="1.32628">
        <ele>24</ele>
        <time>2017-10-10T14:03:56Z</time>
      </trkpt>
      <trkpt lat="49.35439" lon="1.32633">
        <ele>24</ele>
        <time>2017-10-10T14:03:57Z</time>
      </trkpt>
      <trkpt lat="49.35442" lon="1.32639">
        <ele>24</ele>
        <time>2017-10-10T14:03:57Z</time>
      </trkpt>
      <trkpt lat="49.35445" lon="1.32644">
        <ele>24</ele>
        <time>2017-10-10T14:03:57Z</time>
      </trkpt>
      <trkpt lat="49.35448" lon="1.32649">
        <ele>24</ele>
        <time>2017-10-10T14:04:12Z</time>
      </trkpt>
      <trkpt lat="49.35451" lon="1.32654">
        <ele>24</ele>
        <time>2017-10-10T14:04:13Z</time>
      </trkpt>
      <trkpt lat="49.35454" lon="1.32659">
        <ele>24</ele>
        <time>2017-10-10T14:04:13Z</time>
      </trkpt>
      <trkpt lat="49.35456" lon="1.32663">
        <ele>24</ele>
        <time>2017-10-10T14:04:13Z</time>
      </trkpt>
      <trkpt lat="49.35459" lon="1.32668">
        <ele>24</ele>
        <time>2017-10-10T14:04:28Z</time>
      </trkpt>
      <trkpt lat="49.35462" lon="1.32673">
        <ele>24</ele>
        <time>2017-10-10T14:04:29Z</time>
      </trkpt>
      <trkpt lat="49.35465" lon="1.32678">
        <ele>24</ele>
        <time>2017-10-10T14:04:29Z</time>
      </trkpt>
      <trkpt lat="49.35468" lon="1.32682">
        <ele>24</ele>
        <time>2017-10-10T14:04:29Z</time>
      </trkpt>
      <trkpt lat="49.35471" lon="1.32686">
        <ele>24</ele>
        <time>2017-10-10T14:04:44Z</time>
      </trkpt>
      <trkpt lat="49.35474" lon="1.32691">
        <ele>24</ele>
        <time>2017-10-10T14:04:45Z</time>
      </trkpt>
      <trkpt lat="49.35477" lon="1.32695">
        <ele>24</ele>
        <time>2017-10-10T14:04:45Z</time>
      </trkpt>
      <trkpt lat="49.35479" lon="1.32701">
        <ele>24</ele>
        <time>2017-10-10T14:04:45Z</time>
      </trkpt>
      <trkpt lat="49.35481" lon="1.32706">
        <ele>24</ele>
        <time>2017-10-10T14:05:00Z</time>
      </trkpt>
      <trkpt lat="49.35485" lon="1.3271">
        <ele>23</ele>
        <time>2017-10-10T14:05:01Z</time>
      </trkpt>
      <trkpt lat="49.35488" lon="1.32716">
        <ele>23</ele>
        <time>2017-10-10T14:05:01Z</time>
      </trkpt>
      <trkpt lat="49.35491" lon="1.32722">
        <ele>23</ele>
        <time>2017-10-10T14:05:01Z</time>
      </trkpt>
      <trkpt lat="49.35494" lon="1.32727">
        <ele>23</ele>
        <time>2017-10-10T14:05:16Z</time>
      </trkpt>
      <trkpt lat="49.35497" lon="1.32733">
        <ele>23</ele>
        <time>2017-10-10T14:05:17Z</time>
      </trkpt>
      <trkpt lat="49.35501" lon="1.32738">
        <ele>23</ele>
        <time>2017-10-10T14:05:17Z</time>
      </trkpt>
      <trkpt lat="49.35504" lon="1.32744">
        <ele>23</ele>
        <time>2017-10-10T14:05:17Z</time>
      </trkpt>
      <trkpt lat="49.35507" lon="1.3275">
        <ele>23</ele>
        <time>2017-10-10T14:05:32Z</time>
      </trkpt>
      <trkpt lat="49.3551" lon="1.32757">
        <ele>23</ele>
        <time>2017-10-10T14:05:33Z</time>
      </trkpt>
      <trkpt lat="49.35513" lon="1.32762">
        <ele>23</ele>
        <time>2017-10-10T14:05:33Z</time>
      </trkpt>
      <trkpt lat="49.35516" lon="1.32768">
        <ele>23</ele>
        <time>2017-10-10T14:05:33Z</time>
      </trkpt>
      <trkpt lat="49.35519" lon="1.32773">
        <ele>23</ele>
        <time>2017-10-10T14:05:48Z</time>
      </trkpt>
      <trkpt lat="49.35522" lon="1.32779">
        <ele>23</ele>
        <time>2017-10-10T14:05:49Z</time>
      </trkpt>
      <trkpt lat="49.35524" lon="1.32784">
        <ele>23</ele>
        <time>2017-10-10T14:05:49Z</time>
      </trkpt>
      <trkpt lat="49.35528" lon="1.3279">
        <ele>23</ele>
        <time>2017-10-10T14:05:49Z</time>
      </trkpt>
      <trkpt lat="49.3553" lon="1.32796">
        <ele>23</ele>
        <time>2017-10-10T14:06:04Z</time>
      </trkpt>
      <trkpt lat="49.35534" lon="1.32801">
        <ele>23</ele>
        <time>2017-10-10T14:06:05Z</time>
      </trkpt>
      <trkpt lat="49.35537" lon="1.32806">
        <ele>23</ele>
        <time>2017-10-10T14:06:05Z</time>
      </trkpt>
      <trkpt lat="49.35539" lon="1.32811">
        <ele>23</ele>
        <time>2017-10-10T14:06:05Z</time>
      </trkpt>
      <trkpt lat="49.35542" lon="1.32816">
        <ele>25</ele>
        <time>2017-10-10T14:06:20Z</time>
      </trkpt>
      <trkpt lat="49.35545" lon="1.32822">
        <ele>25</ele>
        <time>2017-10-10T14:06:21Z</time>
      </trkpt>
      <trkpt lat="49.35548" lon="1.32828">
        <ele>25</ele>
        <time>2017-10-10T14:06:21Z</time>
      </trkpt>
      <trkpt lat="49.35551" lon="1.32833">
        <ele>25</ele>
        <time>2017-10-10T14:06:21Z</time>
      </trkpt>
      <trkpt lat="49.35554" lon="1.32839">
        <ele>25</ele>
        <time>2017-10-10T14:06:36Z</time>
      </trkpt>
      <trkpt lat="49.35557" lon="1.32844">
        <ele>25</ele>
        <time>2017-10-10T14:06:37Z</time>
      </trkpt>
      <trkpt lat="49.3556" lon="1.3285">
        <ele>25</ele>
        <time>2017-10-10T14:06:37Z</time>
      </trkpt>
      <trkpt lat="49.35563" lon="1.32855">
        <ele>25</ele>
        <time>2017-10-10T14:06:37Z</time>
      </trkpt>
      <trkpt lat="49.35566" lon="1.3286">
        <ele>25</ele>
        <time>2017-10-10T14:06:52Z</time>
      </trkpt>
      <trkpt lat="49.35569" lon="1.32866">
        <ele>25</ele>
        <time>2017-10-10T14:06:53Z</time>
      </trkpt>
      <trkpt lat="49.35572" lon="1.32872">
        <ele>25</ele>
        <time>2017-10-10T14:06:53Z</time>
      </trkpt>
      <trkpt lat="49.35575" lon="1.32877">
        <ele>23</ele>
        <time>2017-10-10T14:06:53Z</time>
      </trkpt>
      <trkpt lat="49.35578" lon="1.32883">
        <ele>23</ele>
        <time>2017-10-10T14:07:08Z</time>
      </trkpt>
      <trkpt lat="49.35581" lon="1.32889">
        <ele>23</ele>
        <time>2017-10-10T14:07:09Z</time>
      </trkpt>
      <trkpt lat="49.35583" lon="1.32895">
        <ele>23</ele>
        <time>2017-10-10T14:07:09Z</time>
      </trkpt>
      <trkpt lat="49.35586" lon="1.32901">
        <ele>23</ele>
        <time>2017-10-10T14:07:09Z</time>
      </trkpt>
      <trkpt lat="49.35589" lon="1.32907">
        <ele>23</ele>
        <time>2017-10-10T14:07:24Z</time>
      </trkpt>
      <trkpt lat="49.35592" lon="1.32913">
        <ele>23</ele>
        <time>2017-10-10T14:07:25Z</time>
      </trkpt>
      <trkpt lat="49.35595" lon="1.32918">
        <ele>23</ele>
        <time>2017-10-10T14:07:25Z</time>
      </trkpt>
      <trkpt lat="49.35598" lon="1.32924">
        <ele>23</ele>
        <time>2017-10-10T14:07:25Z</time>
      </trkpt>
      <trkpt lat="49.35601" lon="1.32929">
        <ele>23</ele>
        <time>2017-10-10T14:07:40Z</time>
      </trkpt>
      <trkpt lat="49.35603" lon="1.32934">
        <ele>23</ele>
        <time>2017-10-10T14:07:41Z</time>
      </trkpt>
      <trkpt lat="49.35606" lon="1.3294">
        <ele>23</ele>
        <time>2017-10-10T14:07:41Z</time>
      </trkpt>
      <trkpt lat="49.35609" lon="1.32945">
        <ele>23</ele>
        <time>2017-10-10T14:07:41Z</time>
      </trkpt>
      <trkpt lat="49.35612" lon="1.32951">
        <ele>23</ele>
        <time>2017-10-10T14:07:56Z</time>
      </trkpt>
      <trkpt lat="49.35614" lon="1.32957">
        <ele>23</ele>
        <time>2017-10-10T14:07:57Z</time>
      </trkpt>
      <trkpt lat="49.35617" lon="1.32962">
        <ele>23</ele>
        <time>2017-10-10T14:07:57Z</time>
      </trkpt>
      <trkpt lat="49.3562" lon="1.32968">
        <ele>23</ele>
        <time>2017-10-10T14:07:57Z</time>
      </trkpt>
      <trkpt lat="49.35623" lon="1.32973">
        <ele>23</ele>
        <time>2017-10-10T14:08:12Z</time>
      </trkpt>
      <trkpt lat="49.35626" lon="1.32978">
        <ele>23</ele>
        <time>2017-10-10T14:08:13Z</time>
      </trkpt>
      <trkpt lat="49.35629" lon="1.32984">
        <ele>23</ele>
        <time>2017-10-10T14:08:13Z</time>
      </trkpt>
      <trkpt lat="49.3563" lon="1.32988">
        <ele>23</ele>
        <time>2017-10-10T14:08:13Z</time>
      </trkpt>
      <trkpt lat="49.35633" lon="1.32996">
        <ele>23</ele>
        <time>2017-10-10T14:08:56Z</time>
      </trkpt>
      <trkpt lat="49.35636" lon="1.32999">
        <ele>23</ele>
        <time>2017-10-10T14:08:57Z</time>
      </trkpt>
      <trkpt lat="49.35639" lon="1.33001">
        <ele>23</ele>
        <time>2017-10-10T14:08:57Z</time>
      </trkpt>
      <trkpt lat="49.35641" lon="1.33">
        <ele>23</ele>
        <time>2017-10-10T14:08:57Z</time>
      </trkpt>
      <trkpt lat="49.35641" lon="1.32999">
        <ele>23</ele>
        <time>2017-10-10T14:08:57Z</time>
      </trkpt>
      <trkpt lat="49.35641" lon="1.33">
        <ele>23</ele>
        <time>2017-10-10T14:09:16Z</time>
      </trkpt>
      <trkpt lat="49.35641" lon="1.32999">
        <ele>23</ele>
        <time>2017-10-10T14:09:17Z</time>
      </trkpt>
      <trkpt lat="49.35642" lon="1.33">
        <ele>23</ele>
        <time>2017-10-10T14:09:17Z</time>
      </trkpt>
      <trkpt lat="49.35643" lon="1.33006">
        <ele>23</ele>
        <time>2017-10-10T14:09:17Z</time>
      </trkpt>
      <trkpt lat="49.35646" lon="1.33012">
        <ele>23</ele>
        <time>2017-10-10T14:09:17Z</time>
      </trkpt>
      <trkpt lat="49.35648" lon="1.33018">
        <ele>23</ele>
        <time>2017-10-10T14:09:32Z</time>
      </trkpt>
      <trkpt lat="49.35649" lon="1.33024">
        <ele>23</ele>
        <time>2017-10-10T14:09:33Z</time>
      </trkpt>
      <trkpt lat="49.35651" lon="1.3303">
        <ele>23</ele>
        <time>2017-10-10T14:09:33Z</time>
      </trkpt>
      <trkpt lat="49.35651" lon="1.33036">
        <ele>23</ele>
        <time>2017-10-10T14:09:33Z</time>
      </trkpt>
      <trkpt lat="49.35652" lon="1.33041">
        <ele>23</ele>
        <time>2017-10-10T14:09:48Z</time>
      </trkpt>
      <trkpt lat="49.35652" lon="1.33047">
        <ele>24</ele>
        <time>2017-10-10T14:09:49Z</time>
      </trkpt>
      <trkpt lat="49.35652" lon="1.33053">
        <ele>24</ele>
        <time>2017-10-10T14:09:49Z</time>
      </trkpt>
      <trkpt lat="49.35652" lon="1.33059">
        <ele>24</ele>
        <time>2017-10-10T14:09:49Z</time>
      </trkpt>
      <trkpt lat="49.35655" lon="1.33064">
        <ele>24</ele>
        <time>2017-10-10T14:10:04Z</time>
      </trkpt>
      <trkpt lat="49.35658" lon="1.33069">
        <ele>24</ele>
        <time>2017-10-10T14:10:05Z</time>
      </trkpt>
      <trkpt lat="49.35661" lon="1.33074">
        <ele>24</ele>
        <time>2017-10-10T14:10:05Z</time>
      </trkpt>
      <trkpt lat="49.35664" lon="1.33079">
        <ele>24</ele>
        <time>2017-10-10T14:10:05Z</time>
      </trkpt>
      <trkpt lat="49.35667" lon="1.33085">
        <ele>24</ele>
        <time>2017-10-10T14:10:20Z</time>
      </trkpt>
      <trkpt lat="49.3567" lon="1.33091">
        <ele>24</ele>
        <time>2017-10-10T14:10:21Z</time>
      </trkpt>
      <trkpt lat="49.35673" lon="1.33096">
        <ele>24</ele>
        <time>2017-10-10T14:10:21Z</time>
      </trkpt>
      <trkpt lat="49.35675" lon="1.33102">
        <ele>24</ele>
        <time>2017-10-10T14:10:21Z</time>
      </trkpt>
      <trkpt lat="49.35677" lon="1.33111">
        <ele>24</ele>
        <time>2017-10-10T14:10:48Z</time>
      </trkpt>
      <trkpt lat="49.35679" lon="1.33114">
        <ele>24</ele>
        <time>2017-10-10T14:10:49Z</time>
      </trkpt>
      <trkpt lat="49.35682" lon="1.33118">
        <ele>24</ele>
        <time>2017-10-10T14:10:49Z</time>
      </trkpt>
      <trkpt lat="49.35685" lon="1.33123">
        <ele>24</ele>
        <time>2017-10-10T14:10:49Z</time>
      </trkpt>
      <trkpt lat="49.35688" lon="1.3313">
        <ele>23</ele>
        <time>2017-10-10T14:10:49Z</time>
      </trkpt>
      <trkpt lat="49.35692" lon="1.33136">
        <ele>23</ele>
        <time>2017-10-10T14:11:04Z</time>
      </trkpt>
      <trkpt lat="49.35695" lon="1.33141">
        <ele>23</ele>
        <time>2017-10-10T14:11:05Z</time>
      </trkpt>
      <trkpt lat="49.35697" lon="1.33148">
        <ele>23</ele>
        <time>2017-10-10T14:11:05Z</time>
      </trkpt>
      <trkpt lat="49.357" lon="1.33153">
        <ele>23</ele>
        <time>2017-10-10T14:11:05Z</time>
      </trkpt>
      <trkpt lat="49.35702" lon="1.33159">
        <ele>23</ele>
        <time>2017-10-10T14:11:20Z</time>
      </trkpt>
      <trkpt lat="49.35705" lon="1.33164">
        <ele>23</ele>
        <time>2017-10-10T14:11:21Z</time>
      </trkpt>
      <trkpt lat="49.35708" lon="1.33169">
        <ele>23</ele>
        <time>2017-10-10T14:11:21Z</time>
      </trkpt>
      <trkpt lat="49.3571" lon="1.33175">
        <ele>23</ele>
        <time>2017-10-10T14:11:21Z</time>
      </trkpt>
      <trkpt lat="49.35713" lon="1.33181">
        <ele>23</ele>
        <time>2017-10-10T14:11:36Z</time>
      </trkpt>
      <trkpt lat="49.35717" lon="1.33186">
        <ele>23</ele>
        <time>2017-10-10T14:11:37Z</time>
      </trkpt>
      <trkpt lat="49.35719" lon="1.33192">
        <ele>23</ele>
        <time>2017-10-10T14:11:37Z</time>
      </trkpt>
      <trkpt lat="49.35721" lon="1.33198">
        <ele>23</ele>
        <time>2017-10-10T14:11:37Z</time>
      </trkpt>
      <trkpt lat="49.35724" lon="1.33205">
        <ele>23</ele>
        <time>2017-10-10T14:11:52Z</time>
      </trkpt>
      <trkpt lat="49.35727" lon="1.33211">
        <ele>24</ele>
        <time>2017-10-10T14:11:53Z</time>
      </trkpt>
      <trkpt lat="49.3573" lon="1.33217">
        <ele>24</ele>
        <time>2017-10-10T14:11:53Z</time>
      </trkpt>
      <trkpt lat="49.35733" lon="1.33222">
        <ele>24</ele>
        <time>2017-10-10T14:11:53Z</time>
      </trkpt>
      <trkpt lat="49.35734" lon="1.33229">
        <ele>24</ele>
        <time>2017-10-10T14:12:08Z</time>
      </trkpt>
      <trkpt lat="49.35737" lon="1.33233">
        <ele>24</ele>
        <time>2017-10-10T14:12:09Z</time>
      </trkpt>
      <trkpt lat="49.35738" lon="1.33236">
        <ele>24</ele>
        <time>2017-10-10T14:12:09Z</time>
      </trkpt>
      <trkpt lat="49.3574" lon="1.33241">
        <ele>24</ele>
        <time>2017-10-10T14:12:09Z</time>
      </trkpt>
      <trkpt lat="49.35742" lon="1.33247">
        <ele>24</ele>
        <time>2017-10-10T14:12:24Z</time>
      </trkpt>
      <trkpt lat="49.35745" lon="1.33253">
        <ele>24</ele>
        <time>2017-10-10T14:12:25Z</time>
      </trkpt>
      <trkpt lat="49.35747" lon="1.33259">
        <ele>24</ele>
        <time>2017-10-10T14:12:25Z</time>
      </trkpt>
      <trkpt lat="49.35751" lon="1.33264">
        <ele>24</ele>
        <time>2017-10-10T14:12:25Z</time>
      </trkpt>
      <trkpt lat="49.35754" lon="1.33271">
        <ele>24</ele>
        <time>2017-10-10T14:12:40Z</time>
      </trkpt>
      <trkpt lat="49.35756" lon="1.33279">
        <ele>24</ele>
        <time>2017-10-10T14:12:41Z</time>
      </trkpt>
      <trkpt lat="49.35758" lon="1.33285">
        <ele>24</ele>
        <time>2017-10-10T14:12:41Z</time>
      </trkpt>
      <trkpt lat="49.35761" lon="1.3329">
        <ele>24</ele>
        <time>2017-10-10T14:12:41Z</time>
      </trkpt>
      <trkpt lat="49.35764" lon="1.33297">
        <ele>23</ele>
        <time>2017-10-10T14:12:56Z</time>
      </trkpt>
      <trkpt lat="49.35767" lon="1.33303">
        <ele>23</ele>
        <time>2017-10-10T14:12:57Z</time>
      </trkpt>
      <trkpt lat="49.3577" lon="1.3331">
        <ele>23</ele>
        <time>2017-10-10T14:12:57Z</time>
      </trkpt>
      <trkpt lat="49.35773" lon="1.33317">
        <ele>23</ele>
        <time>2017-10-10T14:12:57Z</time>
      </trkpt>
      <trkpt lat="49.35777" lon="1.33324">
        <ele>23</ele>
        <time>2017-10-10T14:13:12Z</time>
      </trkpt>
      <trkpt lat="49.3578" lon="1.3333">
        <ele>23</ele>
        <time>2017-10-10T14:13:13Z</time>
      </trkpt>
      <trkpt lat="49.35783" lon="1.33337">
        <ele>23</ele>
        <time>2017-10-10T14:13:13Z</time>
      </trkpt>
      <trkpt lat="49.35786" lon="1.33344">
        <ele>23</ele>
        <time>2017-10-10T14:13:13Z</time>
      </trkpt>
      <trkpt lat="49.35789" lon="1.33351">
        <ele>23</ele>
        <time>2017-10-10T14:13:28Z</time>
      </trkpt>
      <trkpt lat="49.35792" lon="1.33357">
        <ele>24</ele>
        <time>2017-10-10T14:13:29Z</time>
      </trkpt>
      <trkpt lat="49.35794" lon="1.33364">
        <ele>24</ele>
        <time>2017-10-10T14:13:29Z</time>
      </trkpt>
      <trkpt lat="49.35797" lon="1.3337">
        <ele>24</ele>
        <time>2017-10-10T14:13:29Z</time>
      </trkpt>
      <trkpt lat="49.358" lon="1.33376">
        <ele>23</ele>
        <time>2017-10-10T14:13:44Z</time>
      </trkpt>
      <trkpt lat="49.35802" lon="1.33383">
        <ele>23</ele>
        <time>2017-10-10T14:13:45Z</time>
      </trkpt>
      <trkpt lat="49.35805" lon="1.33389">
        <ele>23</ele>
        <time>2017-10-10T14:13:45Z</time>
      </trkpt>
      <trkpt lat="49.35809" lon="1.33394">
        <ele>23</ele>
        <time>2017-10-10T14:13:45Z</time>
      </trkpt>
      <trkpt lat="49.35812" lon="1.334">
        <ele>23</ele>
        <time>2017-10-10T14:14:00Z</time>
      </trkpt>
      <trkpt lat="49.35814" lon="1.33406">
        <ele>23</ele>
        <time>2017-10-10T14:14:01Z</time>
      </trkpt>
      <trkpt lat="49.35816" lon="1.33412">
        <ele>23</ele>
        <time>2017-10-10T14:14:01Z</time>
      </trkpt>
      <trkpt lat="49.35819" lon="1.33419">
        <ele>23</ele>
        <time>2017-10-10T14:14:01Z</time>
      </trkpt>
      <trkpt lat="49.35822" lon="1.33425">
        <ele>23</ele>
        <time>2017-10-10T14:14:16Z</time>
      </trkpt>
      <trkpt lat="49.35825" lon="1.3343">
        <ele>23</ele>
        <time>2017-10-10T14:14:17Z</time>
      </trkpt>
      <trkpt lat="49.35828" lon="1.33437">
        <ele>23</ele>
        <time>2017-10-10T14:14:17Z</time>
      </trkpt>
      <trkpt lat="49.35831" lon="1.33442">
        <ele>23</ele>
        <time>2017-10-10T14:14:17Z</time>
      </trkpt>
      <trkpt lat="49.35834" lon="1.33448">
        <ele>23</ele>
        <time>2017-10-10T14:14:32Z</time>
      </trkpt>
      <trkpt lat="49.35837" lon="1.33453">
        <ele>23</ele>
        <time>2017-10-10T14:14:33Z</time>
      </trkpt>
      <trkpt lat="49.35841" lon="1.33459">
        <ele>24</ele>
        <time>2017-10-10T14:14:33Z</time>
      </trkpt>
      <trkpt lat="49.35843" lon="1.33464">
        <ele>24</ele>
        <time>2017-10-10T14:14:33Z</time>
      </trkpt>
      <trkpt lat="49.35846" lon="1.33469">
        <ele>24</ele>
        <time>2017-10-10T14:14:48Z</time>
      </trkpt>
      <trkpt lat="49.35848" lon="1.33476">
        <ele>24</ele>
        <time>2017-10-10T14:14:49Z</time>
      </trkpt>
      <trkpt lat="49.35851" lon="1.33481">
        <ele>24</ele>
        <time>2017-10-10T14:14:49Z</time>
      </trkpt>
      <trkpt lat="49.35854" lon="1.33486">
        <ele>24</ele>
        <time>2017-10-10T14:14:49Z</time>
      </trkpt>
      <trkpt lat="49.35857" lon="1.33491">
        <ele>24</ele>
        <time>2017-10-10T14:15:04Z</time>
      </trkpt>
      <trkpt lat="49.3586" lon="1.33496">
        <ele>24</ele>
        <time>2017-10-10T14:15:05Z</time>
      </trkpt>
      <trkpt lat="49.35863" lon="1.33501">
        <ele>24</ele>
        <time>2017-10-10T14:15:05Z</time>
      </trkpt>
      <trkpt lat="49.35867" lon="1.33505">
        <ele>24</ele>
        <time>2017-10-10T14:15:05Z</time>
      </trkpt>
      <trkpt lat="49.3587" lon="1.33509">
        <ele>24</ele>
        <time>2017-10-10T14:15:20Z</time>
      </trkpt>
      <trkpt lat="49.35874" lon="1.33514">
        <ele>24</ele>
        <time>2017-10-10T14:15:21Z</time>
      </trkpt>
      <trkpt lat="49.35877" lon="1.33519">
        <ele>25</ele>
        <time>2017-10-10T14:15:21Z</time>
      </trkpt>
      <trkpt lat="49.35879" lon="1.33526">
        <ele>25</ele>
        <time>2017-10-10T14:15:21Z</time>
      </trkpt>
      <trkpt lat="49.35881" lon="1.33532">
        <ele>25</ele>
        <time>2017-10-10T14:15:36Z</time>
      </trkpt>
      <trkpt lat="49.35884" lon="1.33539">
        <ele>25</ele>
        <time>2017-10-10T14:15:37Z</time>
      </trkpt>
      <trkpt lat="49.35886" lon="1.33546">
        <ele>27</ele>
        <time>2017-10-10T14:15:37Z</time>
      </trkpt>
      <trkpt lat="49.35889" lon="1.33553">
        <ele>27</ele>
        <time>2017-10-10T14:15:37Z</time>
      </trkpt>
      <trkpt lat="49.35891" lon="1.3356">
        <ele>27</ele>
        <time>2017-10-10T14:15:52Z</time>
      </trkpt>
      <trkpt lat="49.35892" lon="1.33567">
        <ele>27</ele>
        <time>2017-10-10T14:15:53Z</time>
      </trkpt>
      <trkpt lat="49.35894" lon="1.33573">
        <ele>27</ele>
        <time>2017-10-10T14:15:53Z</time>
      </trkpt>
      <trkpt lat="49.35896" lon="1.3358">
        <ele>27</ele>
        <time>2017-10-10T14:15:53Z</time>
      </trkpt>
      <trkpt lat="49.35898" lon="1.33586">
        <ele>27</ele>
        <time>2017-10-10T14:16:08Z</time>
      </trkpt>
      <trkpt lat="49.359" lon="1.33592">
        <ele>27</ele>
        <time>2017-10-10T14:16:09Z</time>
      </trkpt>
      <trkpt lat="49.35903" lon="1.33599">
        <ele>27</ele>
        <time>2017-10-10T14:16:09Z</time>
      </trkpt>
      <trkpt lat="49.35905" lon="1.33605">
        <ele>27</ele>
        <time>2017-10-10T14:16:09Z</time>
      </trkpt>
      <trkpt lat="49.35908" lon="1.33612">
        <ele>27</ele>
        <time>2017-10-10T14:16:24Z</time>
      </trkpt>
      <trkpt lat="49.3591" lon="1.33618">
        <ele>27</ele>
        <time>2017-10-10T14:16:25Z</time>
      </trkpt>
      <trkpt lat="49.35913" lon="1.33623">
        <ele>27</ele>
        <time>2017-10-10T14:16:25Z</time>
      </trkpt>
      <trkpt lat="49.35915" lon="1.33629">
        <ele>28</ele>
        <time>2017-10-10T14:16:25Z</time>
      </trkpt>
      <trkpt lat="49.35917" lon="1.33636">
        <ele>28</ele>
        <time>2017-10-10T14:16:40Z</time>
      </trkpt>
      <trkpt lat="49.35919" lon="1.33643">
        <ele>28</ele>
        <time>2017-10-10T14:16:41Z</time>
      </trkpt>
      <trkpt lat="49.3592" lon="1.3365">
        <ele>28</ele>
        <time>2017-10-10T14:16:41Z</time>
      </trkpt>
      <trkpt lat="49.35922" lon="1.33657">
        <ele>28</ele>
        <time>2017-10-10T14:16:41Z</time>
      </trkpt>
      <trkpt lat="49.35925" lon="1.33663">
        <ele>28</ele>
        <time>2017-10-10T14:16:56Z</time>
      </trkpt>
      <trkpt lat="49.35927" lon="1.33669">
        <ele>28</ele>
        <time>2017-10-10T14:16:57Z</time>
      </trkpt>
      <trkpt lat="49.35929" lon="1.33675">
        <ele>28</ele>
        <time>2017-10-10T14:16:57Z</time>
      </trkpt>
      <trkpt lat="49.35932" lon="1.33681">
        <ele>28</ele>
        <time>2017-10-10T14:16:57Z</time>
      </trkpt>
      <trkpt lat="49.35935" lon="1.33687">
        <ele>28</ele>
        <time>2017-10-10T14:17:12Z</time>
      </trkpt>
      <trkpt lat="49.35938" lon="1.33692">
        <ele>28</ele>
        <time>2017-10-10T14:17:13Z</time>
      </trkpt>
      <trkpt lat="49.3594" lon="1.33697">
        <ele>28</ele>
        <time>2017-10-10T14:17:13Z</time>
      </trkpt>
      <trkpt lat="49.35943" lon="1.33703">
        <ele>28</ele>
        <time>2017-10-10T14:17:13Z</time>
      </trkpt>
      <trkpt lat="49.35945" lon="1.33709">
        <ele>28</ele>
        <time>2017-10-10T14:17:28Z</time>
      </trkpt>
      <trkpt lat="49.35947" lon="1.33715">
        <ele>28</ele>
        <time>2017-10-10T14:17:29Z</time>
      </trkpt>
      <trkpt lat="49.35949" lon="1.3372">
        <ele>28</ele>
        <time>2017-10-10T14:17:29Z</time>
      </trkpt>
      <trkpt lat="49.35952" lon="1.33727">
        <ele>28</ele>
        <time>2017-10-10T14:17:29Z</time>
      </trkpt>
      <trkpt lat="49.35954" lon="1.33733">
        <ele>28</ele>
        <time>2017-10-10T14:17:44Z</time>
      </trkpt>
      <trkpt lat="49.35957" lon="1.33739">
        <ele>28</ele>
        <time>2017-10-10T14:17:45Z</time>
      </trkpt>
      <trkpt lat="49.3596" lon="1.33744">
        <ele>33</ele>
        <time>2017-10-10T14:17:45Z</time>
      </trkpt>
      <trkpt lat="49.35962" lon="1.3375">
        <ele>33</ele>
        <time>2017-10-10T14:17:45Z</time>
      </trkpt>
      <trkpt lat="49.35965" lon="1.33755">
        <ele>33</ele>
        <time>2017-10-10T14:18:00Z</time>
      </trkpt>
      <trkpt lat="49.35967" lon="1.3376">
        <ele>33</ele>
        <time>2017-10-10T14:18:01Z</time>
      </trkpt>
      <trkpt lat="49.3597" lon="1.33766">
        <ele>33</ele>
        <time>2017-10-10T14:18:01Z</time>
      </trkpt>
      <trkpt lat="49.35971" lon="1.33772">
        <ele>33</ele>
        <time>2017-10-10T14:18:01Z</time>
      </trkpt>
      <trkpt lat="49.35974" lon="1.33778">
        <ele>33</ele>
        <time>2017-10-10T14:18:16Z</time>
      </trkpt>
      <trkpt lat="49.35976" lon="1.33784">
        <ele>33</ele>
        <time>2017-10-10T14:18:17Z</time>
      </trkpt>
      <trkpt lat="49.35978" lon="1.33789">
        <ele>33</ele>
        <time>2017-10-10T14:18:17Z</time>
      </trkpt>
      <trkpt lat="49.35981" lon="1.33795">
        <ele>36</ele>
        <time>2017-10-10T14:18:17Z</time>
      </trkpt>
      <trkpt lat="49.35983" lon="1.33801">
        <ele>36</ele>
        <time>2017-10-10T14:18:32Z</time>
      </trkpt>
      <trkpt lat="49.35985" lon="1.33807">
        <ele>36</ele>
        <time>2017-10-10T14:18:33Z</time>
      </trkpt>
      <trkpt lat="49.35987" lon="1.33813">
        <ele>36</ele>
        <time>2017-10-10T14:18:33Z</time>
      </trkpt>
      <trkpt lat="49.35989" lon="1.33819">
        <ele>36</ele>
        <time>2017-10-10T14:18:33Z</time>
      </trkpt>
      <trkpt lat="49.35991" lon="1.33825">
        <ele>36</ele>
        <time>2017-10-10T14:18:48Z</time>
      </trkpt>
      <trkpt lat="49.35993" lon="1.33831">
        <ele>36</ele>
        <time>2017-10-10T14:18:49Z</time>
      </trkpt>
      <trkpt lat="49.35995" lon="1.33836">
        <ele>36</ele>
        <time>2017-10-10T14:18:49Z</time>
      </trkpt>
      <trkpt lat="49.35996" lon="1.33842">
        <ele>36</ele>
        <time>2017-10-10T14:18:49Z</time>
      </trkpt>
      <trkpt lat="49.35998" lon="1.33854">
        <ele>36</ele>
        <time>2017-10-10T14:19:20Z</time>
      </trkpt>
      <trkpt lat="49.36002" lon="1.33856">
        <ele>36</ele>
        <time>2017-10-10T14:19:21Z</time>
      </trkpt>
      <trkpt lat="49.36004" lon="1.33861">
        <ele>36</ele>
        <time>2017-10-10T14:19:21Z</time>
      </trkpt>
      <trkpt lat="49.36006" lon="1.33866">
        <ele>36</ele>
        <time>2017-10-10T14:19:21Z</time>
      </trkpt>
      <trkpt lat="49.36009" lon="1.33871">
        <ele>36</ele>
        <time>2017-10-10T14:19:21Z</time>
      </trkpt>
      <trkpt lat="49.36011" lon="1.33876">
        <ele>38</ele>
        <time>2017-10-10T14:19:36Z</time>
      </trkpt>
      <trkpt lat="49.36014" lon="1.33881">
        <ele>38</ele>
        <time>2017-10-10T14:19:37Z</time>
      </trkpt>
      <trkpt lat="49.36016" lon="1.33885">
        <ele>38</ele>
        <time>2017-10-10T14:19:37Z</time>
      </trkpt>
      <trkpt lat="49.36019" lon="1.3389">
        <ele>38</ele>
        <time>2017-10-10T14:19:37Z</time>
      </trkpt>
      <trkpt lat="49.36021" lon="1.33895">
        <ele>38</ele>
        <time>2017-10-10T14:19:52Z</time>
      </trkpt>
      <trkpt lat="49.36023" lon="1.339">
        <ele>38</ele>
        <time>2017-10-10T14:19:53Z</time>
      </trkpt>
      <trkpt lat="49.36025" lon="1.33906">
        <ele>38</ele>
        <time>2017-10-10T14:19:53Z</time>
      </trkpt>
      <trkpt lat="49.36026" lon="1.33912">
        <ele>38</ele>
        <time>2017-10-10T14:19:53Z</time>
      </trkpt>
      <trkpt lat="49.36027" lon="1.33917">
        <ele>38</ele>
        <time>2017-10-10T14:20:08Z</time>
      </trkpt>
      <trkpt lat="49.36029" lon="1.33924">
        <ele>38</ele>
        <time>2017-10-10T14:20:09Z</time>
      </trkpt>
      <trkpt lat="49.36031" lon="1.3393">
        <ele>38</ele>
        <time>2017-10-10T14:20:09Z</time>
      </trkpt>
      <trkpt lat="49.36033" lon="1.33936">
        <ele>38</ele>
        <time>2017-10-10T14:20:09Z</time>
      </trkpt>
      <trkpt lat="49.36035" lon="1.33942">
        <ele>38</ele>
        <time>2017-10-10T14:20:24Z</time>
      </trkpt>
      <trkpt lat="49.36036" lon="1.33948">
        <ele>38</ele>
        <time>2017-10-10T14:20:25Z</time>
      </trkpt>
      <trkpt lat="49.36038" lon="1.33954">
        <ele>38</ele>
        <time>2017-10-10T14:20:25Z</time>
      </trkpt>
      <trkpt lat="49.36038" lon="1.33959">
        <ele>38</ele>
        <time>2017-10-10T14:20:25Z</time>
      </trkpt>
      <trkpt lat="49.3604" lon="1.33966">
        <ele>38</ele>
        <time>2017-10-10T14:20:40Z</time>
      </trkpt>
      <trkpt lat="49.3604" lon="1.33971">
        <ele>38</ele>
        <time>2017-10-10T14:20:41Z</time>
      </trkpt>
      <trkpt lat="49.36042" lon="1.33979">
        <ele>45</ele>
        <time>2017-10-10T14:20:41Z</time>
      </trkpt>
      <trkpt lat="49.36044" lon="1.33985">
        <ele>45</ele>
        <time>2017-10-10T14:20:41Z</time>
      </trkpt>
      <trkpt lat="49.36045" lon="1.33992">
        <ele>45</ele>
        <time>2017-10-10T14:20:56Z</time>
      </trkpt>
      <trkpt lat="49.36045" lon="1.33997">
        <ele>45</ele>
        <time>2017-10-10T14:20:57Z</time>
      </trkpt>
      <trkpt lat="49.36046" lon="1.34006">
        <ele>45</ele>
        <time>2017-10-10T14:20:57Z</time>
      </trkpt>
      <trkpt lat="49.36047" lon="1.34013">
        <ele>45</ele>
        <time>2017-10-10T14:20:57Z</time>
      </trkpt>
      <trkpt lat="49.36048" lon="1.34018">
        <ele>45</ele>
        <time>2017-10-10T14:21:12Z</time>
      </trkpt>
      <trkpt lat="49.36049" lon="1.34025">
        <ele>45</ele>
        <time>2017-10-10T14:21:13Z</time>
      </trkpt>
      <trkpt lat="49.3605" lon="1.34033">
        <ele>45</ele>
        <time>2017-10-10T14:21:13Z</time>
      </trkpt>
      <trkpt lat="49.3605" lon="1.34041">
        <ele>45</ele>
        <time>2017-10-10T14:21:13Z</time>
      </trkpt>
      <trkpt lat="49.36051" lon="1.34046">
        <ele>45</ele>
        <time>2017-10-10T14:21:28Z</time>
      </trkpt>
      <trkpt lat="49.36052" lon="1.34054">
        <ele>45</ele>
        <time>2017-10-10T14:21:29Z</time>
      </trkpt>
      <trkpt lat="49.36055" lon="1.3406">
        <ele>45</ele>
        <time>2017-10-10T14:21:29Z</time>
      </trkpt>
      <trkpt lat="49.36056" lon="1.34066">
        <ele>45</ele>
        <time>2017-10-10T14:21:29Z</time>
      </trkpt>
      <trkpt lat="49.36057" lon="1.34071">
        <ele>45</ele>
        <time>2017-10-10T14:21:44Z</time>
      </trkpt>
      <trkpt lat="49.36057" lon="1.34078">
        <ele>45</ele>
        <time>2017-10-10T14:21:45Z</time>
      </trkpt>
      <trkpt lat="49.36058" lon="1.34087">
        <ele>45</ele>
        <time>2017-10-10T14:21:45Z</time>
      </trkpt>
      <trkpt lat="49.3606" lon="1.34092">
        <ele>45</ele>
        <time>2017-10-10T14:21:45Z</time>
      </trkpt>
      <trkpt lat="49.36062" lon="1.34099">
        <ele>45</ele>
        <time>2017-10-10T14:22:00Z</time>
      </trkpt>
      <trkpt lat="49.36064" lon="1.34108">
        <ele>45</ele>
        <time>2017-10-10T14:22:01Z</time>
      </trkpt>
      <trkpt lat="49.36063" lon="1.34116">
        <ele>45</ele>
        <time>2017-10-10T14:22:01Z</time>
      </trkpt>
      <trkpt lat="49.36063" lon="1.34123">
        <ele>45</ele>
        <time>2017-10-10T14:22:01Z</time>
      </trkpt>
      <trkpt lat="49.36064" lon="1.34131">
        <ele>44</ele>
        <time>2017-10-10T14:22:16Z</time>
      </trkpt>
      <trkpt lat="49.36065" lon="1.34136">
        <ele>44</ele>
        <time>2017-10-10T14:22:17Z</time>
      </trkpt>
      <trkpt lat="49.36066" lon="1.34145">
        <ele>44</ele>
        <time>2017-10-10T14:22:17Z</time>
      </trkpt>
      <trkpt lat="49.36066" lon="1.34153">
        <ele>44</ele>
        <time>2017-10-10T14:22:17Z</time>
      </trkpt>
      <trkpt lat="49.36066" lon="1.3416">
        <ele>44</ele>
        <time>2017-10-10T14:22:32Z</time>
      </trkpt>
      <trkpt lat="49.36067" lon="1.34168">
        <ele>44</ele>
        <time>2017-10-10T14:22:33Z</time>
      </trkpt>
      <trkpt lat="49.36069" lon="1.34175">
        <ele>44</ele>
        <time>2017-10-10T14:22:33Z</time>
      </trkpt>
      <trkpt lat="49.36069" lon="1.34179">
        <ele>44</ele>
        <time>2017-10-10T14:22:33Z</time>
      </trkpt>
      <trkpt lat="49.3607" lon="1.34185">
        <ele>44</ele>
        <time>2017-10-10T14:22:48Z</time>
      </trkpt>
      <trkpt lat="49.36071" lon="1.34191">
        <ele>44</ele>
        <time>2017-10-10T14:22:49Z</time>
      </trkpt>
      <trkpt lat="49.36072" lon="1.34199">
        <ele>44</ele>
        <time>2017-10-10T14:22:49Z</time>
      </trkpt>
      <trkpt lat="49.36072" lon="1.34206">
        <ele>44</ele>
        <time>2017-10-10T14:22:49Z</time>
      </trkpt>
      <trkpt lat="49.36073" lon="1.34212">
        <ele>41</ele>
        <time>2017-10-10T14:23:04Z</time>
      </trkpt>
      <trkpt lat="49.36074" lon="1.3422">
        <ele>41</ele>
        <time>2017-10-10T14:23:05Z</time>
      </trkpt>
      <trkpt lat="49.36074" lon="1.34231">
        <ele>41</ele>
        <time>2017-10-10T14:23:05Z</time>
      </trkpt>
      <trkpt lat="49.36074" lon="1.34236">
        <ele>41</ele>
        <time>2017-10-10T14:23:05Z</time>
      </trkpt>
      <trkpt lat="49.36075" lon="1.34244">
        <ele>41</ele>
        <time>2017-10-10T14:23:20Z</time>
      </trkpt>
      <trkpt lat="49.36076" lon="1.34252">
        <ele>41</ele>
        <time>2017-10-10T14:23:21Z</time>
      </trkpt>
      <trkpt lat="49.36076" lon="1.34262">
        <ele>41</ele>
        <time>2017-10-10T14:23:21Z</time>
      </trkpt>
      <trkpt lat="49.36076" lon="1.34268">
        <ele>41</ele>
        <time>2017-10-10T14:23:21Z</time>
      </trkpt>
      <trkpt lat="49.36077" lon="1.34277">
        <ele>41</ele>
        <time>2017-10-10T14:23:36Z</time>
      </trkpt>
      <trkpt lat="49.36077" lon="1.34284">
        <ele>41</ele>
        <time>2017-10-10T14:23:36Z</time>
      </trkpt>
      <trkpt lat="49.36078" lon="1.34291">
        <ele>41</ele>
        <time>2017-10-10T14:23:37Z</time>
      </trkpt>
      <trkpt lat="49.36078" lon="1.34298">
        <ele>41</ele>
        <time>2017-10-10T14:23:37Z</time>
      </trkpt>
      <trkpt lat="49.36078" lon="1.34306">
        <ele>41</ele>
        <time>2017-10-10T14:23:52Z</time>
      </trkpt>
      <trkpt lat="49.36078" lon="1.34313">
        <ele>41</ele>
        <time>2017-10-10T14:23:53Z</time>
      </trkpt>
      <trkpt lat="49.36078" lon="1.3432">
        <ele>41</ele>
        <time>2017-10-10T14:23:53Z</time>
      </trkpt>
      <trkpt lat="49.36078" lon="1.34327">
        <ele>41</ele>
        <time>2017-10-10T14:23:53Z</time>
      </trkpt>
      <trkpt lat="49.36079" lon="1.34334">
        <ele>41</ele>
        <time>2017-10-10T14:24:08Z</time>
      </trkpt>
      <trkpt lat="49.36079" lon="1.34339">
        <ele>41</ele>
        <time>2017-10-10T14:24:09Z</time>
      </trkpt>
      <trkpt lat="49.36079" lon="1.34348">
        <ele>41</ele>
        <time>2017-10-10T14:24:09Z</time>
      </trkpt>
      <trkpt lat="49.3608" lon="1.34354">
        <ele>41</ele>
        <time>2017-10-10T14:24:09Z</time>
      </trkpt>
      <trkpt lat="49.3608" lon="1.3436">
        <ele>41</ele>
        <time>2017-10-10T14:24:24Z</time>
      </trkpt>
      <trkpt lat="49.36081" lon="1.34367">
        <ele>41</ele>
        <time>2017-10-10T14:24:25Z</time>
      </trkpt>
      <trkpt lat="49.36081" lon="1.34375">
        <ele>41</ele>
        <time>2017-10-10T14:24:25Z</time>
      </trkpt>
      <trkpt lat="49.36081" lon="1.34382">
        <ele>41</ele>
        <time>2017-10-10T14:24:25Z</time>
      </trkpt>
      <trkpt lat="49.36081" lon="1.34389">
        <ele>41</ele>
        <time>2017-10-10T14:24:40Z</time>
      </trkpt>
      <trkpt lat="49.36081" lon="1.34396">
        <ele>41</ele>
        <time>2017-10-10T14:24:41Z</time>
      </trkpt>
      <trkpt lat="49.36081" lon="1.34402">
        <ele>41</ele>
        <time>2017-10-10T14:24:41Z</time>
      </trkpt>
      <trkpt lat="49.36081" lon="1.34408">
        <ele>41</ele>
        <time>2017-10-10T14:24:41Z</time>
      </trkpt>
      <trkpt lat="49.36082" lon="1.34415">
        <ele>41</ele>
        <time>2017-10-10T14:24:56Z</time>
      </trkpt>
      <trkpt lat="49.36082" lon="1.34421">
        <ele>41</ele>
        <time>2017-10-10T14:24:57Z</time>
      </trkpt>
      <trkpt lat="49.36082" lon="1.34431">
        <ele>41</ele>
        <time>2017-10-10T14:24:57Z</time>
      </trkpt>
      <trkpt lat="49.36082" lon="1.34438">
        <ele>41</ele>
        <time>2017-10-10T14:24:57Z</time>
      </trkpt>
      <trkpt lat="49.36081" lon="1.34445">
        <ele>41</ele>
        <time>2017-10-10T14:25:12Z</time>
      </trkpt>
      <trkpt lat="49.3608" lon="1.34452">
        <ele>41</ele>
        <time>2017-10-10T14:25:13Z</time>
      </trkpt>
      <trkpt lat="49.36079" lon="1.34458">
        <ele>41</ele>
        <time>2017-10-10T14:25:13Z</time>
      </trkpt>
      <trkpt lat="49.36077" lon="1.34465">
        <ele>39</ele>
        <time>2017-10-10T14:25:13Z</time>
      </trkpt>
      <trkpt lat="49.36076" lon="1.3447">
        <ele>39</ele>
        <time>2017-10-10T14:25:28Z</time>
      </trkpt>
      <trkpt lat="49.36075" lon="1.34479">
        <ele>39</ele>
        <time>2017-10-10T14:25:29Z</time>
      </trkpt>
      <trkpt lat="49.36074" lon="1.34486">
        <ele>39</ele>
        <time>2017-10-10T14:25:29Z</time>
      </trkpt>
      <trkpt lat="49.36073" lon="1.34493">
        <ele>39</ele>
        <time>2017-10-10T14:25:29Z</time>
      </trkpt>
      <trkpt lat="49.36072" lon="1.345">
        <ele>39</ele>
        <time>2017-10-10T14:25:44Z</time>
      </trkpt>
      <trkpt lat="49.36071" lon="1.34505">
        <ele>39</ele>
        <time>2017-10-10T14:25:45Z</time>
      </trkpt>
      <trkpt lat="49.3607" lon="1.34514">
        <ele>39</ele>
        <time>2017-10-10T14:25:45Z</time>
      </trkpt>
      <trkpt lat="49.36069" lon="1.34519">
        <ele>39</ele>
        <time>2017-10-10T14:25:45Z</time>
      </trkpt>
      <trkpt lat="49.36069" lon="1.34526">
        <ele>39</ele>
        <time>2017-10-10T14:26:00Z</time>
      </trkpt>
      <trkpt lat="49.36068" lon="1.34534">
        <ele>39</ele>
        <time>2017-10-10T14:26:01Z</time>
      </trkpt>
      <trkpt lat="49.36066" lon="1.34542">
        <ele>37</ele>
        <time>2017-10-10T14:26:01Z</time>
      </trkpt>
      <trkpt lat="49.36066" lon="1.3455">
        <ele>37</ele>
        <time>2017-10-10T14:26:01Z</time>
      </trkpt>
      <trkpt lat="49.36065" lon="1.34557">
        <ele>37</ele>
        <time>2017-10-10T14:26:16Z</time>
      </trkpt>
      <trkpt lat="49.36064" lon="1.34562">
        <ele>37</ele>
        <time>2017-10-10T14:26:17Z</time>
      </trkpt>
      <trkpt lat="49.36063" lon="1.34571">
        <ele>37</ele>
        <time>2017-10-10T14:26:17Z</time>
      </trkpt>
      <trkpt lat="49.36062" lon="1.34577">
        <ele>37</ele>
        <time>2017-10-10T14:26:17Z</time>
      </trkpt>
      <trkpt lat="49.36061" lon="1.34585">
        <ele>37</ele>
        <time>2017-10-10T14:26:32Z</time>
      </trkpt>
      <trkpt lat="49.36061" lon="1.3459">
        <ele>37</ele>
        <time>2017-10-10T14:26:33Z</time>
      </trkpt>
      <trkpt lat="49.3606" lon="1.34599">
        <ele>37</ele>
        <time>2017-10-10T14:26:33Z</time>
      </trkpt>
      <trkpt lat="49.36059" lon="1.34606">
        <ele>37</ele>
        <time>2017-10-10T14:26:33Z</time>
      </trkpt>
      <trkpt lat="49.36058" lon="1.34614">
        <ele>37</ele>
        <time>2017-10-10T14:26:48Z</time>
      </trkpt>
      <trkpt lat="49.36057" lon="1.34621">
        <ele>37</ele>
        <time>2017-10-10T14:26:49Z</time>
      </trkpt>
      <trkpt lat="49.36055" lon="1.34628">
        <ele>37</ele>
        <time>2017-10-10T14:26:49Z</time>
      </trkpt>
      <trkpt lat="49.36054" lon="1.34635">
        <ele>37</ele>
        <time>2017-10-10T14:26:49Z</time>
      </trkpt>
      <trkpt lat="49.36054" lon="1.34641">
        <ele>37</ele>
        <time>2017-10-10T14:27:04Z</time>
      </trkpt>
      <trkpt lat="49.36053" lon="1.34648">
        <ele>37</ele>
        <time>2017-10-10T14:27:05Z</time>
      </trkpt>
      <trkpt lat="49.36052" lon="1.34657">
        <ele>37</ele>
        <time>2017-10-10T14:27:05Z</time>
      </trkpt>
      <trkpt lat="49.36052" lon="1.34664">
        <ele>37</ele>
        <time>2017-10-10T14:27:05Z</time>
      </trkpt>
      <trkpt lat="49.36051" lon="1.3467">
        <ele>37</ele>
        <time>2017-10-10T14:27:20Z</time>
      </trkpt>
      <trkpt lat="49.3605" lon="1.34677">
        <ele>37</ele>
        <time>2017-10-10T14:27:21Z</time>
      </trkpt>
      <trkpt lat="49.36049" lon="1.34686">
        <ele>37</ele>
        <time>2017-10-10T14:27:21Z</time>
      </trkpt>
      <trkpt lat="49.36048" lon="1.34693">
        <ele>37</ele>
        <time>2017-10-10T14:27:21Z</time>
      </trkpt>
      <trkpt lat="49.36047" lon="1.347">
        <ele>37</ele>
        <time>2017-10-10T14:27:36Z</time>
      </trkpt>
      <trkpt lat="49.36046" lon="1.34707">
        <ele>37</ele>
        <time>2017-10-10T14:27:36Z</time>
      </trkpt>
      <trkpt lat="49.36045" lon="1.34715">
        <ele>36</ele>
        <time>2017-10-10T14:27:37Z</time>
      </trkpt>
      <trkpt lat="49.36045" lon="1.34722">
        <ele>36</ele>
        <time>2017-10-10T14:27:37Z</time>
      </trkpt>
      <trkpt lat="49.36044" lon="1.34727">
        <ele>36</ele>
        <time>2017-10-10T14:27:52Z</time>
      </trkpt>
      <trkpt lat="49.36044" lon="1.34736">
        <ele>36</ele>
        <time>2017-10-10T14:27:53Z</time>
      </trkpt>
      <trkpt lat="49.36043" lon="1.34744">
        <ele>36</ele>
        <time>2017-10-10T14:27:53Z</time>
      </trkpt>
      <trkpt lat="49.36042" lon="1.34749">
        <ele>36</ele>
        <time>2017-10-10T14:27:53Z</time>
      </trkpt>
      <trkpt lat="49.36041" lon="1.34758">
        <ele>29</ele>
        <time>2017-10-10T14:28:08Z</time>
      </trkpt>
      <trkpt lat="49.36041" lon="1.34764">
        <ele>29</ele>
        <time>2017-10-10T14:28:09Z</time>
      </trkpt>
      <trkpt lat="49.3604" lon="1.34773">
        <ele>29</ele>
        <time>2017-10-10T14:28:09Z</time>
      </trkpt>
      <trkpt lat="49.36039" lon="1.3478">
        <ele>29</ele>
        <time>2017-10-10T14:28:09Z</time>
      </trkpt>
      <trkpt lat="49.36039" lon="1.34787">
        <ele>29</ele>
        <time>2017-10-10T14:28:24Z</time>
      </trkpt>
      <trkpt lat="49.36038" lon="1.34795">
        <ele>29</ele>
        <time>2017-10-10T14:28:25Z</time>
      </trkpt>
      <trkpt lat="49.36038" lon="1.34802">
        <ele>29</ele>
        <time>2017-10-10T14:28:25Z</time>
      </trkpt>
      <trkpt lat="49.36037" lon="1.34809">
        <ele>29</ele>
        <time>2017-10-10T14:28:25Z</time>
      </trkpt>
      <trkpt lat="49.36036" lon="1.34815">
        <ele>29</ele>
        <time>2017-10-10T14:28:40Z</time>
      </trkpt>
      <trkpt lat="49.36035" lon="1.34822">
        <ele>29</ele>
        <time>2017-10-10T14:28:41Z</time>
      </trkpt>
      <trkpt lat="49.36034" lon="1.34831">
        <ele>29</ele>
        <time>2017-10-10T14:28:41Z</time>
      </trkpt>
      <trkpt lat="49.36033" lon="1.34837">
        <ele>29</ele>
        <time>2017-10-10T14:28:41Z</time>
      </trkpt>
      <trkpt lat="49.36032" lon="1.34844">
        <ele>29</ele>
        <time>2017-10-10T14:28:56Z</time>
      </trkpt>
      <trkpt lat="49.36031" lon="1.34854">
        <ele>29</ele>
        <time>2017-10-10T14:28:57Z</time>
      </trkpt>
      <trkpt lat="49.3603" lon="1.34861">
        <ele>29</ele>
        <time>2017-10-10T14:28:57Z</time>
      </trkpt>
      <trkpt lat="49.3603" lon="1.34866">
        <ele>29</ele>
        <time>2017-10-10T14:28:57Z</time>
      </trkpt>
      <trkpt lat="49.36029" lon="1.34874">
        <ele>29</ele>
        <time>2017-10-10T14:29:12Z</time>
      </trkpt>
      <trkpt lat="49.36027" lon="1.34882">
        <ele>32</ele>
        <time>2017-10-10T14:29:13Z</time>
      </trkpt>
      <trkpt lat="49.36026" lon="1.34889">
        <ele>32</ele>
        <time>2017-10-10T14:29:13Z</time>
      </trkpt>
      <trkpt lat="49.36025" lon="1.34895">
        <ele>32</ele>
        <time>2017-10-10T14:29:13Z</time>
      </trkpt>
      <trkpt lat="49.36024" lon="1.34903">
        <ele>32</ele>
        <time>2017-10-10T14:29:28Z</time>
      </trkpt>
      <trkpt lat="49.36022" lon="1.3491">
        <ele>32</ele>
        <time>2017-10-10T14:29:29Z</time>
      </trkpt>
      <trkpt lat="49.36021" lon="1.34918">
        <ele>32</ele>
        <time>2017-10-10T14:29:29Z</time>
      </trkpt>
      <trkpt lat="49.3602" lon="1.34924">
        <ele>32</ele>
        <time>2017-10-10T14:29:29Z</time>
      </trkpt>
      <trkpt lat="49.36019" lon="1.34931">
        <ele>32</ele>
        <time>2017-10-10T14:29:44Z</time>
      </trkpt>
      <trkpt lat="49.36019" lon="1.34938">
        <ele>32</ele>
        <time>2017-10-10T14:29:45Z</time>
      </trkpt>
      <trkpt lat="49.36018" lon="1.34944">
        <ele>32</ele>
        <time>2017-10-10T14:29:45Z</time>
      </trkpt>
      <trkpt lat="49.36018" lon="1.34951">
        <ele>32</ele>
        <time>2017-10-10T14:29:45Z</time>
      </trkpt>
      <trkpt lat="49.36017" lon="1.34958">
        <ele>32</ele>
        <time>2017-10-10T14:30:00Z</time>
      </trkpt>
      <trkpt lat="49.36016" lon="1.34963">
        <ele>32</ele>
        <time>2017-10-10T14:30:01Z</time>
      </trkpt>
      <trkpt lat="49.36015" lon="1.34972">
        <ele>32</ele>
        <time>2017-10-10T14:30:01Z</time>
      </trkpt>
      <trkpt lat="49.36014" lon="1.34979">
        <ele>32</ele>
        <time>2017-10-10T14:30:01Z</time>
      </trkpt>
      <trkpt lat="49.36014" lon="1.34986">
        <ele>32</ele>
        <time>2017-10-10T14:30:16Z</time>
      </trkpt>
      <trkpt lat="49.36014" lon="1.34994">
        <ele>32</ele>
        <time>2017-10-10T14:30:17Z</time>
      </trkpt>
      <trkpt lat="49.36016" lon="1.35001">
        <ele>32</ele>
        <time>2017-10-10T14:30:17Z</time>
      </trkpt>
      <trkpt lat="49.36016" lon="1.35009">
        <ele>32</ele>
        <time>2017-10-10T14:30:17Z</time>
      </trkpt>
      <trkpt lat="49.36015" lon="1.35016">
        <ele>32</ele>
        <time>2017-10-10T14:30:32Z</time>
      </trkpt>
      <trkpt lat="49.36014" lon="1.35023">
        <ele>32</ele>
        <time>2017-10-10T14:30:33Z</time>
      </trkpt>
      <trkpt lat="49.36013" lon="1.3503">
        <ele>32</ele>
        <time>2017-10-10T14:30:33Z</time>
      </trkpt>
      <trkpt lat="49.36012" lon="1.35037">
        <ele>32</ele>
        <time>2017-10-10T14:30:33Z</time>
      </trkpt>
      <trkpt lat="49.3601" lon="1.35044">
        <ele>30</ele>
        <time>2017-10-10T14:30:48Z</time>
      </trkpt>
      <trkpt lat="49.36009" lon="1.35049">
        <ele>30</ele>
        <time>2017-10-10T14:30:49Z</time>
      </trkpt>
      <trkpt lat="49.36007" lon="1.35057">
        <ele>30</ele>
        <time>2017-10-10T14:30:49Z</time>
      </trkpt>
      <trkpt lat="49.36005" lon="1.35064">
        <ele>30</ele>
        <time>2017-10-10T14:30:49Z</time>
      </trkpt>
      <trkpt lat="49.36004" lon="1.35069">
        <ele>30</ele>
        <time>2017-10-10T14:31:04Z</time>
      </trkpt>
      <trkpt lat="49.36003" lon="1.35077">
        <ele>30</ele>
        <time>2017-10-10T14:31:05Z</time>
      </trkpt>
      <trkpt lat="49.36003" lon="1.35086">
        <ele>30</ele>
        <time>2017-10-10T14:31:05Z</time>
      </trkpt>
      <trkpt lat="49.36002" lon="1.35094">
        <ele>30</ele>
        <time>2017-10-10T14:31:05Z</time>
      </trkpt>
      <trkpt lat="49.36002" lon="1.35099">
        <ele>30</ele>
        <time>2017-10-10T14:31:20Z</time>
      </trkpt>
      <trkpt lat="49.36001" lon="1.35106">
        <ele>30</ele>
        <time>2017-10-10T14:31:21Z</time>
      </trkpt>
      <trkpt lat="49.36" lon="1.35116">
        <ele>30</ele>
        <time>2017-10-10T14:31:21Z</time>
      </trkpt>
      <trkpt lat="49.36" lon="1.35123">
        <ele>30</ele>
        <time>2017-10-10T14:31:21Z</time>
      </trkpt>
      <trkpt lat="49.35999" lon="1.3513">
        <ele>29</ele>
        <time>2017-10-10T14:31:36Z</time>
      </trkpt>
      <trkpt lat="49.35998" lon="1.35138">
        <ele>29</ele>
        <time>2017-10-10T14:31:37Z</time>
      </trkpt>
      <trkpt lat="49.35997" lon="1.35145">
        <ele>29</ele>
        <time>2017-10-10T14:31:37Z</time>
      </trkpt>
      <trkpt lat="49.35997" lon="1.35153">
        <ele>29</ele>
        <time>2017-10-10T14:31:37Z</time>
      </trkpt>
      <trkpt lat="49.35995" lon="1.35158">
        <ele>29</ele>
        <time>2017-10-10T14:31:52Z</time>
      </trkpt>
      <trkpt lat="49.35995" lon="1.35165">
        <ele>29</ele>
        <time>2017-10-10T14:31:53Z</time>
      </trkpt>
      <trkpt lat="49.35995" lon="1.35174">
        <ele>29</ele>
        <time>2017-10-10T14:31:53Z</time>
      </trkpt>
      <trkpt lat="49.35995" lon="1.3518">
        <ele>29</ele>
        <time>2017-10-10T14:31:53Z</time>
      </trkpt>
      <trkpt lat="49.35994" lon="1.3519">
        <ele>29</ele>
        <time>2017-10-10T14:32:08Z</time>
      </trkpt>
      <trkpt lat="49.35993" lon="1.35195">
        <ele>29</ele>
        <time>2017-10-10T14:32:09Z</time>
      </trkpt>
      <trkpt lat="49.35991" lon="1.35204">
        <ele>29</ele>
        <time>2017-10-10T14:32:09Z</time>
      </trkpt>
      <trkpt lat="49.3599" lon="1.35211">
        <ele>28</ele>
        <time>2017-10-10T14:32:09Z</time>
      </trkpt>
      <trkpt lat="49.35989" lon="1.35218">
        <ele>28</ele>
        <time>2017-10-10T14:32:24Z</time>
      </trkpt>
      <trkpt lat="49.35988" lon="1.35226">
        <ele>28</ele>
        <time>2017-10-10T14:32:25Z</time>
      </trkpt>
      <trkpt lat="49.35987" lon="1.35233">
        <ele>28</ele>
        <time>2017-10-10T14:32:25Z</time>
      </trkpt>
      <trkpt lat="49.35987" lon="1.3524">
        <ele>28</ele>
        <time>2017-10-10T14:32:25Z</time>
      </trkpt>
      <trkpt lat="49.35985" lon="1.35247">
        <ele>28</ele>
        <time>2017-10-10T14:32:40Z</time>
      </trkpt>
      <trkpt lat="49.35984" lon="1.35254">
        <ele>28</ele>
        <time>2017-10-10T14:32:41Z</time>
      </trkpt>
      <trkpt lat="49.35983" lon="1.35261">
        <ele>28</ele>
        <time>2017-10-10T14:32:41Z</time>
      </trkpt>
      <trkpt lat="49.35983" lon="1.35269">
        <ele>28</ele>
        <time>2017-10-10T14:32:41Z</time>
      </trkpt>
      <trkpt lat="49.35982" lon="1.35275">
        <ele>28</ele>
        <time>2017-10-10T14:32:56Z</time>
      </trkpt>
      <trkpt lat="49.35981" lon="1.35281">
        <ele>28</ele>
        <time>2017-10-10T14:32:57Z</time>
      </trkpt>
      <trkpt lat="49.3598" lon="1.35289">
        <ele>28</ele>
        <time>2017-10-10T14:32:57Z</time>
      </trkpt>
      <trkpt lat="49.3598" lon="1.35296">
        <ele>29</ele>
        <time>2017-10-10T14:32:57Z</time>
      </trkpt>
      <trkpt lat="49.35979" lon="1.35302">
        <ele>29</ele>
        <time>2017-10-10T14:33:12Z</time>
      </trkpt>
      <trkpt lat="49.35978" lon="1.35309">
        <ele>29</ele>
        <time>2017-10-10T14:33:13Z</time>
      </trkpt>
      <trkpt lat="49.35977" lon="1.35316">
        <ele>29</ele>
        <time>2017-10-10T14:33:13Z</time>
      </trkpt>
      <trkpt lat="49.35976" lon="1.35322">
        <ele>29</ele>
        <time>2017-10-10T14:33:13Z</time>
      </trkpt>
      <trkpt lat="49.35976" lon="1.35329">
        <ele>29</ele>
        <time>2017-10-10T14:33:28Z</time>
      </trkpt>
      <trkpt lat="49.35975" lon="1.35335">
        <ele>29</ele>
        <time>2017-10-10T14:33:29Z</time>
      </trkpt>
      <trkpt lat="49.35977" lon="1.35339">
        <ele>29</ele>
        <time>2017-10-10T14:33:29Z</time>
      </trkpt>
      <trkpt lat="49.35979" lon="1.35345">
        <ele>29</ele>
        <time>2017-10-10T14:33:29Z</time>
      </trkpt>
      <trkpt lat="49.35979" lon="1.35353">
        <ele>29</ele>
        <time>2017-10-10T14:33:44Z</time>
      </trkpt>
      <trkpt lat="49.35981" lon="1.3536">
        <ele>29</ele>
        <time>2017-10-10T14:33:45Z</time>
      </trkpt>
      <trkpt lat="49.35983" lon="1.35367">
        <ele>29</ele>
        <time>2017-10-10T14:33:45Z</time>
      </trkpt>
      <trkpt lat="49.35986" lon="1.35374">
        <ele>29</ele>
        <time>2017-10-10T14:33:45Z</time>
      </trkpt>
      <trkpt lat="49.35989" lon="1.35377">
        <ele>30</ele>
        <time>2017-10-10T14:34:00Z</time>
      </trkpt>
      <trkpt lat="49.35991" lon="1.35386">
        <ele>30</ele>
        <time>2017-10-10T14:34:01Z</time>
      </trkpt>
      <trkpt lat="49.35992" lon="1.35393">
        <ele>30</ele>
        <time>2017-10-10T14:34:01Z</time>
      </trkpt>
      <trkpt lat="49.35991" lon="1.35399">
        <ele>30</ele>
        <time>2017-10-10T14:34:01Z</time>
      </trkpt>
      <trkpt lat="49.35992" lon="1.35407">
        <ele>30</ele>
        <time>2017-10-10T14:34:16Z</time>
      </trkpt>
      <trkpt lat="49.35993" lon="1.35414">
        <ele>30</ele>
        <time>2017-10-10T14:34:17Z</time>
      </trkpt>
      <trkpt lat="49.35996" lon="1.35422">
        <ele>30</ele>
        <time>2017-10-10T14:34:17Z</time>
      </trkpt>
      <trkpt lat="49.35998" lon="1.35427">
        <ele>30</ele>
        <time>2017-10-10T14:34:17Z</time>
      </trkpt>
      <trkpt lat="49.35999" lon="1.35435">
        <ele>30</ele>
        <time>2017-10-10T14:34:32Z</time>
      </trkpt>
      <trkpt lat="49.36" lon="1.3544">
        <ele>30</ele>
        <time>2017-10-10T14:34:33Z</time>
      </trkpt>
      <trkpt lat="49.36001" lon="1.35447">
        <ele>30</ele>
        <time>2017-10-10T14:34:33Z</time>
      </trkpt>
      <trkpt lat="49.36004" lon="1.35454">
        <ele>30</ele>
        <time>2017-10-10T14:34:33Z</time>
      </trkpt>
      <trkpt lat="49.36005" lon="1.3546">
        <ele>28</ele>
        <time>2017-10-10T14:34:48Z</time>
      </trkpt>
      <trkpt lat="49.36007" lon="1.35467">
        <ele>28</ele>
        <time>2017-10-10T14:34:49Z</time>
      </trkpt>
      <trkpt lat="49.36009" lon="1.35473">
        <ele>28</ele>
        <time>2017-10-10T14:34:49Z</time>
      </trkpt>
      <trkpt lat="49.36011" lon="1.3548">
        <ele>28</ele>
        <time>2017-10-10T14:34:49Z</time>
      </trkpt>
      <trkpt lat="49.36012" lon="1.35487">
        <ele>28</ele>
        <time>2017-10-10T14:35:04Z</time>
      </trkpt>
      <trkpt lat="49.36013" lon="1.35492">
        <ele>28</ele>
        <time>2017-10-10T14:35:05Z</time>
      </trkpt>
      <trkpt lat="49.36014" lon="1.35498">
        <ele>28</ele>
        <time>2017-10-10T14:35:05Z</time>
      </trkpt>
      <trkpt lat="49.36016" lon="1.35508">
        <ele>28</ele>
        <time>2017-10-10T14:35:05Z</time>
      </trkpt>
      <trkpt lat="49.36018" lon="1.35513">
        <ele>28</ele>
        <time>2017-10-10T14:35:20Z</time>
      </trkpt>
      <trkpt lat="49.3602" lon="1.35519">
        <ele>28</ele>
        <time>2017-10-10T14:35:21Z</time>
      </trkpt>
      <trkpt lat="49.36023" lon="1.35526">
        <ele>28</ele>
        <time>2017-10-10T14:35:21Z</time>
      </trkpt>
      <trkpt lat="49.36025" lon="1.3553">
        <ele>28</ele>
        <time>2017-10-10T14:35:21Z</time>
      </trkpt>
      <trkpt lat="49.36027" lon="1.35535">
        <ele>28</ele>
        <time>2017-10-10T14:35:36Z</time>
      </trkpt>
      <trkpt lat="49.36029" lon="1.35541">
        <ele>28</ele>
        <time>2017-10-10T14:35:37Z</time>
      </trkpt>
      <trkpt lat="49.36032" lon="1.35546">
        <ele>29</ele>
        <time>2017-10-10T14:35:37Z</time>
      </trkpt>
      <trkpt lat="49.36033" lon="1.35554">
        <ele>29</ele>
        <time>2017-10-10T14:35:37Z</time>
      </trkpt>
      <trkpt lat="49.36034" lon="1.35561">
        <ele>29</ele>
        <time>2017-10-10T14:35:52Z</time>
      </trkpt>
      <trkpt lat="49.36036" lon="1.35563">
        <ele>29</ele>
        <time>2017-10-10T14:35:53Z</time>
      </trkpt>
      <trkpt lat="49.36038" lon="1.35571">
        <ele>29</ele>
        <time>2017-10-10T14:35:53Z</time>
      </trkpt>
      <trkpt lat="49.3604" lon="1.35577">
        <ele>29</ele>
        <time>2017-10-10T14:35:53Z</time>
      </trkpt>
      <trkpt lat="49.36043" lon="1.35596">
        <ele>30</ele>
        <time>2017-10-10T14:36:24Z</time>
      </trkpt>
      <trkpt lat="49.36039" lon="1.35601">
        <ele>29</ele>
        <time>2017-10-10T14:36:25Z</time>
      </trkpt>
      <trkpt lat="49.36037" lon="1.35605">
        <ele>29</ele>
        <time>2017-10-10T14:36:25Z</time>
      </trkpt>
      <trkpt lat="49.36032" lon="1.3561">
        <ele>29</ele>
        <time>2017-10-10T14:36:25Z</time>
      </trkpt>
      <trkpt lat="49.36029" lon="1.35613">
        <ele>29</ele>
        <time>2017-10-10T14:36:25Z</time>
      </trkpt>
      <trkpt lat="49.36025" lon="1.35615">
        <ele>29</ele>
        <time>2017-10-10T14:36:40Z</time>
      </trkpt>
      <trkpt lat="49.36021" lon="1.35619">
        <ele>29</ele>
        <time>2017-10-10T14:36:41Z</time>
      </trkpt>
      <trkpt lat="49.36016" lon="1.35624">
        <ele>29</ele>
        <time>2017-10-10T14:36:41Z</time>
      </trkpt>
      <trkpt lat="49.36014" lon="1.35628">
        <ele>30</ele>
        <time>2017-10-10T14:36:41Z</time>
      </trkpt>
      <trkpt lat="49.36006" lon="1.35637">
        <ele>30</ele>
        <time>2017-10-10T14:38:44Z</time>
      </trkpt>
      <trkpt lat="49.36006" lon="1.35637">
        <ele>30</ele>
        <time>2017-10-10T14:38:45Z</time>
      </trkpt>
      <trkpt lat="49.36005" lon="1.35636">
        <ele>30</ele>
        <time>2017-10-10T14:38:45Z</time>
      </trkpt>
      <trkpt lat="49.36004" lon="1.35636">
        <ele>30</ele>
        <time>2017-10-10T14:38:45Z</time>
      </trkpt>
      <trkpt lat="49.36001" lon="1.35637">
        <ele>30</ele>
        <time>2017-10-10T14:38:45Z</time>
      </trkpt>
      <trkpt lat="49.35997" lon="1.35639">
        <ele>30</ele>
        <time>2017-10-10T14:39:00Z</time>
      </trkpt>
      <trkpt lat="49.35994" lon="1.3564">
        <ele>30</ele>
        <time>2017-10-10T14:39:01Z</time>
      </trkpt>
      <trkpt lat="49.3599" lon="1.35643">
        <ele>30</ele>
        <time>2017-10-10T14:39:01Z</time>
      </trkpt>
      <trkpt lat="49.35986" lon="1.35645">
        <ele>30</ele>
        <time>2017-10-10T14:39:01Z</time>
      </trkpt>
      <trkpt lat="49.35983" lon="1.35646">
        <ele>30</ele>
        <time>2017-10-10T14:39:16Z</time>
      </trkpt>
      <trkpt lat="49.35979" lon="1.35647">
        <ele>30</ele>
        <time>2017-10-10T14:39:17Z</time>
      </trkpt>
      <trkpt lat="49.35974" lon="1.35651">
        <ele>30</ele>
        <time>2017-10-10T14:39:17Z</time>
      </trkpt>
      <trkpt lat="49.3597" lon="1.35652">
        <ele>30</ele>
        <time>2017-10-10T14:39:17Z</time>
      </trkpt>
      <trkpt lat="49.35966" lon="1.35655">
        <ele>30</ele>
        <time>2017-10-10T14:39:32Z</time>
      </trkpt>
      <trkpt lat="49.35961" lon="1.35658">
        <ele>30</ele>
        <time>2017-10-10T14:39:33Z</time>
      </trkpt>
      <trkpt lat="49.35958" lon="1.3566">
        <ele>29</ele>
        <time>2017-10-10T14:39:33Z</time>
      </trkpt>
      <trkpt lat="49.35953" lon="1.35663">
        <ele>29</ele>
        <time>2017-10-10T14:39:33Z</time>
      </trkpt>
      <trkpt lat="49.35949" lon="1.35665">
        <ele>29</ele>
        <time>2017-10-10T14:39:48Z</time>
      </trkpt>
      <trkpt lat="49.35945" lon="1.35667">
        <ele>29</ele>
        <time>2017-10-10T14:39:49Z</time>
      </trkpt>
      <trkpt lat="49.35942" lon="1.3567">
        <ele>29</ele>
        <time>2017-10-10T14:39:49Z</time>
      </trkpt>
      <trkpt lat="49.35937" lon="1.35673">
        <ele>29</ele>
        <time>2017-10-10T14:39:49Z</time>
      </trkpt>
      <trkpt lat="49.3593" lon="1.35682">
        <ele>29</ele>
        <time>2017-10-10T14:40:17Z</time>
      </trkpt>
      <trkpt lat="49.3593" lon="1.35684">
        <ele>29</ele>
        <time>2017-10-10T14:40:17Z</time>
      </trkpt>
      <trkpt lat="49.35929" lon="1.35684">
        <ele>29</ele>
        <time>2017-10-10T14:40:17Z</time>
      </trkpt>
      <trkpt lat="49.35928" lon="1.35687">
        <ele>29</ele>
        <time>2017-10-10T14:40:17Z</time>
      </trkpt>
      <trkpt lat="49.35928" lon="1.35692">
        <ele>29</ele>
        <time>2017-10-10T14:40:17Z</time>
      </trkpt>
      <trkpt lat="49.35929" lon="1.35701">
        <ele>29</ele>
        <time>2017-10-10T14:40:32Z</time>
      </trkpt>
      <trkpt lat="49.3593" lon="1.35706">
        <ele>29</ele>
        <time>2017-10-10T14:40:33Z</time>
      </trkpt>
      <trkpt lat="49.3593" lon="1.35712">
        <ele>29</ele>
        <time>2017-10-10T14:40:33Z</time>
      </trkpt>
      <trkpt lat="49.3593" lon="1.35719">
        <ele>29</ele>
        <time>2017-10-10T14:40:33Z</time>
      </trkpt>
      <trkpt lat="49.35931" lon="1.35728">
        <ele>29</ele>
        <time>2017-10-10T14:40:48Z</time>
      </trkpt>
      <trkpt lat="49.35933" lon="1.35733">
        <ele>29</ele>
        <time>2017-10-10T14:40:49Z</time>
      </trkpt>
      <trkpt lat="49.35933" lon="1.35739">
        <ele>29</ele>
        <time>2017-10-10T14:40:49Z</time>
      </trkpt>
      <trkpt lat="49.35933" lon="1.35748">
        <ele>29</ele>
        <time>2017-10-10T14:40:49Z</time>
      </trkpt>
      <trkpt lat="49.35933" lon="1.35756">
        <ele>29</ele>
        <time>2017-10-10T14:41:04Z</time>
      </trkpt>
      <trkpt lat="49.35931" lon="1.35763">
        <ele>29</ele>
        <time>2017-10-10T14:41:05Z</time>
      </trkpt>
      <trkpt lat="49.3593" lon="1.35768">
        <ele>29</ele>
        <time>2017-10-10T14:41:05Z</time>
      </trkpt>
      <trkpt lat="49.35928" lon="1.35775">
        <ele>29</ele>
        <time>2017-10-10T14:41:05Z</time>
      </trkpt>
      <trkpt lat="49.35925" lon="1.35782">
        <ele>29</ele>
        <time>2017-10-10T14:41:20Z</time>
      </trkpt>
      <trkpt lat="49.35923" lon="1.35785">
        <ele>29</ele>
        <time>2017-10-10T14:41:21Z</time>
      </trkpt>
      <trkpt lat="49.35921" lon="1.3579">
        <ele>29</ele>
        <time>2017-10-10T14:41:21Z</time>
      </trkpt>
      <trkpt lat="49.35919" lon="1.35796">
        <ele>29</ele>
        <time>2017-10-10T14:41:21Z</time>
      </trkpt>
      <trkpt lat="49.35918" lon="1.35804">
        <ele>29</ele>
        <time>2017-10-10T14:41:36Z</time>
      </trkpt>
      <trkpt lat="49.35917" lon="1.35811">
        <ele>29</ele>
        <time>2017-10-10T14:41:37Z</time>
      </trkpt>
      <trkpt lat="49.35917" lon="1.35816">
        <ele>29</ele>
        <time>2017-10-10T14:41:37Z</time>
      </trkpt>
      <trkpt lat="49.35917" lon="1.35822">
        <ele>29</ele>
        <time>2017-10-10T14:41:37Z</time>
      </trkpt>
      <trkpt lat="49.35914" lon="1.35827">
        <ele>29</ele>
        <time>2017-10-10T14:41:52Z</time>
      </trkpt>
      <trkpt lat="49.35911" lon="1.35829">
        <ele>29</ele>
        <time>2017-10-10T14:41:53Z</time>
      </trkpt>
      <trkpt lat="49.35907" lon="1.35832">
        <ele>29</ele>
        <time>2017-10-10T14:41:53Z</time>
      </trkpt>
      <trkpt lat="49.35903" lon="1.35836">
        <ele>29</ele>
        <time>2017-10-10T14:41:53Z</time>
      </trkpt>
      <trkpt lat="49.35898" lon="1.35841">
        <ele>29</ele>
        <time>2017-10-10T14:42:08Z</time>
      </trkpt>
      <trkpt lat="49.35895" lon="1.35845">
        <ele>29</ele>
        <time>2017-10-10T14:42:09Z</time>
      </trkpt>
      <trkpt lat="49.35891" lon="1.35848">
        <ele>29</ele>
        <time>2017-10-10T14:42:09Z</time>
      </trkpt>
      <trkpt lat="49.35887" lon="1.35851">
        <ele>29</ele>
        <time>2017-10-10T14:42:09Z</time>
      </trkpt>
      <trkpt lat="49.35884" lon="1.35854">
        <ele>29</ele>
        <time>2017-10-10T14:42:24Z</time>
      </trkpt>
      <trkpt lat="49.35881" lon="1.35856">
        <ele>29</ele>
        <time>2017-10-10T14:42:25Z</time>
      </trkpt>
      <trkpt lat="49.35876" lon="1.3586">
        <ele>29</ele>
        <time>2017-10-10T14:42:25Z</time>
      </trkpt>
      <trkpt lat="49.35871" lon="1.35863">
        <ele>28</ele>
        <time>2017-10-10T14:42:25Z</time>
      </trkpt>
      <trkpt lat="49.35868" lon="1.35866">
        <ele>28</ele>
        <time>2017-10-10T14:42:40Z</time>
      </trkpt>
      <trkpt lat="49.35864" lon="1.3587">
        <ele>28</ele>
        <time>2017-10-10T14:42:41Z</time>
      </trkpt>
      <trkpt lat="49.35861" lon="1.35873">
        <ele>28</ele>
        <time>2017-10-10T14:42:41Z</time>
      </trkpt>
      <trkpt lat="49.35857" lon="1.35877">
        <ele>29</ele>
        <time>2017-10-10T14:42:41Z</time>
      </trkpt>
      <trkpt lat="49.35852" lon="1.35881">
        <ele>29</ele>
        <time>2017-10-10T14:42:56Z</time>
      </trkpt>
      <trkpt lat="49.35848" lon="1.35884">
        <ele>29</ele>
        <time>2017-10-10T14:42:57Z</time>
      </trkpt>
      <trkpt lat="49.35845" lon="1.35886">
        <ele>29</ele>
        <time>2017-10-10T14:42:57Z</time>
      </trkpt>
      <trkpt lat="49.35841" lon="1.3589">
        <ele>29</ele>
        <time>2017-10-10T14:42:57Z</time>
      </trkpt>
      <trkpt lat="49.35836" lon="1.35895">
        <ele>29</ele>
        <time>2017-10-10T14:43:12Z</time>
      </trkpt>
      <trkpt lat="49.35833" lon="1.35897">
        <ele>29</ele>
        <time>2017-10-10T14:43:13Z</time>
      </trkpt>
      <trkpt lat="49.3583" lon="1.35899">
        <ele>29</ele>
        <time>2017-10-10T14:43:13Z</time>
      </trkpt>
      <trkpt lat="49.35826" lon="1.35904">
        <ele>29</ele>
        <time>2017-10-10T14:43:13Z</time>
      </trkpt>
      <trkpt lat="49.35822" lon="1.35907">
        <ele>29</ele>
        <time>2017-10-10T14:43:28Z</time>
      </trkpt>
      <trkpt lat="49.35819" lon="1.3591">
        <ele>29</ele>
        <time>2017-10-10T14:43:29Z</time>
      </trkpt>
      <trkpt lat="49.35815" lon="1.35914">
        <ele>29</ele>
        <time>2017-10-10T14:43:29Z</time>
      </trkpt>
      <trkpt lat="49.35811" lon="1.35916">
        <ele>29</ele>
        <time>2017-10-10T14:43:29Z</time>
      </trkpt>
      <trkpt lat="49.35806" lon="1.35921">
        <ele>29</ele>
        <time>2017-10-10T14:43:44Z</time>
      </trkpt>
      <trkpt lat="49.35803" lon="1.35923">
        <ele>29</ele>
        <time>2017-10-10T14:43:45Z</time>
      </trkpt>
      <trkpt lat="49.35799" lon="1.35927">
        <ele>29</ele>
        <time>2017-10-10T14:43:45Z</time>
      </trkpt>
      <trkpt lat="49.35796" lon="1.3593">
        <ele>29</ele>
        <time>2017-10-10T14:43:45Z</time>
      </trkpt>
      <trkpt lat="49.35792" lon="1.35934">
        <ele>29</ele>
        <time>2017-10-10T14:44:00Z</time>
      </trkpt>
      <trkpt lat="49.35789" lon="1.35938">
        <ele>30</ele>
        <time>2017-10-10T14:44:01Z</time>
      </trkpt>
      <trkpt lat="49.35786" lon="1.3594">
        <ele>30</ele>
        <time>2017-10-10T14:44:01Z</time>
      </trkpt>
      <trkpt lat="49.35782" lon="1.35944">
        <ele>30</ele>
        <time>2017-10-10T14:44:01Z</time>
      </trkpt>
      <trkpt lat="49.35778" lon="1.35948">
        <ele>30</ele>
        <time>2017-10-10T14:44:16Z</time>
      </trkpt>
      <trkpt lat="49.35775" lon="1.3595">
        <ele>30</ele>
        <time>2017-10-10T14:44:17Z</time>
      </trkpt>
      <trkpt lat="49.35771" lon="1.35955">
        <ele>30</ele>
        <time>2017-10-10T14:44:17Z</time>
      </trkpt>
      <trkpt lat="49.35768" lon="1.3596">
        <ele>36</ele>
        <time>2017-10-10T14:44:17Z</time>
      </trkpt>
      <trkpt lat="49.35763" lon="1.35966">
        <ele>36</ele>
        <time>2017-10-10T14:44:32Z</time>
      </trkpt>
      <trkpt lat="49.35761" lon="1.35971">
        <ele>36</ele>
        <time>2017-10-10T14:44:33Z</time>
      </trkpt>
      <trkpt lat="49.35758" lon="1.35978">
        <ele>36</ele>
        <time>2017-10-10T14:44:33Z</time>
      </trkpt>
      <trkpt lat="49.35756" lon="1.35983">
        <ele>36</ele>
        <time>2017-10-10T14:44:33Z</time>
      </trkpt>
      <trkpt lat="49.35754" lon="1.3599">
        <ele>36</ele>
        <time>2017-10-10T14:44:48Z</time>
      </trkpt>
      <trkpt lat="49.35752" lon="1.35995">
        <ele>36</ele>
        <time>2017-10-10T14:44:49Z</time>
      </trkpt>
      <trkpt lat="49.3575" lon="1.36002">
        <ele>36</ele>
        <time>2017-10-10T14:44:49Z</time>
      </trkpt>
      <trkpt lat="49.35749" lon="1.36009">
        <ele>36</ele>
        <time>2017-10-10T14:44:49Z</time>
      </trkpt>
      <trkpt lat="49.35748" lon="1.36017">
        <ele>36</ele>
        <time>2017-10-10T14:45:04Z</time>
      </trkpt>
      <trkpt lat="49.35747" lon="1.36024">
        <ele>36</ele>
        <time>2017-10-10T14:45:05Z</time>
      </trkpt>
      <trkpt lat="49.35747" lon="1.36031">
        <ele>36</ele>
        <time>2017-10-10T14:45:05Z</time>
      </trkpt>
      <trkpt lat="49.35746" lon="1.36038">
        <ele>36</ele>
        <time>2017-10-10T14:45:05Z</time>
      </trkpt>
      <trkpt lat="49.35744" lon="1.36046">
        <ele>40</ele>
        <time>2017-10-10T14:45:20Z</time>
      </trkpt>
      <trkpt lat="49.35743" lon="1.36053">
        <ele>40</ele>
        <time>2017-10-10T14:45:21Z</time>
      </trkpt>
      <trkpt lat="49.35742" lon="1.36058">
        <ele>40</ele>
        <time>2017-10-10T14:45:21Z</time>
      </trkpt>
      <trkpt lat="49.35741" lon="1.36065">
        <ele>40</ele>
        <time>2017-10-10T14:45:21Z</time>
      </trkpt>
      <trkpt lat="49.35738" lon="1.36073">
        <ele>40</ele>
        <time>2017-10-10T14:45:36Z</time>
      </trkpt>
      <trkpt lat="49.35736" lon="1.3608">
        <ele>40</ele>
        <time>2017-10-10T14:45:37Z</time>
      </trkpt>
      <trkpt lat="49.35737" lon="1.36088">
        <ele>40</ele>
        <time>2017-10-10T14:45:37Z</time>
      </trkpt>
      <trkpt lat="49.35739" lon="1.36095">
        <ele>40</ele>
        <time>2017-10-10T14:45:37Z</time>
      </trkpt>
      <trkpt lat="49.3574" lon="1.36101">
        <ele>40</ele>
        <time>2017-10-10T14:45:52Z</time>
      </trkpt>
      <trkpt lat="49.3574" lon="1.36104">
        <ele>40</ele>
        <time>2017-10-10T14:45:53Z</time>
      </trkpt>
      <trkpt lat="49.35743" lon="1.36109">
        <ele>40</ele>
        <time>2017-10-10T14:45:53Z</time>
      </trkpt>
      <trkpt lat="49.35752" lon="1.36111">
        <ele>40</ele>
        <time>2017-10-10T14:45:53Z</time>
      </trkpt>
      <trkpt lat="49.35754" lon="1.36117">
        <ele>40</ele>
        <time>2017-10-10T14:46:08Z</time>
      </trkpt>
      <trkpt lat="49.35752" lon="1.36129">
        <ele>41</ele>
        <time>2017-10-10T14:46:09Z</time>
      </trkpt>
      <trkpt lat="49.35753" lon="1.36139">
        <ele>41</ele>
        <time>2017-10-10T14:46:09Z</time>
      </trkpt>
      <trkpt lat="49.35754" lon="1.36145">
        <ele>41</ele>
        <time>2017-10-10T14:46:09Z</time>
      </trkpt>
      <trkpt lat="49.35752" lon="1.36155">
        <ele>41</ele>
        <time>2017-10-10T14:46:24Z</time>
      </trkpt>
      <trkpt lat="49.3575" lon="1.3616">
        <ele>41</ele>
        <time>2017-10-10T14:46:25Z</time>
      </trkpt>
      <trkpt lat="49.35744" lon="1.36164">
        <ele>41</ele>
        <time>2017-10-10T14:46:25Z</time>
      </trkpt>
      <trkpt lat="49.35742" lon="1.36167">
        <ele>41</ele>
        <time>2017-10-10T14:46:25Z</time>
      </trkpt>
      <trkpt lat="49.35737" lon="1.36171">
        <ele>41</ele>
        <time>2017-10-10T14:46:40Z</time>
      </trkpt>
      <trkpt lat="49.35734" lon="1.36175">
        <ele>41</ele>
        <time>2017-10-10T14:46:41Z</time>
      </trkpt>
      <trkpt lat="49.35732" lon="1.36179">
        <ele>41</ele>
        <time>2017-10-10T14:46:41Z</time>
      </trkpt>
      <trkpt lat="49.3573" lon="1.36185">
        <ele>41</ele>
        <time>2017-10-10T14:46:41Z</time>
      </trkpt>
      <trkpt lat="49.35727" lon="1.36192">
        <ele>41</ele>
        <time>2017-10-10T14:46:56Z</time>
      </trkpt>
      <trkpt lat="49.35727" lon="1.36196">
        <ele>41</ele>
        <time>2017-10-10T14:46:57Z</time>
      </trkpt>
      <trkpt lat="49.35725" lon="1.36202">
        <ele>41</ele>
        <time>2017-10-10T14:46:57Z</time>
      </trkpt>
      <trkpt lat="49.35724" lon="1.36209">
        <ele>41</ele>
        <time>2017-10-10T14:46:57Z</time>
      </trkpt>
      <trkpt lat="49.35723" lon="1.36214">
        <ele>41</ele>
        <time>2017-10-10T14:47:12Z</time>
      </trkpt>
      <trkpt lat="49.35722" lon="1.3622">
        <ele>41</ele>
        <time>2017-10-10T14:47:13Z</time>
      </trkpt>
      <trkpt lat="49.35721" lon="1.36227">
        <ele>41</ele>
        <time>2017-10-10T14:47:13Z</time>
      </trkpt>
      <trkpt lat="49.35723" lon="1.36234">
        <ele>41</ele>
        <time>2017-10-10T14:47:13Z</time>
      </trkpt>
      <trkpt lat="49.35724" lon="1.36241">
        <ele>41</ele>
        <time>2017-10-10T14:47:28Z</time>
      </trkpt>
      <trkpt lat="49.35726" lon="1.36246">
        <ele>41</ele>
        <time>2017-10-10T14:47:29Z</time>
      </trkpt>
      <trkpt lat="49.35729" lon="1.3625">
        <ele>41</ele>
        <time>2017-10-10T14:47:29Z</time>
      </trkpt>
      <trkpt lat="49.35733" lon="1.36253">
        <ele>41</ele>
        <time>2017-10-10T14:47:29Z</time>
      </trkpt>
      <trkpt lat="49.35735" lon="1.36257">
        <ele>41</ele>
        <time>2017-10-10T14:47:44Z</time>
      </trkpt>
      <trkpt lat="49.35738" lon="1.36264">
        <ele>41</ele>
        <time>2017-10-10T14:47:45Z</time>
      </trkpt>
      <trkpt lat="49.35739" lon="1.36269">
        <ele>41</ele>
        <time>2017-10-10T14:47:45Z</time>
      </trkpt>
      <trkpt lat="49.35741" lon="1.36276">
        <ele>41</ele>
        <time>2017-10-10T14:47:45Z</time>
      </trkpt>
      <trkpt lat="49.35742" lon="1.36282">
        <ele>41</ele>
        <time>2017-10-10T14:48:00Z</time>
      </trkpt>
      <trkpt lat="49.35744" lon="1.36291">
        <ele>41</ele>
        <time>2017-10-10T14:48:01Z</time>
      </trkpt>
      <trkpt lat="49.35744" lon="1.36296">
        <ele>40</ele>
        <time>2017-10-10T14:48:01Z</time>
      </trkpt>
      <trkpt lat="49.35745" lon="1.36303">
        <ele>40</ele>
        <time>2017-10-10T14:48:01Z</time>
      </trkpt>
      <trkpt lat="49.35746" lon="1.3631">
        <ele>40</ele>
        <time>2017-10-10T14:48:16Z</time>
      </trkpt>
      <trkpt lat="49.35747" lon="1.36319">
        <ele>40</ele>
        <time>2017-10-10T14:48:17Z</time>
      </trkpt>
      <trkpt lat="49.35749" lon="1.36326">
        <ele>40</ele>
        <time>2017-10-10T14:48:17Z</time>
      </trkpt>
      <trkpt lat="49.3575" lon="1.36331">
        <ele>40</ele>
        <time>2017-10-10T14:48:17Z</time>
      </trkpt>
      <trkpt lat="49.35752" lon="1.36338">
        <ele>40</ele>
        <time>2017-10-10T14:48:32Z</time>
      </trkpt>
      <trkpt lat="49.35755" lon="1.36346">
        <ele>40</ele>
        <time>2017-10-10T14:48:33Z</time>
      </trkpt>
      <trkpt lat="49.35757" lon="1.36352">
        <ele>40</ele>
        <time>2017-10-10T14:48:33Z</time>
      </trkpt>
      <trkpt lat="49.35759" lon="1.36357">
        <ele>40</ele>
        <time>2017-10-10T14:48:33Z</time>
      </trkpt>
      <trkpt lat="49.35763" lon="1.36364">
        <ele>40</ele>
        <time>2017-10-10T14:48:48Z</time>
      </trkpt>
      <trkpt lat="49.35766" lon="1.3637">
        <ele>40</ele>
        <time>2017-10-10T14:48:49Z</time>
      </trkpt>
      <trkpt lat="49.35769" lon="1.36375">
        <ele>44</ele>
        <time>2017-10-10T14:48:49Z</time>
      </trkpt>
      <trkpt lat="49.35773" lon="1.3638">
        <ele>44</ele>
        <time>2017-10-10T14:48:49Z</time>
      </trkpt>
      <trkpt lat="49.35775" lon="1.36385">
        <ele>44</ele>
        <time>2017-10-10T14:49:04Z</time>
      </trkpt>
      <trkpt lat="49.35779" lon="1.36392">
        <ele>44</ele>
        <time>2017-10-10T14:49:05Z</time>
      </trkpt>
      <trkpt lat="49.35781" lon="1.36396">
        <ele>44</ele>
        <time>2017-10-10T14:49:05Z</time>
      </trkpt>
      <trkpt lat="49.35784" lon="1.36401">
        <ele>44</ele>
        <time>2017-10-10T14:49:05Z</time>
      </trkpt>
      <trkpt lat="49.35787" lon="1.36407">
        <ele>44</ele>
        <time>2017-10-10T14:49:20Z</time>
      </trkpt>
      <trkpt lat="49.35791" lon="1.36414">
        <ele>44</ele>
        <time>2017-10-10T14:49:21Z</time>
      </trkpt>
      <trkpt lat="49.35794" lon="1.36418">
        <ele>33</ele>
        <time>2017-10-10T14:49:21Z</time>
      </trkpt>
      <trkpt lat="49.35797" lon="1.36424">
        <ele>33</ele>
        <time>2017-10-10T14:49:21Z</time>
      </trkpt>
      <trkpt lat="49.358" lon="1.3643">
        <ele>33</ele>
        <time>2017-10-10T14:49:36Z</time>
      </trkpt>
      <trkpt lat="49.35804" lon="1.36436">
        <ele>33</ele>
        <time>2017-10-10T14:49:37Z</time>
      </trkpt>
      <trkpt lat="49.35806" lon="1.3644">
        <ele>33</ele>
        <time>2017-10-10T14:49:37Z</time>
      </trkpt>
      <trkpt lat="49.35809" lon="1.36445">
        <ele>33</ele>
        <time>2017-10-10T14:49:37Z</time>
      </trkpt>
      <trkpt lat="49.35813" lon="1.36452">
        <ele>33</ele>
        <time>2017-10-10T14:49:52Z</time>
      </trkpt>
      <trkpt lat="49.35815" lon="1.36456">
        <ele>33</ele>
        <time>2017-10-10T14:49:53Z</time>
      </trkpt>
      <trkpt lat="49.35818" lon="1.36461">
        <ele>36</ele>
        <time>2017-10-10T14:49:53Z</time>
      </trkpt>
      <trkpt lat="49.35821" lon="1.36467">
        <ele>36</ele>
        <time>2017-10-10T14:49:53Z</time>
      </trkpt>
      <trkpt lat="49.35825" lon="1.36474">
        <ele>36</ele>
        <time>2017-10-10T14:50:08Z</time>
      </trkpt>
      <trkpt lat="49.35828" lon="1.36478">
        <ele>36</ele>
        <time>2017-10-10T14:50:09Z</time>
      </trkpt>
      <trkpt lat="49.35831" lon="1.36484">
        <ele>36</ele>
        <time>2017-10-10T14:50:09Z</time>
      </trkpt>
      <trkpt lat="49.35834" lon="1.3649">
        <ele>36</ele>
        <time>2017-10-10T14:50:09Z</time>
      </trkpt>
      <trkpt lat="49.35838" lon="1.36497">
        <ele>36</ele>
        <time>2017-10-10T14:50:24Z</time>
      </trkpt>
      <trkpt lat="49.35841" lon="1.36502">
        <ele>36</ele>
        <time>2017-10-10T14:50:25Z</time>
      </trkpt>
      <trkpt lat="49.35844" lon="1.36508">
        <ele>36</ele>
        <time>2017-10-10T14:50:25Z</time>
      </trkpt>
      <trkpt lat="49.35846" lon="1.36512">
        <ele>36</ele>
        <time>2017-10-10T14:50:25Z</time>
      </trkpt>
      <trkpt lat="49.3585" lon="1.36519">
        <ele>36</ele>
        <time>2017-10-10T14:50:40Z</time>
      </trkpt>
      <trkpt lat="49.35853" lon="1.36525">
        <ele>36</ele>
        <time>2017-10-10T14:50:41Z</time>
      </trkpt>
      <trkpt lat="49.35854" lon="1.3653">
        <ele>36</ele>
        <time>2017-10-10T14:50:41Z</time>
      </trkpt>
      <trkpt lat="49.35856" lon="1.36535">
        <ele>36</ele>
        <time>2017-10-10T14:50:41Z</time>
      </trkpt>
      <trkpt lat="49.35859" lon="1.36542">
        <ele>36</ele>
        <time>2017-10-10T14:50:56Z</time>
      </trkpt>
      <trkpt lat="49.3586" lon="1.36547">
        <ele>41</ele>
        <time>2017-10-10T14:50:57Z</time>
      </trkpt>
      <trkpt lat="49.35861" lon="1.3655">
        <ele>41</ele>
        <time>2017-10-10T14:50:57Z</time>
      </trkpt>
      <trkpt lat="49.35863" lon="1.36555">
        <ele>41</ele>
        <time>2017-10-10T14:50:57Z</time>
      </trkpt>
      <trkpt lat="49.35866" lon="1.36561">
        <ele>41</ele>
        <time>2017-10-10T14:51:12Z</time>
      </trkpt>
      <trkpt lat="49.35866" lon="1.36567">
        <ele>41</ele>
        <time>2017-10-10T14:51:13Z</time>
      </trkpt>
      <trkpt lat="49.35865" lon="1.36572">
        <ele>41</ele>
        <time>2017-10-10T14:51:13Z</time>
      </trkpt>
      <trkpt lat="49.35864" lon="1.36578">
        <ele>41</ele>
        <time>2017-10-10T14:51:13Z</time>
      </trkpt>
      <trkpt lat="49.35865" lon="1.36578">
        <ele>41</ele>
        <time>2017-10-10T14:51:44Z</time>
      </trkpt>
      <trkpt lat="49.35864" lon="1.36579">
        <ele>41</ele>
        <time>2017-10-10T14:51:45Z</time>
      </trkpt>
      <trkpt lat="49.35864" lon="1.36582">
        <ele>41</ele>
        <time>2017-10-10T14:51:45Z</time>
      </trkpt>
      <trkpt lat="49.35865" lon="1.36587">
        <ele>41</ele>
        <time>2017-10-10T14:51:45Z</time>
      </trkpt>
      <trkpt lat="49.35867" lon="1.36593">
        <ele>41</ele>
        <time>2017-10-10T14:51:45Z</time>
      </trkpt>
      <trkpt lat="49.3587" lon="1.366">
        <ele>41</ele>
        <time>2017-10-10T14:52:00Z</time>
      </trkpt>
      <trkpt lat="49.35873" lon="1.36606">
        <ele>41</ele>
        <time>2017-10-10T14:52:01Z</time>
      </trkpt>
      <trkpt lat="49.35876" lon="1.36611">
        <ele>33</ele>
        <time>2017-10-10T14:52:01Z</time>
      </trkpt>
      <trkpt lat="49.35878" lon="1.36616">
        <ele>33</ele>
        <time>2017-10-10T14:52:01Z</time>
      </trkpt>
      <trkpt lat="49.35882" lon="1.36622">
        <ele>33</ele>
        <time>2017-10-10T14:52:16Z</time>
      </trkpt>
      <trkpt lat="49.35886" lon="1.36627">
        <ele>38</ele>
        <time>2017-10-10T14:52:17Z</time>
      </trkpt>
      <trkpt lat="49.35888" lon="1.36631">
        <ele>38</ele>
        <time>2017-10-10T14:52:17Z</time>
      </trkpt>
      <trkpt lat="49.35891" lon="1.36637">
        <ele>38</ele>
        <time>2017-10-10T14:52:17Z</time>
      </trkpt>
      <trkpt lat="49.35894" lon="1.36644">
        <ele>38</ele>
        <time>2017-10-10T14:52:32Z</time>
      </trkpt>
      <trkpt lat="49.35897" lon="1.3665">
        <ele>38</ele>
        <time>2017-10-10T14:52:33Z</time>
      </trkpt>
      <trkpt lat="49.35899" lon="1.36654">
        <ele>38</ele>
        <time>2017-10-10T14:52:33Z</time>
      </trkpt>
      <trkpt lat="49.35902" lon="1.36659">
        <ele>38</ele>
        <time>2017-10-10T14:52:33Z</time>
      </trkpt>
      <trkpt lat="49.35906" lon="1.36666">
        <ele>38</ele>
        <time>2017-10-10T14:52:48Z</time>
      </trkpt>
      <trkpt lat="49.35908" lon="1.3667">
        <ele>38</ele>
        <time>2017-10-10T14:52:49Z</time>
      </trkpt>
      <trkpt lat="49.35911" lon="1.36677">
        <ele>38</ele>
        <time>2017-10-10T14:52:49Z</time>
      </trkpt>
      <trkpt lat="49.35912" lon="1.36682">
        <ele>38</ele>
        <time>2017-10-10T14:52:49Z</time>
      </trkpt>
      <trkpt lat="49.35914" lon="1.3669">
        <ele>38</ele>
        <time>2017-10-10T14:53:04Z</time>
      </trkpt>
      <trkpt lat="49.35913" lon="1.36694">
        <ele>38</ele>
        <time>2017-10-10T14:53:05Z</time>
      </trkpt>
      <trkpt lat="49.3591" lon="1.36698">
        <ele>38</ele>
        <time>2017-10-10T14:53:05Z</time>
      </trkpt>
      <trkpt lat="49.35906" lon="1.36702">
        <ele>38</ele>
        <time>2017-10-10T14:53:05Z</time>
      </trkpt>
      <trkpt lat="49.35903" lon="1.36706">
        <ele>38</ele>
        <time>2017-10-10T14:53:20Z</time>
      </trkpt>
      <trkpt lat="49.35901" lon="1.3671">
        <ele>43</ele>
        <time>2017-10-10T14:53:21Z</time>
      </trkpt>
      <trkpt lat="49.35899" lon="1.36713">
        <ele>43</ele>
        <time>2017-10-10T14:53:21Z</time>
      </trkpt>
      <trkpt lat="49.35896" lon="1.36717">
        <ele>43</ele>
        <time>2017-10-10T14:53:21Z</time>
      </trkpt>
      <trkpt lat="49.35893" lon="1.3672">
        <ele>43</ele>
        <time>2017-10-10T14:53:36Z</time>
      </trkpt>
      <trkpt lat="49.35891" lon="1.36724">
        <ele>43</ele>
        <time>2017-10-10T14:53:37Z</time>
      </trkpt>
      <trkpt lat="49.35888" lon="1.36727">
        <ele>43</ele>
        <time>2017-10-10T14:53:37Z</time>
      </trkpt>
      <trkpt lat="49.35887" lon="1.3673">
        <ele>43</ele>
        <time>2017-10-10T14:53:37Z</time>
      </trkpt>
      <trkpt lat="49.35887" lon="1.36736">
        <ele>43</ele>
        <time>2017-10-10T14:53:56Z</time>
      </trkpt>
      <trkpt lat="49.35889" lon="1.3674">
        <ele>43</ele>
        <time>2017-10-10T14:53:57Z</time>
      </trkpt>
      <trkpt lat="49.3589" lon="1.36743">
        <ele>43</ele>
        <time>2017-10-10T14:53:57Z</time>
      </trkpt>
      <trkpt lat="49.35892" lon="1.36746">
        <ele>43</ele>
        <time>2017-10-10T14:53:57Z</time>
      </trkpt>
      <trkpt lat="49.35895" lon="1.36751">
        <ele>43</ele>
        <time>2017-10-10T14:53:57Z</time>
      </trkpt>
      <trkpt lat="49.35896" lon="1.36754">
        <ele>43</ele>
        <time>2017-10-10T14:54:12Z</time>
      </trkpt>
      <trkpt lat="49.35898" lon="1.36758">
        <ele>43</ele>
        <time>2017-10-10T14:54:13Z</time>
      </trkpt>
      <trkpt lat="49.35901" lon="1.36763">
        <ele>43</ele>
        <time>2017-10-10T14:54:13Z</time>
      </trkpt>
      <trkpt lat="49.35904" lon="1.36769">
        <ele>43</ele>
        <time>2017-10-10T14:54:13Z</time>
      </trkpt>
      <trkpt lat="49.35906" lon="1.36773">
        <ele>43</ele>
        <time>2017-10-10T14:54:28Z</time>
      </trkpt>
      <trkpt lat="49.35908" lon="1.36778">
        <ele>43</ele>
        <time>2017-10-10T14:54:29Z</time>
      </trkpt>
      <trkpt lat="49.3591" lon="1.36783">
        <ele>43</ele>
        <time>2017-10-10T14:54:29Z</time>
      </trkpt>
      <trkpt lat="49.35914" lon="1.36788">
        <ele>43</ele>
        <time>2017-10-10T14:54:29Z</time>
      </trkpt>
      <trkpt lat="49.35916" lon="1.36792">
        <ele>49</ele>
        <time>2017-10-10T14:54:44Z</time>
      </trkpt>
      <trkpt lat="49.35918" lon="1.36795">
        <ele>49</ele>
        <time>2017-10-10T14:54:45Z</time>
      </trkpt>
      <trkpt lat="49.35921" lon="1.36797">
        <ele>49</ele>
        <time>2017-10-10T14:54:45Z</time>
      </trkpt>
      <trkpt lat="49.35924" lon="1.36803">
        <ele>49</ele>
        <time>2017-10-10T14:54:45Z</time>
      </trkpt>
      <trkpt lat="49.35927" lon="1.36807">
        <ele>49</ele>
        <time>2017-10-10T14:55:00Z</time>
      </trkpt>
      <trkpt lat="49.35929" lon="1.36811">
        <ele>49</ele>
        <time>2017-10-10T14:55:01Z</time>
      </trkpt>
      <trkpt lat="49.35931" lon="1.36816">
        <ele>49</ele>
        <time>2017-10-10T14:55:01Z</time>
      </trkpt>
      <trkpt lat="49.35934" lon="1.36821">
        <ele>49</ele>
        <time>2017-10-10T14:55:01Z</time>
      </trkpt>
      <trkpt lat="49.35936" lon="1.36826">
        <ele>49</ele>
        <time>2017-10-10T14:55:16Z</time>
      </trkpt>
      <trkpt lat="49.35938" lon="1.36829">
        <ele>49</ele>
        <time>2017-10-10T14:55:17Z</time>
      </trkpt>
      <trkpt lat="49.35941" lon="1.36834">
        <ele>49</ele>
        <time>2017-10-10T14:55:17Z</time>
      </trkpt>
      <trkpt lat="49.35944" lon="1.3684">
        <ele>49</ele>
        <time>2017-10-10T14:55:17Z</time>
      </trkpt>
      <trkpt lat="49.35946" lon="1.36844">
        <ele>49</ele>
        <time>2017-10-10T14:55:32Z</time>
      </trkpt>
      <trkpt lat="49.35947" lon="1.36848">
        <ele>49</ele>
        <time>2017-10-10T14:55:33Z</time>
      </trkpt>
      <trkpt lat="49.3595" lon="1.36853">
        <ele>49</ele>
        <time>2017-10-10T14:55:33Z</time>
      </trkpt>
      <trkpt lat="49.35953" lon="1.36858">
        <ele>49</ele>
        <time>2017-10-10T14:55:33Z</time>
      </trkpt>
      <trkpt lat="49.35955" lon="1.36863">
        <ele>49</ele>
        <time>2017-10-10T14:55:48Z</time>
      </trkpt>
      <trkpt lat="49.35956" lon="1.36867">
        <ele>49</ele>
        <time>2017-10-10T14:55:49Z</time>
      </trkpt>
      <trkpt lat="49.35957" lon="1.36871">
        <ele>49</ele>
        <time>2017-10-10T14:55:49Z</time>
      </trkpt>
      <trkpt lat="49.35959" lon="1.36875">
        <ele>38</ele>
        <time>2017-10-10T14:55:49Z</time>
      </trkpt>
      <trkpt lat="49.35962" lon="1.3688">
        <ele>44</ele>
        <time>2017-10-10T14:56:04Z</time>
      </trkpt>
      <trkpt lat="49.35964" lon="1.36883">
        <ele>44</ele>
        <time>2017-10-10T14:56:05Z</time>
      </trkpt>
      <trkpt lat="49.35966" lon="1.36888">
        <ele>44</ele>
        <time>2017-10-10T14:56:05Z</time>
      </trkpt>
      <trkpt lat="49.3597" lon="1.36895">
        <ele>44</ele>
        <time>2017-10-10T14:56:05Z</time>
      </trkpt>
      <trkpt lat="49.35973" lon="1.36899">
        <ele>44</ele>
        <time>2017-10-10T14:56:20Z</time>
      </trkpt>
      <trkpt lat="49.35977" lon="1.36904">
        <ele>44</ele>
        <time>2017-10-10T14:56:21Z</time>
      </trkpt>
      <trkpt lat="49.35981" lon="1.36909">
        <ele>44</ele>
        <time>2017-10-10T14:56:21Z</time>
      </trkpt>
      <trkpt lat="49.35986" lon="1.36916">
        <ele>44</ele>
        <time>2017-10-10T14:56:21Z</time>
      </trkpt>
      <trkpt lat="49.35988" lon="1.3692">
        <ele>44</ele>
        <time>2017-10-10T14:56:36Z</time>
      </trkpt>
      <trkpt lat="49.3599" lon="1.36924">
        <ele>44</ele>
        <time>2017-10-10T14:56:37Z</time>
      </trkpt>
      <trkpt lat="49.35992" lon="1.3693">
        <ele>44</ele>
        <time>2017-10-10T14:56:37Z</time>
      </trkpt>
      <trkpt lat="49.35995" lon="1.36934">
        <ele>44</ele>
        <time>2017-10-10T14:56:37Z</time>
      </trkpt>
      <trkpt lat="49.35997" lon="1.36939">
        <ele>44</ele>
        <time>2017-10-10T14:56:52Z</time>
      </trkpt>
      <trkpt lat="49.35999" lon="1.36942">
        <ele>44</ele>
        <time>2017-10-10T14:56:53Z</time>
      </trkpt>
      <trkpt lat="49.36001" lon="1.36947">
        <ele>44</ele>
        <time>2017-10-10T14:56:53Z</time>
      </trkpt>
      <trkpt lat="49.36005" lon="1.36952">
        <ele>44</ele>
        <time>2017-10-10T14:56:53Z</time>
      </trkpt>
      <trkpt lat="49.36007" lon="1.36955">
        <ele>44</ele>
        <time>2017-10-10T14:57:08Z</time>
      </trkpt>
      <trkpt lat="49.3601" lon="1.3696">
        <ele>59</ele>
        <time>2017-10-10T14:57:09Z</time>
      </trkpt>
      <trkpt lat="49.36014" lon="1.36963">
        <ele>59</ele>
        <time>2017-10-10T14:57:09Z</time>
      </trkpt>
      <trkpt lat="49.36019" lon="1.36964">
        <ele>59</ele>
        <time>2017-10-10T14:57:09Z</time>
      </trkpt>
      <trkpt lat="49.36022" lon="1.36969">
        <ele>59</ele>
        <time>2017-10-10T14:57:24Z</time>
      </trkpt>
      <trkpt lat="49.36024" lon="1.36973">
        <ele>59</ele>
        <time>2017-10-10T14:57:25Z</time>
      </trkpt>
      <trkpt lat="49.36027" lon="1.36978">
        <ele>59</ele>
        <time>2017-10-10T14:57:25Z</time>
      </trkpt>
      <trkpt lat="49.36031" lon="1.36984">
        <ele>59</ele>
        <time>2017-10-10T14:57:25Z</time>
      </trkpt>
      <trkpt lat="49.36033" lon="1.36988">
        <ele>59</ele>
        <time>2017-10-10T14:57:40Z</time>
      </trkpt>
      <trkpt lat="49.36036" lon="1.36994">
        <ele>59</ele>
        <time>2017-10-10T14:57:41Z</time>
      </trkpt>
      <trkpt lat="49.36039" lon="1.36998">
        <ele>59</ele>
        <time>2017-10-10T14:57:41Z</time>
      </trkpt>
      <trkpt lat="49.36043" lon="1.37005">
        <ele>42</ele>
        <time>2017-10-10T14:57:41Z</time>
      </trkpt>
      <trkpt lat="49.36046" lon="1.3701">
        <ele>42</ele>
        <time>2017-10-10T14:57:56Z</time>
      </trkpt>
      <trkpt lat="49.36049" lon="1.37013">
        <ele>42</ele>
        <time>2017-10-10T14:57:57Z</time>
      </trkpt>
      <trkpt lat="49.36052" lon="1.37018">
        <ele>42</ele>
        <time>2017-10-10T14:57:57Z</time>
      </trkpt>
      <trkpt lat="49.36056" lon="1.37024">
        <ele>42</ele>
        <time>2017-10-10T14:57:57Z</time>
      </trkpt>
      <trkpt lat="49.36059" lon="1.37029">
        <ele>42</ele>
        <time>2017-10-10T14:58:12Z</time>
      </trkpt>
      <trkpt lat="49.36062" lon="1.37035">
        <ele>42</ele>
        <time>2017-10-10T14:58:13Z</time>
      </trkpt>
      <trkpt lat="49.36065" lon="1.3704">
        <ele>42</ele>
        <time>2017-10-10T14:58:13Z</time>
      </trkpt>
      <trkpt lat="49.36068" lon="1.37045">
        <ele>51</ele>
        <time>2017-10-10T14:58:13Z</time>
      </trkpt>
      <trkpt lat="49.36071" lon="1.37048">
        <ele>51</ele>
        <time>2017-10-10T14:58:28Z</time>
      </trkpt>
      <trkpt lat="49.36074" lon="1.37053">
        <ele>51</ele>
        <time>2017-10-10T14:58:29Z</time>
      </trkpt>
      <trkpt lat="49.36078" lon="1.3706">
        <ele>51</ele>
        <time>2017-10-10T14:58:29Z</time>
      </trkpt>
      <trkpt lat="49.3608" lon="1.37065">
        <ele>51</ele>
        <time>2017-10-10T14:58:29Z</time>
      </trkpt>
      <trkpt lat="49.36083" lon="1.37069">
        <ele>51</ele>
        <time>2017-10-10T14:58:44Z</time>
      </trkpt>
      <trkpt lat="49.36086" lon="1.37074">
        <ele>51</ele>
        <time>2017-10-10T14:58:45Z</time>
      </trkpt>
      <trkpt lat="49.36089" lon="1.3708">
        <ele>51</ele>
        <time>2017-10-10T14:58:45Z</time>
      </trkpt>
      <trkpt lat="49.36092" lon="1.37086">
        <ele>51</ele>
        <time>2017-10-10T14:58:45Z</time>
      </trkpt>
      <trkpt lat="49.36095" lon="1.37092">
        <ele>51</ele>
        <time>2017-10-10T14:59:00Z</time>
      </trkpt>
      <trkpt lat="49.36097" lon="1.37096">
        <ele>51</ele>
        <time>2017-10-10T14:59:01Z</time>
      </trkpt>
      <trkpt lat="49.36101" lon="1.371">
        <ele>51</ele>
        <time>2017-10-10T14:59:01Z</time>
      </trkpt>
      <trkpt lat="49.36105" lon="1.37107">
        <ele>51</ele>
        <time>2017-10-10T14:59:01Z</time>
      </trkpt>
      <trkpt lat="49.36107" lon="1.37111">
        <ele>51</ele>
        <time>2017-10-10T14:59:16Z</time>
      </trkpt>
      <trkpt lat="49.36109" lon="1.37117">
        <ele>51</ele>
        <time>2017-10-10T14:59:17Z</time>
      </trkpt>
      <trkpt lat="49.36112" lon="1.37122">
        <ele>51</ele>
        <time>2017-10-10T14:59:17Z</time>
      </trkpt>
      <trkpt lat="49.36115" lon="1.37127">
        <ele>59</ele>
        <time>2017-10-10T14:59:17Z</time>
      </trkpt>
      <trkpt lat="49.36117" lon="1.37132">
        <ele>59</ele>
        <time>2017-10-10T14:59:32Z</time>
      </trkpt>
      <trkpt lat="49.3612" lon="1.37136">
        <ele>59</ele>
        <time>2017-10-10T14:59:33Z</time>
      </trkpt>
      <trkpt lat="49.36123" lon="1.3714">
        <ele>59</ele>
        <time>2017-10-10T14:59:33Z</time>
      </trkpt>
      <trkpt lat="49.36128" lon="1.37146">
        <ele>41</ele>
        <time>2017-10-10T14:59:33Z</time>
      </trkpt>
      <trkpt lat="49.36131" lon="1.37152">
        <ele>41</ele>
        <time>2017-10-10T14:59:48Z</time>
      </trkpt>
      <trkpt lat="49.36134" lon="1.37158">
        <ele>41</ele>
        <time>2017-10-10T14:59:49Z</time>
      </trkpt>
      <trkpt lat="49.36136" lon="1.37164">
        <ele>41</ele>
        <time>2017-10-10T14:59:49Z</time>
      </trkpt>
      <trkpt lat="49.36138" lon="1.37168">
        <ele>41</ele>
        <time>2017-10-10T14:59:49Z</time>
      </trkpt>
      <trkpt lat="49.3614" lon="1.37171">
        <ele>41</ele>
        <time>2017-10-10T15:00:04Z</time>
      </trkpt>
      <trkpt lat="49.36141" lon="1.37177">
        <ele>41</ele>
        <time>2017-10-10T15:00:05Z</time>
      </trkpt>
      <trkpt lat="49.36143" lon="1.37182">
        <ele>41</ele>
        <time>2017-10-10T15:00:05Z</time>
      </trkpt>
      <trkpt lat="49.36147" lon="1.37187">
        <ele>41</ele>
        <time>2017-10-10T15:00:05Z</time>
      </trkpt>
      <trkpt lat="49.3615" lon="1.37192">
        <ele>41</ele>
        <time>2017-10-10T15:00:20Z</time>
      </trkpt>
      <trkpt lat="49.36152" lon="1.37197">
        <ele>41</ele>
        <time>2017-10-10T15:00:21Z</time>
      </trkpt>
      <trkpt lat="49.36154" lon="1.37202">
        <ele>41</ele>
        <time>2017-10-10T15:00:21Z</time>
      </trkpt>
      <trkpt lat="49.36157" lon="1.37207">
        <ele>41</ele>
        <time>2017-10-10T15:00:21Z</time>
      </trkpt>
      <trkpt lat="49.36161" lon="1.37213">
        <ele>48</ele>
        <time>2017-10-10T15:00:36Z</time>
      </trkpt>
      <trkpt lat="49.36164" lon="1.37217">
        <ele>48</ele>
        <time>2017-10-10T15:00:37Z</time>
      </trkpt>
      <trkpt lat="49.36167" lon="1.37222">
        <ele>48</ele>
        <time>2017-10-10T15:00:37Z</time>
      </trkpt>
      <trkpt lat="49.36171" lon="1.37229">
        <ele>48</ele>
        <time>2017-10-10T15:00:37Z</time>
      </trkpt>
      <trkpt lat="49.36174" lon="1.37233">
        <ele>48</ele>
        <time>2017-10-10T15:00:52Z</time>
      </trkpt>
      <trkpt lat="49.36177" lon="1.37238">
        <ele>48</ele>
        <time>2017-10-10T15:00:53Z</time>
      </trkpt>
      <trkpt lat="49.36181" lon="1.37242">
        <ele>48</ele>
        <time>2017-10-10T15:00:53Z</time>
      </trkpt>
      <trkpt lat="49.36185" lon="1.37249">
        <ele>48</ele>
        <time>2017-10-10T15:00:53Z</time>
      </trkpt>
      <trkpt lat="49.36188" lon="1.37254">
        <ele>48</ele>
        <time>2017-10-10T15:01:08Z</time>
      </trkpt>
      <trkpt lat="49.36191" lon="1.37257">
        <ele>48</ele>
        <time>2017-10-10T15:01:09Z</time>
      </trkpt>
      <trkpt lat="49.36194" lon="1.37263">
        <ele>48</ele>
        <time>2017-10-10T15:01:09Z</time>
      </trkpt>
      <trkpt lat="49.36197" lon="1.37268">
        <ele>48</ele>
        <time>2017-10-10T15:01:09Z</time>
      </trkpt>
      <trkpt lat="49.36201" lon="1.37274">
        <ele>48</ele>
        <time>2017-10-10T15:01:24Z</time>
      </trkpt>
      <trkpt lat="49.36205" lon="1.37279">
        <ele>48</ele>
        <time>2017-10-10T15:01:25Z</time>
      </trkpt>
      <trkpt lat="49.36207" lon="1.37283">
        <ele>48</ele>
        <time>2017-10-10T15:01:25Z</time>
      </trkpt>
      <trkpt lat="49.36211" lon="1.37289">
        <ele>35</ele>
        <time>2017-10-10T15:01:25Z</time>
      </trkpt>
      <trkpt lat="49.36214" lon="1.37293">
        <ele>43</ele>
        <time>2017-10-10T15:01:40Z</time>
      </trkpt>
      <trkpt lat="49.36217" lon="1.37298">
        <ele>43</ele>
        <time>2017-10-10T15:01:41Z</time>
      </trkpt>
      <trkpt lat="49.36219" lon="1.37304">
        <ele>43</ele>
        <time>2017-10-10T15:01:41Z</time>
      </trkpt>
      <trkpt lat="49.36222" lon="1.3731">
        <ele>43</ele>
        <time>2017-10-10T15:01:41Z</time>
      </trkpt>
      <trkpt lat="49.36224" lon="1.37314">
        <ele>43</ele>
        <time>2017-10-10T15:01:56Z</time>
      </trkpt>
      <trkpt lat="49.36227" lon="1.37319">
        <ele>43</ele>
        <time>2017-10-10T15:01:57Z</time>
      </trkpt>
      <trkpt lat="49.3623" lon="1.37323">
        <ele>43</ele>
        <time>2017-10-10T15:01:57Z</time>
      </trkpt>
      <trkpt lat="49.36234" lon="1.3733">
        <ele>43</ele>
        <time>2017-10-10T15:01:57Z</time>
      </trkpt>
      <trkpt lat="49.36237" lon="1.37335">
        <ele>43</ele>
        <time>2017-10-10T15:02:12Z</time>
      </trkpt>
      <trkpt lat="49.36239" lon="1.37339">
        <ele>43</ele>
        <time>2017-10-10T15:02:13Z</time>
      </trkpt>
      <trkpt lat="49.36243" lon="1.37345">
        <ele>43</ele>
        <time>2017-10-10T15:02:13Z</time>
      </trkpt>
      <trkpt lat="49.36247" lon="1.37352">
        <ele>43</ele>
        <time>2017-10-10T15:02:13Z</time>
      </trkpt>
      <trkpt lat="49.3625" lon="1.37355">
        <ele>43</ele>
        <time>2017-10-10T15:02:28Z</time>
      </trkpt>
      <trkpt lat="49.36254" lon="1.3736">
        <ele>43</ele>
        <time>2017-10-10T15:02:29Z</time>
      </trkpt>
      <trkpt lat="49.36257" lon="1.37365">
        <ele>43</ele>
        <time>2017-10-10T15:02:29Z</time>
      </trkpt>
      <trkpt lat="49.36262" lon="1.37372">
        <ele>43</ele>
        <time>2017-10-10T15:02:29Z</time>
      </trkpt>
      <trkpt lat="49.36265" lon="1.37375">
        <ele>56</ele>
        <time>2017-10-10T15:02:44Z</time>
      </trkpt>
      <trkpt lat="49.36269" lon="1.3738">
        <ele>56</ele>
        <time>2017-10-10T15:02:45Z</time>
      </trkpt>
      <trkpt lat="49.36272" lon="1.37386">
        <ele>56</ele>
        <time>2017-10-10T15:02:45Z</time>
      </trkpt>
      <trkpt lat="49.36276" lon="1.37391">
        <ele>56</ele>
        <time>2017-10-10T15:02:45Z</time>
      </trkpt>
      <trkpt lat="49.36279" lon="1.37397">
        <ele>56</ele>
        <time>2017-10-10T15:03:00Z</time>
      </trkpt>
      <trkpt lat="49.36281" lon="1.37402">
        <ele>56</ele>
        <time>2017-10-10T15:03:01Z</time>
      </trkpt>
      <trkpt lat="49.36283" lon="1.37406">
        <ele>56</ele>
        <time>2017-10-10T15:03:01Z</time>
      </trkpt>
      <trkpt lat="49.36286" lon="1.37413">
        <ele>56</ele>
        <time>2017-10-10T15:03:01Z</time>
      </trkpt>
      <trkpt lat="49.36289" lon="1.37418">
        <ele>56</ele>
        <time>2017-10-10T15:03:16Z</time>
      </trkpt>
      <trkpt lat="49.36291" lon="1.37421">
        <ele>56</ele>
        <time>2017-10-10T15:03:17Z</time>
      </trkpt>
      <trkpt lat="49.36292" lon="1.37426">
        <ele>41</ele>
        <time>2017-10-10T15:03:17Z</time>
      </trkpt>
      <trkpt lat="49.36296" lon="1.37431">
        <ele>41</ele>
        <time>2017-10-10T15:03:17Z</time>
      </trkpt>
      <trkpt lat="49.36299" lon="1.37438">
        <ele>41</ele>
        <time>2017-10-10T15:03:32Z</time>
      </trkpt>
      <trkpt lat="49.36301" lon="1.37441">
        <ele>41</ele>
        <time>2017-10-10T15:03:33Z</time>
      </trkpt>
      <trkpt lat="49.36305" lon="1.37446">
        <ele>41</ele>
        <time>2017-10-10T15:03:33Z</time>
      </trkpt>
      <trkpt lat="49.36306" lon="1.37451">
        <ele>41</ele>
        <time>2017-10-10T15:03:33Z</time>
      </trkpt>
      <trkpt lat="49.3631" lon="1.37457">
        <ele>41</ele>
        <time>2017-10-10T15:03:48Z</time>
      </trkpt>
      <trkpt lat="49.36312" lon="1.3746">
        <ele>53</ele>
        <time>2017-10-10T15:03:49Z</time>
      </trkpt>
      <trkpt lat="49.36315" lon="1.37465">
        <ele>53</ele>
        <time>2017-10-10T15:03:49Z</time>
      </trkpt>
      <trkpt lat="49.36318" lon="1.37471">
        <ele>53</ele>
        <time>2017-10-10T15:03:49Z</time>
      </trkpt>
      <trkpt lat="49.36321" lon="1.37476">
        <ele>53</ele>
        <time>2017-10-10T15:04:04Z</time>
      </trkpt>
      <trkpt lat="49.36324" lon="1.37481">
        <ele>53</ele>
        <time>2017-10-10T15:04:05Z</time>
      </trkpt>
      <trkpt lat="49.36327" lon="1.37485">
        <ele>53</ele>
        <time>2017-10-10T15:04:05Z</time>
      </trkpt>
      <trkpt lat="49.3633" lon="1.37491">
        <ele>53</ele>
        <time>2017-10-10T15:04:05Z</time>
      </trkpt>
      <trkpt lat="49.36333" lon="1.37497">
        <ele>53</ele>
        <time>2017-10-10T15:04:21Z</time>
      </trkpt>
      <trkpt lat="49.36337" lon="1.37501">
        <ele>53</ele>
        <time>2017-10-10T15:04:21Z</time>
      </trkpt>
      <trkpt lat="49.36341" lon="1.37505">
        <ele>53</ele>
        <time>2017-10-10T15:04:21Z</time>
      </trkpt>
      <trkpt lat="49.36344" lon="1.37509">
        <ele>53</ele>
        <time>2017-10-10T15:04:21Z</time>
      </trkpt>
      <trkpt lat="49.36349" lon="1.37515">
        <ele>53</ele>
        <time>2017-10-10T15:04:36Z</time>
      </trkpt>
      <trkpt lat="49.36351" lon="1.37521">
        <ele>53</ele>
        <time>2017-10-10T15:04:37Z</time>
      </trkpt>
      <trkpt lat="49.36354" lon="1.37525">
        <ele>53</ele>
        <time>2017-10-10T15:04:37Z</time>
      </trkpt>
      <trkpt lat="49.36358" lon="1.3753">
        <ele>53</ele>
        <time>2017-10-10T15:04:37Z</time>
      </trkpt>
      <trkpt lat="49.36361" lon="1.37534">
        <ele>53</ele>
        <time>2017-10-10T15:04:52Z</time>
      </trkpt>
      <trkpt lat="49.36364" lon="1.37539">
        <ele>53</ele>
        <time>2017-10-10T15:04:53Z</time>
      </trkpt>
      <trkpt lat="49.36368" lon="1.37545">
        <ele>66</ele>
        <time>2017-10-10T15:04:53Z</time>
      </trkpt>
      <trkpt lat="49.36372" lon="1.3755">
        <ele>66</ele>
        <time>2017-10-10T15:04:53Z</time>
      </trkpt>
      <trkpt lat="49.36376" lon="1.37556">
        <ele>44</ele>
        <time>2017-10-10T15:05:08Z</time>
      </trkpt>
      <trkpt lat="49.36378" lon="1.3756">
        <ele>44</ele>
        <time>2017-10-10T15:05:09Z</time>
      </trkpt>
      <trkpt lat="49.36382" lon="1.37565">
        <ele>44</ele>
        <time>2017-10-10T15:05:09Z</time>
      </trkpt>
      <trkpt lat="49.36385" lon="1.37571">
        <ele>44</ele>
        <time>2017-10-10T15:05:09Z</time>
      </trkpt>
      <trkpt lat="49.36389" lon="1.37577">
        <ele>44</ele>
        <time>2017-10-10T15:05:24Z</time>
      </trkpt>
      <trkpt lat="49.36393" lon="1.37582">
        <ele>44</ele>
        <time>2017-10-10T15:05:25Z</time>
      </trkpt>
      <trkpt lat="49.36395" lon="1.37587">
        <ele>44</ele>
        <time>2017-10-10T15:05:25Z</time>
      </trkpt>
      <trkpt lat="49.36399" lon="1.37592">
        <ele>44</ele>
        <time>2017-10-10T15:05:25Z</time>
      </trkpt>
      <trkpt lat="49.36403" lon="1.37598">
        <ele>44</ele>
        <time>2017-10-10T15:05:40Z</time>
      </trkpt>
      <trkpt lat="49.36406" lon="1.37604">
        <ele>44</ele>
        <time>2017-10-10T15:05:41Z</time>
      </trkpt>
      <trkpt lat="49.36408" lon="1.37607">
        <ele>44</ele>
        <time>2017-10-10T15:05:41Z</time>
      </trkpt>
      <trkpt lat="49.36411" lon="1.37611">
        <ele>44</ele>
        <time>2017-10-10T15:05:41Z</time>
      </trkpt>
      <trkpt lat="49.36415" lon="1.37615">
        <ele>44</ele>
        <time>2017-10-10T15:05:56Z</time>
      </trkpt>
      <trkpt lat="49.36418" lon="1.3762">
        <ele>44</ele>
        <time>2017-10-10T15:05:57Z</time>
      </trkpt>
      <trkpt lat="49.36421" lon="1.37625">
        <ele>44</ele>
        <time>2017-10-10T15:05:57Z</time>
      </trkpt>
      <trkpt lat="49.36424" lon="1.3763">
        <ele>51</ele>
        <time>2017-10-10T15:05:57Z</time>
      </trkpt>
      <trkpt lat="49.36427" lon="1.37635">
        <ele>51</ele>
        <time>2017-10-10T15:06:12Z</time>
      </trkpt>
      <trkpt lat="49.3643" lon="1.37639">
        <ele>51</ele>
        <time>2017-10-10T15:06:13Z</time>
      </trkpt>
      <trkpt lat="49.36433" lon="1.37642">
        <ele>51</ele>
        <time>2017-10-10T15:06:13Z</time>
      </trkpt>
      <trkpt lat="49.36436" lon="1.37647">
        <ele>51</ele>
        <time>2017-10-10T15:06:13Z</time>
      </trkpt>
      <trkpt lat="49.3644" lon="1.37653">
        <ele>51</ele>
        <time>2017-10-10T15:06:28Z</time>
      </trkpt>
      <trkpt lat="49.36442" lon="1.37656">
        <ele>51</ele>
        <time>2017-10-10T15:06:29Z</time>
      </trkpt>
      <trkpt lat="49.36446" lon="1.37661">
        <ele>51</ele>
        <time>2017-10-10T15:06:29Z</time>
      </trkpt>
      <trkpt lat="49.36448" lon="1.37665">
        <ele>51</ele>
        <time>2017-10-10T15:06:29Z</time>
      </trkpt>
      <trkpt lat="49.36452" lon="1.37671">
        <ele>51</ele>
        <time>2017-10-10T15:06:44Z</time>
      </trkpt>
      <trkpt lat="49.36454" lon="1.37674">
        <ele>51</ele>
        <time>2017-10-10T15:06:45Z</time>
      </trkpt>
      <trkpt lat="49.36458" lon="1.37678">
        <ele>51</ele>
        <time>2017-10-10T15:06:45Z</time>
      </trkpt>
      <trkpt lat="49.36461" lon="1.37682">
        <ele>39</ele>
        <time>2017-10-10T15:06:45Z</time>
      </trkpt>
      <trkpt lat="49.36465" lon="1.37688">
        <ele>39</ele>
        <time>2017-10-10T15:07:00Z</time>
      </trkpt>
      <trkpt lat="49.36467" lon="1.37691">
        <ele>39</ele>
        <time>2017-10-10T15:07:01Z</time>
      </trkpt>
      <trkpt lat="49.36469" lon="1.37696">
        <ele>39</ele>
        <time>2017-10-10T15:07:01Z</time>
      </trkpt>
      <trkpt lat="49.36472" lon="1.377">
        <ele>39</ele>
        <time>2017-10-10T15:07:01Z</time>
      </trkpt>
      <trkpt lat="49.36474" lon="1.37704">
        <ele>39</ele>
        <time>2017-10-10T15:07:16Z</time>
      </trkpt>
      <trkpt lat="49.36477" lon="1.37708">
        <ele>39</ele>
        <time>2017-10-10T15:07:17Z</time>
      </trkpt>
      <trkpt lat="49.36479" lon="1.37711">
        <ele>47</ele>
        <time>2017-10-10T15:07:17Z</time>
      </trkpt>
      <trkpt lat="49.36482" lon="1.37714">
        <ele>47</ele>
        <time>2017-10-10T15:07:17Z</time>
      </trkpt>
      <trkpt lat="49.36485" lon="1.37719">
        <ele>47</ele>
        <time>2017-10-10T15:07:32Z</time>
      </trkpt>
      <trkpt lat="49.36489" lon="1.37723">
        <ele>47</ele>
        <time>2017-10-10T15:07:33Z</time>
      </trkpt>
      <trkpt lat="49.36493" lon="1.37726">
        <ele>47</ele>
        <time>2017-10-10T15:07:33Z</time>
      </trkpt>
      <trkpt lat="49.36495" lon="1.37729">
        <ele>47</ele>
        <time>2017-10-10T15:07:33Z</time>
      </trkpt>
      <trkpt lat="49.36499" lon="1.37734">
        <ele>47</ele>
        <time>2017-10-10T15:07:48Z</time>
      </trkpt>
      <trkpt lat="49.36502" lon="1.37736">
        <ele>47</ele>
        <time>2017-10-10T15:07:49Z</time>
      </trkpt>
      <trkpt lat="49.36505" lon="1.37739">
        <ele>47</ele>
        <time>2017-10-10T15:07:49Z</time>
      </trkpt>
      <trkpt lat="49.36508" lon="1.37743">
        <ele>47</ele>
        <time>2017-10-10T15:07:49Z</time>
      </trkpt>
      <trkpt lat="49.36512" lon="1.37746">
        <ele>47</ele>
        <time>2017-10-10T15:08:04Z</time>
      </trkpt>
      <trkpt lat="49.36516" lon="1.3775">
        <ele>47</ele>
        <time>2017-10-10T15:08:05Z</time>
      </trkpt>
      <trkpt lat="49.3652" lon="1.37753">
        <ele>47</ele>
        <time>2017-10-10T15:08:05Z</time>
      </trkpt>
      <trkpt lat="49.36522" lon="1.37757">
        <ele>47</ele>
        <time>2017-10-10T15:08:05Z</time>
      </trkpt>
      <trkpt lat="49.36523" lon="1.37765">
        <ele>47</ele>
        <time>2017-10-10T15:11:16Z</time>
      </trkpt>
      <trkpt lat="49.36523" lon="1.37765">
        <ele>47</ele>
        <time>2017-10-10T15:11:17Z</time>
      </trkpt>
      <trkpt lat="49.36526" lon="1.37766">
        <ele>47</ele>
        <time>2017-10-10T15:11:17Z</time>
      </trkpt>
      <trkpt lat="49.36529" lon="1.37766">
        <ele>47</ele>
        <time>2017-10-10T15:11:17Z</time>
      </trkpt>
      <trkpt lat="49.36532" lon="1.37767">
        <ele>47</ele>
        <time>2017-10-10T15:11:17Z</time>
      </trkpt>
      <trkpt lat="49.36531" lon="1.37768">
        <ele>47</ele>
        <time>2017-10-10T15:13:32Z</time>
      </trkpt>
      <trkpt lat="49.36531" lon="1.37768">
        <ele>47</ele>
        <time>2017-10-10T15:13:33Z</time>
      </trkpt>
      <trkpt lat="49.36528" lon="1.3777">
        <ele>47</ele>
        <time>2017-10-10T15:13:33Z</time>
      </trkpt>
      <trkpt lat="49.36525" lon="1.37769">
        <ele>47</ele>
        <time>2017-10-10T15:13:33Z</time>
      </trkpt>
      <trkpt lat="49.36522" lon="1.37771">
        <ele>47</ele>
        <time>2017-10-10T15:13:33Z</time>
      </trkpt>
      <trkpt lat="49.36521" lon="1.37776">
        <ele>47</ele>
        <time>2017-10-10T15:13:52Z</time>
      </trkpt>
      <trkpt lat="49.36521" lon="1.3778">
        <ele>47</ele>
        <time>2017-10-10T15:13:53Z</time>
      </trkpt>
      <trkpt lat="49.36521" lon="1.37784">
        <ele>47</ele>
        <time>2017-10-10T15:13:53Z</time>
      </trkpt>
      <trkpt lat="49.3652" lon="1.37788">
        <ele>47</ele>
        <time>2017-10-10T15:13:53Z</time>
      </trkpt>
      <trkpt lat="49.36518" lon="1.3779">
        <ele>47</ele>
        <time>2017-10-10T15:13:53Z</time>
      </trkpt>
      <trkpt lat="49.36516" lon="1.37792">
        <ele>56</ele>
        <time>2017-10-10T15:14:12Z</time>
      </trkpt>
      <trkpt lat="49.36514" lon="1.37794">
        <ele>56</ele>
        <time>2017-10-10T15:14:13Z</time>
      </trkpt>
      <trkpt lat="49.36512" lon="1.37798">
        <ele>56</ele>
        <time>2017-10-10T15:14:13Z</time>
      </trkpt>
      <trkpt lat="49.3651" lon="1.37802">
        <ele>56</ele>
        <time>2017-10-10T15:14:13Z</time>
      </trkpt>
      <trkpt lat="49.36506" lon="1.37805">
        <ele>56</ele>
        <time>2017-10-10T15:14:13Z</time>
      </trkpt>
      <trkpt lat="49.36503" lon="1.37809">
        <ele>56</ele>
        <time>2017-10-10T15:14:36Z</time>
      </trkpt>
      <trkpt lat="49.36502" lon="1.37812">
        <ele>56</ele>
        <time>2017-10-10T15:14:37Z</time>
      </trkpt>
      <trkpt lat="49.365" lon="1.37814">
        <ele>56</ele>
        <time>2017-10-10T15:14:37Z</time>
      </trkpt>
      <trkpt lat="49.365" lon="1.37818">
        <ele>56</ele>
        <time>2017-10-10T15:14:37Z</time>
      </trkpt>
      <trkpt lat="49.365" lon="1.37821">
        <ele>56</ele>
        <time>2017-10-10T15:14:37Z</time>
      </trkpt>
      <trkpt lat="49.365" lon="1.37823">
        <ele>56</ele>
        <time>2017-10-10T15:14:56Z</time>
      </trkpt>
      <trkpt lat="49.36499" lon="1.37826">
        <ele>56</ele>
        <time>2017-10-10T15:14:57Z</time>
      </trkpt>
      <trkpt lat="49.36497" lon="1.37831">
        <ele>56</ele>
        <time>2017-10-10T15:14:57Z</time>
      </trkpt>
      <trkpt lat="49.36496" lon="1.37834">
        <ele>56</ele>
        <time>2017-10-10T15:14:57Z</time>
      </trkpt>
      <trkpt lat="49.36494" lon="1.37842">
        <ele>56</ele>
        <time>2017-10-10T15:14:57Z</time>
      </trkpt>
      <trkpt lat="49.36494" lon="1.37846">
        <ele>56</ele>
        <time>2017-10-10T15:15:12Z</time>
      </trkpt>
      <trkpt lat="49.36494" lon="1.37852">
        <ele>56</ele>
        <time>2017-10-10T15:15:13Z</time>
      </trkpt>
      <trkpt lat="49.36493" lon="1.37856">
        <ele>56</ele>
        <time>2017-10-10T15:15:13Z</time>
      </trkpt>
      <trkpt lat="49.36494" lon="1.37861">
        <ele>56</ele>
        <time>2017-10-10T15:15:13Z</time>
      </trkpt>
      <trkpt lat="49.36494" lon="1.37868">
        <ele>56</ele>
        <time>2017-10-10T15:15:28Z</time>
      </trkpt>
      <trkpt lat="49.36495" lon="1.37874">
        <ele>56</ele>
        <time>2017-10-10T15:15:29Z</time>
      </trkpt>
      <trkpt lat="49.36495" lon="1.37878">
        <ele>67</ele>
        <time>2017-10-10T15:15:29Z</time>
      </trkpt>
      <trkpt lat="49.36496" lon="1.37883">
        <ele>67</ele>
        <time>2017-10-10T15:15:29Z</time>
      </trkpt>
      <trkpt lat="49.36496" lon="1.37891">
        <ele>67</ele>
        <time>2017-10-10T15:15:52Z</time>
      </trkpt>
      <trkpt lat="49.36496" lon="1.37895">
        <ele>67</ele>
        <time>2017-10-10T15:15:53Z</time>
      </trkpt>
      <trkpt lat="49.36495" lon="1.37896">
        <ele>67</ele>
        <time>2017-10-10T15:15:53Z</time>
      </trkpt>
      <trkpt lat="49.36495" lon="1.379">
        <ele>67</ele>
        <time>2017-10-10T15:15:53Z</time>
      </trkpt>
      <trkpt lat="49.36494" lon="1.37905">
        <ele>67</ele>
        <time>2017-10-10T15:15:53Z</time>
      </trkpt>
      <trkpt lat="49.36496" lon="1.3791">
        <ele>67</ele>
        <time>2017-10-10T15:16:36Z</time>
      </trkpt>
      <trkpt lat="49.36498" lon="1.37913">
        <ele>67</ele>
        <time>2017-10-10T15:16:37Z</time>
      </trkpt>
      <trkpt lat="49.36501" lon="1.37914">
        <ele>67</ele>
        <time>2017-10-10T15:16:37Z</time>
      </trkpt>
      <trkpt lat="49.36503" lon="1.37919">
        <ele>67</ele>
        <time>2017-10-10T15:16:37Z</time>
      </trkpt>
      <trkpt lat="49.36506" lon="1.37925">
        <ele>67</ele>
        <time>2017-10-10T15:16:37Z</time>
      </trkpt>
      <trkpt lat="49.36507" lon="1.37931">
        <ele>67</ele>
        <time>2017-10-10T15:16:52Z</time>
      </trkpt>
      <trkpt lat="49.36508" lon="1.37937">
        <ele>67</ele>
        <time>2017-10-10T15:16:53Z</time>
      </trkpt>
      <trkpt lat="49.36509" lon="1.37942">
        <ele>67</ele>
        <time>2017-10-10T15:16:53Z</time>
      </trkpt>
      <trkpt lat="49.3651" lon="1.37948">
        <ele>67</ele>
        <time>2017-10-10T15:16:53Z</time>
      </trkpt>
      <trkpt lat="49.36511" lon="1.37954">
        <ele>67</ele>
        <time>2017-10-10T15:17:08Z</time>
      </trkpt>
      <trkpt lat="49.36512" lon="1.3796">
        <ele>76</ele>
        <time>2017-10-10T15:17:09Z</time>
      </trkpt>
      <trkpt lat="49.36514" lon="1.37965">
        <ele>76</ele>
        <time>2017-10-10T15:17:09Z</time>
      </trkpt>
      <trkpt lat="49.36514" lon="1.37972">
        <ele>76</ele>
        <time>2017-10-10T15:17:09Z</time>
      </trkpt>
      <trkpt lat="49.36515" lon="1.37978">
        <ele>76</ele>
        <time>2017-10-10T15:17:24Z</time>
      </trkpt>
      <trkpt lat="49.36516" lon="1.37985">
        <ele>76</ele>
        <time>2017-10-10T15:17:25Z</time>
      </trkpt>
      <trkpt lat="49.36517" lon="1.37991">
        <ele>76</ele>
        <time>2017-10-10T15:17:25Z</time>
      </trkpt>
      <trkpt lat="49.36518" lon="1.37997">
        <ele>76</ele>
        <time>2017-10-10T15:17:25Z</time>
      </trkpt>
      <trkpt lat="49.36519" lon="1.38004">
        <ele>76</ele>
        <time>2017-10-10T15:17:40Z</time>
      </trkpt>
      <trkpt lat="49.3652" lon="1.3801">
        <ele>76</ele>
        <time>2017-10-10T15:17:41Z</time>
      </trkpt>
      <trkpt lat="49.36521" lon="1.38016">
        <ele>76</ele>
        <time>2017-10-10T15:17:41Z</time>
      </trkpt>
      <trkpt lat="49.36522" lon="1.38022">
        <ele>76</ele>
        <time>2017-10-10T15:17:41Z</time>
      </trkpt>
      <trkpt lat="49.36523" lon="1.38029">
        <ele>76</ele>
        <time>2017-10-10T15:17:56Z</time>
      </trkpt>
      <trkpt lat="49.36524" lon="1.38035">
        <ele>76</ele>
        <time>2017-10-10T15:17:57Z</time>
      </trkpt>
      <trkpt lat="49.36526" lon="1.38041">
        <ele>76</ele>
        <time>2017-10-10T15:17:57Z</time>
      </trkpt>
      <trkpt lat="49.36526" lon="1.38047">
        <ele>86</ele>
        <time>2017-10-10T15:17:57Z</time>
      </trkpt>
      <trkpt lat="49.36528" lon="1.38053">
        <ele>86</ele>
        <time>2017-10-10T15:18:12Z</time>
      </trkpt>
      <trkpt lat="49.36529" lon="1.38059">
        <ele>86</ele>
        <time>2017-10-10T15:18:13Z</time>
      </trkpt>
      <trkpt lat="49.36529" lon="1.38065">
        <ele>86</ele>
        <time>2017-10-10T15:18:13Z</time>
      </trkpt>
      <trkpt lat="49.3653" lon="1.38071">
        <ele>86</ele>
        <time>2017-10-10T15:18:13Z</time>
      </trkpt>
      <trkpt lat="49.3653" lon="1.38076">
        <ele>86</ele>
        <time>2017-10-10T15:18:28Z</time>
      </trkpt>
      <trkpt lat="49.36531" lon="1.38082">
        <ele>86</ele>
        <time>2017-10-10T15:18:29Z</time>
      </trkpt>
      <trkpt lat="49.36532" lon="1.38088">
        <ele>86</ele>
        <time>2017-10-10T15:18:29Z</time>
      </trkpt>
      <trkpt lat="49.36532" lon="1.38095">
        <ele>86</ele>
        <time>2017-10-10T15:18:29Z</time>
      </trkpt>
      <trkpt lat="49.36533" lon="1.38102">
        <ele>86</ele>
        <time>2017-10-10T15:18:44Z</time>
      </trkpt>
      <trkpt lat="49.36534" lon="1.38109">
        <ele>86</ele>
        <time>2017-10-10T15:18:45Z</time>
      </trkpt>
      <trkpt lat="49.36535" lon="1.38116">
        <ele>86</ele>
        <time>2017-10-10T15:18:45Z</time>
      </trkpt>
      <trkpt lat="49.36535" lon="1.38122">
        <ele>86</ele>
        <time>2017-10-10T15:18:45Z</time>
      </trkpt>
      <trkpt lat="49.36536" lon="1.38129">
        <ele>96</ele>
        <time>2017-10-10T15:19:00Z</time>
      </trkpt>
      <trkpt lat="49.36536" lon="1.38135">
        <ele>96</ele>
        <time>2017-10-10T15:19:01Z</time>
      </trkpt>
      <trkpt lat="49.36536" lon="1.38141">
        <ele>96</ele>
        <time>2017-10-10T15:19:01Z</time>
      </trkpt>
      <trkpt lat="49.36537" lon="1.38148">
        <ele>96</ele>
        <time>2017-10-10T15:19:01Z</time>
      </trkpt>
      <trkpt lat="49.36537" lon="1.38154">
        <ele>96</ele>
        <time>2017-10-10T15:19:16Z</time>
      </trkpt>
      <trkpt lat="49.36537" lon="1.3816">
        <ele>96</ele>
        <time>2017-10-10T15:19:17Z</time>
      </trkpt>
      <trkpt lat="49.36537" lon="1.38167">
        <ele>96</ele>
        <time>2017-10-10T15:19:17Z</time>
      </trkpt>
      <trkpt lat="49.36537" lon="1.38174">
        <ele>96</ele>
        <time>2017-10-10T15:19:17Z</time>
      </trkpt>
      <trkpt lat="49.36538" lon="1.3818">
        <ele>96</ele>
        <time>2017-10-10T15:19:32Z</time>
      </trkpt>
      <trkpt lat="49.36537" lon="1.38187">
        <ele>96</ele>
        <time>2017-10-10T15:19:33Z</time>
      </trkpt>
      <trkpt lat="49.36535" lon="1.38193">
        <ele>96</ele>
        <time>2017-10-10T15:19:33Z</time>
      </trkpt>
      <trkpt lat="49.36532" lon="1.38198">
        <ele>96</ele>
        <time>2017-10-10T15:19:33Z</time>
      </trkpt>
      <trkpt lat="49.36529" lon="1.38201">
        <ele>96</ele>
        <time>2017-10-10T15:19:48Z</time>
      </trkpt>
      <trkpt lat="49.36525" lon="1.38203">
        <ele>96</ele>
        <time>2017-10-10T15:19:49Z</time>
      </trkpt>
      <trkpt lat="49.36522" lon="1.38205">
        <ele>96</ele>
        <time>2017-10-10T15:19:49Z</time>
      </trkpt>
      <trkpt lat="49.36519" lon="1.38207">
        <ele>96</ele>
        <time>2017-10-10T15:19:49Z</time>
      </trkpt>
      <trkpt lat="49.36516" lon="1.38209">
        <ele>102</ele>
        <time>2017-10-10T15:20:04Z</time>
      </trkpt>
      <trkpt lat="49.36513" lon="1.38212">
        <ele>102</ele>
        <time>2017-10-10T15:20:05Z</time>
      </trkpt>
      <trkpt lat="49.3651" lon="1.38214">
        <ele>102</ele>
        <time>2017-10-10T15:20:05Z</time>
      </trkpt>
      <trkpt lat="49.36506" lon="1.38216">
        <ele>102</ele>
        <time>2017-10-10T15:20:05Z</time>
      </trkpt>
      <trkpt lat="49.36502" lon="1.38219">
        <ele>102</ele>
        <time>2017-10-10T15:20:20Z</time>
      </trkpt>
      <trkpt lat="49.36499" lon="1.38221">
        <ele>102</ele>
        <time>2017-10-10T15:20:21Z</time>
      </trkpt>
      <trkpt lat="49.36495" lon="1.38223">
        <ele>102</ele>
        <time>2017-10-10T15:20:21Z</time>
      </trkpt>
      <trkpt lat="49.36491" lon="1.38225">
        <ele>102</ele>
        <time>2017-10-10T15:20:21Z</time>
      </trkpt>
      <trkpt lat="49.36488" lon="1.38227">
        <ele>102</ele>
        <time>2017-10-10T15:20:36Z</time>
      </trkpt>
      <trkpt lat="49.36484" lon="1.3823">
        <ele>102</ele>
        <time>2017-10-10T15:20:37Z</time>
      </trkpt>
      <trkpt lat="49.3648" lon="1.38233">
        <ele>102</ele>
        <time>2017-10-10T15:20:37Z</time>
      </trkpt>
      <trkpt lat="49.36476" lon="1.38235">
        <ele>102</ele>
        <time>2017-10-10T15:20:37Z</time>
      </trkpt>
      <trkpt lat="49.36473" lon="1.38238">
        <ele>102</ele>
        <time>2017-10-10T15:20:52Z</time>
      </trkpt>
      <trkpt lat="49.36469" lon="1.38241">
        <ele>102</ele>
        <time>2017-10-10T15:20:53Z</time>
      </trkpt>
      <trkpt lat="49.36466" lon="1.38243">
        <ele>102</ele>
        <time>2017-10-10T15:20:53Z</time>
      </trkpt>
      <trkpt lat="49.36462" lon="1.38245">
        <ele>102</ele>
        <time>2017-10-10T15:20:53Z</time>
      </trkpt>
      <trkpt lat="49.36458" lon="1.38247">
        <ele>107</ele>
        <time>2017-10-10T15:21:08Z</time>
      </trkpt>
      <trkpt lat="49.36454" lon="1.38249">
        <ele>107</ele>
        <time>2017-10-10T15:21:09Z</time>
      </trkpt>
      <trkpt lat="49.36451" lon="1.38252">
        <ele>107</ele>
        <time>2017-10-10T15:21:09Z</time>
      </trkpt>
      <trkpt lat="49.36447" lon="1.38255">
        <ele>107</ele>
        <time>2017-10-10T15:21:09Z</time>
      </trkpt>
      <trkpt lat="49.36443" lon="1.38257">
        <ele>107</ele>
        <time>2017-10-10T15:21:24Z</time>
      </trkpt>
      <trkpt lat="49.3644" lon="1.38259">
        <ele>107</ele>
        <time>2017-10-10T15:21:25Z</time>
      </trkpt>
      <trkpt lat="49.36436" lon="1.38261">
        <ele>107</ele>
        <time>2017-10-10T15:21:25Z</time>
      </trkpt>
      <trkpt lat="49.36433" lon="1.38263">
        <ele>107</ele>
        <time>2017-10-10T15:21:25Z</time>
      </trkpt>
      <trkpt lat="49.36429" lon="1.38266">
        <ele>107</ele>
        <time>2017-10-10T15:21:40Z</time>
      </trkpt>
      <trkpt lat="49.36426" lon="1.38268">
        <ele>107</ele>
        <time>2017-10-10T15:21:41Z</time>
      </trkpt>
      <trkpt lat="49.36422" lon="1.3827">
        <ele>107</ele>
        <time>2017-10-10T15:21:41Z</time>
      </trkpt>
      <trkpt lat="49.36418" lon="1.38273">
        <ele>107</ele>
        <time>2017-10-10T15:21:41Z</time>
      </trkpt>
      <trkpt lat="49.36414" lon="1.38275">
        <ele>107</ele>
        <time>2017-10-10T15:21:56Z</time>
      </trkpt>
      <trkpt lat="49.36411" lon="1.38278">
        <ele>107</ele>
        <time>2017-10-10T15:21:57Z</time>
      </trkpt>
      <trkpt lat="49.36407" lon="1.38281">
        <ele>107</ele>
        <time>2017-10-10T15:21:57Z</time>
      </trkpt>
      <trkpt lat="49.36404" lon="1.38283">
        <ele>107</ele>
        <time>2017-10-10T15:21:57Z</time>
      </trkpt>
      <trkpt lat="49.364" lon="1.38286">
        <ele>107</ele>
        <time>2017-10-10T15:22:12Z</time>
      </trkpt>
      <trkpt lat="49.36396" lon="1.38288">
        <ele>107</ele>
        <time>2017-10-10T15:22:13Z</time>
      </trkpt>
      <trkpt lat="49.36391" lon="1.3829">
        <ele>107</ele>
        <time>2017-10-10T15:22:13Z</time>
      </trkpt>
      <trkpt lat="49.36387" lon="1.38292">
        <ele>112</ele>
        <time>2017-10-10T15:22:13Z</time>
      </trkpt>
      <trkpt lat="49.36384" lon="1.38295">
        <ele>112</ele>
        <time>2017-10-10T15:22:28Z</time>
      </trkpt>
      <trkpt lat="49.3638" lon="1.38298">
        <ele>112</ele>
        <time>2017-10-10T15:22:29Z</time>
      </trkpt>
      <trkpt lat="49.36377" lon="1.38301">
        <ele>112</ele>
        <time>2017-10-10T15:22:29Z</time>
      </trkpt>
      <trkpt lat="49.36373" lon="1.38303">
        <ele>115</ele>
        <time>2017-10-10T15:22:29Z</time>
      </trkpt>
      <trkpt lat="49.36369" lon="1.38306">
        <ele>115</ele>
        <time>2017-10-10T15:22:44Z</time>
      </trkpt>
      <trkpt lat="49.36365" lon="1.38309">
        <ele>115</ele>
        <time>2017-10-10T15:22:45Z</time>
      </trkpt>
      <trkpt lat="49.36361" lon="1.38312">
        <ele>115</ele>
        <time>2017-10-10T15:22:45Z</time>
      </trkpt>
      <trkpt lat="49.36358" lon="1.38314">
        <ele>115</ele>
        <time>2017-10-10T15:22:45Z</time>
      </trkpt>
      <trkpt lat="49.36354" lon="1.38317">
        <ele>115</ele>
        <time>2017-10-10T15:23:00Z</time>
      </trkpt>
      <trkpt lat="49.36351" lon="1.38321">
        <ele>115</ele>
        <time>2017-10-10T15:23:01Z</time>
      </trkpt>
      <trkpt lat="49.36348" lon="1.38325">
        <ele>115</ele>
        <time>2017-10-10T15:23:01Z</time>
      </trkpt>
      <trkpt lat="49.36344" lon="1.38329">
        <ele>115</ele>
        <time>2017-10-10T15:23:01Z</time>
      </trkpt>
      <trkpt lat="49.3634" lon="1.3833">
        <ele>115</ele>
        <time>2017-10-10T15:23:16Z</time>
      </trkpt>
      <trkpt lat="49.36335" lon="1.38331">
        <ele>115</ele>
        <time>2017-10-10T15:23:17Z</time>
      </trkpt>
      <trkpt lat="49.36331" lon="1.38333">
        <ele>115</ele>
        <time>2017-10-10T15:23:17Z</time>
      </trkpt>
      <trkpt lat="49.36327" lon="1.38335">
        <ele>115</ele>
        <time>2017-10-10T15:23:17Z</time>
      </trkpt>
      <trkpt lat="49.36323" lon="1.38338">
        <ele>115</ele>
        <time>2017-10-10T15:23:32Z</time>
      </trkpt>
      <trkpt lat="49.36319" lon="1.3834">
        <ele>115</ele>
        <time>2017-10-10T15:23:33Z</time>
      </trkpt>
      <trkpt lat="49.36315" lon="1.38343">
        <ele>115</ele>
        <time>2017-10-10T15:23:33Z</time>
      </trkpt>
      <trkpt lat="49.36311" lon="1.38345">
        <ele>115</ele>
        <time>2017-10-10T15:23:33Z</time>
      </trkpt>
      <trkpt lat="49.36306" lon="1.38348">
        <ele>115</ele>
        <time>2017-10-10T15:23:48Z</time>
      </trkpt>
      <trkpt lat="49.36302" lon="1.3835">
        <ele>115</ele>
        <time>2017-10-10T15:23:49Z</time>
      </trkpt>
      <trkpt lat="49.36298" lon="1.38352">
        <ele>115</ele>
        <time>2017-10-10T15:23:49Z</time>
      </trkpt>
      <trkpt lat="49.36293" lon="1.38355">
        <ele>115</ele>
        <time>2017-10-10T15:23:49Z</time>
      </trkpt>
      <trkpt lat="49.36284" lon="1.38364">
        <ele>120</ele>
        <time>2017-10-10T15:25:36Z</time>
      </trkpt>
      <trkpt lat="49.36284" lon="1.38365">
        <ele>120</ele>
        <time>2017-10-10T15:25:37Z</time>
      </trkpt>
      <trkpt lat="49.36284" lon="1.38365">
        <ele>120</ele>
        <time>2017-10-10T15:25:37Z</time>
      </trkpt>
      <trkpt lat="49.36283" lon="1.38365">
        <ele>120</ele>
        <time>2017-10-10T15:25:37Z</time>
      </trkpt>
      <trkpt lat="49.36283" lon="1.38365">
        <ele>120</ele>
        <time>2017-10-10T15:25:37Z</time>
      </trkpt>
      <trkpt lat="49.36283" lon="1.38364">
        <ele>120</ele>
        <time>2017-10-10T15:26:36Z</time>
      </trkpt>
      <trkpt lat="49.36282" lon="1.38365">
        <ele>120</ele>
        <time>2017-10-10T15:26:37Z</time>
      </trkpt>
      <trkpt lat="49.36279" lon="1.38366">
        <ele>120</ele>
        <time>2017-10-10T15:26:37Z</time>
      </trkpt>
      <trkpt lat="49.36276" lon="1.38368">
        <ele>120</ele>
        <time>2017-10-10T15:26:37Z</time>
      </trkpt>
      <trkpt lat="49.36273" lon="1.3837">
        <ele>120</ele>
        <time>2017-10-10T15:26:37Z</time>
      </trkpt>
      <trkpt lat="49.36269" lon="1.38371">
        <ele>120</ele>
        <time>2017-10-10T15:26:52Z</time>
      </trkpt>
      <trkpt lat="49.36266" lon="1.38373">
        <ele>120</ele>
        <time>2017-10-10T15:26:53Z</time>
      </trkpt>
      <trkpt lat="49.36263" lon="1.38376">
        <ele>123</ele>
        <time>2017-10-10T15:26:53Z</time>
      </trkpt>
      <trkpt lat="49.3626" lon="1.38378">
        <ele>123</ele>
        <time>2017-10-10T15:26:53Z</time>
      </trkpt>
      <trkpt lat="49.36256" lon="1.38381">
        <ele>123</ele>
        <time>2017-10-10T15:27:08Z</time>
      </trkpt>
      <trkpt lat="49.36253" lon="1.38383">
        <ele>123</ele>
        <time>2017-10-10T15:27:09Z</time>
      </trkpt>
      <trkpt lat="49.36249" lon="1.38385">
        <ele>123</ele>
        <time>2017-10-10T15:27:09Z</time>
      </trkpt>
      <trkpt lat="49.36246" lon="1.38388">
        <ele>123</ele>
        <time>2017-10-10T15:27:09Z</time>
      </trkpt>
      <trkpt lat="49.36242" lon="1.3839">
        <ele>123</ele>
        <time>2017-10-10T15:27:24Z</time>
      </trkpt>
      <trkpt lat="49.36237" lon="1.38393">
        <ele>123</ele>
        <time>2017-10-10T15:27:25Z</time>
      </trkpt>
      <trkpt lat="49.36233" lon="1.38395">
        <ele>123</ele>
        <time>2017-10-10T15:27:25Z</time>
      </trkpt>
      <trkpt lat="49.36229" lon="1.38398">
        <ele>123</ele>
        <time>2017-10-10T15:27:25Z</time>
      </trkpt>
      <trkpt lat="49.36225" lon="1.384">
        <ele>123</ele>
        <time>2017-10-10T15:27:40Z</time>
      </trkpt>
      <trkpt lat="49.36221" lon="1.38402">
        <ele>123</ele>
        <time>2017-10-10T15:27:41Z</time>
      </trkpt>
      <trkpt lat="49.36217" lon="1.38403">
        <ele>123</ele>
        <time>2017-10-10T15:27:41Z</time>
      </trkpt>
      <trkpt lat="49.36212" lon="1.38404">
        <ele>123</ele>
        <time>2017-10-10T15:27:41Z</time>
      </trkpt>
      <trkpt lat="49.36208" lon="1.38404">
        <ele>122</ele>
        <time>2017-10-10T15:27:56Z</time>
      </trkpt>
      <trkpt lat="49.36203" lon="1.38404">
        <ele>122</ele>
        <time>2017-10-10T15:27:57Z</time>
      </trkpt>
      <trkpt lat="49.36199" lon="1.38404">
        <ele>122</ele>
        <time>2017-10-10T15:27:57Z</time>
      </trkpt>
      <trkpt lat="49.36194" lon="1.38405">
        <ele>122</ele>
        <time>2017-10-10T15:27:57Z</time>
      </trkpt>
      <trkpt lat="49.3619" lon="1.38406">
        <ele>122</ele>
        <time>2017-10-10T15:28:12Z</time>
      </trkpt>
      <trkpt lat="49.36185" lon="1.38406">
        <ele>122</ele>
        <time>2017-10-10T15:28:13Z</time>
      </trkpt>
      <trkpt lat="49.3618" lon="1.38406">
        <ele>122</ele>
        <time>2017-10-10T15:28:13Z</time>
      </trkpt>
      <trkpt lat="49.36175" lon="1.38407">
        <ele>122</ele>
        <time>2017-10-10T15:28:13Z</time>
      </trkpt>
      <trkpt lat="49.3617" lon="1.38407">
        <ele>122</ele>
        <time>2017-10-10T15:28:28Z</time>
      </trkpt>
      <trkpt lat="49.36165" lon="1.38408">
        <ele>122</ele>
        <time>2017-10-10T15:28:29Z</time>
      </trkpt>
      <trkpt lat="49.3616" lon="1.38408">
        <ele>122</ele>
        <time>2017-10-10T15:28:29Z</time>
      </trkpt>
      <trkpt lat="49.36155" lon="1.38408">
        <ele>122</ele>
        <time>2017-10-10T15:28:29Z</time>
      </trkpt>
      <trkpt lat="49.3615" lon="1.38409">
        <ele>122</ele>
        <time>2017-10-10T15:28:44Z</time>
      </trkpt>
      <trkpt lat="49.36145" lon="1.3841">
        <ele>122</ele>
        <time>2017-10-10T15:28:45Z</time>
      </trkpt>
      <trkpt lat="49.36141" lon="1.38411">
        <ele>122</ele>
        <time>2017-10-10T15:28:45Z</time>
      </trkpt>
      <trkpt lat="49.36136" lon="1.38412">
        <ele>122</ele>
        <time>2017-10-10T15:28:45Z</time>
      </trkpt>
      <trkpt lat="49.36131" lon="1.38413">
        <ele>122</ele>
        <time>2017-10-10T15:29:00Z</time>
      </trkpt>
      <trkpt lat="49.36126" lon="1.38413">
        <ele>122</ele>
        <time>2017-10-10T15:29:01Z</time>
      </trkpt>
      <trkpt lat="49.36121" lon="1.38413">
        <ele>120</ele>
        <time>2017-10-10T15:29:01Z</time>
      </trkpt>
      <trkpt lat="49.36117" lon="1.38414">
        <ele>120</ele>
        <time>2017-10-10T15:29:01Z</time>
      </trkpt>
      <trkpt lat="49.36112" lon="1.38414">
        <ele>120</ele>
        <time>2017-10-10T15:29:16Z</time>
      </trkpt>
      <trkpt lat="49.36107" lon="1.38415">
        <ele>120</ele>
        <time>2017-10-10T15:29:17Z</time>
      </trkpt>
      <trkpt lat="49.36102" lon="1.38415">
        <ele>120</ele>
        <time>2017-10-10T15:29:17Z</time>
      </trkpt>
      <trkpt lat="49.36097" lon="1.38415">
        <ele>120</ele>
        <time>2017-10-10T15:29:17Z</time>
      </trkpt>
      <trkpt lat="49.36092" lon="1.38416">
        <ele>120</ele>
        <time>2017-10-10T15:29:32Z</time>
      </trkpt>
      <trkpt lat="49.36087" lon="1.38416">
        <ele>120</ele>
        <time>2017-10-10T15:29:33Z</time>
      </trkpt>
      <trkpt lat="49.36083" lon="1.38417">
        <ele>120</ele>
        <time>2017-10-10T15:29:33Z</time>
      </trkpt>
      <trkpt lat="49.36078" lon="1.38418">
        <ele>120</ele>
        <time>2017-10-10T15:29:33Z</time>
      </trkpt>
      <trkpt lat="49.36073" lon="1.38418">
        <ele>120</ele>
        <time>2017-10-10T15:29:48Z</time>
      </trkpt>
      <trkpt lat="49.36069" lon="1.38418">
        <ele>120</ele>
        <time>2017-10-10T15:29:49Z</time>
      </trkpt>
      <trkpt lat="49.36064" lon="1.38419">
        <ele>120</ele>
        <time>2017-10-10T15:29:49Z</time>
      </trkpt>
      <trkpt lat="49.36059" lon="1.3842">
        <ele>120</ele>
        <time>2017-10-10T15:29:49Z</time>
      </trkpt>
      <trkpt lat="49.36055" lon="1.38421">
        <ele>120</ele>
        <time>2017-10-10T15:30:04Z</time>
      </trkpt>
      <trkpt lat="49.3605" lon="1.38421">
        <ele>120</ele>
        <time>2017-10-10T15:30:05Z</time>
      </trkpt>
      <trkpt lat="49.36047" lon="1.38421">
        <ele>120</ele>
        <time>2017-10-10T15:30:05Z</time>
      </trkpt>
      <trkpt lat="49.36041" lon="1.38422">
        <ele>120</ele>
        <time>2017-10-10T15:30:05Z</time>
      </trkpt>
      <trkpt lat="49.36036" lon="1.38422">
        <ele>120</ele>
        <time>2017-10-10T15:30:20Z</time>
      </trkpt>
      <trkpt lat="49.36032" lon="1.38423">
        <ele>120</ele>
        <time>2017-10-10T15:30:21Z</time>
      </trkpt>
      <trkpt lat="49.36027" lon="1.38423">
        <ele>120</ele>
        <time>2017-10-10T15:30:21Z</time>
      </trkpt>
      <trkpt lat="49.36022" lon="1.38423">
        <ele>120</ele>
        <time>2017-10-10T15:30:21Z</time>
      </trkpt>
      <trkpt lat="49.36018" lon="1.38424">
        <ele>120</ele>
        <time>2017-10-10T15:30:36Z</time>
      </trkpt>
      <trkpt lat="49.36013" lon="1.38424">
        <ele>120</ele>
        <time>2017-10-10T15:30:37Z</time>
      </trkpt>
      <trkpt lat="49.36009" lon="1.38425">
        <ele>120</ele>
        <time>2017-10-10T15:30:37Z</time>
      </trkpt>
      <trkpt lat="49.36004" lon="1.38426">
        <ele>120</ele>
        <time>2017-10-10T15:30:37Z</time>
      </trkpt>
      <trkpt lat="49.36" lon="1.38426">
        <ele>120</ele>
        <time>2017-10-10T15:30:52Z</time>
      </trkpt>
      <trkpt lat="49.35996" lon="1.38426">
        <ele>120</ele>
        <time>2017-10-10T15:30:53Z</time>
      </trkpt>
      <trkpt lat="49.35991" lon="1.38427">
        <ele>120</ele>
        <time>2017-10-10T15:30:53Z</time>
      </trkpt>
      <trkpt lat="49.35987" lon="1.38427">
        <ele>120</ele>
        <time>2017-10-10T15:30:53Z</time>
      </trkpt>
      <trkpt lat="49.35982" lon="1.38427">
        <ele>120</ele>
        <time>2017-10-10T15:31:08Z</time>
      </trkpt>
      <trkpt lat="49.35977" lon="1.38426">
        <ele>120</ele>
        <time>2017-10-10T15:31:09Z</time>
      </trkpt>
      <trkpt lat="49.35973" lon="1.38425">
        <ele>120</ele>
        <time>2017-10-10T15:31:09Z</time>
      </trkpt>
      <trkpt lat="49.35968" lon="1.38424">
        <ele>120</ele>
        <time>2017-10-10T15:31:09Z</time>
      </trkpt>
      <trkpt lat="49.35964" lon="1.38422">
        <ele>120</ele>
        <time>2017-10-10T15:31:24Z</time>
      </trkpt>
      <trkpt lat="49.3596" lon="1.38423">
        <ele>120</ele>
        <time>2017-10-10T15:31:25Z</time>
      </trkpt>
      <trkpt lat="49.35956" lon="1.38423">
        <ele>120</ele>
        <time>2017-10-10T15:31:25Z</time>
      </trkpt>
      <trkpt lat="49.35951" lon="1.38423">
        <ele>120</ele>
        <time>2017-10-10T15:31:25Z</time>
      </trkpt>
      <trkpt lat="49.35947" lon="1.38423">
        <ele>120</ele>
        <time>2017-10-10T15:31:40Z</time>
      </trkpt>
      <trkpt lat="49.35942" lon="1.38422">
        <ele>120</ele>
        <time>2017-10-10T15:31:41Z</time>
      </trkpt>
      <trkpt lat="49.35938" lon="1.38423">
        <ele>120</ele>
        <time>2017-10-10T15:31:41Z</time>
      </trkpt>
      <trkpt lat="49.35933" lon="1.38423">
        <ele>120</ele>
        <time>2017-10-10T15:31:41Z</time>
      </trkpt>
      <trkpt lat="49.35929" lon="1.38424">
        <ele>120</ele>
        <time>2017-10-10T15:31:56Z</time>
      </trkpt>
      <trkpt lat="49.35924" lon="1.38425">
        <ele>120</ele>
        <time>2017-10-10T15:31:57Z</time>
      </trkpt>
      <trkpt lat="49.3592" lon="1.38426">
        <ele>120</ele>
        <time>2017-10-10T15:31:57Z</time>
      </trkpt>
      <trkpt lat="49.35915" lon="1.38427">
        <ele>120</ele>
        <time>2017-10-10T15:31:57Z</time>
      </trkpt>
      <trkpt lat="49.35911" lon="1.38427">
        <ele>120</ele>
        <time>2017-10-10T15:32:12Z</time>
      </trkpt>
      <trkpt lat="49.35906" lon="1.38427">
        <ele>120</ele>
        <time>2017-10-10T15:32:13Z</time>
      </trkpt>
      <trkpt lat="49.35902" lon="1.38428">
        <ele>120</ele>
        <time>2017-10-10T15:32:13Z</time>
      </trkpt>
      <trkpt lat="49.35897" lon="1.38429">
        <ele>120</ele>
        <time>2017-10-10T15:32:13Z</time>
      </trkpt>
      <trkpt lat="49.35893" lon="1.3843">
        <ele>120</ele>
        <time>2017-10-10T15:32:28Z</time>
      </trkpt>
      <trkpt lat="49.35889" lon="1.38431">
        <ele>120</ele>
        <time>2017-10-10T15:32:29Z</time>
      </trkpt>
      <trkpt lat="49.35884" lon="1.38431">
        <ele>120</ele>
        <time>2017-10-10T15:32:29Z</time>
      </trkpt>
      <trkpt lat="49.35879" lon="1.38431">
        <ele>120</ele>
        <time>2017-10-10T15:32:29Z</time>
      </trkpt>
      <trkpt lat="49.35875" lon="1.38431">
        <ele>120</ele>
        <time>2017-10-10T15:32:44Z</time>
      </trkpt>
      <trkpt lat="49.35871" lon="1.38431">
        <ele>120</ele>
        <time>2017-10-10T15:32:45Z</time>
      </trkpt>
      <trkpt lat="49.35866" lon="1.38431">
        <ele>120</ele>
        <time>2017-10-10T15:32:45Z</time>
      </trkpt>
      <trkpt lat="49.35861" lon="1.38431">
        <ele>120</ele>
        <time>2017-10-10T15:32:45Z</time>
      </trkpt>
      <trkpt lat="49.35857" lon="1.38431">
        <ele>120</ele>
        <time>2017-10-10T15:33:00Z</time>
      </trkpt>
      <trkpt lat="49.35852" lon="1.3843">
        <ele>120</ele>
        <time>2017-10-10T15:33:01Z</time>
      </trkpt>
      <trkpt lat="49.35848" lon="1.3843">
        <ele>120</ele>
        <time>2017-10-10T15:33:01Z</time>
      </trkpt>
      <trkpt lat="49.35843" lon="1.38427">
        <ele>120</ele>
        <time>2017-10-10T15:33:01Z</time>
      </trkpt>
      <trkpt lat="49.35838" lon="1.38426">
        <ele>120</ele>
        <time>2017-10-10T15:33:16Z</time>
      </trkpt>
      <trkpt lat="49.35834" lon="1.38424">
        <ele>120</ele>
        <time>2017-10-10T15:33:17Z</time>
      </trkpt>
      <trkpt lat="49.35829" lon="1.38422">
        <ele>120</ele>
        <time>2017-10-10T15:33:17Z</time>
      </trkpt>
      <trkpt lat="49.35825" lon="1.3842">
        <ele>120</ele>
        <time>2017-10-10T15:33:17Z</time>
      </trkpt>
      <trkpt lat="49.35821" lon="1.38417">
        <ele>120</ele>
        <time>2017-10-10T15:33:32Z</time>
      </trkpt>
      <trkpt lat="49.35816" lon="1.38415">
        <ele>120</ele>
        <time>2017-10-10T15:33:33Z</time>
      </trkpt>
      <trkpt lat="49.35812" lon="1.38411">
        <ele>120</ele>
        <time>2017-10-10T15:33:33Z</time>
      </trkpt>
      <trkpt lat="49.35808" lon="1.38407">
        <ele>120</ele>
        <time>2017-10-10T15:33:33Z</time>
      </trkpt>
      <trkpt lat="49.35804" lon="1.38403">
        <ele>120</ele>
        <time>2017-10-10T15:33:48Z</time>
      </trkpt>
      <trkpt lat="49.358" lon="1.38399">
        <ele>120</ele>
        <time>2017-10-10T15:33:49Z</time>
      </trkpt>
      <trkpt lat="49.35797" lon="1.38394">
        <ele>120</ele>
        <time>2017-10-10T15:33:49Z</time>
      </trkpt>
      <trkpt lat="49.35793" lon="1.38389">
        <ele>120</ele>
        <time>2017-10-10T15:33:49Z</time>
      </trkpt>
      <trkpt lat="49.3579" lon="1.38384">
        <ele>122</ele>
        <time>2017-10-10T15:34:04Z</time>
      </trkpt>
      <trkpt lat="49.35787" lon="1.38379">
        <ele>122</ele>
        <time>2017-10-10T15:34:05Z</time>
      </trkpt>
      <trkpt lat="49.35784" lon="1.38373">
        <ele>121</ele>
        <time>2017-10-10T15:34:05Z</time>
      </trkpt>
      <trkpt lat="49.3578" lon="1.38368">
        <ele>121</ele>
        <time>2017-10-10T15:34:05Z</time>
      </trkpt>
      <trkpt lat="49.35778" lon="1.38362">
        <ele>121</ele>
        <time>2017-10-10T15:34:20Z</time>
      </trkpt>
      <trkpt lat="49.35775" lon="1.38357">
        <ele>121</ele>
        <time>2017-10-10T15:34:21Z</time>
      </trkpt>
      <trkpt lat="49.35772" lon="1.38352">
        <ele>121</ele>
        <time>2017-10-10T15:34:21Z</time>
      </trkpt>
      <trkpt lat="49.35769" lon="1.38346">
        <ele>121</ele>
        <time>2017-10-10T15:34:21Z</time>
      </trkpt>
      <trkpt lat="49.35766" lon="1.3834">
        <ele>121</ele>
        <time>2017-10-10T15:34:36Z</time>
      </trkpt>
      <trkpt lat="49.35763" lon="1.38334">
        <ele>121</ele>
        <time>2017-10-10T15:34:37Z</time>
      </trkpt>
      <trkpt lat="49.35759" lon="1.38334">
        <ele>121</ele>
        <time>2017-10-10T15:34:37Z</time>
      </trkpt>
      <trkpt lat="49.35755" lon="1.38338">
        <ele>121</ele>
        <time>2017-10-10T15:34:37Z</time>
      </trkpt>
      <trkpt lat="49.35752" lon="1.38341">
        <ele>121</ele>
        <time>2017-10-10T15:34:52Z</time>
      </trkpt>
      <trkpt lat="49.35748" lon="1.38345">
        <ele>121</ele>
        <time>2017-10-10T15:34:53Z</time>
      </trkpt>
      <trkpt lat="49.35745" lon="1.38349">
        <ele>121</ele>
        <time>2017-10-10T15:34:53Z</time>
      </trkpt>
      <trkpt lat="49.35741" lon="1.38352">
        <ele>121</ele>
        <time>2017-10-10T15:34:53Z</time>
      </trkpt>
      <trkpt lat="49.35737" lon="1.38355">
        <ele>121</ele>
        <time>2017-10-10T15:35:08Z</time>
      </trkpt>
      <trkpt lat="49.35733" lon="1.38357">
        <ele>121</ele>
        <time>2017-10-10T15:35:09Z</time>
      </trkpt>
      <trkpt lat="49.35729" lon="1.3836">
        <ele>121</ele>
        <time>2017-10-10T15:35:09Z</time>
      </trkpt>
      <trkpt lat="49.35726" lon="1.38363">
        <ele>121</ele>
        <time>2017-10-10T15:35:09Z</time>
      </trkpt>
      <trkpt lat="49.35723" lon="1.38365">
        <ele>121</ele>
        <time>2017-10-10T15:35:24Z</time>
      </trkpt>
      <trkpt lat="49.35718" lon="1.38368">
        <ele>121</ele>
        <time>2017-10-10T15:35:25Z</time>
      </trkpt>
      <trkpt lat="49.35714" lon="1.38371">
        <ele>121</ele>
        <time>2017-10-10T15:35:25Z</time>
      </trkpt>
      <trkpt lat="49.3571" lon="1.38373">
        <ele>121</ele>
        <time>2017-10-10T15:35:25Z</time>
      </trkpt>
      <trkpt lat="49.35707" lon="1.38377">
        <ele>125</ele>
        <time>2017-10-10T15:35:40Z</time>
      </trkpt>
      <trkpt lat="49.35703" lon="1.3838">
        <ele>125</ele>
        <time>2017-10-10T15:35:41Z</time>
      </trkpt>
      <trkpt lat="49.35698" lon="1.38384">
        <ele>125</ele>
        <time>2017-10-10T15:35:41Z</time>
      </trkpt>
      <trkpt lat="49.35694" lon="1.38387">
        <ele>125</ele>
        <time>2017-10-10T15:35:41Z</time>
      </trkpt>
      <trkpt lat="49.3569" lon="1.38391">
        <ele>125</ele>
        <time>2017-10-10T15:35:56Z</time>
      </trkpt>
      <trkpt lat="49.35686" lon="1.38393">
        <ele>125</ele>
        <time>2017-10-10T15:35:57Z</time>
      </trkpt>
      <trkpt lat="49.35682" lon="1.38396">
        <ele>125</ele>
        <time>2017-10-10T15:35:57Z</time>
      </trkpt>
      <trkpt lat="49.35678" lon="1.38399">
        <ele>125</ele>
        <time>2017-10-10T15:35:57Z</time>
      </trkpt>
      <trkpt lat="49.35673" lon="1.38403">
        <ele>125</ele>
        <time>2017-10-10T15:36:12Z</time>
      </trkpt>
      <trkpt lat="49.35669" lon="1.38406">
        <ele>125</ele>
        <time>2017-10-10T15:36:13Z</time>
      </trkpt>
      <trkpt lat="49.35665" lon="1.38409">
        <ele>125</ele>
        <time>2017-10-10T15:36:13Z</time>
      </trkpt>
      <trkpt lat="49.35661" lon="1.38411">
        <ele>125</ele>
        <time>2017-10-10T15:36:13Z</time>
      </trkpt>
      <trkpt lat="49.35658" lon="1.38415">
        <ele>125</ele>
        <time>2017-10-10T15:36:28Z</time>
      </trkpt>
      <trkpt lat="49.35653" lon="1.38418">
        <ele>125</ele>
        <time>2017-10-10T15:36:29Z</time>
      </trkpt>
      <trkpt lat="49.35649" lon="1.3842">
        <ele>125</ele>
        <time>2017-10-10T15:36:29Z</time>
      </trkpt>
      <trkpt lat="49.35645" lon="1.38423">
        <ele>125</ele>
        <time>2017-10-10T15:36:29Z</time>
      </trkpt>
      <trkpt lat="49.35641" lon="1.38426">
        <ele>125</ele>
        <time>2017-10-10T15:36:44Z</time>
      </trkpt>
      <trkpt lat="49.35636" lon="1.38428">
        <ele>125</ele>
        <time>2017-10-10T15:36:45Z</time>
      </trkpt>
      <trkpt lat="49.35633" lon="1.38431">
        <ele>125</ele>
        <time>2017-10-10T15:36:45Z</time>
      </trkpt>
      <trkpt lat="49.35628" lon="1.38434">
        <ele>125</ele>
        <time>2017-10-10T15:36:45Z</time>
      </trkpt>
      <trkpt lat="49.35624" lon="1.38438">
        <ele>126</ele>
        <time>2017-10-10T15:37:00Z</time>
      </trkpt>
      <trkpt lat="49.3562" lon="1.38441">
        <ele>126</ele>
        <time>2017-10-10T15:37:01Z</time>
      </trkpt>
      <trkpt lat="49.35616" lon="1.38445">
        <ele>126</ele>
        <time>2017-10-10T15:37:01Z</time>
      </trkpt>
      <trkpt lat="49.35612" lon="1.38448">
        <ele>126</ele>
        <time>2017-10-10T15:37:01Z</time>
      </trkpt>
      <trkpt lat="49.35608" lon="1.38451">
        <ele>126</ele>
        <time>2017-10-10T15:37:16Z</time>
      </trkpt>
      <trkpt lat="49.35604" lon="1.38454">
        <ele>126</ele>
        <time>2017-10-10T15:37:17Z</time>
      </trkpt>
      <trkpt lat="49.35599" lon="1.38457">
        <ele>126</ele>
        <time>2017-10-10T15:37:17Z</time>
      </trkpt>
      <trkpt lat="49.35595" lon="1.3846">
        <ele>127</ele>
        <time>2017-10-10T15:37:17Z</time>
      </trkpt>
      <trkpt lat="49.35591" lon="1.38464">
        <ele>127</ele>
        <time>2017-10-10T15:37:32Z</time>
      </trkpt>
      <trkpt lat="49.35586" lon="1.38466">
        <ele>127</ele>
        <time>2017-10-10T15:37:33Z</time>
      </trkpt>
      <trkpt lat="49.35582" lon="1.38469">
        <ele>127</ele>
        <time>2017-10-10T15:37:33Z</time>
      </trkpt>
      <trkpt lat="49.35579" lon="1.38472">
        <ele>127</ele>
        <time>2017-10-10T15:37:33Z</time>
      </trkpt>
      <trkpt lat="49.35574" lon="1.38475">
        <ele>127</ele>
        <time>2017-10-10T15:37:48Z</time>
      </trkpt>
      <trkpt lat="49.3557" lon="1.38479">
        <ele>127</ele>
        <time>2017-10-10T15:37:49Z</time>
      </trkpt>
      <trkpt lat="49.35566" lon="1.38482">
        <ele>127</ele>
        <time>2017-10-10T15:37:49Z</time>
      </trkpt>
      <trkpt lat="49.35561" lon="1.38485">
        <ele>127</ele>
        <time>2017-10-10T15:37:49Z</time>
      </trkpt>
      <trkpt lat="49.35557" lon="1.38489">
        <ele>127</ele>
        <time>2017-10-10T15:38:04Z</time>
      </trkpt>
      <trkpt lat="49.35553" lon="1.38492">
        <ele>127</ele>
        <time>2017-10-10T15:38:05Z</time>
      </trkpt>
      <trkpt lat="49.35549" lon="1.38495">
        <ele>127</ele>
        <time>2017-10-10T15:38:05Z</time>
      </trkpt>
      <trkpt lat="49.35545" lon="1.38498">
        <ele>127</ele>
        <time>2017-10-10T15:38:05Z</time>
      </trkpt>
      <trkpt lat="49.35541" lon="1.38501">
        <ele>125</ele>
        <time>2017-10-10T15:38:20Z</time>
      </trkpt>
      <trkpt lat="49.35537" lon="1.38504">
        <ele>125</ele>
        <time>2017-10-10T15:38:21Z</time>
      </trkpt>
      <trkpt lat="49.35532" lon="1.38507">
        <ele>125</ele>
        <time>2017-10-10T15:38:21Z</time>
      </trkpt>
      <trkpt lat="49.35528" lon="1.3851">
        <ele>125</ele>
        <time>2017-10-10T15:38:21Z</time>
      </trkpt>
      <trkpt lat="49.35524" lon="1.38513">
        <ele>125</ele>
        <time>2017-10-10T15:38:36Z</time>
      </trkpt>
      <trkpt lat="49.35519" lon="1.38516">
        <ele>125</ele>
        <time>2017-10-10T15:38:37Z</time>
      </trkpt>
      <trkpt lat="49.35515" lon="1.38519">
        <ele>125</ele>
        <time>2017-10-10T15:38:37Z</time>
      </trkpt>
      <trkpt lat="49.35511" lon="1.38522">
        <ele>125</ele>
        <time>2017-10-10T15:38:37Z</time>
      </trkpt>
      <trkpt lat="49.35507" lon="1.38526">
        <ele>125</ele>
        <time>2017-10-10T15:38:52Z</time>
      </trkpt>
      <trkpt lat="49.35502" lon="1.3853">
        <ele>125</ele>
        <time>2017-10-10T15:38:53Z</time>
      </trkpt>
      <trkpt lat="49.35498" lon="1.38533">
        <ele>125</ele>
        <time>2017-10-10T15:38:53Z</time>
      </trkpt>
      <trkpt lat="49.35494" lon="1.38536">
        <ele>125</ele>
        <time>2017-10-10T15:38:53Z</time>
      </trkpt>
      <trkpt lat="49.35489" lon="1.38539">
        <ele>125</ele>
        <time>2017-10-10T15:39:08Z</time>
      </trkpt>
      <trkpt lat="49.35485" lon="1.38542">
        <ele>124</ele>
        <time>2017-10-10T15:39:09Z</time>
      </trkpt>
      <trkpt lat="49.3548" lon="1.38545">
        <ele>124</ele>
        <time>2017-10-10T15:39:09Z</time>
      </trkpt>
      <trkpt lat="49.35476" lon="1.38549">
        <ele>124</ele>
        <time>2017-10-10T15:39:09Z</time>
      </trkpt>
      <trkpt lat="49.35472" lon="1.38552">
        <ele>124</ele>
        <time>2017-10-10T15:39:24Z</time>
      </trkpt>
      <trkpt lat="49.35468" lon="1.38556">
        <ele>124</ele>
        <time>2017-10-10T15:39:25Z</time>
      </trkpt>
      <trkpt lat="49.35464" lon="1.38559">
        <ele>124</ele>
        <time>2017-10-10T15:39:25Z</time>
      </trkpt>
      <trkpt lat="49.3546" lon="1.38562">
        <ele>124</ele>
        <time>2017-10-10T15:39:25Z</time>
      </trkpt>
      <trkpt lat="49.35455" lon="1.38566">
        <ele>121</ele>
        <time>2017-10-10T15:39:41Z</time>
      </trkpt>
      <trkpt lat="49.35451" lon="1.38569">
        <ele>121</ele>
        <time>2017-10-10T15:39:41Z</time>
      </trkpt>
      <trkpt lat="49.35447" lon="1.38572">
        <ele>121</ele>
        <time>2017-10-10T15:39:41Z</time>
      </trkpt>
      <trkpt lat="49.35442" lon="1.38576">
        <ele>121</ele>
        <time>2017-10-10T15:39:41Z</time>
      </trkpt>
      <trkpt lat="49.35438" lon="1.38579">
        <ele>121</ele>
        <time>2017-10-10T15:39:56Z</time>
      </trkpt>
      <trkpt lat="49.35434" lon="1.38583">
        <ele>121</ele>
        <time>2017-10-10T15:39:57Z</time>
      </trkpt>
      <trkpt lat="49.3543" lon="1.38586">
        <ele>121</ele>
        <time>2017-10-10T15:39:57Z</time>
      </trkpt>
      <trkpt lat="49.35426" lon="1.38589">
        <ele>121</ele>
        <time>2017-10-10T15:39:57Z</time>
      </trkpt>
      <trkpt lat="49.35422" lon="1.38592">
        <ele>121</ele>
        <time>2017-10-10T15:40:12Z</time>
      </trkpt>
      <trkpt lat="49.35418" lon="1.38595">
        <ele>121</ele>
        <time>2017-10-10T15:40:13Z</time>
      </trkpt>
      <trkpt lat="49.35414" lon="1.38598">
        <ele>121</ele>
        <time>2017-10-10T15:40:13Z</time>
      </trkpt>
      <trkpt lat="49.3541" lon="1.38601">
        <ele>121</ele>
        <time>2017-10-10T15:40:13Z</time>
      </trkpt>
      <trkpt lat="49.35406" lon="1.38604">
        <ele>121</ele>
        <time>2017-10-10T15:40:28Z</time>
      </trkpt>
      <trkpt lat="49.35401" lon="1.38607">
        <ele>121</ele>
        <time>2017-10-10T15:40:29Z</time>
      </trkpt>
      <trkpt lat="49.35397" lon="1.38611">
        <ele>121</ele>
        <time>2017-10-10T15:40:29Z</time>
      </trkpt>
      <trkpt lat="49.35393" lon="1.38614">
        <ele>121</ele>
        <time>2017-10-10T15:40:29Z</time>
      </trkpt>
      <trkpt lat="49.35389" lon="1.38616">
        <ele>121</ele>
        <time>2017-10-10T15:40:44Z</time>
      </trkpt>
      <trkpt lat="49.35385" lon="1.38617">
        <ele>121</ele>
        <time>2017-10-10T15:40:45Z</time>
      </trkpt>
      <trkpt lat="49.3538" lon="1.38617">
        <ele>121</ele>
        <time>2017-10-10T15:40:45Z</time>
      </trkpt>
      <trkpt lat="49.35376" lon="1.38616">
        <ele>121</ele>
        <time>2017-10-10T15:40:45Z</time>
      </trkpt>
      <trkpt lat="49.35375" lon="1.38617">
        <ele>121</ele>
        <time>2017-10-10T15:41:08Z</time>
      </trkpt>
      <trkpt lat="49.35374" lon="1.38619">
        <ele>121</ele>
        <time>2017-10-10T15:41:09Z</time>
      </trkpt>
      <trkpt lat="49.35372" lon="1.38623">
        <ele>121</ele>
        <time>2017-10-10T15:41:09Z</time>
      </trkpt>
      <trkpt lat="49.3537" lon="1.38626">
        <ele>122</ele>
        <time>2017-10-10T15:41:09Z</time>
      </trkpt>
      <trkpt lat="49.35369" lon="1.38629">
        <ele>122</ele>
        <time>2017-10-10T15:41:09Z</time>
      </trkpt>
      <trkpt lat="49.35366" lon="1.38637">
        <ele>122</ele>
        <time>2017-10-10T15:43:44Z</time>
      </trkpt>
      <trkpt lat="49.35366" lon="1.3864">
        <ele>122</ele>
        <time>2017-10-10T15:43:45Z</time>
      </trkpt>
      <trkpt lat="49.35365" lon="1.38643">
        <ele>122</ele>
        <time>2017-10-10T15:43:45Z</time>
      </trkpt>
      <trkpt lat="49.35364" lon="1.38644">
        <ele>122</ele>
        <time>2017-10-10T15:43:45Z</time>
      </trkpt>
      <trkpt lat="49.35363" lon="1.38646">
        <ele>122</ele>
        <time>2017-10-10T15:43:45Z</time>
      </trkpt>
      <trkpt lat="49.35361" lon="1.3865">
        <ele>122</ele>
        <time>2017-10-10T15:44:04Z</time>
      </trkpt>
      <trkpt lat="49.35359" lon="1.38653">
        <ele>122</ele>
        <time>2017-10-10T15:44:05Z</time>
      </trkpt>
      <trkpt lat="49.35357" lon="1.38656">
        <ele>122</ele>
        <time>2017-10-10T15:44:05Z</time>
      </trkpt>
      <trkpt lat="49.35355" lon="1.38659">
        <ele>122</ele>
        <time>2017-10-10T15:44:05Z</time>
      </trkpt>
      <trkpt lat="49.35352" lon="1.38663">
        <ele>122</ele>
        <time>2017-10-10T15:44:05Z</time>
      </trkpt>
      <trkpt lat="49.3535" lon="1.38668">
        <ele>122</ele>
        <time>2017-10-10T15:44:20Z</time>
      </trkpt>
      <trkpt lat="49.35349" lon="1.38673">
        <ele>122</ele>
        <time>2017-10-10T15:44:20Z</time>
      </trkpt>
      <trkpt lat="49.35349" lon="1.38679">
        <ele>122</ele>
        <time>2017-10-10T15:44:21Z</time>
      </trkpt>
      <trkpt lat="49.35347" lon="1.38683">
        <ele>122</ele>
        <time>2017-10-10T15:44:21Z</time>
      </trkpt>
      <trkpt lat="49.35346" lon="1.38686">
        <ele>122</ele>
        <time>2017-10-10T15:44:36Z</time>
      </trkpt>
      <trkpt lat="49.35344" lon="1.3869">
        <ele>122</ele>
        <time>2017-10-10T15:44:37Z</time>
      </trkpt>
      <trkpt lat="49.35344" lon="1.38696">
        <ele>122</ele>
        <time>2017-10-10T15:44:37Z</time>
      </trkpt>
      <trkpt lat="49.35344" lon="1.38701">
        <ele>122</ele>
        <time>2017-10-10T15:44:37Z</time>
      </trkpt>
      <trkpt lat="49.35342" lon="1.38704">
        <ele>122</ele>
        <time>2017-10-10T15:44:52Z</time>
      </trkpt>
      <trkpt lat="49.35339" lon="1.38706">
        <ele>122</ele>
        <time>2017-10-10T15:44:53Z</time>
      </trkpt>
      <trkpt lat="49.35337" lon="1.38711">
        <ele>123</ele>
        <time>2017-10-10T15:44:53Z</time>
      </trkpt>
      <trkpt lat="49.35336" lon="1.38718">
        <ele>123</ele>
        <time>2017-10-10T15:44:53Z</time>
      </trkpt>
      <trkpt lat="49.35335" lon="1.38723">
        <ele>123</ele>
        <time>2017-10-10T15:45:08Z</time>
      </trkpt>
      <trkpt lat="49.35332" lon="1.38728">
        <ele>123</ele>
        <time>2017-10-10T15:45:09Z</time>
      </trkpt>
      <trkpt lat="49.3533" lon="1.38733">
        <ele>123</ele>
        <time>2017-10-10T15:45:09Z</time>
      </trkpt>
      <trkpt lat="49.35328" lon="1.38739">
        <ele>123</ele>
        <time>2017-10-10T15:45:09Z</time>
      </trkpt>
      <trkpt lat="49.35326" lon="1.38745">
        <ele>123</ele>
        <time>2017-10-10T15:45:24Z</time>
      </trkpt>
      <trkpt lat="49.35324" lon="1.38749">
        <ele>123</ele>
        <time>2017-10-10T15:45:25Z</time>
      </trkpt>
      <trkpt lat="49.35321" lon="1.38753">
        <ele>123</ele>
        <time>2017-10-10T15:45:25Z</time>
      </trkpt>
      <trkpt lat="49.35317" lon="1.38758">
        <ele>123</ele>
        <time>2017-10-10T15:45:25Z</time>
      </trkpt>
      <trkpt lat="49.35314" lon="1.38762">
        <ele>123</ele>
        <time>2017-10-10T15:45:40Z</time>
      </trkpt>
      <trkpt lat="49.35311" lon="1.38766">
        <ele>123</ele>
        <time>2017-10-10T15:45:41Z</time>
      </trkpt>
      <trkpt lat="49.35309" lon="1.38769">
        <ele>123</ele>
        <time>2017-10-10T15:45:41Z</time>
      </trkpt>
      <trkpt lat="49.35306" lon="1.38772">
        <ele>123</ele>
        <time>2017-10-10T15:45:41Z</time>
      </trkpt>
      <trkpt lat="49.35302" lon="1.38775">
        <ele>123</ele>
        <time>2017-10-10T15:45:56Z</time>
      </trkpt>
      <trkpt lat="49.353" lon="1.3878">
        <ele>123</ele>
        <time>2017-10-10T15:45:57Z</time>
      </trkpt>
      <trkpt lat="49.35297" lon="1.38783">
        <ele>123</ele>
        <time>2017-10-10T15:45:57Z</time>
      </trkpt>
      <trkpt lat="49.35296" lon="1.38787">
        <ele>123</ele>
        <time>2017-10-10T15:45:57Z</time>
      </trkpt>
      <trkpt lat="49.35294" lon="1.38791">
        <ele>123</ele>
        <time>2017-10-10T15:46:12Z</time>
      </trkpt>
      <trkpt lat="49.35292" lon="1.38798">
        <ele>117</ele>
        <time>2017-10-10T15:46:13Z</time>
      </trkpt>
      <trkpt lat="49.3529" lon="1.38804">
        <ele>113</ele>
        <time>2017-10-10T15:46:13Z</time>
      </trkpt>
      <trkpt lat="49.35288" lon="1.38809">
        <ele>113</ele>
        <time>2017-10-10T15:46:13Z</time>
      </trkpt>
      <trkpt lat="49.35286" lon="1.38813">
        <ele>113</ele>
        <time>2017-10-10T15:46:28Z</time>
      </trkpt>
      <trkpt lat="49.35284" lon="1.38818">
        <ele>113</ele>
        <time>2017-10-10T15:46:29Z</time>
      </trkpt>
      <trkpt lat="49.35283" lon="1.38823">
        <ele>113</ele>
        <time>2017-10-10T15:46:29Z</time>
      </trkpt>
      <trkpt lat="49.3528" lon="1.38828">
        <ele>113</ele>
        <time>2017-10-10T15:46:29Z</time>
      </trkpt>
      <trkpt lat="49.35277" lon="1.38831">
        <ele>113</ele>
        <time>2017-10-10T15:46:44Z</time>
      </trkpt>
      <trkpt lat="49.35276" lon="1.38837">
        <ele>113</ele>
        <time>2017-10-10T15:46:45Z</time>
      </trkpt>
      <trkpt lat="49.35274" lon="1.38843">
        <ele>113</ele>
        <time>2017-10-10T15:46:45Z</time>
      </trkpt>
      <trkpt lat="49.35272" lon="1.38846">
        <ele>113</ele>
        <time>2017-10-10T15:46:45Z</time>
      </trkpt>
      <trkpt lat="49.35269" lon="1.38848">
        <ele>113</ele>
        <time>2017-10-10T15:47:00Z</time>
      </trkpt>
      <trkpt lat="49.35265" lon="1.3885">
        <ele>113</ele>
        <time>2017-10-10T15:47:01Z</time>
      </trkpt>
      <trkpt lat="49.35262" lon="1.38852">
        <ele>113</ele>
        <time>2017-10-10T15:47:01Z</time>
      </trkpt>
      <trkpt lat="49.35259" lon="1.38853">
        <ele>113</ele>
        <time>2017-10-10T15:47:01Z</time>
      </trkpt>
      <trkpt lat="49.35255" lon="1.38854">
        <ele>113</ele>
        <time>2017-10-10T15:47:16Z</time>
      </trkpt>
      <trkpt lat="49.35252" lon="1.38857">
        <ele>113</ele>
        <time>2017-10-10T15:47:17Z</time>
      </trkpt>
      <trkpt lat="49.35249" lon="1.38859">
        <ele>113</ele>
        <time>2017-10-10T15:47:17Z</time>
      </trkpt>
      <trkpt lat="49.35246" lon="1.38862">
        <ele>113</ele>
        <time>2017-10-10T15:47:17Z</time>
      </trkpt>
      <trkpt lat="49.35242" lon="1.38864">
        <ele>113</ele>
        <time>2017-10-10T15:47:36Z</time>
      </trkpt>
      <trkpt lat="49.35239" lon="1.38867">
        <ele>113</ele>
        <time>2017-10-10T15:47:37Z</time>
      </trkpt>
      <trkpt lat="49.35236" lon="1.38869">
        <ele>113</ele>
        <time>2017-10-10T15:47:37Z</time>
      </trkpt>
      <trkpt lat="49.35235" lon="1.3887">
        <ele>113</ele>
        <time>2017-10-10T15:47:37Z</time>
      </trkpt>
      <trkpt lat="49.35232" lon="1.38871">
        <ele>113</ele>
        <time>2017-10-10T15:47:37Z</time>
      </trkpt>
      <trkpt lat="49.3523" lon="1.38872">
        <ele>113</ele>
        <time>2017-10-10T15:47:52Z</time>
      </trkpt>
      <trkpt lat="49.35226" lon="1.38872">
        <ele>113</ele>
        <time>2017-10-10T15:47:53Z</time>
      </trkpt>
      <trkpt lat="49.35223" lon="1.38872">
        <ele>113</ele>
        <time>2017-10-10T15:47:53Z</time>
      </trkpt>
      <trkpt lat="49.3522" lon="1.38872">
        <ele>113</ele>
        <time>2017-10-10T15:47:53Z</time>
      </trkpt>
      <trkpt lat="49.35215" lon="1.38872">
        <ele>113</ele>
        <time>2017-10-10T15:48:08Z</time>
      </trkpt>
      <trkpt lat="49.3521" lon="1.38873">
        <ele>113</ele>
        <time>2017-10-10T15:48:09Z</time>
      </trkpt>
      <trkpt lat="49.35205" lon="1.38873">
        <ele>104</ele>
        <time>2017-10-10T15:48:09Z</time>
      </trkpt>
      <trkpt lat="49.352" lon="1.38872">
        <ele>104</ele>
        <time>2017-10-10T15:48:09Z</time>
      </trkpt>
      <trkpt lat="49.35196" lon="1.38872">
        <ele>104</ele>
        <time>2017-10-10T15:48:24Z</time>
      </trkpt>
      <trkpt lat="49.35192" lon="1.38874">
        <ele>104</ele>
        <time>2017-10-10T15:48:25Z</time>
      </trkpt>
      <trkpt lat="49.35189" lon="1.38879">
        <ele>96</ele>
        <time>2017-10-10T15:48:25Z</time>
      </trkpt>
      <trkpt lat="49.35187" lon="1.38886">
        <ele>96</ele>
        <time>2017-10-10T15:48:25Z</time>
      </trkpt>
      <trkpt lat="49.35185" lon="1.38889">
        <ele>96</ele>
        <time>2017-10-10T15:48:40Z</time>
      </trkpt>
      <trkpt lat="49.35183" lon="1.38892">
        <ele>96</ele>
        <time>2017-10-10T15:48:41Z</time>
      </trkpt>
      <trkpt lat="49.35181" lon="1.38896">
        <ele>96</ele>
        <time>2017-10-10T15:48:41Z</time>
      </trkpt>
      <trkpt lat="49.35179" lon="1.38901">
        <ele>96</ele>
        <time>2017-10-10T15:48:41Z</time>
      </trkpt>
      <trkpt lat="49.35176" lon="1.38904">
        <ele>96</ele>
        <time>2017-10-10T15:48:56Z</time>
      </trkpt>
      <trkpt lat="49.35173" lon="1.38903">
        <ele>96</ele>
        <time>2017-10-10T15:48:57Z</time>
      </trkpt>
      <trkpt lat="49.35169" lon="1.38902">
        <ele>96</ele>
        <time>2017-10-10T15:48:57Z</time>
      </trkpt>
      <trkpt lat="49.35166" lon="1.38903">
        <ele>96</ele>
        <time>2017-10-10T15:48:57Z</time>
      </trkpt>
      <trkpt lat="49.35162" lon="1.38903">
        <ele>96</ele>
        <time>2017-10-10T15:49:12Z</time>
      </trkpt>
      <trkpt lat="49.35159" lon="1.38908">
        <ele>96</ele>
        <time>2017-10-10T15:49:13Z</time>
      </trkpt>
      <trkpt lat="49.35157" lon="1.38912">
        <ele>96</ele>
        <time>2017-10-10T15:49:13Z</time>
      </trkpt>
      <trkpt lat="49.35154" lon="1.38914">
        <ele>96</ele>
        <time>2017-10-10T15:49:13Z</time>
      </trkpt>
      <trkpt lat="49.35152" lon="1.38917">
        <ele>96</ele>
        <time>2017-10-10T15:49:32Z</time>
      </trkpt>
      <trkpt lat="49.3515" lon="1.38922">
        <ele>96</ele>
        <time>2017-10-10T15:49:33Z</time>
      </trkpt>
      <trkpt lat="49.35148" lon="1.38925">
        <ele>96</ele>
        <time>2017-10-10T15:49:33Z</time>
      </trkpt>
      <trkpt lat="49.35147" lon="1.38927">
        <ele>96</ele>
        <time>2017-10-10T15:49:33Z</time>
      </trkpt>
      <trkpt lat="49.35146" lon="1.38928">
        <ele>96</ele>
        <time>2017-10-10T15:49:33Z</time>
      </trkpt>
      <trkpt lat="49.35143" lon="1.3893">
        <ele>96</ele>
        <time>2017-10-10T15:49:48Z</time>
      </trkpt>
      <trkpt lat="49.35138" lon="1.38931">
        <ele>96</ele>
        <time>2017-10-10T15:49:49Z</time>
      </trkpt>
      <trkpt lat="49.35134" lon="1.38931">
        <ele>96</ele>
        <time>2017-10-10T15:49:49Z</time>
      </trkpt>
      <trkpt lat="49.35132" lon="1.38928">
        <ele>96</ele>
        <time>2017-10-10T15:49:49Z</time>
      </trkpt>
      <trkpt lat="49.3513" lon="1.38932">
        <ele>96</ele>
        <time>2017-10-10T15:50:08Z</time>
      </trkpt>
      <trkpt lat="49.35127" lon="1.38934">
        <ele>96</ele>
        <time>2017-10-10T15:50:09Z</time>
      </trkpt>
      <trkpt lat="49.35125" lon="1.38936">
        <ele>96</ele>
        <time>2017-10-10T15:50:09Z</time>
      </trkpt>
      <trkpt lat="49.35124" lon="1.38938">
        <ele>89</ele>
        <time>2017-10-10T15:50:09Z</time>
      </trkpt>
      <trkpt lat="49.35122" lon="1.3894">
        <ele>89</ele>
        <time>2017-10-10T15:50:09Z</time>
      </trkpt>
      <trkpt lat="49.3512" lon="1.38943">
        <ele>89</ele>
        <time>2017-10-10T15:50:28Z</time>
      </trkpt>
      <trkpt lat="49.35118" lon="1.38946">
        <ele>89</ele>
        <time>2017-10-10T15:50:29Z</time>
      </trkpt>
      <trkpt lat="49.35114" lon="1.38945">
        <ele>89</ele>
        <time>2017-10-10T15:50:29Z</time>
      </trkpt>
      <trkpt lat="49.35112" lon="1.38941">
        <ele>89</ele>
        <time>2017-10-10T15:50:29Z</time>
      </trkpt>
      <trkpt lat="49.35111" lon="1.38938">
        <ele>89</ele>
        <time>2017-10-10T15:50:29Z</time>
      </trkpt>
      <trkpt lat="49.35108" lon="1.38932">
        <ele>89</ele>
        <time>2017-10-10T15:51:00Z</time>
      </trkpt>
      <trkpt lat="49.35106" lon="1.38932">
        <ele>89</ele>
        <time>2017-10-10T15:51:01Z</time>
      </trkpt>
      <trkpt lat="49.35104" lon="1.3893">
        <ele>89</ele>
        <time>2017-10-10T15:51:01Z</time>
      </trkpt>
      <trkpt lat="49.35104" lon="1.3893">
        <ele>89</ele>
        <time>2017-10-10T15:51:01Z</time>
      </trkpt>
      <trkpt lat="49.35102" lon="1.38929">
        <ele>89</ele>
        <time>2017-10-10T15:51:01Z</time>
      </trkpt>
      <trkpt lat="49.35104" lon="1.38927">
        <ele>89</ele>
        <time>2017-10-10T15:53:08Z</time>
      </trkpt>
      <trkpt lat="49.35105" lon="1.38927">
        <ele>89</ele>
        <time>2017-10-10T15:53:09Z</time>
      </trkpt>
      <trkpt lat="49.35106" lon="1.3893">
        <ele>89</ele>
        <time>2017-10-10T15:53:09Z</time>
      </trkpt>
      <trkpt lat="49.35108" lon="1.38934">
        <ele>89</ele>
        <time>2017-10-10T15:53:09Z</time>
      </trkpt>
      <trkpt lat="49.3511" lon="1.38936">
        <ele>89</ele>
        <time>2017-10-10T15:53:09Z</time>
      </trkpt>
      <trkpt lat="49.35114" lon="1.38945">
        <ele>89</ele>
        <time>2017-10-10T15:54:00Z</time>
      </trkpt>
      <trkpt lat="49.35114" lon="1.38945">
        <ele>89</ele>
        <time>2017-10-10T15:54:01Z</time>
      </trkpt>
      <trkpt lat="49.35114" lon="1.38945">
        <ele>89</ele>
        <time>2017-10-10T15:54:01Z</time>
      </trkpt>
      <trkpt lat="49.35114" lon="1.38945">
        <ele>89</ele>
        <time>2017-10-10T15:54:01Z</time>
      </trkpt>
      <trkpt lat="49.3511" lon="1.38956">
        <ele>89</ele>
        <time>2017-10-10T15:54:01Z</time>
      </trkpt>
      <trkpt lat="49.35107" lon="1.38967">
        <ele>84</ele>
        <time>2017-10-10T15:54:24Z</time>
      </trkpt>
      <trkpt lat="49.35106" lon="1.38968">
        <ele>84</ele>
        <time>2017-10-10T15:54:25Z</time>
      </trkpt>
      <trkpt lat="49.35107" lon="1.38969">
        <ele>84</ele>
        <time>2017-10-10T15:54:25Z</time>
      </trkpt>
      <trkpt lat="49.35109" lon="1.38974">
        <ele>84</ele>
        <time>2017-10-10T15:54:25Z</time>
      </trkpt>
      <trkpt lat="49.3511" lon="1.38982">
        <ele>84</ele>
        <time>2017-10-10T15:54:25Z</time>
      </trkpt>
      <trkpt lat="49.35109" lon="1.38987">
        <ele>84</ele>
        <time>2017-10-10T15:54:40Z</time>
      </trkpt>
      <trkpt lat="49.3511" lon="1.38991">
        <ele>84</ele>
        <time>2017-10-10T15:54:41Z</time>
      </trkpt>
      <trkpt lat="49.3511" lon="1.38996">
        <ele>84</ele>
        <time>2017-10-10T15:54:41Z</time>
      </trkpt>
      <trkpt lat="49.35106" lon="1.39007">
        <ele>84</ele>
        <time>2017-10-10T15:54:41Z</time>
      </trkpt>
      <trkpt lat="49.35104" lon="1.39019">
        <ele>84</ele>
        <time>2017-10-10T15:54:56Z</time>
      </trkpt>
      <trkpt lat="49.35103" lon="1.39028">
        <ele>84</ele>
        <time>2017-10-10T15:54:57Z</time>
      </trkpt>
      <trkpt lat="49.351" lon="1.39037">
        <ele>84</ele>
        <time>2017-10-10T15:54:57Z</time>
      </trkpt>
      <trkpt lat="49.351" lon="1.39043">
        <ele>81</ele>
        <time>2017-10-10T15:54:57Z</time>
      </trkpt>
      <trkpt lat="49.35098" lon="1.39046">
        <ele>81</ele>
        <time>2017-10-10T15:55:12Z</time>
      </trkpt>
      <trkpt lat="49.35094" lon="1.39051">
        <ele>81</ele>
        <time>2017-10-10T15:55:13Z</time>
      </trkpt>
      <trkpt lat="49.35091" lon="1.39057">
        <ele>81</ele>
        <time>2017-10-10T15:55:13Z</time>
      </trkpt>
      <trkpt lat="49.35088" lon="1.39061">
        <ele>81</ele>
        <time>2017-10-10T15:55:13Z</time>
      </trkpt>
      <trkpt lat="49.35086" lon="1.39065">
        <ele>81</ele>
        <time>2017-10-10T15:56:24Z</time>
      </trkpt>
      <trkpt lat="49.35087" lon="1.39063">
        <ele>81</ele>
        <time>2017-10-10T15:56:25Z</time>
      </trkpt>
      <trkpt lat="49.3509" lon="1.39061">
        <ele>81</ele>
        <time>2017-10-10T15:56:25Z</time>
      </trkpt>
      <trkpt lat="49.35092" lon="1.39059">
        <ele>81</ele>
        <time>2017-10-10T15:56:25Z</time>
      </trkpt>
      <trkpt lat="49.35095" lon="1.39056">
        <ele>81</ele>
        <time>2017-10-10T15:56:25Z</time>
      </trkpt>
      <trkpt lat="49.35097" lon="1.39052">
        <ele>81</ele>
        <time>2017-10-10T15:56:44Z</time>
      </trkpt>
      <trkpt lat="49.351" lon="1.39049">
        <ele>81</ele>
        <time>2017-10-10T15:56:45Z</time>
      </trkpt>
      <trkpt lat="49.35103" lon="1.39047">
        <ele>81</ele>
        <time>2017-10-10T15:56:45Z</time>
      </trkpt>
      <trkpt lat="49.35105" lon="1.39046">
        <ele>81</ele>
        <time>2017-10-10T15:56:45Z</time>
      </trkpt>
      <trkpt lat="49.35106" lon="1.39044">
        <ele>81</ele>
        <time>2017-10-10T15:56:45Z</time>
      </trkpt>
      <trkpt lat="49.35108" lon="1.39039">
        <ele>84</ele>
        <time>2017-10-10T15:57:01Z</time>
      </trkpt>
      <trkpt lat="49.3511" lon="1.39033">
        <ele>84</ele>
        <time>2017-10-10T15:57:01Z</time>
      </trkpt>
      <trkpt lat="49.35111" lon="1.39028">
        <ele>84</ele>
        <time>2017-10-10T15:57:01Z</time>
      </trkpt>
      <trkpt lat="49.35112" lon="1.39022">
        <ele>84</ele>
        <time>2017-10-10T15:57:01Z</time>
      </trkpt>
      <trkpt lat="49.35108" lon="1.3902">
        <ele>84</ele>
        <time>2017-10-10T15:57:52Z</time>
      </trkpt>
      <trkpt lat="49.35109" lon="1.39021">
        <ele>84</ele>
        <time>2017-10-10T15:57:53Z</time>
      </trkpt>
      <trkpt lat="49.35109" lon="1.39024">
        <ele>84</ele>
        <time>2017-10-10T15:57:53Z</time>
      </trkpt>
      <trkpt lat="49.35108" lon="1.39028">
        <ele>84</ele>
        <time>2017-10-10T15:57:53Z</time>
      </trkpt>
      <trkpt lat="49.35106" lon="1.39034">
        <ele>84</ele>
        <time>2017-10-10T15:57:53Z</time>
      </trkpt>
      <trkpt lat="49.351" lon="1.39038">
        <ele>84</ele>
        <time>2017-10-10T15:58:08Z</time>
      </trkpt>
      <trkpt lat="49.35095" lon="1.39042">
        <ele>81</ele>
        <time>2017-10-10T15:58:09Z</time>
      </trkpt>
      <trkpt lat="49.3509" lon="1.39044">
        <ele>81</ele>
        <time>2017-10-10T15:58:09Z</time>
      </trkpt>
      <trkpt lat="49.35085" lon="1.39046">
        <ele>81</ele>
        <time>2017-10-10T15:58:09Z</time>
      </trkpt>
      <trkpt lat="49.3508" lon="1.39048">
        <ele>81</ele>
        <time>2017-10-10T15:58:24Z</time>
      </trkpt>
      <trkpt lat="49.35075" lon="1.3905">
        <ele>81</ele>
        <time>2017-10-10T15:58:25Z</time>
      </trkpt>
      <trkpt lat="49.3507" lon="1.39052">
        <ele>81</ele>
        <time>2017-10-10T15:58:25Z</time>
      </trkpt>
      <trkpt lat="49.35065" lon="1.39054">
        <ele>81</ele>
        <time>2017-10-10T15:58:25Z</time>
      </trkpt>
      <trkpt lat="49.35061" lon="1.39058">
        <ele>81</ele>
        <time>2017-10-10T15:58:40Z</time>
      </trkpt>
      <trkpt lat="49.35056" lon="1.39062">
        <ele>81</ele>
        <time>2017-10-10T15:58:41Z</time>
      </trkpt>
      <trkpt lat="49.35052" lon="1.39066">
        <ele>81</ele>
        <time>2017-10-10T15:58:41Z</time>
      </trkpt>
      <trkpt lat="49.35048" lon="1.3907">
        <ele>81</ele>
        <time>2017-10-10T15:58:41Z</time>
      </trkpt>
      <trkpt lat="49.35045" lon="1.39075">
        <ele>81</ele>
        <time>2017-10-10T15:58:56Z</time>
      </trkpt>
      <trkpt lat="49.35042" lon="1.39079">
        <ele>84</ele>
        <time>2017-10-10T15:58:57Z</time>
      </trkpt>
      <trkpt lat="49.35039" lon="1.39084">
        <ele>84</ele>
        <time>2017-10-10T15:58:57Z</time>
      </trkpt>
      <trkpt lat="49.35036" lon="1.39088">
        <ele>84</ele>
        <time>2017-10-10T15:58:57Z</time>
      </trkpt>
      <trkpt lat="49.35034" lon="1.39094">
        <ele>84</ele>
        <time>2017-10-10T15:59:12Z</time>
      </trkpt>
      <trkpt lat="49.35031" lon="1.39099">
        <ele>84</ele>
        <time>2017-10-10T15:59:13Z</time>
      </trkpt>
      <trkpt lat="49.35028" lon="1.39105">
        <ele>84</ele>
        <time>2017-10-10T15:59:13Z</time>
      </trkpt>
      <trkpt lat="49.35026" lon="1.39111">
        <ele>84</ele>
        <time>2017-10-10T15:59:13Z</time>
      </trkpt>
      <trkpt lat="49.35023" lon="1.39116">
        <ele>84</ele>
        <time>2017-10-10T15:59:28Z</time>
      </trkpt>
      <trkpt lat="49.3502" lon="1.39122">
        <ele>84</ele>
        <time>2017-10-10T15:59:29Z</time>
      </trkpt>
      <trkpt lat="49.35017" lon="1.39128">
        <ele>84</ele>
        <time>2017-10-10T15:59:29Z</time>
      </trkpt>
      <trkpt lat="49.35013" lon="1.39133">
        <ele>84</ele>
        <time>2017-10-10T15:59:29Z</time>
      </trkpt>
      <trkpt lat="49.3501" lon="1.39139">
        <ele>84</ele>
        <time>2017-10-10T15:59:44Z</time>
      </trkpt>
      <trkpt lat="49.35006" lon="1.39144">
        <ele>84</ele>
        <time>2017-10-10T15:59:45Z</time>
      </trkpt>
      <trkpt lat="49.35003" lon="1.39149">
        <ele>84</ele>
        <time>2017-10-10T15:59:45Z</time>
      </trkpt>
      <trkpt lat="49.35" lon="1.39154">
        <ele>84</ele>
        <time>2017-10-10T15:59:45Z</time>
      </trkpt>
      <trkpt lat="49.34997" lon="1.3916">
        <ele>84</ele>
        <time>2017-10-10T16:00:00Z</time>
      </trkpt>
      <trkpt lat="49.34994" lon="1.39165">
        <ele>84</ele>
        <time>2017-10-10T16:00:01Z</time>
      </trkpt>
      <trkpt lat="49.34992" lon="1.3917">
        <ele>84</ele>
        <time>2017-10-10T16:00:01Z</time>
      </trkpt>
      <trkpt lat="49.34989" lon="1.39175">
        <ele>84</ele>
        <time>2017-10-10T16:00:01Z</time>
      </trkpt>
      <trkpt lat="49.34985" lon="1.3918">
        <ele>84</ele>
        <time>2017-10-10T16:00:16Z</time>
      </trkpt>
      <trkpt lat="49.34982" lon="1.39185">
        <ele>84</ele>
        <time>2017-10-10T16:00:17Z</time>
      </trkpt>
      <trkpt lat="49.3498" lon="1.3919">
        <ele>84</ele>
        <time>2017-10-10T16:00:17Z</time>
      </trkpt>
      <trkpt lat="49.34977" lon="1.39195">
        <ele>84</ele>
        <time>2017-10-10T16:00:17Z</time>
      </trkpt>
      <trkpt lat="49.34975" lon="1.39201">
        <ele>84</ele>
        <time>2017-10-10T16:00:32Z</time>
      </trkpt>
      <trkpt lat="49.34972" lon="1.39207">
        <ele>84</ele>
        <time>2017-10-10T16:00:33Z</time>
      </trkpt>
      <trkpt lat="49.34969" lon="1.39212">
        <ele>89</ele>
        <time>2017-10-10T16:00:33Z</time>
      </trkpt>
      <trkpt lat="49.34966" lon="1.39217">
        <ele>89</ele>
        <time>2017-10-10T16:00:33Z</time>
      </trkpt>
      <trkpt lat="49.34962" lon="1.39222">
        <ele>89</ele>
        <time>2017-10-10T16:00:48Z</time>
      </trkpt>
      <trkpt lat="49.34959" lon="1.39227">
        <ele>89</ele>
        <time>2017-10-10T16:00:49Z</time>
      </trkpt>
      <trkpt lat="49.34956" lon="1.39231">
        <ele>91</ele>
        <time>2017-10-10T16:00:49Z</time>
      </trkpt>
      <trkpt lat="49.34954" lon="1.39235">
        <ele>91</ele>
        <time>2017-10-10T16:00:49Z</time>
      </trkpt>
      <trkpt lat="49.34951" lon="1.3924">
        <ele>91</ele>
        <time>2017-10-10T16:01:04Z</time>
      </trkpt>
      <trkpt lat="49.34949" lon="1.39244">
        <ele>91</ele>
        <time>2017-10-10T16:01:05Z</time>
      </trkpt>
      <trkpt lat="49.34946" lon="1.39249">
        <ele>91</ele>
        <time>2017-10-10T16:01:05Z</time>
      </trkpt>
      <trkpt lat="49.34943" lon="1.39253">
        <ele>91</ele>
        <time>2017-10-10T16:01:05Z</time>
      </trkpt>
      <trkpt lat="49.34941" lon="1.39257">
        <ele>91</ele>
        <time>2017-10-10T16:01:20Z</time>
      </trkpt>
      <trkpt lat="49.34938" lon="1.39261">
        <ele>91</ele>
        <time>2017-10-10T16:01:21Z</time>
      </trkpt>
      <trkpt lat="49.34935" lon="1.39265">
        <ele>91</ele>
        <time>2017-10-10T16:01:21Z</time>
      </trkpt>
      <trkpt lat="49.34932" lon="1.39269">
        <ele>91</ele>
        <time>2017-10-10T16:01:21Z</time>
      </trkpt>
      <trkpt lat="49.34929" lon="1.39273">
        <ele>91</ele>
        <time>2017-10-10T16:01:36Z</time>
      </trkpt>
      <trkpt lat="49.34927" lon="1.39277">
        <ele>91</ele>
        <time>2017-10-10T16:01:37Z</time>
      </trkpt>
      <trkpt lat="49.34924" lon="1.39282">
        <ele>91</ele>
        <time>2017-10-10T16:01:37Z</time>
      </trkpt>
      <trkpt lat="49.34921" lon="1.39286">
        <ele>91</ele>
        <time>2017-10-10T16:01:37Z</time>
      </trkpt>
      <trkpt lat="49.34917" lon="1.3929">
        <ele>91</ele>
        <time>2017-10-10T16:01:52Z</time>
      </trkpt>
      <trkpt lat="49.34913" lon="1.39293">
        <ele>89</ele>
        <time>2017-10-10T16:01:53Z</time>
      </trkpt>
      <trkpt lat="49.3491" lon="1.39297">
        <ele>89</ele>
        <time>2017-10-10T16:01:53Z</time>
      </trkpt>
      <trkpt lat="49.34906" lon="1.393">
        <ele>89</ele>
        <time>2017-10-10T16:01:53Z</time>
      </trkpt>
      <trkpt lat="49.34902" lon="1.39302">
        <ele>89</ele>
        <time>2017-10-10T16:02:08Z</time>
      </trkpt>
      <trkpt lat="49.34899" lon="1.39304">
        <ele>89</ele>
        <time>2017-10-10T16:02:09Z</time>
      </trkpt>
      <trkpt lat="49.34895" lon="1.39307">
        <ele>89</ele>
        <time>2017-10-10T16:02:09Z</time>
      </trkpt>
      <trkpt lat="49.34891" lon="1.3931">
        <ele>89</ele>
        <time>2017-10-10T16:02:09Z</time>
      </trkpt>
      <trkpt lat="49.34887" lon="1.39313">
        <ele>89</ele>
        <time>2017-10-10T16:02:24Z</time>
      </trkpt>
      <trkpt lat="49.34883" lon="1.39316">
        <ele>89</ele>
        <time>2017-10-10T16:02:25Z</time>
      </trkpt>
      <trkpt lat="49.34879" lon="1.39318">
        <ele>89</ele>
        <time>2017-10-10T16:02:25Z</time>
      </trkpt>
      <trkpt lat="49.34875" lon="1.39321">
        <ele>94</ele>
        <time>2017-10-10T16:02:25Z</time>
      </trkpt>
      <trkpt lat="49.34871" lon="1.39323">
        <ele>94</ele>
        <time>2017-10-10T16:02:40Z</time>
      </trkpt>
      <trkpt lat="49.34867" lon="1.39325">
        <ele>94</ele>
        <time>2017-10-10T16:02:41Z</time>
      </trkpt>
      <trkpt lat="49.34864" lon="1.39328">
        <ele>94</ele>
        <time>2017-10-10T16:02:41Z</time>
      </trkpt>
      <trkpt lat="49.3486" lon="1.3933">
        <ele>94</ele>
        <time>2017-10-10T16:02:41Z</time>
      </trkpt>
      <trkpt lat="49.34856" lon="1.39332">
        <ele>94</ele>
        <time>2017-10-10T16:02:56Z</time>
      </trkpt>
      <trkpt lat="49.34852" lon="1.39334">
        <ele>94</ele>
        <time>2017-10-10T16:02:57Z</time>
      </trkpt>
      <trkpt lat="49.34848" lon="1.39337">
        <ele>94</ele>
        <time>2017-10-10T16:02:57Z</time>
      </trkpt>
      <trkpt lat="49.34844" lon="1.39339">
        <ele>94</ele>
        <time>2017-10-10T16:02:57Z</time>
      </trkpt>
      <trkpt lat="49.34839" lon="1.39341">
        <ele>94</ele>
        <time>2017-10-10T16:03:12Z</time>
      </trkpt>
      <trkpt lat="49.34835" lon="1.39343">
        <ele>94</ele>
        <time>2017-10-10T16:03:13Z</time>
      </trkpt>
      <trkpt lat="49.34831" lon="1.39345">
        <ele>94</ele>
        <time>2017-10-10T16:03:13Z</time>
      </trkpt>
      <trkpt lat="49.34827" lon="1.39346">
        <ele>94</ele>
        <time>2017-10-10T16:03:13Z</time>
      </trkpt>
      <trkpt lat="49.34823" lon="1.39348">
        <ele>94</ele>
        <time>2017-10-10T16:03:28Z</time>
      </trkpt>
      <trkpt lat="49.34818" lon="1.39349">
        <ele>94</ele>
        <time>2017-10-10T16:03:29Z</time>
      </trkpt>
      <trkpt lat="49.34814" lon="1.3935">
        <ele>94</ele>
        <time>2017-10-10T16:03:29Z</time>
      </trkpt>
      <trkpt lat="49.34809" lon="1.3935">
        <ele>94</ele>
        <time>2017-10-10T16:03:29Z</time>
      </trkpt>
      <trkpt lat="49.34805" lon="1.39352">
        <ele>94</ele>
        <time>2017-10-10T16:03:44Z</time>
      </trkpt>
      <trkpt lat="49.34801" lon="1.39358">
        <ele>94</ele>
        <time>2017-10-10T16:03:45Z</time>
      </trkpt>
      <trkpt lat="49.34798" lon="1.39363">
        <ele>94</ele>
        <time>2017-10-10T16:03:45Z</time>
      </trkpt>
      <trkpt lat="49.34797" lon="1.3937">
        <ele>94</ele>
        <time>2017-10-10T16:03:45Z</time>
      </trkpt>
      <trkpt lat="49.34799" lon="1.39377">
        <ele>92</ele>
        <time>2017-10-10T16:04:00Z</time>
      </trkpt>
      <trkpt lat="49.34799" lon="1.39385">
        <ele>92</ele>
        <time>2017-10-10T16:04:00Z</time>
      </trkpt>
      <trkpt lat="49.348" lon="1.39391">
        <ele>92</ele>
        <time>2017-10-10T16:04:01Z</time>
      </trkpt>
      <trkpt lat="49.34801" lon="1.39397">
        <ele>92</ele>
        <time>2017-10-10T16:04:01Z</time>
      </trkpt>
      <trkpt lat="49.34798" lon="1.39401">
        <ele>92</ele>
        <time>2017-10-10T16:04:16Z</time>
      </trkpt>
      <trkpt lat="49.34793" lon="1.39401">
        <ele>92</ele>
        <time>2017-10-10T16:04:17Z</time>
      </trkpt>
      <trkpt lat="49.34788" lon="1.394">
        <ele>93</ele>
        <time>2017-10-10T16:04:17Z</time>
      </trkpt>
      <trkpt lat="49.34784" lon="1.394">
        <ele>93</ele>
        <time>2017-10-10T16:04:17Z</time>
      </trkpt>
      <trkpt lat="49.3478" lon="1.39401">
        <ele>93</ele>
        <time>2017-10-10T16:04:32Z</time>
      </trkpt>
      <trkpt lat="49.34776" lon="1.39401">
        <ele>93</ele>
        <time>2017-10-10T16:04:32Z</time>
      </trkpt>
      <trkpt lat="49.34772" lon="1.39401">
        <ele>93</ele>
        <time>2017-10-10T16:04:33Z</time>
      </trkpt>
      <trkpt lat="49.34768" lon="1.39401">
        <ele>93</ele>
        <time>2017-10-10T16:04:33Z</time>
      </trkpt>
      <trkpt lat="49.34764" lon="1.39402">
        <ele>93</ele>
        <time>2017-10-10T16:04:48Z</time>
      </trkpt>
      <trkpt lat="49.3476" lon="1.39401">
        <ele>93</ele>
        <time>2017-10-10T16:04:49Z</time>
      </trkpt>
      <trkpt lat="49.34756" lon="1.39401">
        <ele>93</ele>
        <time>2017-10-10T16:04:49Z</time>
      </trkpt>
      <trkpt lat="49.34752" lon="1.39401">
        <ele>93</ele>
        <time>2017-10-10T16:04:49Z</time>
      </trkpt>
      <trkpt lat="49.34747" lon="1.394">
        <ele>93</ele>
        <time>2017-10-10T16:05:04Z</time>
      </trkpt>
      <trkpt lat="49.34743" lon="1.394">
        <ele>93</ele>
        <time>2017-10-10T16:05:05Z</time>
      </trkpt>
      <trkpt lat="49.34739" lon="1.39399">
        <ele>93</ele>
        <time>2017-10-10T16:05:05Z</time>
      </trkpt>
      <trkpt lat="49.34734" lon="1.39399">
        <ele>93</ele>
        <time>2017-10-10T16:05:05Z</time>
      </trkpt>
      <trkpt lat="49.3473" lon="1.39399">
        <ele>93</ele>
        <time>2017-10-10T16:05:20Z</time>
      </trkpt>
      <trkpt lat="49.34726" lon="1.394">
        <ele>93</ele>
        <time>2017-10-10T16:05:21Z</time>
      </trkpt>
      <trkpt lat="49.34722" lon="1.39399">
        <ele>93</ele>
        <time>2017-10-10T16:05:21Z</time>
      </trkpt>
      <trkpt lat="49.34718" lon="1.39399">
        <ele>93</ele>
        <time>2017-10-10T16:05:21Z</time>
      </trkpt>
      <trkpt lat="49.34709" lon="1.39403">
        <ele>93</ele>
        <time>2017-10-10T16:05:52Z</time>
      </trkpt>
      <trkpt lat="49.34708" lon="1.39403">
        <ele>94</ele>
        <time>2017-10-10T16:05:53Z</time>
      </trkpt>
      <trkpt lat="49.34707" lon="1.39403">
        <ele>94</ele>
        <time>2017-10-10T16:05:53Z</time>
      </trkpt>
      <trkpt lat="49.34703" lon="1.39405">
        <ele>94</ele>
        <time>2017-10-10T16:05:53Z</time>
      </trkpt>
      <trkpt lat="49.34698" lon="1.39407">
        <ele>94</ele>
        <time>2017-10-10T16:05:53Z</time>
      </trkpt>
      <trkpt lat="49.34693" lon="1.39409">
        <ele>94</ele>
        <time>2017-10-10T16:06:08Z</time>
      </trkpt>
      <trkpt lat="49.34689" lon="1.39412">
        <ele>94</ele>
        <time>2017-10-10T16:06:09Z</time>
      </trkpt>
      <trkpt lat="49.34684" lon="1.39414">
        <ele>94</ele>
        <time>2017-10-10T16:06:09Z</time>
      </trkpt>
      <trkpt lat="49.3468" lon="1.39417">
        <ele>94</ele>
        <time>2017-10-10T16:06:09Z</time>
      </trkpt>
      <trkpt lat="49.34675" lon="1.39418">
        <ele>94</ele>
        <time>2017-10-10T16:06:24Z</time>
      </trkpt>
      <trkpt lat="49.34671" lon="1.3942">
        <ele>94</ele>
        <time>2017-10-10T16:06:25Z</time>
      </trkpt>
      <trkpt lat="49.34667" lon="1.39423">
        <ele>94</ele>
        <time>2017-10-10T16:06:25Z</time>
      </trkpt>
      <trkpt lat="49.34664" lon="1.39426">
        <ele>94</ele>
        <time>2017-10-10T16:06:25Z</time>
      </trkpt>
      <trkpt lat="49.3466" lon="1.39428">
        <ele>94</ele>
        <time>2017-10-10T16:06:40Z</time>
      </trkpt>
      <trkpt lat="49.34656" lon="1.39432">
        <ele>94</ele>
        <time>2017-10-10T16:06:41Z</time>
      </trkpt>
      <trkpt lat="49.34652" lon="1.39437">
        <ele>94</ele>
        <time>2017-10-10T16:06:41Z</time>
      </trkpt>
      <trkpt lat="49.34648" lon="1.39441">
        <ele>94</ele>
        <time>2017-10-10T16:06:41Z</time>
      </trkpt>
      <trkpt lat="49.34644" lon="1.39445">
        <ele>94</ele>
        <time>2017-10-10T16:06:56Z</time>
      </trkpt>
      <trkpt lat="49.3464" lon="1.39449">
        <ele>94</ele>
        <time>2017-10-10T16:06:57Z</time>
      </trkpt>
      <trkpt lat="49.34636" lon="1.39452">
        <ele>94</ele>
        <time>2017-10-10T16:06:57Z</time>
      </trkpt>
      <trkpt lat="49.34632" lon="1.39456">
        <ele>94</ele>
        <time>2017-10-10T16:06:57Z</time>
      </trkpt>
      <trkpt lat="49.34628" lon="1.39459">
        <ele>104</ele>
        <time>2017-10-10T16:07:12Z</time>
      </trkpt>
      <trkpt lat="49.34624" lon="1.39462">
        <ele>102</ele>
        <time>2017-10-10T16:07:13Z</time>
      </trkpt>
      <trkpt lat="49.3462" lon="1.39464">
        <ele>102</ele>
        <time>2017-10-10T16:07:13Z</time>
      </trkpt>
      <trkpt lat="49.34616" lon="1.39466">
        <ele>102</ele>
        <time>2017-10-10T16:07:13Z</time>
      </trkpt>
      <trkpt lat="49.34611" lon="1.39468">
        <ele>102</ele>
        <time>2017-10-10T16:07:28Z</time>
      </trkpt>
      <trkpt lat="49.34607" lon="1.39469">
        <ele>102</ele>
        <time>2017-10-10T16:07:29Z</time>
      </trkpt>
      <trkpt lat="49.34602" lon="1.39471">
        <ele>102</ele>
        <time>2017-10-10T16:07:29Z</time>
      </trkpt>
      <trkpt lat="49.34597" lon="1.39471">
        <ele>102</ele>
        <time>2017-10-10T16:07:29Z</time>
      </trkpt>
      <trkpt lat="49.34592" lon="1.39472">
        <ele>102</ele>
        <time>2017-10-10T16:07:44Z</time>
      </trkpt>
      <trkpt lat="49.34587" lon="1.39473">
        <ele>102</ele>
        <time>2017-10-10T16:07:45Z</time>
      </trkpt>
      <trkpt lat="49.34583" lon="1.39475">
        <ele>102</ele>
        <time>2017-10-10T16:07:45Z</time>
      </trkpt>
      <trkpt lat="49.34578" lon="1.39475">
        <ele>102</ele>
        <time>2017-10-10T16:07:45Z</time>
      </trkpt>
      <trkpt lat="49.34571" lon="1.39469">
        <ele>102</ele>
        <time>2017-10-10T16:20:16Z</time>
      </trkpt>
      <trkpt lat="49.34571" lon="1.39469">
        <ele>102</ele>
        <time>2017-10-10T16:20:17Z</time>
      </trkpt>
      <trkpt lat="49.34571" lon="1.39468">
        <ele>102</ele>
        <time>2017-10-10T16:20:17Z</time>
      </trkpt>
      <trkpt lat="49.34569" lon="1.39465">
        <ele>102</ele>
        <time>2017-10-10T16:20:17Z</time>
      </trkpt>
      <trkpt lat="49.34567" lon="1.3946">
        <ele>102</ele>
        <time>2017-10-10T16:20:17Z</time>
      </trkpt>
      <trkpt lat="49.34566" lon="1.39455">
        <ele>96</ele>
        <time>2017-10-10T16:20:32Z</time>
      </trkpt>
      <trkpt lat="49.34564" lon="1.39451">
        <ele>96</ele>
        <time>2017-10-10T16:20:33Z</time>
      </trkpt>
      <trkpt lat="49.34561" lon="1.39446">
        <ele>96</ele>
        <time>2017-10-10T16:20:33Z</time>
      </trkpt>
      <trkpt lat="49.34559" lon="1.39441">
        <ele>96</ele>
        <time>2017-10-10T16:20:33Z</time>
      </trkpt>
      <trkpt lat="49.34557" lon="1.39435">
        <ele>96</ele>
        <time>2017-10-10T16:20:48Z</time>
      </trkpt>
      <trkpt lat="49.34555" lon="1.3943">
        <ele>96</ele>
        <time>2017-10-10T16:20:49Z</time>
      </trkpt>
      <trkpt lat="49.34553" lon="1.39425">
        <ele>96</ele>
        <time>2017-10-10T16:20:49Z</time>
      </trkpt>
      <trkpt lat="49.3455" lon="1.3942">
        <ele>96</ele>
        <time>2017-10-10T16:20:49Z</time>
      </trkpt>
      <trkpt lat="49.34548" lon="1.39414">
        <ele>96</ele>
        <time>2017-10-10T16:21:04Z</time>
      </trkpt>
      <trkpt lat="49.34546" lon="1.39409">
        <ele>96</ele>
        <time>2017-10-10T16:21:05Z</time>
      </trkpt>
      <trkpt lat="49.34544" lon="1.39404">
        <ele>96</ele>
        <time>2017-10-10T16:21:05Z</time>
      </trkpt>
      <trkpt lat="49.34541" lon="1.39398">
        <ele>100</ele>
        <time>2017-10-10T16:21:05Z</time>
      </trkpt>
      <trkpt lat="49.34539" lon="1.39393">
        <ele>100</ele>
        <time>2017-10-10T16:21:20Z</time>
      </trkpt>
      <trkpt lat="49.34537" lon="1.39387">
        <ele>100</ele>
        <time>2017-10-10T16:21:21Z</time>
      </trkpt>
      <trkpt lat="49.34535" lon="1.39381">
        <ele>100</ele>
        <time>2017-10-10T16:21:21Z</time>
      </trkpt>
      <trkpt lat="49.34532" lon="1.39376">
        <ele>100</ele>
        <time>2017-10-10T16:21:21Z</time>
      </trkpt>
      <trkpt lat="49.3453" lon="1.39371">
        <ele>103</ele>
        <time>2017-10-10T16:21:36Z</time>
      </trkpt>
      <trkpt lat="49.34527" lon="1.39366">
        <ele>103</ele>
        <time>2017-10-10T16:21:37Z</time>
      </trkpt>
      <trkpt lat="49.34525" lon="1.3936">
        <ele>103</ele>
        <time>2017-10-10T16:21:37Z</time>
      </trkpt>
      <trkpt lat="49.34522" lon="1.39355">
        <ele>103</ele>
        <time>2017-10-10T16:21:37Z</time>
      </trkpt>
      <trkpt lat="49.34519" lon="1.3935">
        <ele>103</ele>
        <time>2017-10-10T16:21:52Z</time>
      </trkpt>
      <trkpt lat="49.34517" lon="1.39346">
        <ele>103</ele>
        <time>2017-10-10T16:21:53Z</time>
      </trkpt>
      <trkpt lat="49.34514" lon="1.39341">
        <ele>103</ele>
        <time>2017-10-10T16:21:53Z</time>
      </trkpt>
      <trkpt lat="49.34511" lon="1.39336">
        <ele>103</ele>
        <time>2017-10-10T16:21:53Z</time>
      </trkpt>
      <trkpt lat="49.34508" lon="1.39332">
        <ele>103</ele>
        <time>2017-10-10T16:22:08Z</time>
      </trkpt>
      <trkpt lat="49.34505" lon="1.39327">
        <ele>103</ele>
        <time>2017-10-10T16:22:09Z</time>
      </trkpt>
      <trkpt lat="49.34503" lon="1.39323">
        <ele>103</ele>
        <time>2017-10-10T16:22:09Z</time>
      </trkpt>
      <trkpt lat="49.345" lon="1.39318">
        <ele>103</ele>
        <time>2017-10-10T16:22:09Z</time>
      </trkpt>
      <trkpt lat="49.34497" lon="1.39313">
        <ele>103</ele>
        <time>2017-10-10T16:22:24Z</time>
      </trkpt>
      <trkpt lat="49.34494" lon="1.39309">
        <ele>103</ele>
        <time>2017-10-10T16:22:25Z</time>
      </trkpt>
      <trkpt lat="49.3449" lon="1.39305">
        <ele>103</ele>
        <time>2017-10-10T16:22:25Z</time>
      </trkpt>
      <trkpt lat="49.34487" lon="1.393">
        <ele>103</ele>
        <time>2017-10-10T16:22:25Z</time>
      </trkpt>
      <trkpt lat="49.34484" lon="1.39295">
        <ele>103</ele>
        <time>2017-10-10T16:22:40Z</time>
      </trkpt>
      <trkpt lat="49.3448" lon="1.39291">
        <ele>110</ele>
        <time>2017-10-10T16:22:41Z</time>
      </trkpt>
      <trkpt lat="49.34477" lon="1.39287">
        <ele>110</ele>
        <time>2017-10-10T16:22:41Z</time>
      </trkpt>
      <trkpt lat="49.34473" lon="1.39283">
        <ele>110</ele>
        <time>2017-10-10T16:22:41Z</time>
      </trkpt>
      <trkpt lat="49.3447" lon="1.39279">
        <ele>110</ele>
        <time>2017-10-10T16:22:56Z</time>
      </trkpt>
      <trkpt lat="49.34467" lon="1.39274">
        <ele>110</ele>
        <time>2017-10-10T16:22:57Z</time>
      </trkpt>
      <trkpt lat="49.34463" lon="1.3927">
        <ele>110</ele>
        <time>2017-10-10T16:22:57Z</time>
      </trkpt>
      <trkpt lat="49.3446" lon="1.39266">
        <ele>110</ele>
        <time>2017-10-10T16:22:57Z</time>
      </trkpt>
      <trkpt lat="49.34457" lon="1.39262">
        <ele>111</ele>
        <time>2017-10-10T16:23:12Z</time>
      </trkpt>
      <trkpt lat="49.34453" lon="1.39258">
        <ele>111</ele>
        <time>2017-10-10T16:23:13Z</time>
      </trkpt>
      <trkpt lat="49.3445" lon="1.39254">
        <ele>111</ele>
        <time>2017-10-10T16:23:13Z</time>
      </trkpt>
      <trkpt lat="49.34447" lon="1.3925">
        <ele>111</ele>
        <time>2017-10-10T16:23:13Z</time>
      </trkpt>
      <trkpt lat="49.34443" lon="1.39245">
        <ele>111</ele>
        <time>2017-10-10T16:23:28Z</time>
      </trkpt>
      <trkpt lat="49.3444" lon="1.39241">
        <ele>111</ele>
        <time>2017-10-10T16:23:29Z</time>
      </trkpt>
      <trkpt lat="49.34437" lon="1.39236">
        <ele>111</ele>
        <time>2017-10-10T16:23:29Z</time>
      </trkpt>
      <trkpt lat="49.34433" lon="1.39232">
        <ele>111</ele>
        <time>2017-10-10T16:23:29Z</time>
      </trkpt>
      <trkpt lat="49.3443" lon="1.39228">
        <ele>111</ele>
        <time>2017-10-10T16:23:44Z</time>
      </trkpt>
      <trkpt lat="49.34426" lon="1.39224">
        <ele>111</ele>
        <time>2017-10-10T16:23:45Z</time>
      </trkpt>
      <trkpt lat="49.34423" lon="1.3922">
        <ele>111</ele>
        <time>2017-10-10T16:23:45Z</time>
      </trkpt>
      <trkpt lat="49.34419" lon="1.39217">
        <ele>111</ele>
        <time>2017-10-10T16:23:45Z</time>
      </trkpt>
      <trkpt lat="49.34415" lon="1.39213">
        <ele>111</ele>
        <time>2017-10-10T16:24:00Z</time>
      </trkpt>
      <trkpt lat="49.34412" lon="1.39209">
        <ele>111</ele>
        <time>2017-10-10T16:24:01Z</time>
      </trkpt>
      <trkpt lat="49.34408" lon="1.39205">
        <ele>115</ele>
        <time>2017-10-10T16:24:01Z</time>
      </trkpt>
      <trkpt lat="49.34405" lon="1.39201">
        <ele>115</ele>
        <time>2017-10-10T16:24:01Z</time>
      </trkpt>
      <trkpt lat="49.34402" lon="1.39197">
        <ele>115</ele>
        <time>2017-10-10T16:24:16Z</time>
      </trkpt>
      <trkpt lat="49.34398" lon="1.39194">
        <ele>115</ele>
        <time>2017-10-10T16:24:17Z</time>
      </trkpt>
      <trkpt lat="49.34395" lon="1.3919">
        <ele>115</ele>
        <time>2017-10-10T16:24:17Z</time>
      </trkpt>
      <trkpt lat="49.34392" lon="1.39186">
        <ele>115</ele>
        <time>2017-10-10T16:24:17Z</time>
      </trkpt>
      <trkpt lat="49.34388" lon="1.39182">
        <ele>115</ele>
        <time>2017-10-10T16:24:32Z</time>
      </trkpt>
      <trkpt lat="49.34385" lon="1.39178">
        <ele>115</ele>
        <time>2017-10-10T16:24:33Z</time>
      </trkpt>
      <trkpt lat="49.34381" lon="1.39174">
        <ele>115</ele>
        <time>2017-10-10T16:24:33Z</time>
      </trkpt>
      <trkpt lat="49.34377" lon="1.3917">
        <ele>115</ele>
        <time>2017-10-10T16:24:33Z</time>
      </trkpt>
      <trkpt lat="49.34373" lon="1.39166">
        <ele>115</ele>
        <time>2017-10-10T16:24:48Z</time>
      </trkpt>
      <trkpt lat="49.34369" lon="1.39163">
        <ele>115</ele>
        <time>2017-10-10T16:24:49Z</time>
      </trkpt>
      <trkpt lat="49.34365" lon="1.39161">
        <ele>115</ele>
        <time>2017-10-10T16:24:49Z</time>
      </trkpt>
      <trkpt lat="49.34361" lon="1.3916">
        <ele>115</ele>
        <time>2017-10-10T16:24:49Z</time>
      </trkpt>
      <trkpt lat="49.34356" lon="1.39159">
        <ele>115</ele>
        <time>2017-10-10T16:25:04Z</time>
      </trkpt>
      <trkpt lat="49.34352" lon="1.39158">
        <ele>115</ele>
        <time>2017-10-10T16:25:05Z</time>
      </trkpt>
      <trkpt lat="49.34347" lon="1.39159">
        <ele>115</ele>
        <time>2017-10-10T16:25:05Z</time>
      </trkpt>
      <trkpt lat="49.34343" lon="1.39159">
        <ele>115</ele>
        <time>2017-10-10T16:25:05Z</time>
      </trkpt>
      <trkpt lat="49.34339" lon="1.39159">
        <ele>115</ele>
        <time>2017-10-10T16:25:20Z</time>
      </trkpt>
      <trkpt lat="49.34334" lon="1.3916">
        <ele>115</ele>
        <time>2017-10-10T16:25:21Z</time>
      </trkpt>
      <trkpt lat="49.3433" lon="1.39161">
        <ele>115</ele>
        <time>2017-10-10T16:25:21Z</time>
      </trkpt>
      <trkpt lat="49.34326" lon="1.39161">
        <ele>115</ele>
        <time>2017-10-10T16:25:21Z</time>
      </trkpt>
      <trkpt lat="49.34322" lon="1.39162">
        <ele>115</ele>
        <time>2017-10-10T16:25:36Z</time>
      </trkpt>
      <trkpt lat="49.34317" lon="1.39162">
        <ele>115</ele>
        <time>2017-10-10T16:25:37Z</time>
      </trkpt>
      <trkpt lat="49.34313" lon="1.39162">
        <ele>115</ele>
        <time>2017-10-10T16:25:37Z</time>
      </trkpt>
      <trkpt lat="49.34309" lon="1.39162">
        <ele>115</ele>
        <time>2017-10-10T16:25:37Z</time>
      </trkpt>
      <trkpt lat="49.34305" lon="1.39161">
        <ele>115</ele>
        <time>2017-10-10T16:25:52Z</time>
      </trkpt>
      <trkpt lat="49.34301" lon="1.3916">
        <ele>115</ele>
        <time>2017-10-10T16:25:53Z</time>
      </trkpt>
      <trkpt lat="49.34296" lon="1.39158">
        <ele>115</ele>
        <time>2017-10-10T16:25:53Z</time>
      </trkpt>
      <trkpt lat="49.34292" lon="1.39157">
        <ele>115</ele>
        <time>2017-10-10T16:25:53Z</time>
      </trkpt>
      <trkpt lat="49.34289" lon="1.39156">
        <ele>120</ele>
        <time>2017-10-10T16:26:08Z</time>
      </trkpt>
      <trkpt lat="49.34285" lon="1.39153">
        <ele>120</ele>
        <time>2017-10-10T16:26:09Z</time>
      </trkpt>
      <trkpt lat="49.34282" lon="1.39151">
        <ele>120</ele>
        <time>2017-10-10T16:26:09Z</time>
      </trkpt>
      <trkpt lat="49.34277" lon="1.39148">
        <ele>120</ele>
        <time>2017-10-10T16:26:09Z</time>
      </trkpt>
      <trkpt lat="49.34273" lon="1.39146">
        <ele>120</ele>
        <time>2017-10-10T16:26:24Z</time>
      </trkpt>
      <trkpt lat="49.34269" lon="1.39144">
        <ele>120</ele>
        <time>2017-10-10T16:26:25Z</time>
      </trkpt>
      <trkpt lat="49.34265" lon="1.39142">
        <ele>120</ele>
        <time>2017-10-10T16:26:25Z</time>
      </trkpt>
      <trkpt lat="49.34263" lon="1.3914">
        <ele>120</ele>
        <time>2017-10-10T16:26:25Z</time>
      </trkpt>
      <trkpt lat="49.34258" lon="1.39137">
        <ele>120</ele>
        <time>2017-10-10T16:26:40Z</time>
      </trkpt>
      <trkpt lat="49.34254" lon="1.39136">
        <ele>120</ele>
        <time>2017-10-10T16:26:41Z</time>
      </trkpt>
      <trkpt lat="49.3425" lon="1.39133">
        <ele>120</ele>
        <time>2017-10-10T16:26:41Z</time>
      </trkpt>
      <trkpt lat="49.34246" lon="1.39132">
        <ele>120</ele>
        <time>2017-10-10T16:26:41Z</time>
      </trkpt>
      <trkpt lat="49.34241" lon="1.3913">
        <ele>120</ele>
        <time>2017-10-10T16:26:56Z</time>
      </trkpt>
      <trkpt lat="49.34237" lon="1.39129">
        <ele>120</ele>
        <time>2017-10-10T16:26:57Z</time>
      </trkpt>
      <trkpt lat="49.34233" lon="1.39127">
        <ele>120</ele>
        <time>2017-10-10T16:26:57Z</time>
      </trkpt>
      <trkpt lat="49.3423" lon="1.39125">
        <ele>120</ele>
        <time>2017-10-10T16:26:57Z</time>
      </trkpt>
      <trkpt lat="49.34224" lon="1.39124">
        <ele>118</ele>
        <time>2017-10-10T16:27:12Z</time>
      </trkpt>
      <trkpt lat="49.3422" lon="1.39122">
        <ele>118</ele>
        <time>2017-10-10T16:27:13Z</time>
      </trkpt>
      <trkpt lat="49.34215" lon="1.39121">
        <ele>118</ele>
        <time>2017-10-10T16:27:13Z</time>
      </trkpt>
      <trkpt lat="49.3421" lon="1.39119">
        <ele>118</ele>
        <time>2017-10-10T16:27:13Z</time>
      </trkpt>
      <trkpt lat="49.34206" lon="1.39117">
        <ele>123</ele>
        <time>2017-10-10T16:27:28Z</time>
      </trkpt>
      <trkpt lat="49.34201" lon="1.39115">
        <ele>123</ele>
        <time>2017-10-10T16:27:29Z</time>
      </trkpt>
      <trkpt lat="49.34197" lon="1.39113">
        <ele>123</ele>
        <time>2017-10-10T16:27:29Z</time>
      </trkpt>
      <trkpt lat="49.34192" lon="1.39112">
        <ele>123</ele>
        <time>2017-10-10T16:27:29Z</time>
      </trkpt>
      <trkpt lat="49.34188" lon="1.3911">
        <ele>123</ele>
        <time>2017-10-10T16:27:44Z</time>
      </trkpt>
      <trkpt lat="49.34184" lon="1.39109">
        <ele>123</ele>
        <time>2017-10-10T16:27:45Z</time>
      </trkpt>
      <trkpt lat="49.34179" lon="1.39108">
        <ele>123</ele>
        <time>2017-10-10T16:27:45Z</time>
      </trkpt>
      <trkpt lat="49.34174" lon="1.39107">
        <ele>123</ele>
        <time>2017-10-10T16:27:45Z</time>
      </trkpt>
      <trkpt lat="49.34169" lon="1.39106">
        <ele>123</ele>
        <time>2017-10-10T16:28:00Z</time>
      </trkpt>
      <trkpt lat="49.34165" lon="1.39104">
        <ele>123</ele>
        <time>2017-10-10T16:28:01Z</time>
      </trkpt>
      <trkpt lat="49.3416" lon="1.39103">
        <ele>123</ele>
        <time>2017-10-10T16:28:01Z</time>
      </trkpt>
      <trkpt lat="49.34155" lon="1.39101">
        <ele>123</ele>
        <time>2017-10-10T16:28:01Z</time>
      </trkpt>
      <trkpt lat="49.34152" lon="1.39097">
        <ele>123</ele>
        <time>2017-10-10T16:28:16Z</time>
      </trkpt>
      <trkpt lat="49.34149" lon="1.39091">
        <ele>123</ele>
        <time>2017-10-10T16:28:17Z</time>
      </trkpt>
      <trkpt lat="49.3415" lon="1.39084">
        <ele>123</ele>
        <time>2017-10-10T16:28:17Z</time>
      </trkpt>
      <trkpt lat="49.34152" lon="1.39078">
        <ele>123</ele>
        <time>2017-10-10T16:28:17Z</time>
      </trkpt>
      <trkpt lat="49.34155" lon="1.39073">
        <ele>123</ele>
        <time>2017-10-10T16:28:32Z</time>
      </trkpt>
      <trkpt lat="49.34158" lon="1.3907">
        <ele>123</ele>
        <time>2017-10-10T16:28:33Z</time>
      </trkpt>
      <trkpt lat="49.34162" lon="1.39065">
        <ele>123</ele>
        <time>2017-10-10T16:28:33Z</time>
      </trkpt>
      <trkpt lat="49.34165" lon="1.39061">
        <ele>123</ele>
        <time>2017-10-10T16:28:33Z</time>
      </trkpt>
      <trkpt lat="49.34167" lon="1.39057">
        <ele>123</ele>
        <time>2017-10-10T16:28:48Z</time>
      </trkpt>
      <trkpt lat="49.34171" lon="1.39051">
        <ele>123</ele>
        <time>2017-10-10T16:28:49Z</time>
      </trkpt>
      <trkpt lat="49.34173" lon="1.39045">
        <ele>123</ele>
        <time>2017-10-10T16:28:49Z</time>
      </trkpt>
      <trkpt lat="49.34176" lon="1.3904">
        <ele>123</ele>
        <time>2017-10-10T16:28:49Z</time>
      </trkpt>
      <trkpt lat="49.34179" lon="1.39035">
        <ele>123</ele>
        <time>2017-10-10T16:29:04Z</time>
      </trkpt>
      <trkpt lat="49.34182" lon="1.3903">
        <ele>123</ele>
        <time>2017-10-10T16:29:05Z</time>
      </trkpt>
      <trkpt lat="49.34184" lon="1.39025">
        <ele>123</ele>
        <time>2017-10-10T16:29:05Z</time>
      </trkpt>
      <trkpt lat="49.34186" lon="1.39021">
        <ele>123</ele>
        <time>2017-10-10T16:29:05Z</time>
      </trkpt>
      <trkpt lat="49.34189" lon="1.39016">
        <ele>123</ele>
        <time>2017-10-10T16:29:20Z</time>
      </trkpt>
      <trkpt lat="49.34192" lon="1.3901">
        <ele>123</ele>
        <time>2017-10-10T16:29:21Z</time>
      </trkpt>
      <trkpt lat="49.34193" lon="1.39004">
        <ele>123</ele>
        <time>2017-10-10T16:29:21Z</time>
      </trkpt>
      <trkpt lat="49.34193" lon="1.38998">
        <ele>123</ele>
        <time>2017-10-10T16:29:21Z</time>
      </trkpt>
      <trkpt lat="49.34195" lon="1.38992">
        <ele>123</ele>
        <time>2017-10-10T16:29:36Z</time>
      </trkpt>
      <trkpt lat="49.34196" lon="1.38985">
        <ele>123</ele>
        <time>2017-10-10T16:29:37Z</time>
      </trkpt>
      <trkpt lat="49.34196" lon="1.3898">
        <ele>123</ele>
        <time>2017-10-10T16:29:37Z</time>
      </trkpt>
      <trkpt lat="49.34195" lon="1.38972">
        <ele>123</ele>
        <time>2017-10-10T16:29:37Z</time>
      </trkpt>
      <trkpt lat="49.34194" lon="1.38967">
        <ele>123</ele>
        <time>2017-10-10T16:29:52Z</time>
      </trkpt>
      <trkpt lat="49.34192" lon="1.38959">
        <ele>123</ele>
        <time>2017-10-10T16:29:53Z</time>
      </trkpt>
      <trkpt lat="49.3419" lon="1.38952">
        <ele>122</ele>
        <time>2017-10-10T16:29:53Z</time>
      </trkpt>
      <trkpt lat="49.34188" lon="1.38945">
        <ele>122</ele>
        <time>2017-10-10T16:29:53Z</time>
      </trkpt>
      <trkpt lat="49.34186" lon="1.38938">
        <ele>122</ele>
        <time>2017-10-10T16:30:08Z</time>
      </trkpt>
      <trkpt lat="49.34184" lon="1.38932">
        <ele>122</ele>
        <time>2017-10-10T16:30:09Z</time>
      </trkpt>
      <trkpt lat="49.34182" lon="1.38926">
        <ele>122</ele>
        <time>2017-10-10T16:30:09Z</time>
      </trkpt>
      <trkpt lat="49.34179" lon="1.3892">
        <ele>122</ele>
        <time>2017-10-10T16:30:09Z</time>
      </trkpt>
      <trkpt lat="49.34177" lon="1.38915">
        <ele>122</ele>
        <time>2017-10-10T16:30:24Z</time>
      </trkpt>
      <trkpt lat="49.34174" lon="1.3891">
        <ele>122</ele>
        <time>2017-10-10T16:30:25Z</time>
      </trkpt>
      <trkpt lat="49.3417" lon="1.38909">
        <ele>122</ele>
        <time>2017-10-10T16:30:25Z</time>
      </trkpt>
      <trkpt lat="49.34166" lon="1.38912">
        <ele>122</ele>
        <time>2017-10-10T16:30:25Z</time>
      </trkpt>
      <trkpt lat="49.34163" lon="1.38915">
        <ele>122</ele>
        <time>2017-10-10T16:30:40Z</time>
      </trkpt>
      <trkpt lat="49.34159" lon="1.38918">
        <ele>122</ele>
        <time>2017-10-10T16:30:41Z</time>
      </trkpt>
      <trkpt lat="49.34156" lon="1.38922">
        <ele>122</ele>
        <time>2017-10-10T16:30:41Z</time>
      </trkpt>
      <trkpt lat="49.34153" lon="1.38927">
        <ele>122</ele>
        <time>2017-10-10T16:30:41Z</time>
      </trkpt>
      <trkpt lat="49.3415" lon="1.38932">
        <ele>122</ele>
        <time>2017-10-10T16:30:56Z</time>
      </trkpt>
      <trkpt lat="49.34146" lon="1.38936">
        <ele>122</ele>
        <time>2017-10-10T16:30:57Z</time>
      </trkpt>
      <trkpt lat="49.34144" lon="1.38939">
        <ele>122</ele>
        <time>2017-10-10T16:30:57Z</time>
      </trkpt>
      <trkpt lat="49.3414" lon="1.38944">
        <ele>122</ele>
        <time>2017-10-10T16:30:57Z</time>
      </trkpt>
      <trkpt lat="49.34136" lon="1.38949">
        <ele>122</ele>
        <time>2017-10-10T16:31:12Z</time>
      </trkpt>
      <trkpt lat="49.34133" lon="1.38953">
        <ele>122</ele>
        <time>2017-10-10T16:31:13Z</time>
      </trkpt>
      <trkpt lat="49.3413" lon="1.38956">
        <ele>122</ele>
        <time>2017-10-10T16:31:13Z</time>
      </trkpt>
      <trkpt lat="49.34126" lon="1.38962">
        <ele>123</ele>
        <time>2017-10-10T16:31:13Z</time>
      </trkpt>
      <trkpt lat="49.34123" lon="1.38967">
        <ele>126</ele>
        <time>2017-10-10T16:31:28Z</time>
      </trkpt>
      <trkpt lat="49.34119" lon="1.38971">
        <ele>126</ele>
        <time>2017-10-10T16:31:29Z</time>
      </trkpt>
      <trkpt lat="49.34115" lon="1.38975">
        <ele>126</ele>
        <time>2017-10-10T16:31:29Z</time>
      </trkpt>
      <trkpt lat="49.34111" lon="1.38979">
        <ele>126</ele>
        <time>2017-10-10T16:31:29Z</time>
      </trkpt>
      <trkpt lat="49.34107" lon="1.38984">
        <ele>126</ele>
        <time>2017-10-10T16:31:44Z</time>
      </trkpt>
      <trkpt lat="49.34104" lon="1.38987">
        <ele>126</ele>
        <time>2017-10-10T16:31:45Z</time>
      </trkpt>
      <trkpt lat="49.341" lon="1.38993">
        <ele>126</ele>
        <time>2017-10-10T16:31:45Z</time>
      </trkpt>
      <trkpt lat="49.34096" lon="1.38996">
        <ele>126</ele>
        <time>2017-10-10T16:31:45Z</time>
      </trkpt>
      <trkpt lat="49.34091" lon="1.38999">
        <ele>126</ele>
        <time>2017-10-10T16:32:00Z</time>
      </trkpt>
      <trkpt lat="49.34086" lon="1.38999">
        <ele>126</ele>
        <time>2017-10-10T16:32:01Z</time>
      </trkpt>
      <trkpt lat="49.34082" lon="1.38997">
        <ele>126</ele>
        <time>2017-10-10T16:32:01Z</time>
      </trkpt>
      <trkpt lat="49.34077" lon="1.38993">
        <ele>126</ele>
        <time>2017-10-10T16:32:01Z</time>
      </trkpt>
      <trkpt lat="49.34074" lon="1.38988">
        <ele>126</ele>
        <time>2017-10-10T16:32:16Z</time>
      </trkpt>
      <trkpt lat="49.34071" lon="1.38982">
        <ele>126</ele>
        <time>2017-10-10T16:32:17Z</time>
      </trkpt>
      <trkpt lat="49.34069" lon="1.38977">
        <ele>126</ele>
        <time>2017-10-10T16:32:17Z</time>
      </trkpt>
      <trkpt lat="49.34066" lon="1.38971">
        <ele>126</ele>
        <time>2017-10-10T16:32:17Z</time>
      </trkpt>
      <trkpt lat="49.34063" lon="1.38964">
        <ele>126</ele>
        <time>2017-10-10T16:32:32Z</time>
      </trkpt>
      <trkpt lat="49.3406" lon="1.38958">
        <ele>124</ele>
        <time>2017-10-10T16:32:33Z</time>
      </trkpt>
      <trkpt lat="49.34058" lon="1.38954">
        <ele>124</ele>
        <time>2017-10-10T16:32:33Z</time>
      </trkpt>
      <trkpt lat="49.34055" lon="1.38947">
        <ele>124</ele>
        <time>2017-10-10T16:32:33Z</time>
      </trkpt>
      <trkpt lat="49.34052" lon="1.38942">
        <ele>124</ele>
        <time>2017-10-10T16:32:48Z</time>
      </trkpt>
      <trkpt lat="49.3405" lon="1.38937">
        <ele>124</ele>
        <time>2017-10-10T16:32:49Z</time>
      </trkpt>
      <trkpt lat="49.34047" lon="1.38932">
        <ele>124</ele>
        <time>2017-10-10T16:32:49Z</time>
      </trkpt>
      <trkpt lat="49.34044" lon="1.38927">
        <ele>124</ele>
        <time>2017-10-10T16:32:49Z</time>
      </trkpt>
      <trkpt lat="49.34041" lon="1.38922">
        <ele>129</ele>
        <time>2017-10-10T16:33:04Z</time>
      </trkpt>
      <trkpt lat="49.34038" lon="1.38916">
        <ele>129</ele>
        <time>2017-10-10T16:33:05Z</time>
      </trkpt>
      <trkpt lat="49.34035" lon="1.3891">
        <ele>129</ele>
        <time>2017-10-10T16:33:05Z</time>
      </trkpt>
      <trkpt lat="49.34032" lon="1.38905">
        <ele>129</ele>
        <time>2017-10-10T16:33:05Z</time>
      </trkpt>
      <trkpt lat="49.34029" lon="1.38899">
        <ele>129</ele>
        <time>2017-10-10T16:33:20Z</time>
      </trkpt>
      <trkpt lat="49.34027" lon="1.38893">
        <ele>129</ele>
        <time>2017-10-10T16:33:21Z</time>
      </trkpt>
      <trkpt lat="49.34023" lon="1.38888">
        <ele>129</ele>
        <time>2017-10-10T16:33:21Z</time>
      </trkpt>
      <trkpt lat="49.3402" lon="1.38883">
        <ele>129</ele>
        <time>2017-10-10T16:33:21Z</time>
      </trkpt>
      <trkpt lat="49.34016" lon="1.3888">
        <ele>129</ele>
        <time>2017-10-10T16:33:36Z</time>
      </trkpt>
      <trkpt lat="49.34011" lon="1.38879">
        <ele>129</ele>
        <time>2017-10-10T16:33:37Z</time>
      </trkpt>
      <trkpt lat="49.34007" lon="1.3888">
        <ele>129</ele>
        <time>2017-10-10T16:33:37Z</time>
      </trkpt>
      <trkpt lat="49.34002" lon="1.38883">
        <ele>129</ele>
        <time>2017-10-10T16:33:37Z</time>
      </trkpt>
      <trkpt lat="49.33999" lon="1.38887">
        <ele>129</ele>
        <time>2017-10-10T16:33:52Z</time>
      </trkpt>
      <trkpt lat="49.33995" lon="1.38891">
        <ele>129</ele>
        <time>2017-10-10T16:33:53Z</time>
      </trkpt>
      <trkpt lat="49.33991" lon="1.38896">
        <ele>129</ele>
        <time>2017-10-10T16:33:53Z</time>
      </trkpt>
      <trkpt lat="49.33988" lon="1.389">
        <ele>129</ele>
        <time>2017-10-10T16:33:53Z</time>
      </trkpt>
      <trkpt lat="49.33984" lon="1.38905">
        <ele>129</ele>
        <time>2017-10-10T16:34:08Z</time>
      </trkpt>
      <trkpt lat="49.3398" lon="1.38909">
        <ele>129</ele>
        <time>2017-10-10T16:34:09Z</time>
      </trkpt>
      <trkpt lat="49.33976" lon="1.38914">
        <ele>129</ele>
        <time>2017-10-10T16:34:09Z</time>
      </trkpt>
      <trkpt lat="49.33972" lon="1.38918">
        <ele>129</ele>
        <time>2017-10-10T16:34:09Z</time>
      </trkpt>
      <trkpt lat="49.33968" lon="1.38922">
        <ele>129</ele>
        <time>2017-10-10T16:34:24Z</time>
      </trkpt>
      <trkpt lat="49.33965" lon="1.38926">
        <ele>129</ele>
        <time>2017-10-10T16:34:25Z</time>
      </trkpt>
      <trkpt lat="49.3396" lon="1.38931">
        <ele>129</ele>
        <time>2017-10-10T16:34:25Z</time>
      </trkpt>
      <trkpt lat="49.33956" lon="1.38936">
        <ele>130</ele>
        <time>2017-10-10T16:34:25Z</time>
      </trkpt>
      <trkpt lat="49.33952" lon="1.3894">
        <ele>130</ele>
        <time>2017-10-10T16:34:40Z</time>
      </trkpt>
      <trkpt lat="49.33948" lon="1.38944">
        <ele>130</ele>
        <time>2017-10-10T16:34:41Z</time>
      </trkpt>
      <trkpt lat="49.33944" lon="1.38948">
        <ele>130</ele>
        <time>2017-10-10T16:34:41Z</time>
      </trkpt>
      <trkpt lat="49.3394" lon="1.38952">
        <ele>130</ele>
        <time>2017-10-10T16:34:41Z</time>
      </trkpt>
      <trkpt lat="49.33936" lon="1.38956">
        <ele>130</ele>
        <time>2017-10-10T16:34:56Z</time>
      </trkpt>
      <trkpt lat="49.33932" lon="1.3896">
        <ele>132</ele>
        <time>2017-10-10T16:34:57Z</time>
      </trkpt>
      <trkpt lat="49.33928" lon="1.38965">
        <ele>132</ele>
        <time>2017-10-10T16:34:57Z</time>
      </trkpt>
      <trkpt lat="49.33925" lon="1.38969">
        <ele>132</ele>
        <time>2017-10-10T16:34:57Z</time>
      </trkpt>
      <trkpt lat="49.33922" lon="1.38973">
        <ele>132</ele>
        <time>2017-10-10T16:35:12Z</time>
      </trkpt>
      <trkpt lat="49.33918" lon="1.38977">
        <ele>132</ele>
        <time>2017-10-10T16:35:13Z</time>
      </trkpt>
      <trkpt lat="49.33915" lon="1.38981">
        <ele>132</ele>
        <time>2017-10-10T16:35:13Z</time>
      </trkpt>
      <trkpt lat="49.33911" lon="1.38984">
        <ele>132</ele>
        <time>2017-10-10T16:35:13Z</time>
      </trkpt>
      <trkpt lat="49.33908" lon="1.38989">
        <ele>132</ele>
        <time>2017-10-10T16:35:28Z</time>
      </trkpt>
      <trkpt lat="49.33905" lon="1.38992">
        <ele>132</ele>
        <time>2017-10-10T16:35:29Z</time>
      </trkpt>
      <trkpt lat="49.339" lon="1.38997">
        <ele>132</ele>
        <time>2017-10-10T16:35:29Z</time>
      </trkpt>
      <trkpt lat="49.33896" lon="1.39001">
        <ele>132</ele>
        <time>2017-10-10T16:35:29Z</time>
      </trkpt>
      <trkpt lat="49.33892" lon="1.39005">
        <ele>132</ele>
        <time>2017-10-10T16:35:44Z</time>
      </trkpt>
      <trkpt lat="49.33888" lon="1.39009">
        <ele>132</ele>
        <time>2017-10-10T16:35:45Z</time>
      </trkpt>
      <trkpt lat="49.33884" lon="1.39012">
        <ele>132</ele>
        <time>2017-10-10T16:35:45Z</time>
      </trkpt>
      <trkpt lat="49.33879" lon="1.39013">
        <ele>132</ele>
        <time>2017-10-10T16:35:45Z</time>
      </trkpt>
      <trkpt lat="49.33874" lon="1.39012">
        <ele>131</ele>
        <time>2017-10-10T16:36:00Z</time>
      </trkpt>
      <trkpt lat="49.33872" lon="1.39009">
        <ele>131</ele>
        <time>2017-10-10T16:36:01Z</time>
      </trkpt>
      <trkpt lat="49.33867" lon="1.39002">
        <ele>131</ele>
        <time>2017-10-10T16:36:01Z</time>
      </trkpt>
      <trkpt lat="49.33864" lon="1.38996">
        <ele>131</ele>
        <time>2017-10-10T16:36:01Z</time>
      </trkpt>
      <trkpt lat="49.3386" lon="1.38991">
        <ele>131</ele>
        <time>2017-10-10T16:36:16Z</time>
      </trkpt>
      <trkpt lat="49.33857" lon="1.38986">
        <ele>131</ele>
        <time>2017-10-10T16:36:17Z</time>
      </trkpt>
      <trkpt lat="49.33854" lon="1.3898">
        <ele>131</ele>
        <time>2017-10-10T16:36:17Z</time>
      </trkpt>
      <trkpt lat="49.33851" lon="1.38975">
        <ele>131</ele>
        <time>2017-10-10T16:36:17Z</time>
      </trkpt>
      <trkpt lat="49.33847" lon="1.3897">
        <ele>131</ele>
        <time>2017-10-10T16:36:32Z</time>
      </trkpt>
      <trkpt lat="49.33845" lon="1.38966">
        <ele>131</ele>
        <time>2017-10-10T16:36:33Z</time>
      </trkpt>
      <trkpt lat="49.3384" lon="1.3896">
        <ele>131</ele>
        <time>2017-10-10T16:36:33Z</time>
      </trkpt>
      <trkpt lat="49.33836" lon="1.38956">
        <ele>131</ele>
        <time>2017-10-10T16:36:33Z</time>
      </trkpt>
      <trkpt lat="49.33831" lon="1.38955">
        <ele>131</ele>
        <time>2017-10-10T16:36:48Z</time>
      </trkpt>
      <trkpt lat="49.33826" lon="1.38957">
        <ele>131</ele>
        <time>2017-10-10T16:36:49Z</time>
      </trkpt>
      <trkpt lat="49.33822" lon="1.38961">
        <ele>131</ele>
        <time>2017-10-10T16:36:49Z</time>
      </trkpt>
      <trkpt lat="49.33818" lon="1.38966">
        <ele>131</ele>
        <time>2017-10-10T16:36:49Z</time>
      </trkpt>
      <trkpt lat="49.33815" lon="1.38972">
        <ele>131</ele>
        <time>2017-10-10T16:37:04Z</time>
      </trkpt>
      <trkpt lat="49.33812" lon="1.38977">
        <ele>131</ele>
        <time>2017-10-10T16:37:05Z</time>
      </trkpt>
      <trkpt lat="49.33808" lon="1.38983">
        <ele>131</ele>
        <time>2017-10-10T16:37:05Z</time>
      </trkpt>
      <trkpt lat="49.33804" lon="1.38988">
        <ele>131</ele>
        <time>2017-10-10T16:37:05Z</time>
      </trkpt>
      <trkpt lat="49.33801" lon="1.38993">
        <ele>131</ele>
        <time>2017-10-10T16:37:20Z</time>
      </trkpt>
      <trkpt lat="49.33798" lon="1.38997">
        <ele>131</ele>
        <time>2017-10-10T16:37:21Z</time>
      </trkpt>
      <trkpt lat="49.33794" lon="1.39001">
        <ele>131</ele>
        <time>2017-10-10T16:37:21Z</time>
      </trkpt>
      <trkpt lat="49.33791" lon="1.39006">
        <ele>131</ele>
        <time>2017-10-10T16:37:21Z</time>
      </trkpt>
      <trkpt lat="49.33787" lon="1.39013">
        <ele>131</ele>
        <time>2017-10-10T16:37:36Z</time>
      </trkpt>
      <trkpt lat="49.33784" lon="1.39017">
        <ele>131</ele>
        <time>2017-10-10T16:37:37Z</time>
      </trkpt>
      <trkpt lat="49.3378" lon="1.39023">
        <ele>131</ele>
        <time>2017-10-10T16:37:37Z</time>
      </trkpt>
      <trkpt lat="49.33777" lon="1.39029">
        <ele>131</ele>
        <time>2017-10-10T16:37:37Z</time>
      </trkpt>
      <trkpt lat="49.33773" lon="1.39033">
        <ele>131</ele>
        <time>2017-10-10T16:37:53Z</time>
      </trkpt>
      <trkpt lat="49.3377" lon="1.39038">
        <ele>131</ele>
        <time>2017-10-10T16:37:53Z</time>
      </trkpt>
      <trkpt lat="49.33765" lon="1.39041">
        <ele>131</ele>
        <time>2017-10-10T16:37:53Z</time>
      </trkpt>
      <trkpt lat="49.33761" lon="1.39042">
        <ele>132</ele>
        <time>2017-10-10T16:37:53Z</time>
      </trkpt>
      <trkpt lat="49.33756" lon="1.39041">
        <ele>131</ele>
        <time>2017-10-10T16:38:08Z</time>
      </trkpt>
      <trkpt lat="49.33751" lon="1.39039">
        <ele>131</ele>
        <time>2017-10-10T16:38:09Z</time>
      </trkpt>
      <trkpt lat="49.33748" lon="1.39034">
        <ele>131</ele>
        <time>2017-10-10T16:38:09Z</time>
      </trkpt>
      <trkpt lat="49.33744" lon="1.39029">
        <ele>131</ele>
        <time>2017-10-10T16:38:09Z</time>
      </trkpt>
      <trkpt lat="49.3374" lon="1.39023">
        <ele>131</ele>
        <time>2017-10-10T16:38:24Z</time>
      </trkpt>
      <trkpt lat="49.33737" lon="1.39018">
        <ele>131</ele>
        <time>2017-10-10T16:38:25Z</time>
      </trkpt>
      <trkpt lat="49.33733" lon="1.39012">
        <ele>131</ele>
        <time>2017-10-10T16:38:25Z</time>
      </trkpt>
      <trkpt lat="49.3373" lon="1.39006">
        <ele>131</ele>
        <time>2017-10-10T16:38:25Z</time>
      </trkpt>
      <trkpt lat="49.33726" lon="1.39001">
        <ele>131</ele>
        <time>2017-10-10T16:38:40Z</time>
      </trkpt>
      <trkpt lat="49.33723" lon="1.38997">
        <ele>131</ele>
        <time>2017-10-10T16:38:41Z</time>
      </trkpt>
      <trkpt lat="49.33719" lon="1.3899">
        <ele>131</ele>
        <time>2017-10-10T16:38:41Z</time>
      </trkpt>
      <trkpt lat="49.33715" lon="1.38985">
        <ele>131</ele>
        <time>2017-10-10T16:38:41Z</time>
      </trkpt>
      <trkpt lat="49.33712" lon="1.3898">
        <ele>131</ele>
        <time>2017-10-10T16:38:56Z</time>
      </trkpt>
      <trkpt lat="49.33708" lon="1.38975">
        <ele>131</ele>
        <time>2017-10-10T16:38:57Z</time>
      </trkpt>
      <trkpt lat="49.33705" lon="1.3897">
        <ele>131</ele>
        <time>2017-10-10T16:38:57Z</time>
      </trkpt>
      <trkpt lat="49.33702" lon="1.38965">
        <ele>131</ele>
        <time>2017-10-10T16:38:57Z</time>
      </trkpt>
      <trkpt lat="49.33699" lon="1.3896">
        <ele>131</ele>
        <time>2017-10-10T16:39:12Z</time>
      </trkpt>
      <trkpt lat="49.33695" lon="1.38955">
        <ele>132</ele>
        <time>2017-10-10T16:39:13Z</time>
      </trkpt>
      <trkpt lat="49.33693" lon="1.38951">
        <ele>132</ele>
        <time>2017-10-10T16:39:13Z</time>
      </trkpt>
      <trkpt lat="49.33689" lon="1.38944">
        <ele>132</ele>
        <time>2017-10-10T16:39:13Z</time>
      </trkpt>
      <trkpt lat="49.33686" lon="1.38939">
        <ele>132</ele>
        <time>2017-10-10T16:39:28Z</time>
      </trkpt>
      <trkpt lat="49.33682" lon="1.38935">
        <ele>132</ele>
        <time>2017-10-10T16:39:29Z</time>
      </trkpt>
      <trkpt lat="49.33679" lon="1.3893">
        <ele>132</ele>
        <time>2017-10-10T16:39:29Z</time>
      </trkpt>
      <trkpt lat="49.33677" lon="1.38926">
        <ele>132</ele>
        <time>2017-10-10T16:39:29Z</time>
      </trkpt>
      <trkpt lat="49.33672" lon="1.38919">
        <ele>132</ele>
        <time>2017-10-10T16:39:44Z</time>
      </trkpt>
      <trkpt lat="49.33669" lon="1.38914">
        <ele>132</ele>
        <time>2017-10-10T16:39:45Z</time>
      </trkpt>
      <trkpt lat="49.33666" lon="1.38909">
        <ele>132</ele>
        <time>2017-10-10T16:39:45Z</time>
      </trkpt>
      <trkpt lat="49.33663" lon="1.38904">
        <ele>132</ele>
        <time>2017-10-10T16:39:45Z</time>
      </trkpt>
      <trkpt lat="49.3366" lon="1.38899">
        <ele>132</ele>
        <time>2017-10-10T16:40:00Z</time>
      </trkpt>
      <trkpt lat="49.33656" lon="1.38893">
        <ele>132</ele>
        <time>2017-10-10T16:40:01Z</time>
      </trkpt>
      <trkpt lat="49.33653" lon="1.38888">
        <ele>132</ele>
        <time>2017-10-10T16:40:01Z</time>
      </trkpt>
      <trkpt lat="49.3365" lon="1.38883">
        <ele>132</ele>
        <time>2017-10-10T16:40:01Z</time>
      </trkpt>
      <trkpt lat="49.33647" lon="1.38877">
        <ele>132</ele>
        <time>2017-10-10T16:40:16Z</time>
      </trkpt>
      <trkpt lat="49.33644" lon="1.38871">
        <ele>133</ele>
        <time>2017-10-10T16:40:17Z</time>
      </trkpt>
      <trkpt lat="49.33641" lon="1.38866">
        <ele>133</ele>
        <time>2017-10-10T16:40:17Z</time>
      </trkpt>
      <trkpt lat="49.33638" lon="1.38861">
        <ele>133</ele>
        <time>2017-10-10T16:40:17Z</time>
      </trkpt>
      <trkpt lat="49.33635" lon="1.38855">
        <ele>133</ele>
        <time>2017-10-10T16:40:32Z</time>
      </trkpt>
      <trkpt lat="49.33633" lon="1.38851">
        <ele>133</ele>
        <time>2017-10-10T16:40:33Z</time>
      </trkpt>
      <trkpt lat="49.33629" lon="1.38844">
        <ele>133</ele>
        <time>2017-10-10T16:40:33Z</time>
      </trkpt>
      <trkpt lat="49.33627" lon="1.38838">
        <ele>133</ele>
        <time>2017-10-10T16:40:33Z</time>
      </trkpt>
      <trkpt lat="49.33624" lon="1.38833">
        <ele>134</ele>
        <time>2017-10-10T16:40:48Z</time>
      </trkpt>
      <trkpt lat="49.33621" lon="1.38827">
        <ele>134</ele>
        <time>2017-10-10T16:40:49Z</time>
      </trkpt>
      <trkpt lat="49.33618" lon="1.38822">
        <ele>134</ele>
        <time>2017-10-10T16:40:49Z</time>
      </trkpt>
      <trkpt lat="49.33616" lon="1.38817">
        <ele>134</ele>
        <time>2017-10-10T16:40:49Z</time>
      </trkpt>
      <trkpt lat="49.33613" lon="1.38812">
        <ele>134</ele>
        <time>2017-10-10T16:41:04Z</time>
      </trkpt>
      <trkpt lat="49.3361" lon="1.38806">
        <ele>134</ele>
        <time>2017-10-10T16:41:05Z</time>
      </trkpt>
      <trkpt lat="49.33608" lon="1.38802">
        <ele>134</ele>
        <time>2017-10-10T16:41:05Z</time>
      </trkpt>
      <trkpt lat="49.33605" lon="1.38795">
        <ele>134</ele>
        <time>2017-10-10T16:41:05Z</time>
      </trkpt>
      <trkpt lat="49.33602" lon="1.38789">
        <ele>134</ele>
        <time>2017-10-10T16:41:20Z</time>
      </trkpt>
      <trkpt lat="49.336" lon="1.38784">
        <ele>134</ele>
        <time>2017-10-10T16:41:21Z</time>
      </trkpt>
      <trkpt lat="49.33596" lon="1.38777">
        <ele>134</ele>
        <time>2017-10-10T16:41:21Z</time>
      </trkpt>
      <trkpt lat="49.33594" lon="1.38771">
        <ele>134</ele>
        <time>2017-10-10T16:41:21Z</time>
      </trkpt>
      <trkpt lat="49.33591" lon="1.38765">
        <ele>134</ele>
        <time>2017-10-10T16:41:36Z</time>
      </trkpt>
      <trkpt lat="49.33588" lon="1.38759">
        <ele>134</ele>
        <time>2017-10-10T16:41:37Z</time>
      </trkpt>
      <trkpt lat="49.33585" lon="1.38753">
        <ele>134</ele>
        <time>2017-10-10T16:41:37Z</time>
      </trkpt>
      <trkpt lat="49.33583" lon="1.38747">
        <ele>134</ele>
        <time>2017-10-10T16:41:37Z</time>
      </trkpt>
      <trkpt lat="49.3358" lon="1.38741">
        <ele>134</ele>
        <time>2017-10-10T16:41:52Z</time>
      </trkpt>
      <trkpt lat="49.33577" lon="1.38736">
        <ele>134</ele>
        <time>2017-10-10T16:41:53Z</time>
      </trkpt>
      <trkpt lat="49.33573" lon="1.3873">
        <ele>134</ele>
        <time>2017-10-10T16:41:53Z</time>
      </trkpt>
      <trkpt lat="49.3357" lon="1.38725">
        <ele>134</ele>
        <time>2017-10-10T16:41:53Z</time>
      </trkpt>
      <trkpt lat="49.33567" lon="1.3872">
        <ele>134</ele>
        <time>2017-10-10T16:42:08Z</time>
      </trkpt>
      <trkpt lat="49.33564" lon="1.38714">
        <ele>134</ele>
        <time>2017-10-10T16:42:09Z</time>
      </trkpt>
      <trkpt lat="49.33562" lon="1.38709">
        <ele>134</ele>
        <time>2017-10-10T16:42:09Z</time>
      </trkpt>
      <trkpt lat="49.33559" lon="1.38701">
        <ele>135</ele>
        <time>2017-10-10T16:42:09Z</time>
      </trkpt>
      <trkpt lat="49.33556" lon="1.38696">
        <ele>135</ele>
        <time>2017-10-10T16:42:24Z</time>
      </trkpt>
      <trkpt lat="49.33554" lon="1.38691">
        <ele>135</ele>
        <time>2017-10-10T16:42:25Z</time>
      </trkpt>
      <trkpt lat="49.33551" lon="1.38685">
        <ele>135</ele>
        <time>2017-10-10T16:42:25Z</time>
      </trkpt>
      <trkpt lat="49.33547" lon="1.38678">
        <ele>135</ele>
        <time>2017-10-10T16:42:25Z</time>
      </trkpt>
      <trkpt lat="49.33545" lon="1.38673">
        <ele>135</ele>
        <time>2017-10-10T16:42:40Z</time>
      </trkpt>
      <trkpt lat="49.33542" lon="1.38669">
        <ele>135</ele>
        <time>2017-10-10T16:42:41Z</time>
      </trkpt>
      <trkpt lat="49.3354" lon="1.38663">
        <ele>136</ele>
        <time>2017-10-10T16:42:41Z</time>
      </trkpt>
      <trkpt lat="49.33538" lon="1.38658">
        <ele>136</ele>
        <time>2017-10-10T16:42:41Z</time>
      </trkpt>
      <trkpt lat="49.33535" lon="1.38655">
        <ele>136</ele>
        <time>2017-10-10T16:42:56Z</time>
      </trkpt>
      <trkpt lat="49.33534" lon="1.38652">
        <ele>136</ele>
        <time>2017-10-10T16:42:57Z</time>
      </trkpt>
      <trkpt lat="49.3353" lon="1.38646">
        <ele>136</ele>
        <time>2017-10-10T16:42:57Z</time>
      </trkpt>
      <trkpt lat="49.33528" lon="1.3864">
        <ele>136</ele>
        <time>2017-10-10T16:42:57Z</time>
      </trkpt>
      <trkpt lat="49.33525" lon="1.38636">
        <ele>136</ele>
        <time>2017-10-10T16:43:12Z</time>
      </trkpt>
      <trkpt lat="49.33523" lon="1.3863">
        <ele>136</ele>
        <time>2017-10-10T16:43:13Z</time>
      </trkpt>
      <trkpt lat="49.3352" lon="1.38625">
        <ele>136</ele>
        <time>2017-10-10T16:43:13Z</time>
      </trkpt>
      <trkpt lat="49.33518" lon="1.38621">
        <ele>136</ele>
        <time>2017-10-10T16:43:13Z</time>
      </trkpt>
      <trkpt lat="49.33514" lon="1.38614">
        <ele>136</ele>
        <time>2017-10-10T16:43:29Z</time>
      </trkpt>
      <trkpt lat="49.33511" lon="1.38609">
        <ele>136</ele>
        <time>2017-10-10T16:43:29Z</time>
      </trkpt>
      <trkpt lat="49.33508" lon="1.38603">
        <ele>136</ele>
        <time>2017-10-10T16:43:29Z</time>
      </trkpt>
      <trkpt lat="49.33505" lon="1.38598">
        <ele>136</ele>
        <time>2017-10-10T16:43:29Z</time>
      </trkpt>
      <trkpt lat="49.33502" lon="1.38592">
        <ele>136</ele>
        <time>2017-10-10T16:43:44Z</time>
      </trkpt>
      <trkpt lat="49.33499" lon="1.38586">
        <ele>136</ele>
        <time>2017-10-10T16:43:45Z</time>
      </trkpt>
      <trkpt lat="49.33496" lon="1.3858">
        <ele>136</ele>
        <time>2017-10-10T16:43:45Z</time>
      </trkpt>
      <trkpt lat="49.33494" lon="1.38574">
        <ele>136</ele>
        <time>2017-10-10T16:43:45Z</time>
      </trkpt>
      <trkpt lat="49.33491" lon="1.38569">
        <ele>136</ele>
        <time>2017-10-10T16:44:00Z</time>
      </trkpt>
      <trkpt lat="49.33488" lon="1.38563">
        <ele>136</ele>
        <time>2017-10-10T16:44:01Z</time>
      </trkpt>
      <trkpt lat="49.33485" lon="1.38558">
        <ele>136</ele>
        <time>2017-10-10T16:44:01Z</time>
      </trkpt>
      <trkpt lat="49.33482" lon="1.38552">
        <ele>136</ele>
        <time>2017-10-10T16:44:01Z</time>
      </trkpt>
      <trkpt lat="49.33479" lon="1.38547">
        <ele>136</ele>
        <time>2017-10-10T16:44:16Z</time>
      </trkpt>
      <trkpt lat="49.33476" lon="1.38541">
        <ele>137</ele>
        <time>2017-10-10T16:44:17Z</time>
      </trkpt>
      <trkpt lat="49.33473" lon="1.38535">
        <ele>137</ele>
        <time>2017-10-10T16:44:17Z</time>
      </trkpt>
      <trkpt lat="49.3347" lon="1.38531">
        <ele>137</ele>
        <time>2017-10-10T16:44:17Z</time>
      </trkpt>
      <trkpt lat="49.33466" lon="1.38526">
        <ele>137</ele>
        <time>2017-10-10T16:44:33Z</time>
      </trkpt>
      <trkpt lat="49.33462" lon="1.38522">
        <ele>137</ele>
        <time>2017-10-10T16:44:33Z</time>
      </trkpt>
      <trkpt lat="49.33458" lon="1.38519">
        <ele>137</ele>
        <time>2017-10-10T16:44:33Z</time>
      </trkpt>
      <trkpt lat="49.33454" lon="1.38517">
        <ele>137</ele>
        <time>2017-10-10T16:44:33Z</time>
      </trkpt>
      <trkpt lat="49.33449" lon="1.38514">
        <ele>137</ele>
        <time>2017-10-10T16:44:48Z</time>
      </trkpt>
      <trkpt lat="49.33445" lon="1.38512">
        <ele>137</ele>
        <time>2017-10-10T16:44:49Z</time>
      </trkpt>
      <trkpt lat="49.33441" lon="1.3851">
        <ele>137</ele>
        <time>2017-10-10T16:44:49Z</time>
      </trkpt>
      <trkpt lat="49.33437" lon="1.38507">
        <ele>137</ele>
        <time>2017-10-10T16:44:49Z</time>
      </trkpt>
      <trkpt lat="49.33433" lon="1.38505">
        <ele>137</ele>
        <time>2017-10-10T16:45:04Z</time>
      </trkpt>
      <trkpt lat="49.33429" lon="1.38503">
        <ele>137</ele>
        <time>2017-10-10T16:45:05Z</time>
      </trkpt>
      <trkpt lat="49.33425" lon="1.38501">
        <ele>137</ele>
        <time>2017-10-10T16:45:05Z</time>
      </trkpt>
      <trkpt lat="49.33422" lon="1.385">
        <ele>137</ele>
        <time>2017-10-10T16:45:05Z</time>
      </trkpt>
      <trkpt lat="49.33416" lon="1.38497">
        <ele>137</ele>
        <time>2017-10-10T16:45:20Z</time>
      </trkpt>
      <trkpt lat="49.33412" lon="1.38495">
        <ele>137</ele>
        <time>2017-10-10T16:45:21Z</time>
      </trkpt>
      <trkpt lat="49.33407" lon="1.38493">
        <ele>137</ele>
        <time>2017-10-10T16:45:21Z</time>
      </trkpt>
      <trkpt lat="49.33403" lon="1.3849">
        <ele>137</ele>
        <time>2017-10-10T16:45:21Z</time>
      </trkpt>
      <trkpt lat="49.33398" lon="1.38487">
        <ele>137</ele>
        <time>2017-10-10T16:45:36Z</time>
      </trkpt>
      <trkpt lat="49.33394" lon="1.38486">
        <ele>137</ele>
        <time>2017-10-10T16:45:37Z</time>
      </trkpt>
      <trkpt lat="49.33391" lon="1.38484">
        <ele>137</ele>
        <time>2017-10-10T16:45:37Z</time>
      </trkpt>
      <trkpt lat="49.33385" lon="1.38482">
        <ele>137</ele>
        <time>2017-10-10T16:45:37Z</time>
      </trkpt>
      <trkpt lat="49.33381" lon="1.38479">
        <ele>137</ele>
        <time>2017-10-10T16:45:52Z</time>
      </trkpt>
      <trkpt lat="49.33377" lon="1.38476">
        <ele>137</ele>
        <time>2017-10-10T16:45:53Z</time>
      </trkpt>
      <trkpt lat="49.33372" lon="1.38474">
        <ele>140</ele>
        <time>2017-10-10T16:45:53Z</time>
      </trkpt>
      <trkpt lat="49.33368" lon="1.38472">
        <ele>140</ele>
        <time>2017-10-10T16:45:53Z</time>
      </trkpt>
      <trkpt lat="49.33363" lon="1.3847">
        <ele>140</ele>
        <time>2017-10-10T16:46:08Z</time>
      </trkpt>
      <trkpt lat="49.33359" lon="1.38468">
        <ele>140</ele>
        <time>2017-10-10T16:46:09Z</time>
      </trkpt>
      <trkpt lat="49.33354" lon="1.38465">
        <ele>140</ele>
        <time>2017-10-10T16:46:09Z</time>
      </trkpt>
      <trkpt lat="49.3335" lon="1.38463">
        <ele>140</ele>
        <time>2017-10-10T16:46:09Z</time>
      </trkpt>
      <trkpt lat="49.33345" lon="1.38461">
        <ele>140</ele>
        <time>2017-10-10T16:46:24Z</time>
      </trkpt>
      <trkpt lat="49.33341" lon="1.38459">
        <ele>140</ele>
        <time>2017-10-10T16:46:25Z</time>
      </trkpt>
      <trkpt lat="49.33336" lon="1.38456">
        <ele>140</ele>
        <time>2017-10-10T16:46:25Z</time>
      </trkpt>
      <trkpt lat="49.33332" lon="1.38455">
        <ele>140</ele>
        <time>2017-10-10T16:46:25Z</time>
      </trkpt>
      <trkpt lat="49.33327" lon="1.38453">
        <ele>140</ele>
        <time>2017-10-10T16:46:40Z</time>
      </trkpt>
      <trkpt lat="49.33323" lon="1.3845">
        <ele>140</ele>
        <time>2017-10-10T16:46:41Z</time>
      </trkpt>
      <trkpt lat="49.33318" lon="1.38447">
        <ele>140</ele>
        <time>2017-10-10T16:46:41Z</time>
      </trkpt>
      <trkpt lat="49.33314" lon="1.38445">
        <ele>140</ele>
        <time>2017-10-10T16:46:41Z</time>
      </trkpt>
      <trkpt lat="49.3331" lon="1.38443">
        <ele>140</ele>
        <time>2017-10-10T16:46:56Z</time>
      </trkpt>
      <trkpt lat="49.33306" lon="1.38441">
        <ele>140</ele>
        <time>2017-10-10T16:46:57Z</time>
      </trkpt>
      <trkpt lat="49.33301" lon="1.38438">
        <ele>140</ele>
        <time>2017-10-10T16:46:57Z</time>
      </trkpt>
      <trkpt lat="49.33296" lon="1.38435">
        <ele>140</ele>
        <time>2017-10-10T16:46:57Z</time>
      </trkpt>
      <trkpt lat="49.33291" lon="1.38433">
        <ele>141</ele>
        <time>2017-10-10T16:47:12Z</time>
      </trkpt>
      <trkpt lat="49.33287" lon="1.3843">
        <ele>141</ele>
        <time>2017-10-10T16:47:13Z</time>
      </trkpt>
      <trkpt lat="49.33282" lon="1.38428">
        <ele>141</ele>
        <time>2017-10-10T16:47:13Z</time>
      </trkpt>
      <trkpt lat="49.33277" lon="1.38425">
        <ele>141</ele>
        <time>2017-10-10T16:47:13Z</time>
      </trkpt>
      <trkpt lat="49.33273" lon="1.38422">
        <ele>141</ele>
        <time>2017-10-10T16:47:28Z</time>
      </trkpt>
      <trkpt lat="49.33268" lon="1.3842">
        <ele>141</ele>
        <time>2017-10-10T16:47:29Z</time>
      </trkpt>
      <trkpt lat="49.33265" lon="1.38418">
        <ele>141</ele>
        <time>2017-10-10T16:47:29Z</time>
      </trkpt>
      <trkpt lat="49.33259" lon="1.38415">
        <ele>141</ele>
        <time>2017-10-10T16:47:29Z</time>
      </trkpt>
      <trkpt lat="49.33255" lon="1.38413">
        <ele>141</ele>
        <time>2017-10-10T16:47:44Z</time>
      </trkpt>
      <trkpt lat="49.3325" lon="1.3841">
        <ele>141</ele>
        <time>2017-10-10T16:47:45Z</time>
      </trkpt>
      <trkpt lat="49.33246" lon="1.38408">
        <ele>141</ele>
        <time>2017-10-10T16:47:45Z</time>
      </trkpt>
      <trkpt lat="49.33242" lon="1.38406">
        <ele>141</ele>
        <time>2017-10-10T16:47:45Z</time>
      </trkpt>
      <trkpt lat="49.33237" lon="1.38404">
        <ele>141</ele>
        <time>2017-10-10T16:48:00Z</time>
      </trkpt>
      <trkpt lat="49.33234" lon="1.38403">
        <ele>141</ele>
        <time>2017-10-10T16:48:01Z</time>
      </trkpt>
      <trkpt lat="49.33228" lon="1.38401">
        <ele>141</ele>
        <time>2017-10-10T16:48:01Z</time>
      </trkpt>
      <trkpt lat="49.33223" lon="1.38399">
        <ele>141</ele>
        <time>2017-10-10T16:48:01Z</time>
      </trkpt>
      <trkpt lat="49.33219" lon="1.38396">
        <ele>141</ele>
        <time>2017-10-10T16:48:16Z</time>
      </trkpt>
      <trkpt lat="49.33215" lon="1.38395">
        <ele>141</ele>
        <time>2017-10-10T16:48:17Z</time>
      </trkpt>
      <trkpt lat="49.33209" lon="1.38392">
        <ele>141</ele>
        <time>2017-10-10T16:48:17Z</time>
      </trkpt>
      <trkpt lat="49.33206" lon="1.3839">
        <ele>143</ele>
        <time>2017-10-10T16:48:17Z</time>
      </trkpt>
      <trkpt lat="49.332" lon="1.38387">
        <ele>143</ele>
        <time>2017-10-10T16:48:32Z</time>
      </trkpt>
      <trkpt lat="49.33196" lon="1.38385">
        <ele>143</ele>
        <time>2017-10-10T16:48:33Z</time>
      </trkpt>
      <trkpt lat="49.33192" lon="1.38383">
        <ele>143</ele>
        <time>2017-10-10T16:48:33Z</time>
      </trkpt>
      <trkpt lat="49.33186" lon="1.38381">
        <ele>143</ele>
        <time>2017-10-10T16:48:33Z</time>
      </trkpt>
      <trkpt lat="49.33182" lon="1.38379">
        <ele>143</ele>
        <time>2017-10-10T16:48:48Z</time>
      </trkpt>
      <trkpt lat="49.33177" lon="1.38377">
        <ele>143</ele>
        <time>2017-10-10T16:48:49Z</time>
      </trkpt>
      <trkpt lat="49.33173" lon="1.38374">
        <ele>144</ele>
        <time>2017-10-10T16:48:49Z</time>
      </trkpt>
      <trkpt lat="49.33168" lon="1.38372">
        <ele>144</ele>
        <time>2017-10-10T16:48:49Z</time>
      </trkpt>
      <trkpt lat="49.33164" lon="1.38369">
        <ele>144</ele>
        <time>2017-10-10T16:49:04Z</time>
      </trkpt>
      <trkpt lat="49.33161" lon="1.38368">
        <ele>144</ele>
        <time>2017-10-10T16:49:05Z</time>
      </trkpt>
      <trkpt lat="49.33155" lon="1.38365">
        <ele>144</ele>
        <time>2017-10-10T16:49:05Z</time>
      </trkpt>
      <trkpt lat="49.33151" lon="1.38364">
        <ele>144</ele>
        <time>2017-10-10T16:49:05Z</time>
      </trkpt>
      <trkpt lat="49.33146" lon="1.38361">
        <ele>144</ele>
        <time>2017-10-10T16:49:20Z</time>
      </trkpt>
      <trkpt lat="49.33142" lon="1.38359">
        <ele>144</ele>
        <time>2017-10-10T16:49:21Z</time>
      </trkpt>
      <trkpt lat="49.33137" lon="1.38356">
        <ele>144</ele>
        <time>2017-10-10T16:49:21Z</time>
      </trkpt>
      <trkpt lat="49.33133" lon="1.38354">
        <ele>144</ele>
        <time>2017-10-10T16:49:21Z</time>
      </trkpt>
      <trkpt lat="49.33128" lon="1.38351">
        <ele>144</ele>
        <time>2017-10-10T16:49:36Z</time>
      </trkpt>
      <trkpt lat="49.33123" lon="1.38349">
        <ele>144</ele>
        <time>2017-10-10T16:49:37Z</time>
      </trkpt>
      <trkpt lat="49.33118" lon="1.38346">
        <ele>144</ele>
        <time>2017-10-10T16:49:37Z</time>
      </trkpt>
      <trkpt lat="49.33114" lon="1.38345">
        <ele>144</ele>
        <time>2017-10-10T16:49:37Z</time>
      </trkpt>
      <trkpt lat="49.33109" lon="1.38342">
        <ele>144</ele>
        <time>2017-10-10T16:49:52Z</time>
      </trkpt>
      <trkpt lat="49.33104" lon="1.38339">
        <ele>144</ele>
        <time>2017-10-10T16:49:53Z</time>
      </trkpt>
      <trkpt lat="49.33099" lon="1.38338">
        <ele>144</ele>
        <time>2017-10-10T16:49:53Z</time>
      </trkpt>
      <trkpt lat="49.33095" lon="1.38337">
        <ele>144</ele>
        <time>2017-10-10T16:49:53Z</time>
      </trkpt>
      <trkpt lat="49.33085" lon="1.38335">
        <ele>144</ele>
        <time>2017-10-10T16:50:24Z</time>
      </trkpt>
      <trkpt lat="49.33085" lon="1.38335">
        <ele>144</ele>
        <time>2017-10-10T16:50:25Z</time>
      </trkpt>
      <trkpt lat="49.33083" lon="1.38333">
        <ele>144</ele>
        <time>2017-10-10T16:50:25Z</time>
      </trkpt>
      <trkpt lat="49.33081" lon="1.38332">
        <ele>144</ele>
        <time>2017-10-10T16:50:25Z</time>
      </trkpt>
      <trkpt lat="49.33077" lon="1.38328">
        <ele>144</ele>
        <time>2017-10-10T16:50:25Z</time>
      </trkpt>
      <trkpt lat="49.33073" lon="1.38325">
        <ele>144</ele>
        <time>2017-10-10T16:50:40Z</time>
      </trkpt>
      <trkpt lat="49.3307" lon="1.38322">
        <ele>144</ele>
        <time>2017-10-10T16:50:41Z</time>
      </trkpt>
      <trkpt lat="49.33066" lon="1.3832">
        <ele>144</ele>
        <time>2017-10-10T16:50:41Z</time>
      </trkpt>
      <trkpt lat="49.33062" lon="1.38317">
        <ele>144</ele>
        <time>2017-10-10T16:50:41Z</time>
      </trkpt>
      <trkpt lat="49.33058" lon="1.38313">
        <ele>144</ele>
        <time>2017-10-10T16:50:56Z</time>
      </trkpt>
      <trkpt lat="49.33055" lon="1.38308">
        <ele>144</ele>
        <time>2017-10-10T16:50:57Z</time>
      </trkpt>
      <trkpt lat="49.33054" lon="1.38302">
        <ele>144</ele>
        <time>2017-10-10T16:50:57Z</time>
      </trkpt>
      <trkpt lat="49.33054" lon="1.38295">
        <ele>144</ele>
        <time>2017-10-10T16:50:57Z</time>
      </trkpt>
      <trkpt lat="49.33055" lon="1.38289">
        <ele>143</ele>
        <time>2017-10-10T16:51:12Z</time>
      </trkpt>
      <trkpt lat="49.33057" lon="1.38284">
        <ele>143</ele>
        <time>2017-10-10T16:51:13Z</time>
      </trkpt>
      <trkpt lat="49.3306" lon="1.38278">
        <ele>143</ele>
        <time>2017-10-10T16:51:13Z</time>
      </trkpt>
      <trkpt lat="49.33062" lon="1.38272">
        <ele>143</ele>
        <time>2017-10-10T16:51:13Z</time>
      </trkpt>
      <trkpt lat="49.33064" lon="1.38266">
        <ele>143</ele>
        <time>2017-10-10T16:51:28Z</time>
      </trkpt>
      <trkpt lat="49.33067" lon="1.3826">
        <ele>143</ele>
        <time>2017-10-10T16:51:29Z</time>
      </trkpt>
      <trkpt lat="49.33069" lon="1.38254">
        <ele>143</ele>
        <time>2017-10-10T16:51:29Z</time>
      </trkpt>
      <trkpt lat="49.33071" lon="1.38249">
        <ele>143</ele>
        <time>2017-10-10T16:51:29Z</time>
      </trkpt>
      <trkpt lat="49.33074" lon="1.38243">
        <ele>143</ele>
        <time>2017-10-10T16:51:44Z</time>
      </trkpt>
      <trkpt lat="49.33076" lon="1.38237">
        <ele>143</ele>
        <time>2017-10-10T16:51:45Z</time>
      </trkpt>
      <trkpt lat="49.33078" lon="1.38233">
        <ele>143</ele>
        <time>2017-10-10T16:51:45Z</time>
      </trkpt>
      <trkpt lat="49.3308" lon="1.38227">
        <ele>143</ele>
        <time>2017-10-10T16:51:45Z</time>
      </trkpt>
      <trkpt lat="49.33084" lon="1.3822">
        <ele>143</ele>
        <time>2017-10-10T16:52:00Z</time>
      </trkpt>
      <trkpt lat="49.33086" lon="1.38214">
        <ele>143</ele>
        <time>2017-10-10T16:52:01Z</time>
      </trkpt>
      <trkpt lat="49.33089" lon="1.38209">
        <ele>143</ele>
        <time>2017-10-10T16:52:01Z</time>
      </trkpt>
      <trkpt lat="49.33092" lon="1.38203">
        <ele>142</ele>
        <time>2017-10-10T16:52:01Z</time>
      </trkpt>
      <trkpt lat="49.33094" lon="1.38196">
        <ele>142</ele>
        <time>2017-10-10T16:52:16Z</time>
      </trkpt>
      <trkpt lat="49.33096" lon="1.3819">
        <ele>142</ele>
        <time>2017-10-10T16:52:17Z</time>
      </trkpt>
      <trkpt lat="49.33099" lon="1.38184">
        <ele>142</ele>
        <time>2017-10-10T16:52:17Z</time>
      </trkpt>
      <trkpt lat="49.33101" lon="1.38178">
        <ele>142</ele>
        <time>2017-10-10T16:52:17Z</time>
      </trkpt>
      <trkpt lat="49.33103" lon="1.38172">
        <ele>142</ele>
        <time>2017-10-10T16:52:32Z</time>
      </trkpt>
      <trkpt lat="49.33106" lon="1.38166">
        <ele>142</ele>
        <time>2017-10-10T16:52:33Z</time>
      </trkpt>
      <trkpt lat="49.33108" lon="1.3816">
        <ele>142</ele>
        <time>2017-10-10T16:52:33Z</time>
      </trkpt>
      <trkpt lat="49.33111" lon="1.38153">
        <ele>142</ele>
        <time>2017-10-10T16:52:33Z</time>
      </trkpt>
      <trkpt lat="49.33113" lon="1.38147">
        <ele>142</ele>
        <time>2017-10-10T16:52:48Z</time>
      </trkpt>
      <trkpt lat="49.33116" lon="1.38141">
        <ele>142</ele>
        <time>2017-10-10T16:52:49Z</time>
      </trkpt>
      <trkpt lat="49.33119" lon="1.38135">
        <ele>142</ele>
        <time>2017-10-10T16:52:49Z</time>
      </trkpt>
      <trkpt lat="49.33122" lon="1.38129">
        <ele>142</ele>
        <time>2017-10-10T16:52:49Z</time>
      </trkpt>
      <trkpt lat="49.33124" lon="1.38122">
        <ele>141</ele>
        <time>2017-10-10T16:53:04Z</time>
      </trkpt>
      <trkpt lat="49.33125" lon="1.38117">
        <ele>143</ele>
        <time>2017-10-10T16:53:05Z</time>
      </trkpt>
      <trkpt lat="49.33128" lon="1.3811">
        <ele>143</ele>
        <time>2017-10-10T16:53:05Z</time>
      </trkpt>
      <trkpt lat="49.33131" lon="1.38104">
        <ele>143</ele>
        <time>2017-10-10T16:53:05Z</time>
      </trkpt>
      <trkpt lat="49.33134" lon="1.38098">
        <ele>143</ele>
        <time>2017-10-10T16:53:20Z</time>
      </trkpt>
      <trkpt lat="49.33136" lon="1.38091">
        <ele>143</ele>
        <time>2017-10-10T16:53:21Z</time>
      </trkpt>
      <trkpt lat="49.33138" lon="1.38086">
        <ele>143</ele>
        <time>2017-10-10T16:53:21Z</time>
      </trkpt>
      <trkpt lat="49.33141" lon="1.3808">
        <ele>143</ele>
        <time>2017-10-10T16:53:21Z</time>
      </trkpt>
      <trkpt lat="49.33145" lon="1.38072">
        <ele>143</ele>
        <time>2017-10-10T16:53:36Z</time>
      </trkpt>
      <trkpt lat="49.33147" lon="1.38067">
        <ele>143</ele>
        <time>2017-10-10T16:53:37Z</time>
      </trkpt>
      <trkpt lat="49.3315" lon="1.38061">
        <ele>143</ele>
        <time>2017-10-10T16:53:37Z</time>
      </trkpt>
      <trkpt lat="49.33153" lon="1.38053">
        <ele>143</ele>
        <time>2017-10-10T16:53:37Z</time>
      </trkpt>
      <trkpt lat="49.33155" lon="1.38047">
        <ele>143</ele>
        <time>2017-10-10T16:53:52Z</time>
      </trkpt>
      <trkpt lat="49.33158" lon="1.38041">
        <ele>142</ele>
        <time>2017-10-10T16:53:53Z</time>
      </trkpt>
      <trkpt lat="49.33161" lon="1.38035">
        <ele>142</ele>
        <time>2017-10-10T16:53:53Z</time>
      </trkpt>
      <trkpt lat="49.33164" lon="1.38028">
        <ele>142</ele>
        <time>2017-10-10T16:53:53Z</time>
      </trkpt>
      <trkpt lat="49.33166" lon="1.38022">
        <ele>142</ele>
        <time>2017-10-10T16:54:08Z</time>
      </trkpt>
      <trkpt lat="49.33169" lon="1.38016">
        <ele>142</ele>
        <time>2017-10-10T16:54:09Z</time>
      </trkpt>
      <trkpt lat="49.33172" lon="1.3801">
        <ele>142</ele>
        <time>2017-10-10T16:54:09Z</time>
      </trkpt>
      <trkpt lat="49.33174" lon="1.38004">
        <ele>142</ele>
        <time>2017-10-10T16:54:09Z</time>
      </trkpt>
      <trkpt lat="49.33177" lon="1.37999">
        <ele>142</ele>
        <time>2017-10-10T16:54:24Z</time>
      </trkpt>
      <trkpt lat="49.3318" lon="1.37993">
        <ele>142</ele>
        <time>2017-10-10T16:54:25Z</time>
      </trkpt>
      <trkpt lat="49.33182" lon="1.37987">
        <ele>142</ele>
        <time>2017-10-10T16:54:25Z</time>
      </trkpt>
      <trkpt lat="49.33185" lon="1.3798">
        <ele>142</ele>
        <time>2017-10-10T16:54:25Z</time>
      </trkpt>
      <trkpt lat="49.33187" lon="1.37974">
        <ele>142</ele>
        <time>2017-10-10T16:54:40Z</time>
      </trkpt>
      <trkpt lat="49.33189" lon="1.37968">
        <ele>142</ele>
        <time>2017-10-10T16:54:41Z</time>
      </trkpt>
      <trkpt lat="49.33192" lon="1.37962">
        <ele>142</ele>
        <time>2017-10-10T16:54:41Z</time>
      </trkpt>
      <trkpt lat="49.33195" lon="1.37956">
        <ele>141</ele>
        <time>2017-10-10T16:54:41Z</time>
      </trkpt>
      <trkpt lat="49.33197" lon="1.3795">
        <ele>141</ele>
        <time>2017-10-10T16:54:56Z</time>
      </trkpt>
      <trkpt lat="49.332" lon="1.37944">
        <ele>141</ele>
        <time>2017-10-10T16:54:57Z</time>
      </trkpt>
      <trkpt lat="49.33202" lon="1.37937">
        <ele>141</ele>
        <time>2017-10-10T16:54:57Z</time>
      </trkpt>
      <trkpt lat="49.33204" lon="1.37932">
        <ele>141</ele>
        <time>2017-10-10T16:54:57Z</time>
      </trkpt>
      <trkpt lat="49.33208" lon="1.37924">
        <ele>141</ele>
        <time>2017-10-10T16:55:12Z</time>
      </trkpt>
      <trkpt lat="49.3321" lon="1.37919">
        <ele>142</ele>
        <time>2017-10-10T16:55:13Z</time>
      </trkpt>
      <trkpt lat="49.33213" lon="1.37912">
        <ele>142</ele>
        <time>2017-10-10T16:55:13Z</time>
      </trkpt>
      <trkpt lat="49.33216" lon="1.37906">
        <ele>142</ele>
        <time>2017-10-10T16:55:13Z</time>
      </trkpt>
      <trkpt lat="49.33218" lon="1.37899">
        <ele>142</ele>
        <time>2017-10-10T16:55:28Z</time>
      </trkpt>
      <trkpt lat="49.33221" lon="1.37893">
        <ele>142</ele>
        <time>2017-10-10T16:55:29Z</time>
      </trkpt>
      <trkpt lat="49.33224" lon="1.37886">
        <ele>142</ele>
        <time>2017-10-10T16:55:29Z</time>
      </trkpt>
      <trkpt lat="49.33226" lon="1.3788">
        <ele>142</ele>
        <time>2017-10-10T16:55:29Z</time>
      </trkpt>
      <trkpt lat="49.33229" lon="1.37874">
        <ele>142</ele>
        <time>2017-10-10T16:55:44Z</time>
      </trkpt>
      <trkpt lat="49.33232" lon="1.37867">
        <ele>142</ele>
        <time>2017-10-10T16:55:45Z</time>
      </trkpt>
      <trkpt lat="49.33235" lon="1.37861">
        <ele>142</ele>
        <time>2017-10-10T16:55:45Z</time>
      </trkpt>
      <trkpt lat="49.33237" lon="1.37854">
        <ele>142</ele>
        <time>2017-10-10T16:55:45Z</time>
      </trkpt>
      <trkpt lat="49.3324" lon="1.37848">
        <ele>142</ele>
        <time>2017-10-10T16:56:00Z</time>
      </trkpt>
      <trkpt lat="49.33243" lon="1.37841">
        <ele>142</ele>
        <time>2017-10-10T16:56:01Z</time>
      </trkpt>
      <trkpt lat="49.33246" lon="1.37836">
        <ele>142</ele>
        <time>2017-10-10T16:56:01Z</time>
      </trkpt>
      <trkpt lat="49.3325" lon="1.37831">
        <ele>142</ele>
        <time>2017-10-10T16:56:01Z</time>
      </trkpt>
      <trkpt lat="49.33253" lon="1.37827">
        <ele>142</ele>
        <time>2017-10-10T16:56:16Z</time>
      </trkpt>
      <trkpt lat="49.33256" lon="1.37821">
        <ele>142</ele>
        <time>2017-10-10T16:56:17Z</time>
      </trkpt>
      <trkpt lat="49.33257" lon="1.37815">
        <ele>142</ele>
        <time>2017-10-10T16:56:17Z</time>
      </trkpt>
      <trkpt lat="49.33259" lon="1.37809">
        <ele>142</ele>
        <time>2017-10-10T16:56:17Z</time>
      </trkpt>
      <trkpt lat="49.3326" lon="1.37804">
        <ele>142</ele>
        <time>2017-10-10T16:56:32Z</time>
      </trkpt>
      <trkpt lat="49.33263" lon="1.37798">
        <ele>142</ele>
        <time>2017-10-10T16:56:33Z</time>
      </trkpt>
      <trkpt lat="49.33265" lon="1.37792">
        <ele>142</ele>
        <time>2017-10-10T16:56:33Z</time>
      </trkpt>
      <trkpt lat="49.33268" lon="1.37787">
        <ele>144</ele>
        <time>2017-10-10T16:56:33Z</time>
      </trkpt>
      <trkpt lat="49.33269" lon="1.37779">
        <ele>144</ele>
        <time>2017-10-10T16:56:48Z</time>
      </trkpt>
      <trkpt lat="49.33271" lon="1.37773">
        <ele>144</ele>
        <time>2017-10-10T16:56:49Z</time>
      </trkpt>
      <trkpt lat="49.33273" lon="1.37767">
        <ele>144</ele>
        <time>2017-10-10T16:56:49Z</time>
      </trkpt>
      <trkpt lat="49.33275" lon="1.37761">
        <ele>144</ele>
        <time>2017-10-10T16:56:49Z</time>
      </trkpt>
      <trkpt lat="49.33278" lon="1.37756">
        <ele>144</ele>
        <time>2017-10-10T16:57:04Z</time>
      </trkpt>
      <trkpt lat="49.3328" lon="1.3775">
        <ele>144</ele>
        <time>2017-10-10T16:57:05Z</time>
      </trkpt>
      <trkpt lat="49.33282" lon="1.37743">
        <ele>144</ele>
        <time>2017-10-10T16:57:05Z</time>
      </trkpt>
      <trkpt lat="49.33285" lon="1.37737">
        <ele>144</ele>
        <time>2017-10-10T16:57:05Z</time>
      </trkpt>
      <trkpt lat="49.33287" lon="1.37732">
        <ele>144</ele>
        <time>2017-10-10T16:57:20Z</time>
      </trkpt>
      <trkpt lat="49.33289" lon="1.37727">
        <ele>144</ele>
        <time>2017-10-10T16:57:21Z</time>
      </trkpt>
      <trkpt lat="49.33291" lon="1.37721">
        <ele>144</ele>
        <time>2017-10-10T16:57:21Z</time>
      </trkpt>
      <trkpt lat="49.33293" lon="1.37715">
        <ele>140</ele>
        <time>2017-10-10T16:57:21Z</time>
      </trkpt>
      <trkpt lat="49.33296" lon="1.37707">
        <ele>140</ele>
        <time>2017-10-10T16:57:36Z</time>
      </trkpt>
      <trkpt lat="49.33298" lon="1.37701">
        <ele>140</ele>
        <time>2017-10-10T16:57:37Z</time>
      </trkpt>
      <trkpt lat="49.33301" lon="1.37695">
        <ele>140</ele>
        <time>2017-10-10T16:57:37Z</time>
      </trkpt>
      <trkpt lat="49.33303" lon="1.3769">
        <ele>140</ele>
        <time>2017-10-10T16:57:37Z</time>
      </trkpt>
      <trkpt lat="49.33305" lon="1.3768">
        <ele>140</ele>
        <time>2017-10-10T16:57:52Z</time>
      </trkpt>
      <trkpt lat="49.33308" lon="1.37675">
        <ele>140</ele>
        <time>2017-10-10T16:57:53Z</time>
      </trkpt>
      <trkpt lat="49.33309" lon="1.37671">
        <ele>140</ele>
        <time>2017-10-10T16:57:53Z</time>
      </trkpt>
      <trkpt lat="49.33312" lon="1.37663">
        <ele>140</ele>
        <time>2017-10-10T16:57:53Z</time>
      </trkpt>
      <trkpt lat="49.33314" lon="1.37657">
        <ele>140</ele>
        <time>2017-10-10T16:58:08Z</time>
      </trkpt>
      <trkpt lat="49.33317" lon="1.37651">
        <ele>140</ele>
        <time>2017-10-10T16:58:09Z</time>
      </trkpt>
      <trkpt lat="49.33319" lon="1.37645">
        <ele>140</ele>
        <time>2017-10-10T16:58:09Z</time>
      </trkpt>
      <trkpt lat="49.33322" lon="1.37639">
        <ele>140</ele>
        <time>2017-10-10T16:58:09Z</time>
      </trkpt>
      <trkpt lat="49.33326" lon="1.37634">
        <ele>140</ele>
        <time>2017-10-10T16:58:24Z</time>
      </trkpt>
      <trkpt lat="49.33329" lon="1.37628">
        <ele>140</ele>
        <time>2017-10-10T16:58:25Z</time>
      </trkpt>
      <trkpt lat="49.33331" lon="1.37622">
        <ele>141</ele>
        <time>2017-10-10T16:58:25Z</time>
      </trkpt>
      <trkpt lat="49.33333" lon="1.37617">
        <ele>141</ele>
        <time>2017-10-10T16:58:25Z</time>
      </trkpt>
      <trkpt lat="49.33336" lon="1.37614">
        <ele>141</ele>
        <time>2017-10-10T16:58:40Z</time>
      </trkpt>
      <trkpt lat="49.33339" lon="1.37608">
        <ele>141</ele>
        <time>2017-10-10T16:58:41Z</time>
      </trkpt>
      <trkpt lat="49.33341" lon="1.37602">
        <ele>141</ele>
        <time>2017-10-10T16:58:41Z</time>
      </trkpt>
      <trkpt lat="49.33343" lon="1.37596">
        <ele>141</ele>
        <time>2017-10-10T16:58:41Z</time>
      </trkpt>
      <trkpt lat="49.33346" lon="1.37591">
        <ele>141</ele>
        <time>2017-10-10T16:58:56Z</time>
      </trkpt>
      <trkpt lat="49.33349" lon="1.37585">
        <ele>141</ele>
        <time>2017-10-10T16:58:57Z</time>
      </trkpt>
      <trkpt lat="49.33352" lon="1.3758">
        <ele>141</ele>
        <time>2017-10-10T16:58:57Z</time>
      </trkpt>
      <trkpt lat="49.33353" lon="1.37575">
        <ele>141</ele>
        <time>2017-10-10T16:58:57Z</time>
      </trkpt>
      <trkpt lat="49.33356" lon="1.37567">
        <ele>141</ele>
        <time>2017-10-10T16:59:12Z</time>
      </trkpt>
      <trkpt lat="49.33358" lon="1.37562">
        <ele>141</ele>
        <time>2017-10-10T16:59:13Z</time>
      </trkpt>
      <trkpt lat="49.3336" lon="1.37556">
        <ele>141</ele>
        <time>2017-10-10T16:59:13Z</time>
      </trkpt>
      <trkpt lat="49.33363" lon="1.37549">
        <ele>141</ele>
        <time>2017-10-10T16:59:13Z</time>
      </trkpt>
      <trkpt lat="49.33365" lon="1.37542">
        <ele>141</ele>
        <time>2017-10-10T16:59:28Z</time>
      </trkpt>
      <trkpt lat="49.33367" lon="1.37538">
        <ele>141</ele>
        <time>2017-10-10T16:59:29Z</time>
      </trkpt>
      <trkpt lat="49.3337" lon="1.3753">
        <ele>141</ele>
        <time>2017-10-10T16:59:29Z</time>
      </trkpt>
      <trkpt lat="49.33373" lon="1.37523">
        <ele>141</ele>
        <time>2017-10-10T16:59:29Z</time>
      </trkpt>
      <trkpt lat="49.33375" lon="1.37516">
        <ele>138</ele>
        <time>2017-10-10T16:59:44Z</time>
      </trkpt>
      <trkpt lat="49.33378" lon="1.3751">
        <ele>138</ele>
        <time>2017-10-10T16:59:45Z</time>
      </trkpt>
      <trkpt lat="49.3338" lon="1.37503">
        <ele>138</ele>
        <time>2017-10-10T16:59:45Z</time>
      </trkpt>
      <trkpt lat="49.33382" lon="1.37497">
        <ele>138</ele>
        <time>2017-10-10T16:59:45Z</time>
      </trkpt>
      <trkpt lat="49.33384" lon="1.37491">
        <ele>138</ele>
        <time>2017-10-10T17:00:00Z</time>
      </trkpt>
      <trkpt lat="49.33387" lon="1.37485">
        <ele>138</ele>
        <time>2017-10-10T17:00:01Z</time>
      </trkpt>
      <trkpt lat="49.33389" lon="1.37478">
        <ele>138</ele>
        <time>2017-10-10T17:00:01Z</time>
      </trkpt>
      <trkpt lat="49.3339" lon="1.37473">
        <ele>138</ele>
        <time>2017-10-10T17:00:01Z</time>
      </trkpt>
      <trkpt lat="49.33393" lon="1.37465">
        <ele>138</ele>
        <time>2017-10-10T17:00:16Z</time>
      </trkpt>
      <trkpt lat="49.33396" lon="1.37459">
        <ele>138</ele>
        <time>2017-10-10T17:00:17Z</time>
      </trkpt>
      <trkpt lat="49.33399" lon="1.37452">
        <ele>138</ele>
        <time>2017-10-10T17:00:17Z</time>
      </trkpt>
      <trkpt lat="49.33402" lon="1.37447">
        <ele>138</ele>
        <time>2017-10-10T17:00:17Z</time>
      </trkpt>
      <trkpt lat="49.33404" lon="1.37443">
        <ele>138</ele>
        <time>2017-10-10T17:00:32Z</time>
      </trkpt>
      <trkpt lat="49.33407" lon="1.37435">
        <ele>138</ele>
        <time>2017-10-10T17:00:33Z</time>
      </trkpt>
      <trkpt lat="49.33409" lon="1.37429">
        <ele>138</ele>
        <time>2017-10-10T17:00:33Z</time>
      </trkpt>
      <trkpt lat="49.33411" lon="1.37425">
        <ele>138</ele>
        <time>2017-10-10T17:00:33Z</time>
      </trkpt>
      <trkpt lat="49.33415" lon="1.37418">
        <ele>138</ele>
        <time>2017-10-10T17:00:48Z</time>
      </trkpt>
      <trkpt lat="49.33418" lon="1.37412">
        <ele>138</ele>
        <time>2017-10-10T17:00:49Z</time>
      </trkpt>
      <trkpt lat="49.33421" lon="1.37406">
        <ele>138</ele>
        <time>2017-10-10T17:00:49Z</time>
      </trkpt>
      <trkpt lat="49.33423" lon="1.374">
        <ele>138</ele>
        <time>2017-10-10T17:00:49Z</time>
      </trkpt>
      <trkpt lat="49.33425" lon="1.37394">
        <ele>138</ele>
        <time>2017-10-10T17:01:04Z</time>
      </trkpt>
      <trkpt lat="49.33427" lon="1.3739">
        <ele>138</ele>
        <time>2017-10-10T17:01:05Z</time>
      </trkpt>
      <trkpt lat="49.3343" lon="1.37384">
        <ele>138</ele>
        <time>2017-10-10T17:01:05Z</time>
      </trkpt>
      <trkpt lat="49.33433" lon="1.37377">
        <ele>138</ele>
        <time>2017-10-10T17:01:05Z</time>
      </trkpt>
      <trkpt lat="49.33436" lon="1.37371">
        <ele>140</ele>
        <time>2017-10-10T17:01:20Z</time>
      </trkpt>
      <trkpt lat="49.33439" lon="1.37365">
        <ele>140</ele>
        <time>2017-10-10T17:01:21Z</time>
      </trkpt>
      <trkpt lat="49.33441" lon="1.37361">
        <ele>140</ele>
        <time>2017-10-10T17:01:21Z</time>
      </trkpt>
      <trkpt lat="49.33443" lon="1.37355">
        <ele>140</ele>
        <time>2017-10-10T17:01:21Z</time>
      </trkpt>
      <trkpt lat="49.33446" lon="1.37349">
        <ele>140</ele>
        <time>2017-10-10T17:01:36Z</time>
      </trkpt>
      <trkpt lat="49.33448" lon="1.37345">
        <ele>140</ele>
        <time>2017-10-10T17:01:37Z</time>
      </trkpt>
      <trkpt lat="49.33451" lon="1.37338">
        <ele>140</ele>
        <time>2017-10-10T17:01:37Z</time>
      </trkpt>
      <trkpt lat="49.33454" lon="1.37332">
        <ele>140</ele>
        <time>2017-10-10T17:01:37Z</time>
      </trkpt>
      <trkpt lat="49.33456" lon="1.37327">
        <ele>140</ele>
        <time>2017-10-10T17:01:52Z</time>
      </trkpt>
      <trkpt lat="49.33459" lon="1.37322">
        <ele>137</ele>
        <time>2017-10-10T17:01:53Z</time>
      </trkpt>
      <trkpt lat="49.33462" lon="1.37316">
        <ele>137</ele>
        <time>2017-10-10T17:01:53Z</time>
      </trkpt>
      <trkpt lat="49.33465" lon="1.37309">
        <ele>137</ele>
        <time>2017-10-10T17:01:53Z</time>
      </trkpt>
      <trkpt lat="49.33467" lon="1.37304">
        <ele>137</ele>
        <time>2017-10-10T17:02:08Z</time>
      </trkpt>
      <trkpt lat="49.3347" lon="1.37298">
        <ele>137</ele>
        <time>2017-10-10T17:02:09Z</time>
      </trkpt>
      <trkpt lat="49.33471" lon="1.37293">
        <ele>137</ele>
        <time>2017-10-10T17:02:09Z</time>
      </trkpt>
      <trkpt lat="49.33473" lon="1.37287">
        <ele>139</ele>
        <time>2017-10-10T17:02:09Z</time>
      </trkpt>
      <trkpt lat="49.33476" lon="1.37279">
        <ele>139</ele>
        <time>2017-10-10T17:02:24Z</time>
      </trkpt>
      <trkpt lat="49.33477" lon="1.37275">
        <ele>139</ele>
        <time>2017-10-10T17:02:25Z</time>
      </trkpt>
      <trkpt lat="49.33479" lon="1.37268">
        <ele>139</ele>
        <time>2017-10-10T17:02:25Z</time>
      </trkpt>
      <trkpt lat="49.33482" lon="1.3726">
        <ele>139</ele>
        <time>2017-10-10T17:02:25Z</time>
      </trkpt>
      <trkpt lat="49.33485" lon="1.37255">
        <ele>139</ele>
        <time>2017-10-10T17:02:40Z</time>
      </trkpt>
      <trkpt lat="49.33487" lon="1.37249">
        <ele>139</ele>
        <time>2017-10-10T17:02:41Z</time>
      </trkpt>
      <trkpt lat="49.33489" lon="1.37244">
        <ele>139</ele>
        <time>2017-10-10T17:02:41Z</time>
      </trkpt>
      <trkpt lat="49.33492" lon="1.37238">
        <ele>139</ele>
        <time>2017-10-10T17:02:41Z</time>
      </trkpt>
      <trkpt lat="49.33495" lon="1.37231">
        <ele>139</ele>
        <time>2017-10-10T17:02:56Z</time>
      </trkpt>
      <trkpt lat="49.33497" lon="1.37227">
        <ele>139</ele>
        <time>2017-10-10T17:02:57Z</time>
      </trkpt>
      <trkpt lat="49.33499" lon="1.37221">
        <ele>139</ele>
        <time>2017-10-10T17:02:57Z</time>
      </trkpt>
      <trkpt lat="49.33502" lon="1.37214">
        <ele>139</ele>
        <time>2017-10-10T17:02:57Z</time>
      </trkpt>
      <trkpt lat="49.33504" lon="1.37207">
        <ele>140</ele>
        <time>2017-10-10T17:03:16Z</time>
      </trkpt>
      <trkpt lat="49.33506" lon="1.37202">
        <ele>140</ele>
        <time>2017-10-10T17:03:17Z</time>
      </trkpt>
      <trkpt lat="49.33506" lon="1.372">
        <ele>140</ele>
        <time>2017-10-10T17:03:17Z</time>
      </trkpt>
      <trkpt lat="49.33507" lon="1.37198">
        <ele>140</ele>
        <time>2017-10-10T17:03:17Z</time>
      </trkpt>
      <trkpt lat="49.33508" lon="1.37193">
        <ele>140</ele>
        <time>2017-10-10T17:03:17Z</time>
      </trkpt>
      <trkpt lat="49.33509" lon="1.37189">
        <ele>140</ele>
        <time>2017-10-10T17:03:32Z</time>
      </trkpt>
      <trkpt lat="49.33511" lon="1.37184">
        <ele>140</ele>
        <time>2017-10-10T17:03:33Z</time>
      </trkpt>
      <trkpt lat="49.33513" lon="1.3718">
        <ele>140</ele>
        <time>2017-10-10T17:03:33Z</time>
      </trkpt>
      <trkpt lat="49.33515" lon="1.37174">
        <ele>140</ele>
        <time>2017-10-10T17:03:33Z</time>
      </trkpt>
      <trkpt lat="49.33517" lon="1.37168">
        <ele>140</ele>
        <time>2017-10-10T17:03:48Z</time>
      </trkpt>
      <trkpt lat="49.33519" lon="1.37164">
        <ele>140</ele>
        <time>2017-10-10T17:03:49Z</time>
      </trkpt>
      <trkpt lat="49.33521" lon="1.37159">
        <ele>140</ele>
        <time>2017-10-10T17:03:49Z</time>
      </trkpt>
      <trkpt lat="49.33524" lon="1.37152">
        <ele>140</ele>
        <time>2017-10-10T17:03:49Z</time>
      </trkpt>
      <trkpt lat="49.33526" lon="1.37148">
        <ele>140</ele>
        <time>2017-10-10T17:04:04Z</time>
      </trkpt>
      <trkpt lat="49.33528" lon="1.37143">
        <ele>140</ele>
        <time>2017-10-10T17:04:05Z</time>
      </trkpt>
      <trkpt lat="49.33528" lon="1.37139">
        <ele>140</ele>
        <time>2017-10-10T17:04:05Z</time>
      </trkpt>
      <trkpt lat="49.33532" lon="1.37133">
        <ele>140</ele>
        <time>2017-10-10T17:04:05Z</time>
      </trkpt>
      <trkpt lat="49.33534" lon="1.37127">
        <ele>140</ele>
        <time>2017-10-10T17:04:20Z</time>
      </trkpt>
      <trkpt lat="49.33535" lon="1.37122">
        <ele>144</ele>
        <time>2017-10-10T17:04:21Z</time>
      </trkpt>
      <trkpt lat="49.33539" lon="1.37115">
        <ele>144</ele>
        <time>2017-10-10T17:04:21Z</time>
      </trkpt>
      <trkpt lat="49.33541" lon="1.37109">
        <ele>144</ele>
        <time>2017-10-10T17:04:21Z</time>
      </trkpt>
      <trkpt lat="49.33544" lon="1.37103">
        <ele>137</ele>
        <time>2017-10-10T17:04:36Z</time>
      </trkpt>
      <trkpt lat="49.33547" lon="1.37098">
        <ele>137</ele>
        <time>2017-10-10T17:04:37Z</time>
      </trkpt>
      <trkpt lat="49.33549" lon="1.37094">
        <ele>137</ele>
        <time>2017-10-10T17:04:37Z</time>
      </trkpt>
      <trkpt lat="49.33552" lon="1.37087">
        <ele>137</ele>
        <time>2017-10-10T17:04:37Z</time>
      </trkpt>
      <trkpt lat="49.33554" lon="1.37083">
        <ele>137</ele>
        <time>2017-10-10T17:04:52Z</time>
      </trkpt>
      <trkpt lat="49.33557" lon="1.37078">
        <ele>137</ele>
        <time>2017-10-10T17:04:53Z</time>
      </trkpt>
      <trkpt lat="49.3356" lon="1.37071">
        <ele>137</ele>
        <time>2017-10-10T17:04:53Z</time>
      </trkpt>
      <trkpt lat="49.33562" lon="1.37065">
        <ele>137</ele>
        <time>2017-10-10T17:04:53Z</time>
      </trkpt>
      <trkpt lat="49.33564" lon="1.3706">
        <ele>137</ele>
        <time>2017-10-10T17:05:08Z</time>
      </trkpt>
      <trkpt lat="49.33567" lon="1.37054">
        <ele>137</ele>
        <time>2017-10-10T17:05:09Z</time>
      </trkpt>
      <trkpt lat="49.33569" lon="1.37049">
        <ele>137</ele>
        <time>2017-10-10T17:05:09Z</time>
      </trkpt>
      <trkpt lat="49.33571" lon="1.37042">
        <ele>137</ele>
        <time>2017-10-10T17:05:09Z</time>
      </trkpt>
      <trkpt lat="49.33574" lon="1.37036">
        <ele>139</ele>
        <time>2017-10-10T17:05:24Z</time>
      </trkpt>
      <trkpt lat="49.33577" lon="1.37029">
        <ele>139</ele>
        <time>2017-10-10T17:05:25Z</time>
      </trkpt>
      <trkpt lat="49.33579" lon="1.37024">
        <ele>139</ele>
        <time>2017-10-10T17:05:25Z</time>
      </trkpt>
      <trkpt lat="49.33581" lon="1.37021">
        <ele>139</ele>
        <time>2017-10-10T17:05:25Z</time>
      </trkpt>
      <trkpt lat="49.33584" lon="1.37014">
        <ele>139</ele>
        <time>2017-10-10T17:05:40Z</time>
      </trkpt>
      <trkpt lat="49.33587" lon="1.37009">
        <ele>139</ele>
        <time>2017-10-10T17:05:41Z</time>
      </trkpt>
      <trkpt lat="49.33589" lon="1.37004">
        <ele>139</ele>
        <time>2017-10-10T17:05:41Z</time>
      </trkpt>
      <trkpt lat="49.33591" lon="1.36998">
        <ele>139</ele>
        <time>2017-10-10T17:05:41Z</time>
      </trkpt>
      <trkpt lat="49.33594" lon="1.36991">
        <ele>139</ele>
        <time>2017-10-10T17:05:56Z</time>
      </trkpt>
      <trkpt lat="49.33597" lon="1.36985">
        <ele>139</ele>
        <time>2017-10-10T17:05:57Z</time>
      </trkpt>
      <trkpt lat="49.336" lon="1.36979">
        <ele>139</ele>
        <time>2017-10-10T17:05:57Z</time>
      </trkpt>
      <trkpt lat="49.33602" lon="1.36973">
        <ele>139</ele>
        <time>2017-10-10T17:05:57Z</time>
      </trkpt>
      <trkpt lat="49.33604" lon="1.36969">
        <ele>139</ele>
        <time>2017-10-10T17:06:12Z</time>
      </trkpt>
      <trkpt lat="49.33606" lon="1.36963">
        <ele>139</ele>
        <time>2017-10-10T17:06:13Z</time>
      </trkpt>
      <trkpt lat="49.33609" lon="1.36957">
        <ele>142</ele>
        <time>2017-10-10T17:06:13Z</time>
      </trkpt>
      <trkpt lat="49.33612" lon="1.36949">
        <ele>142</ele>
        <time>2017-10-10T17:06:13Z</time>
      </trkpt>
      <trkpt lat="49.33614" lon="1.36943">
        <ele>142</ele>
        <time>2017-10-10T17:06:28Z</time>
      </trkpt>
      <trkpt lat="49.33617" lon="1.36937">
        <ele>142</ele>
        <time>2017-10-10T17:06:29Z</time>
      </trkpt>
      <trkpt lat="49.3362" lon="1.36931">
        <ele>142</ele>
        <time>2017-10-10T17:06:29Z</time>
      </trkpt>
      <trkpt lat="49.33622" lon="1.36925">
        <ele>142</ele>
        <time>2017-10-10T17:06:29Z</time>
      </trkpt>
      <trkpt lat="49.33625" lon="1.36919">
        <ele>142</ele>
        <time>2017-10-10T17:06:44Z</time>
      </trkpt>
      <trkpt lat="49.33627" lon="1.36914">
        <ele>137</ele>
        <time>2017-10-10T17:06:45Z</time>
      </trkpt>
      <trkpt lat="49.3363" lon="1.36909">
        <ele>137</ele>
        <time>2017-10-10T17:06:45Z</time>
      </trkpt>
      <trkpt lat="49.33633" lon="1.36901">
        <ele>137</ele>
        <time>2017-10-10T17:06:45Z</time>
      </trkpt>
      <trkpt lat="49.33635" lon="1.36896">
        <ele>137</ele>
        <time>2017-10-10T17:07:00Z</time>
      </trkpt>
      <trkpt lat="49.33638" lon="1.36891">
        <ele>137</ele>
        <time>2017-10-10T17:07:01Z</time>
      </trkpt>
      <trkpt lat="49.33641" lon="1.36883">
        <ele>137</ele>
        <time>2017-10-10T17:07:01Z</time>
      </trkpt>
      <trkpt lat="49.33642" lon="1.36878">
        <ele>137</ele>
        <time>2017-10-10T17:07:01Z</time>
      </trkpt>
      <trkpt lat="49.33644" lon="1.36874">
        <ele>139</ele>
        <time>2017-10-10T17:07:16Z</time>
      </trkpt>
      <trkpt lat="49.33646" lon="1.36868">
        <ele>139</ele>
        <time>2017-10-10T17:07:17Z</time>
      </trkpt>
      <trkpt lat="49.33649" lon="1.36861">
        <ele>139</ele>
        <time>2017-10-10T17:07:17Z</time>
      </trkpt>
      <trkpt lat="49.33652" lon="1.36855">
        <ele>139</ele>
        <time>2017-10-10T17:07:17Z</time>
      </trkpt>
      <trkpt lat="49.33654" lon="1.36849">
        <ele>139</ele>
        <time>2017-10-10T17:07:32Z</time>
      </trkpt>
      <trkpt lat="49.33658" lon="1.36843">
        <ele>139</ele>
        <time>2017-10-10T17:07:33Z</time>
      </trkpt>
      <trkpt lat="49.3366" lon="1.36838">
        <ele>139</ele>
        <time>2017-10-10T17:07:33Z</time>
      </trkpt>
      <trkpt lat="49.33664" lon="1.36831">
        <ele>139</ele>
        <time>2017-10-10T17:07:33Z</time>
      </trkpt>
      <trkpt lat="49.33666" lon="1.36827">
        <ele>139</ele>
        <time>2017-10-10T17:07:48Z</time>
      </trkpt>
      <trkpt lat="49.33668" lon="1.36822">
        <ele>139</ele>
        <time>2017-10-10T17:07:49Z</time>
      </trkpt>
      <trkpt lat="49.3367" lon="1.36816">
        <ele>139</ele>
        <time>2017-10-10T17:07:49Z</time>
      </trkpt>
      <trkpt lat="49.33673" lon="1.36808">
        <ele>139</ele>
        <time>2017-10-10T17:07:49Z</time>
      </trkpt>
      <trkpt lat="49.33675" lon="1.36804">
        <ele>139</ele>
        <time>2017-10-10T17:08:04Z</time>
      </trkpt>
      <trkpt lat="49.33678" lon="1.36796">
        <ele>139</ele>
        <time>2017-10-10T17:08:05Z</time>
      </trkpt>
      <trkpt lat="49.33681" lon="1.3679">
        <ele>142</ele>
        <time>2017-10-10T17:08:05Z</time>
      </trkpt>
      <trkpt lat="49.33683" lon="1.36784">
        <ele>142</ele>
        <time>2017-10-10T17:08:05Z</time>
      </trkpt>
      <trkpt lat="49.33685" lon="1.36778">
        <ele>142</ele>
        <time>2017-10-10T17:08:20Z</time>
      </trkpt>
      <trkpt lat="49.33687" lon="1.36773">
        <ele>142</ele>
        <time>2017-10-10T17:08:21Z</time>
      </trkpt>
      <trkpt lat="49.33689" lon="1.36766">
        <ele>142</ele>
        <time>2017-10-10T17:08:21Z</time>
      </trkpt>
      <trkpt lat="49.33692" lon="1.36758">
        <ele>142</ele>
        <time>2017-10-10T17:08:21Z</time>
      </trkpt>
      <trkpt lat="49.33694" lon="1.36751">
        <ele>142</ele>
        <time>2017-10-10T17:08:36Z</time>
      </trkpt>
      <trkpt lat="49.33695" lon="1.36746">
        <ele>142</ele>
        <time>2017-10-10T17:08:37Z</time>
      </trkpt>
      <trkpt lat="49.33698" lon="1.3674">
        <ele>142</ele>
        <time>2017-10-10T17:08:37Z</time>
      </trkpt>
      <trkpt lat="49.33701" lon="1.36732">
        <ele>142</ele>
        <time>2017-10-10T17:08:37Z</time>
      </trkpt>
      <trkpt lat="49.33703" lon="1.36727">
        <ele>142</ele>
        <time>2017-10-10T17:08:52Z</time>
      </trkpt>
      <trkpt lat="49.33706" lon="1.36722">
        <ele>142</ele>
        <time>2017-10-10T17:08:53Z</time>
      </trkpt>
      <trkpt lat="49.33709" lon="1.36716">
        <ele>137</ele>
        <time>2017-10-10T17:08:53Z</time>
      </trkpt>
      <trkpt lat="49.33712" lon="1.36709">
        <ele>137</ele>
        <time>2017-10-10T17:08:53Z</time>
      </trkpt>
      <trkpt lat="49.33714" lon="1.36703">
        <ele>138</ele>
        <time>2017-10-10T17:09:08Z</time>
      </trkpt>
      <trkpt lat="49.33716" lon="1.36698">
        <ele>138</ele>
        <time>2017-10-10T17:09:09Z</time>
      </trkpt>
      <trkpt lat="49.3372" lon="1.3669">
        <ele>138</ele>
        <time>2017-10-10T17:09:09Z</time>
      </trkpt>
      <trkpt lat="49.33723" lon="1.36684">
        <ele>138</ele>
        <time>2017-10-10T17:09:09Z</time>
      </trkpt>
      <trkpt lat="49.33725" lon="1.36677">
        <ele>138</ele>
        <time>2017-10-10T17:09:24Z</time>
      </trkpt>
      <trkpt lat="49.33727" lon="1.36673">
        <ele>138</ele>
        <time>2017-10-10T17:09:25Z</time>
      </trkpt>
      <trkpt lat="49.33729" lon="1.36667">
        <ele>138</ele>
        <time>2017-10-10T17:09:25Z</time>
      </trkpt>
      <trkpt lat="49.33732" lon="1.3666">
        <ele>138</ele>
        <time>2017-10-10T17:09:25Z</time>
      </trkpt>
      <trkpt lat="49.33734" lon="1.36655">
        <ele>138</ele>
        <time>2017-10-10T17:09:40Z</time>
      </trkpt>
      <trkpt lat="49.33737" lon="1.36648">
        <ele>138</ele>
        <time>2017-10-10T17:09:41Z</time>
      </trkpt>
      <trkpt lat="49.3374" lon="1.36642">
        <ele>138</ele>
        <time>2017-10-10T17:09:41Z</time>
      </trkpt>
      <trkpt lat="49.33742" lon="1.36636">
        <ele>138</ele>
        <time>2017-10-10T17:09:41Z</time>
      </trkpt>
      <trkpt lat="49.33744" lon="1.36629">
        <ele>138</ele>
        <time>2017-10-10T17:09:56Z</time>
      </trkpt>
      <trkpt lat="49.33746" lon="1.36623">
        <ele>140</ele>
        <time>2017-10-10T17:09:57Z</time>
      </trkpt>
      <trkpt lat="49.33749" lon="1.36617">
        <ele>140</ele>
        <time>2017-10-10T17:09:57Z</time>
      </trkpt>
      <trkpt lat="49.33751" lon="1.3661">
        <ele>140</ele>
        <time>2017-10-10T17:09:57Z</time>
      </trkpt>
      <trkpt lat="49.33753" lon="1.36605">
        <ele>140</ele>
        <time>2017-10-10T17:10:12Z</time>
      </trkpt>
      <trkpt lat="49.33755" lon="1.36599">
        <ele>140</ele>
        <time>2017-10-10T17:10:13Z</time>
      </trkpt>
      <trkpt lat="49.33758" lon="1.36593">
        <ele>140</ele>
        <time>2017-10-10T17:10:13Z</time>
      </trkpt>
      <trkpt lat="49.33761" lon="1.36587">
        <ele>140</ele>
        <time>2017-10-10T17:10:13Z</time>
      </trkpt>
      <trkpt lat="49.33763" lon="1.36581">
        <ele>140</ele>
        <time>2017-10-10T17:10:28Z</time>
      </trkpt>
      <trkpt lat="49.33766" lon="1.36574">
        <ele>140</ele>
        <time>2017-10-10T17:10:29Z</time>
      </trkpt>
      <trkpt lat="49.33769" lon="1.36567">
        <ele>140</ele>
        <time>2017-10-10T17:10:29Z</time>
      </trkpt>
      <trkpt lat="49.33771" lon="1.36561">
        <ele>140</ele>
        <time>2017-10-10T17:10:29Z</time>
      </trkpt>
      <trkpt lat="49.33774" lon="1.36554">
        <ele>140</ele>
        <time>2017-10-10T17:10:44Z</time>
      </trkpt>
      <trkpt lat="49.33777" lon="1.36547">
        <ele>140</ele>
        <time>2017-10-10T17:10:45Z</time>
      </trkpt>
      <trkpt lat="49.33779" lon="1.36541">
        <ele>141</ele>
        <time>2017-10-10T17:10:45Z</time>
      </trkpt>
      <trkpt lat="49.33782" lon="1.36535">
        <ele>141</ele>
        <time>2017-10-10T17:10:45Z</time>
      </trkpt>
      <trkpt lat="49.33785" lon="1.36529">
        <ele>141</ele>
        <time>2017-10-10T17:11:00Z</time>
      </trkpt>
      <trkpt lat="49.33787" lon="1.36523">
        <ele>141</ele>
        <time>2017-10-10T17:11:01Z</time>
      </trkpt>
      <trkpt lat="49.3379" lon="1.36517">
        <ele>141</ele>
        <time>2017-10-10T17:11:01Z</time>
      </trkpt>
      <trkpt lat="49.33793" lon="1.36511">
        <ele>134</ele>
        <time>2017-10-10T17:11:01Z</time>
      </trkpt>
      <trkpt lat="49.33795" lon="1.36505">
        <ele>134</ele>
        <time>2017-10-10T17:11:16Z</time>
      </trkpt>
      <trkpt lat="49.33798" lon="1.36499">
        <ele>134</ele>
        <time>2017-10-10T17:11:17Z</time>
      </trkpt>
      <trkpt lat="49.33801" lon="1.36493">
        <ele>134</ele>
        <time>2017-10-10T17:11:17Z</time>
      </trkpt>
      <trkpt lat="49.33803" lon="1.36487">
        <ele>134</ele>
        <time>2017-10-10T17:11:17Z</time>
      </trkpt>
      <trkpt lat="49.33805" lon="1.36481">
        <ele>134</ele>
        <time>2017-10-10T17:11:32Z</time>
      </trkpt>
      <trkpt lat="49.33807" lon="1.36475">
        <ele>134</ele>
        <time>2017-10-10T17:11:33Z</time>
      </trkpt>
      <trkpt lat="49.33809" lon="1.3647">
        <ele>134</ele>
        <time>2017-10-10T17:11:33Z</time>
      </trkpt>
      <trkpt lat="49.33812" lon="1.36464">
        <ele>134</ele>
        <time>2017-10-10T17:11:33Z</time>
      </trkpt>
      <trkpt lat="49.33814" lon="1.36459">
        <ele>134</ele>
        <time>2017-10-10T17:11:48Z</time>
      </trkpt>
      <trkpt lat="49.33817" lon="1.36452">
        <ele>136</ele>
        <time>2017-10-10T17:11:49Z</time>
      </trkpt>
      <trkpt lat="49.3382" lon="1.36446">
        <ele>136</ele>
        <time>2017-10-10T17:11:49Z</time>
      </trkpt>
      <trkpt lat="49.33822" lon="1.3644">
        <ele>136</ele>
        <time>2017-10-10T17:11:49Z</time>
      </trkpt>
      <trkpt lat="49.33825" lon="1.36433">
        <ele>136</ele>
        <time>2017-10-10T17:12:04Z</time>
      </trkpt>
      <trkpt lat="49.33828" lon="1.36427">
        <ele>136</ele>
        <time>2017-10-10T17:12:05Z</time>
      </trkpt>
      <trkpt lat="49.3383" lon="1.36421">
        <ele>136</ele>
        <time>2017-10-10T17:12:05Z</time>
      </trkpt>
      <trkpt lat="49.33832" lon="1.36415">
        <ele>136</ele>
        <time>2017-10-10T17:12:05Z</time>
      </trkpt>
      <trkpt lat="49.33835" lon="1.36408">
        <ele>136</ele>
        <time>2017-10-10T17:12:20Z</time>
      </trkpt>
      <trkpt lat="49.33838" lon="1.36402">
        <ele>136</ele>
        <time>2017-10-10T17:12:21Z</time>
      </trkpt>
      <trkpt lat="49.3384" lon="1.36396">
        <ele>136</ele>
        <time>2017-10-10T17:12:21Z</time>
      </trkpt>
      <trkpt lat="49.33842" lon="1.3639">
        <ele>136</ele>
        <time>2017-10-10T17:12:21Z</time>
      </trkpt>
      <trkpt lat="49.33845" lon="1.36384">
        <ele>136</ele>
        <time>2017-10-10T17:12:36Z</time>
      </trkpt>
      <trkpt lat="49.33847" lon="1.36379">
        <ele>136</ele>
        <time>2017-10-10T17:12:37Z</time>
      </trkpt>
      <trkpt lat="49.3385" lon="1.36373">
        <ele>138</ele>
        <time>2017-10-10T17:12:37Z</time>
      </trkpt>
      <trkpt lat="49.33852" lon="1.36367">
        <ele>138</ele>
        <time>2017-10-10T17:12:37Z</time>
      </trkpt>
      <trkpt lat="49.33854" lon="1.36361">
        <ele>138</ele>
        <time>2017-10-10T17:12:52Z</time>
      </trkpt>
      <trkpt lat="49.33857" lon="1.36355">
        <ele>138</ele>
        <time>2017-10-10T17:12:53Z</time>
      </trkpt>
      <trkpt lat="49.33861" lon="1.36349">
        <ele>138</ele>
        <time>2017-10-10T17:12:53Z</time>
      </trkpt>
      <trkpt lat="49.33864" lon="1.36344">
        <ele>138</ele>
        <time>2017-10-10T17:12:53Z</time>
      </trkpt>
      <trkpt lat="49.33866" lon="1.36339">
        <ele>138</ele>
        <time>2017-10-10T17:13:08Z</time>
      </trkpt>
      <trkpt lat="49.33869" lon="1.36333">
        <ele>138</ele>
        <time>2017-10-10T17:13:09Z</time>
      </trkpt>
      <trkpt lat="49.33871" lon="1.36327">
        <ele>138</ele>
        <time>2017-10-10T17:13:09Z</time>
      </trkpt>
      <trkpt lat="49.33874" lon="1.36322">
        <ele>138</ele>
        <time>2017-10-10T17:13:09Z</time>
      </trkpt>
      <trkpt lat="49.33876" lon="1.36316">
        <ele>134</ele>
        <time>2017-10-10T17:13:24Z</time>
      </trkpt>
      <trkpt lat="49.33878" lon="1.36311">
        <ele>134</ele>
        <time>2017-10-10T17:13:25Z</time>
      </trkpt>
      <trkpt lat="49.33881" lon="1.36305">
        <ele>134</ele>
        <time>2017-10-10T17:13:25Z</time>
      </trkpt>
      <trkpt lat="49.33883" lon="1.36299">
        <ele>134</ele>
        <time>2017-10-10T17:13:25Z</time>
      </trkpt>
      <trkpt lat="49.33885" lon="1.36289">
        <ele>135</ele>
        <time>2017-10-10T17:14:24Z</time>
      </trkpt>
      <trkpt lat="49.33886" lon="1.36287">
        <ele>135</ele>
        <time>2017-10-10T17:14:25Z</time>
      </trkpt>
      <trkpt lat="49.33888" lon="1.36282">
        <ele>135</ele>
        <time>2017-10-10T17:14:25Z</time>
      </trkpt>
      <trkpt lat="49.33892" lon="1.36276">
        <ele>135</ele>
        <time>2017-10-10T17:14:25Z</time>
      </trkpt>
      <trkpt lat="49.33895" lon="1.3627">
        <ele>135</ele>
        <time>2017-10-10T17:14:25Z</time>
      </trkpt>
      <trkpt lat="49.33897" lon="1.36264">
        <ele>135</ele>
        <time>2017-10-10T17:14:41Z</time>
      </trkpt>
      <trkpt lat="49.33899" lon="1.36257">
        <ele>135</ele>
        <time>2017-10-10T17:14:41Z</time>
      </trkpt>
      <trkpt lat="49.33901" lon="1.3625">
        <ele>135</ele>
        <time>2017-10-10T17:14:41Z</time>
      </trkpt>
      <trkpt lat="49.33902" lon="1.36243">
        <ele>135</ele>
        <time>2017-10-10T17:14:41Z</time>
      </trkpt>
      <trkpt lat="49.33904" lon="1.36235">
        <ele>135</ele>
        <time>2017-10-10T17:16:48Z</time>
      </trkpt>
      <trkpt lat="49.33908" lon="1.36231">
        <ele>135</ele>
        <time>2017-10-10T17:16:49Z</time>
      </trkpt>
      <trkpt lat="49.33912" lon="1.36227">
        <ele>135</ele>
        <time>2017-10-10T17:16:49Z</time>
      </trkpt>
      <trkpt lat="49.33916" lon="1.36222">
        <ele>135</ele>
        <time>2017-10-10T17:16:49Z</time>
      </trkpt>
      <trkpt lat="49.3392" lon="1.36217">
        <ele>135</ele>
        <time>2017-10-10T17:16:49Z</time>
      </trkpt>
      <trkpt lat="49.33924" lon="1.36212">
        <ele>135</ele>
        <time>2017-10-10T17:17:04Z</time>
      </trkpt>
      <trkpt lat="49.33928" lon="1.36208">
        <ele>136</ele>
        <time>2017-10-10T17:17:05Z</time>
      </trkpt>
      <trkpt lat="49.33931" lon="1.36202">
        <ele>136</ele>
        <time>2017-10-10T17:17:05Z</time>
      </trkpt>
      <trkpt lat="49.33934" lon="1.36196">
        <ele>136</ele>
        <time>2017-10-10T17:17:05Z</time>
      </trkpt>
      <trkpt lat="49.33937" lon="1.36189">
        <ele>136</ele>
        <time>2017-10-10T17:17:20Z</time>
      </trkpt>
      <trkpt lat="49.3394" lon="1.36183">
        <ele>136</ele>
        <time>2017-10-10T17:17:21Z</time>
      </trkpt>
      <trkpt lat="49.33943" lon="1.36177">
        <ele>136</ele>
        <time>2017-10-10T17:17:21Z</time>
      </trkpt>
      <trkpt lat="49.33946" lon="1.3617">
        <ele>136</ele>
        <time>2017-10-10T17:17:21Z</time>
      </trkpt>
      <trkpt lat="49.33948" lon="1.36163">
        <ele>136</ele>
        <time>2017-10-10T17:17:36Z</time>
      </trkpt>
      <trkpt lat="49.33951" lon="1.36157">
        <ele>136</ele>
        <time>2017-10-10T17:17:37Z</time>
      </trkpt>
      <trkpt lat="49.33954" lon="1.36151">
        <ele>136</ele>
        <time>2017-10-10T17:17:37Z</time>
      </trkpt>
      <trkpt lat="49.33956" lon="1.36144">
        <ele>136</ele>
        <time>2017-10-10T17:17:37Z</time>
      </trkpt>
      <trkpt lat="49.33959" lon="1.36138">
        <ele>133</ele>
        <time>2017-10-10T17:17:52Z</time>
      </trkpt>
      <trkpt lat="49.33961" lon="1.36132">
        <ele>133</ele>
        <time>2017-10-10T17:17:53Z</time>
      </trkpt>
      <trkpt lat="49.33963" lon="1.36126">
        <ele>133</ele>
        <time>2017-10-10T17:17:53Z</time>
      </trkpt>
      <trkpt lat="49.33965" lon="1.36119">
        <ele>133</ele>
        <time>2017-10-10T17:17:53Z</time>
      </trkpt>
      <trkpt lat="49.33967" lon="1.36113">
        <ele>133</ele>
        <time>2017-10-10T17:18:08Z</time>
      </trkpt>
      <trkpt lat="49.33969" lon="1.36106">
        <ele>133</ele>
        <time>2017-10-10T17:18:09Z</time>
      </trkpt>
      <trkpt lat="49.33971" lon="1.36099">
        <ele>133</ele>
        <time>2017-10-10T17:18:09Z</time>
      </trkpt>
      <trkpt lat="49.33973" lon="1.36092">
        <ele>133</ele>
        <time>2017-10-10T17:18:09Z</time>
      </trkpt>
      <trkpt lat="49.33976" lon="1.36085">
        <ele>133</ele>
        <time>2017-10-10T17:18:24Z</time>
      </trkpt>
      <trkpt lat="49.33979" lon="1.36078">
        <ele>133</ele>
        <time>2017-10-10T17:18:25Z</time>
      </trkpt>
      <trkpt lat="49.33981" lon="1.36071">
        <ele>133</ele>
        <time>2017-10-10T17:18:25Z</time>
      </trkpt>
      <trkpt lat="49.33984" lon="1.36064">
        <ele>133</ele>
        <time>2017-10-10T17:18:25Z</time>
      </trkpt>
      <trkpt lat="49.33986" lon="1.36058">
        <ele>133</ele>
        <time>2017-10-10T17:18:40Z</time>
      </trkpt>
      <trkpt lat="49.33989" lon="1.36052">
        <ele>133</ele>
        <time>2017-10-10T17:18:41Z</time>
      </trkpt>
      <trkpt lat="49.33992" lon="1.36044">
        <ele>133</ele>
        <time>2017-10-10T17:18:41Z</time>
      </trkpt>
      <trkpt lat="49.33995" lon="1.36037">
        <ele>134</ele>
        <time>2017-10-10T17:18:41Z</time>
      </trkpt>
      <trkpt lat="49.33998" lon="1.3603">
        <ele>134</ele>
        <time>2017-10-10T17:18:56Z</time>
      </trkpt>
      <trkpt lat="49.34" lon="1.36024">
        <ele>134</ele>
        <time>2017-10-10T17:18:57Z</time>
      </trkpt>
      <trkpt lat="49.34003" lon="1.36017">
        <ele>134</ele>
        <time>2017-10-10T17:18:57Z</time>
      </trkpt>
      <trkpt lat="49.34005" lon="1.36011">
        <ele>134</ele>
        <time>2017-10-10T17:18:57Z</time>
      </trkpt>
      <trkpt lat="49.34007" lon="1.36004">
        <ele>134</ele>
        <time>2017-10-10T17:19:12Z</time>
      </trkpt>
      <trkpt lat="49.3401" lon="1.35998">
        <ele>134</ele>
        <time>2017-10-10T17:19:13Z</time>
      </trkpt>
      <trkpt lat="49.34013" lon="1.35991">
        <ele>134</ele>
        <time>2017-10-10T17:19:13Z</time>
      </trkpt>
      <trkpt lat="49.34015" lon="1.35984">
        <ele>134</ele>
        <time>2017-10-10T17:19:13Z</time>
      </trkpt>
      <trkpt lat="49.34018" lon="1.35979">
        <ele>134</ele>
        <time>2017-10-10T17:19:28Z</time>
      </trkpt>
      <trkpt lat="49.3402" lon="1.35972">
        <ele>134</ele>
        <time>2017-10-10T17:19:29Z</time>
      </trkpt>
      <trkpt lat="49.34023" lon="1.35966">
        <ele>134</ele>
        <time>2017-10-10T17:19:29Z</time>
      </trkpt>
      <trkpt lat="49.34026" lon="1.3596">
        <ele>134</ele>
        <time>2017-10-10T17:19:29Z</time>
      </trkpt>
      <trkpt lat="49.34028" lon="1.35954">
        <ele>138</ele>
        <time>2017-10-10T17:19:44Z</time>
      </trkpt>
      <trkpt lat="49.34031" lon="1.35948">
        <ele>138</ele>
        <time>2017-10-10T17:19:45Z</time>
      </trkpt>
      <trkpt lat="49.34033" lon="1.35942">
        <ele>138</ele>
        <time>2017-10-10T17:19:45Z</time>
      </trkpt>
      <trkpt lat="49.34036" lon="1.35936">
        <ele>138</ele>
        <time>2017-10-10T17:19:45Z</time>
      </trkpt>
      <trkpt lat="49.34038" lon="1.3593">
        <ele>138</ele>
        <time>2017-10-10T17:20:00Z</time>
      </trkpt>
      <trkpt lat="49.3404" lon="1.35924">
        <ele>138</ele>
        <time>2017-10-10T17:20:01Z</time>
      </trkpt>
      <trkpt lat="49.34042" lon="1.35916">
        <ele>134</ele>
        <time>2017-10-10T17:20:01Z</time>
      </trkpt>
      <trkpt lat="49.34045" lon="1.35909">
        <ele>134</ele>
        <time>2017-10-10T17:20:01Z</time>
      </trkpt>
      <trkpt lat="49.34047" lon="1.35903">
        <ele>134</ele>
        <time>2017-10-10T17:20:16Z</time>
      </trkpt>
      <trkpt lat="49.3405" lon="1.35897">
        <ele>134</ele>
        <time>2017-10-10T17:20:17Z</time>
      </trkpt>
      <trkpt lat="49.34052" lon="1.35891">
        <ele>134</ele>
        <time>2017-10-10T17:20:17Z</time>
      </trkpt>
      <trkpt lat="49.34054" lon="1.35884">
        <ele>134</ele>
        <time>2017-10-10T17:20:17Z</time>
      </trkpt>
      <trkpt lat="49.34057" lon="1.35878">
        <ele>134</ele>
        <time>2017-10-10T17:20:32Z</time>
      </trkpt>
      <trkpt lat="49.3406" lon="1.35873">
        <ele>138</ele>
        <time>2017-10-10T17:20:33Z</time>
      </trkpt>
      <trkpt lat="49.34063" lon="1.35866">
        <ele>138</ele>
        <time>2017-10-10T17:20:33Z</time>
      </trkpt>
      <trkpt lat="49.34066" lon="1.3586">
        <ele>138</ele>
        <time>2017-10-10T17:20:33Z</time>
      </trkpt>
      <trkpt lat="49.34069" lon="1.35853">
        <ele>138</ele>
        <time>2017-10-10T17:20:48Z</time>
      </trkpt>
      <trkpt lat="49.34072" lon="1.35848">
        <ele>138</ele>
        <time>2017-10-10T17:20:49Z</time>
      </trkpt>
      <trkpt lat="49.34075" lon="1.35842">
        <ele>138</ele>
        <time>2017-10-10T17:20:49Z</time>
      </trkpt>
      <trkpt lat="49.34078" lon="1.35836">
        <ele>138</ele>
        <time>2017-10-10T17:20:49Z</time>
      </trkpt>
      <trkpt lat="49.34081" lon="1.35828">
        <ele>138</ele>
        <time>2017-10-10T17:21:04Z</time>
      </trkpt>
      <trkpt lat="49.34083" lon="1.35821">
        <ele>138</ele>
        <time>2017-10-10T17:21:05Z</time>
      </trkpt>
      <trkpt lat="49.34085" lon="1.35814">
        <ele>138</ele>
        <time>2017-10-10T17:21:05Z</time>
      </trkpt>
      <trkpt lat="49.34087" lon="1.35807">
        <ele>138</ele>
        <time>2017-10-10T17:21:05Z</time>
      </trkpt>
      <trkpt lat="49.34089" lon="1.358">
        <ele>138</ele>
        <time>2017-10-10T17:21:20Z</time>
      </trkpt>
      <trkpt lat="49.3409" lon="1.35793">
        <ele>138</ele>
        <time>2017-10-10T17:21:21Z</time>
      </trkpt>
      <trkpt lat="49.34091" lon="1.35787">
        <ele>138</ele>
        <time>2017-10-10T17:21:21Z</time>
      </trkpt>
      <trkpt lat="49.3409" lon="1.35781">
        <ele>138</ele>
        <time>2017-10-10T17:21:21Z</time>
      </trkpt>
      <trkpt lat="49.34089" lon="1.35774">
        <ele>138</ele>
        <time>2017-10-10T17:21:36Z</time>
      </trkpt>
      <trkpt lat="49.34088" lon="1.35768">
        <ele>138</ele>
        <time>2017-10-10T17:21:37Z</time>
      </trkpt>
      <trkpt lat="49.34086" lon="1.35763">
        <ele>138</ele>
        <time>2017-10-10T17:21:37Z</time>
      </trkpt>
      <trkpt lat="49.34084" lon="1.35757">
        <ele>138</ele>
        <time>2017-10-10T17:21:37Z</time>
      </trkpt>
      <trkpt lat="49.34082" lon="1.35752">
        <ele>138</ele>
        <time>2017-10-10T17:21:52Z</time>
      </trkpt>
      <trkpt lat="49.3408" lon="1.35746">
        <ele>138</ele>
        <time>2017-10-10T17:21:53Z</time>
      </trkpt>
      <trkpt lat="49.34079" lon="1.35738">
        <ele>138</ele>
        <time>2017-10-10T17:21:53Z</time>
      </trkpt>
      <trkpt lat="49.34076" lon="1.35732">
        <ele>138</ele>
        <time>2017-10-10T17:21:53Z</time>
      </trkpt>
      <trkpt lat="49.34074" lon="1.35725">
        <ele>138</ele>
        <time>2017-10-10T17:22:08Z</time>
      </trkpt>
      <trkpt lat="49.34071" lon="1.35719">
        <ele>138</ele>
        <time>2017-10-10T17:22:09Z</time>
      </trkpt>
      <trkpt lat="49.34069" lon="1.35712">
        <ele>138</ele>
        <time>2017-10-10T17:22:09Z</time>
      </trkpt>
      <trkpt lat="49.34066" lon="1.35707">
        <ele>137</ele>
        <time>2017-10-10T17:22:09Z</time>
      </trkpt>
      <trkpt lat="49.34065" lon="1.357">
        <ele>137</ele>
        <time>2017-10-10T17:22:24Z</time>
      </trkpt>
      <trkpt lat="49.34062" lon="1.35694">
        <ele>137</ele>
        <time>2017-10-10T17:22:25Z</time>
      </trkpt>
      <trkpt lat="49.34059" lon="1.35687">
        <ele>137</ele>
        <time>2017-10-10T17:22:25Z</time>
      </trkpt>
      <trkpt lat="49.34056" lon="1.35682">
        <ele>137</ele>
        <time>2017-10-10T17:22:25Z</time>
      </trkpt>
      <trkpt lat="49.34053" lon="1.35676">
        <ele>137</ele>
        <time>2017-10-10T17:22:40Z</time>
      </trkpt>
      <trkpt lat="49.3405" lon="1.3567">
        <ele>137</ele>
        <time>2017-10-10T17:22:41Z</time>
      </trkpt>
      <trkpt lat="49.34047" lon="1.35665">
        <ele>137</ele>
        <time>2017-10-10T17:22:41Z</time>
      </trkpt>
      <trkpt lat="49.34044" lon="1.35658">
        <ele>137</ele>
        <time>2017-10-10T17:22:41Z</time>
      </trkpt>
      <trkpt lat="49.34042" lon="1.35652">
        <ele>137</ele>
        <time>2017-10-10T17:22:56Z</time>
      </trkpt>
      <trkpt lat="49.34041" lon="1.35645">
        <ele>141</ele>
        <time>2017-10-10T17:22:57Z</time>
      </trkpt>
      <trkpt lat="49.34038" lon="1.35638">
        <ele>141</ele>
        <time>2017-10-10T17:22:57Z</time>
      </trkpt>
      <trkpt lat="49.34036" lon="1.35632">
        <ele>141</ele>
        <time>2017-10-10T17:22:57Z</time>
      </trkpt>
      <trkpt lat="49.34033" lon="1.35626">
        <ele>141</ele>
        <time>2017-10-10T17:23:12Z</time>
      </trkpt>
      <trkpt lat="49.3403" lon="1.35619">
        <ele>138</ele>
        <time>2017-10-10T17:23:13Z</time>
      </trkpt>
      <trkpt lat="49.34027" lon="1.35613">
        <ele>138</ele>
        <time>2017-10-10T17:23:13Z</time>
      </trkpt>
      <trkpt lat="49.34025" lon="1.35607">
        <ele>138</ele>
        <time>2017-10-10T17:23:13Z</time>
      </trkpt>
      <trkpt lat="49.34018" lon="1.35595">
        <ele>138</ele>
        <time>2017-10-10T17:24:56Z</time>
      </trkpt>
      <trkpt lat="49.34018" lon="1.35595">
        <ele>138</ele>
        <time>2017-10-10T17:24:57Z</time>
      </trkpt>
      <trkpt lat="49.34017" lon="1.35591">
        <ele>138</ele>
        <time>2017-10-10T17:24:57Z</time>
      </trkpt>
      <trkpt lat="49.34016" lon="1.35586">
        <ele>138</ele>
        <time>2017-10-10T17:24:57Z</time>
      </trkpt>
      <trkpt lat="49.34016" lon="1.35581">
        <ele>138</ele>
        <time>2017-10-10T17:24:57Z</time>
      </trkpt>
      <trkpt lat="49.34017" lon="1.35575">
        <ele>138</ele>
        <time>2017-10-10T17:25:12Z</time>
      </trkpt>
      <trkpt lat="49.34017" lon="1.35568">
        <ele>138</ele>
        <time>2017-10-10T17:25:13Z</time>
      </trkpt>
      <trkpt lat="49.34016" lon="1.3556">
        <ele>138</ele>
        <time>2017-10-10T17:25:13Z</time>
      </trkpt>
      <trkpt lat="49.34016" lon="1.35553">
        <ele>138</ele>
        <time>2017-10-10T17:25:13Z</time>
      </trkpt>
      <trkpt lat="49.34017" lon="1.35545">
        <ele>138</ele>
        <time>2017-10-10T17:25:28Z</time>
      </trkpt>
      <trkpt lat="49.34019" lon="1.35538">
        <ele>136</ele>
        <time>2017-10-10T17:25:29Z</time>
      </trkpt>
      <trkpt lat="49.3402" lon="1.3553">
        <ele>136</ele>
        <time>2017-10-10T17:25:29Z</time>
      </trkpt>
      <trkpt lat="49.3402" lon="1.35523">
        <ele>136</ele>
        <time>2017-10-10T17:25:29Z</time>
      </trkpt>
      <trkpt lat="49.34021" lon="1.35517">
        <ele>136</ele>
        <time>2017-10-10T17:25:44Z</time>
      </trkpt>
      <trkpt lat="49.3402" lon="1.3551">
        <ele>136</ele>
        <time>2017-10-10T17:25:45Z</time>
      </trkpt>
      <trkpt lat="49.3402" lon="1.35503">
        <ele>136</ele>
        <time>2017-10-10T17:25:45Z</time>
      </trkpt>
      <trkpt lat="49.34019" lon="1.35497">
        <ele>136</ele>
        <time>2017-10-10T17:25:45Z</time>
      </trkpt>
      <trkpt lat="49.34017" lon="1.3549">
        <ele>136</ele>
        <time>2017-10-10T17:26:00Z</time>
      </trkpt>
      <trkpt lat="49.34016" lon="1.35483">
        <ele>136</ele>
        <time>2017-10-10T17:26:01Z</time>
      </trkpt>
      <trkpt lat="49.34014" lon="1.35477">
        <ele>136</ele>
        <time>2017-10-10T17:26:01Z</time>
      </trkpt>
      <trkpt lat="49.34012" lon="1.3547">
        <ele>136</ele>
        <time>2017-10-10T17:26:01Z</time>
      </trkpt>
      <trkpt lat="49.34012" lon="1.35462">
        <ele>136</ele>
        <time>2017-10-10T17:26:40Z</time>
      </trkpt>
      <trkpt lat="49.34012" lon="1.35461">
        <ele>136</ele>
        <time>2017-10-10T17:26:40Z</time>
      </trkpt>
      <trkpt lat="49.34011" lon="1.35459">
        <ele>136</ele>
        <time>2017-10-10T17:26:41Z</time>
      </trkpt>
      <trkpt lat="49.3401" lon="1.35458">
        <ele>139</ele>
        <time>2017-10-10T17:26:41Z</time>
      </trkpt>
      <trkpt lat="49.34006" lon="1.35455">
        <ele>139</ele>
        <time>2017-10-10T17:26:41Z</time>
      </trkpt>
      <trkpt lat="49.34002" lon="1.3545">
        <ele>139</ele>
        <time>2017-10-10T17:26:56Z</time>
      </trkpt>
      <trkpt lat="49.33998" lon="1.35442">
        <ele>139</ele>
        <time>2017-10-10T17:26:57Z</time>
      </trkpt>
      <trkpt lat="49.33994" lon="1.35435">
        <ele>139</ele>
        <time>2017-10-10T17:26:57Z</time>
      </trkpt>
      <trkpt lat="49.33991" lon="1.35428">
        <ele>139</ele>
        <time>2017-10-10T17:26:57Z</time>
      </trkpt>
      <trkpt lat="49.33986" lon="1.35424">
        <ele>139</ele>
        <time>2017-10-10T17:27:12Z</time>
      </trkpt>
      <trkpt lat="49.33981" lon="1.3542">
        <ele>139</ele>
        <time>2017-10-10T17:27:13Z</time>
      </trkpt>
      <trkpt lat="49.33976" lon="1.35416">
        <ele>139</ele>
        <time>2017-10-10T17:27:13Z</time>
      </trkpt>
      <trkpt lat="49.33973" lon="1.35412">
        <ele>139</ele>
        <time>2017-10-10T17:27:13Z</time>
      </trkpt>
      <trkpt lat="49.3397" lon="1.35406">
        <ele>139</ele>
        <time>2017-10-10T17:27:28Z</time>
      </trkpt>
      <trkpt lat="49.33966" lon="1.35404">
        <ele>139</ele>
        <time>2017-10-10T17:27:29Z</time>
      </trkpt>
      <trkpt lat="49.33964" lon="1.35399">
        <ele>139</ele>
        <time>2017-10-10T17:27:29Z</time>
      </trkpt>
      <trkpt lat="49.33959" lon="1.35398">
        <ele>139</ele>
        <time>2017-10-10T17:27:29Z</time>
      </trkpt>
      <trkpt lat="49.33954" lon="1.35396">
        <ele>137</ele>
        <time>2017-10-10T17:27:44Z</time>
      </trkpt>
      <trkpt lat="49.33948" lon="1.35396">
        <ele>137</ele>
        <time>2017-10-10T17:27:45Z</time>
      </trkpt>
      <trkpt lat="49.33945" lon="1.35393">
        <ele>137</ele>
        <time>2017-10-10T17:27:45Z</time>
      </trkpt>
      <trkpt lat="49.33942" lon="1.35387">
        <ele>137</ele>
        <time>2017-10-10T17:27:45Z</time>
      </trkpt>
      <trkpt lat="49.33938" lon="1.35384">
        <ele>137</ele>
        <time>2017-10-10T17:28:00Z</time>
      </trkpt>
      <trkpt lat="49.33932" lon="1.35382">
        <ele>137</ele>
        <time>2017-10-10T17:28:01Z</time>
      </trkpt>
      <trkpt lat="49.33928" lon="1.35383">
        <ele>137</ele>
        <time>2017-10-10T17:28:01Z</time>
      </trkpt>
      <trkpt lat="49.33923" lon="1.3538">
        <ele>137</ele>
        <time>2017-10-10T17:28:01Z</time>
      </trkpt>
      <trkpt lat="49.33917" lon="1.35377">
        <ele>137</ele>
        <time>2017-10-10T17:28:16Z</time>
      </trkpt>
      <trkpt lat="49.33912" lon="1.35374">
        <ele>135</ele>
        <time>2017-10-10T17:28:17Z</time>
      </trkpt>
      <trkpt lat="49.33907" lon="1.3537">
        <ele>135</ele>
        <time>2017-10-10T17:28:17Z</time>
      </trkpt>
      <trkpt lat="49.33901" lon="1.35368">
        <ele>135</ele>
        <time>2017-10-10T17:28:17Z</time>
      </trkpt>
      <trkpt lat="49.33896" lon="1.35365">
        <ele>135</ele>
        <time>2017-10-10T17:28:32Z</time>
      </trkpt>
      <trkpt lat="49.33891" lon="1.3536">
        <ele>135</ele>
        <time>2017-10-10T17:28:33Z</time>
      </trkpt>
      <trkpt lat="49.33887" lon="1.35356">
        <ele>135</ele>
        <time>2017-10-10T17:28:33Z</time>
      </trkpt>
      <trkpt lat="49.33886" lon="1.35349">
        <ele>135</ele>
        <time>2017-10-10T17:28:33Z</time>
      </trkpt>
      <trkpt lat="49.33885" lon="1.35342">
        <ele>135</ele>
        <time>2017-10-10T17:28:48Z</time>
      </trkpt>
      <trkpt lat="49.33886" lon="1.35334">
        <ele>135</ele>
        <time>2017-10-10T17:28:49Z</time>
      </trkpt>
      <trkpt lat="49.33888" lon="1.35327">
        <ele>135</ele>
        <time>2017-10-10T17:28:49Z</time>
      </trkpt>
      <trkpt lat="49.33891" lon="1.3532">
        <ele>135</ele>
        <time>2017-10-10T17:28:49Z</time>
      </trkpt>
      <trkpt lat="49.33894" lon="1.35315">
        <ele>135</ele>
        <time>2017-10-10T17:29:04Z</time>
      </trkpt>
      <trkpt lat="49.33897" lon="1.3531">
        <ele>135</ele>
        <time>2017-10-10T17:29:05Z</time>
      </trkpt>
      <trkpt lat="49.339" lon="1.35304">
        <ele>135</ele>
        <time>2017-10-10T17:29:05Z</time>
      </trkpt>
      <trkpt lat="49.33905" lon="1.35299">
        <ele>135</ele>
        <time>2017-10-10T17:29:05Z</time>
      </trkpt>
      <trkpt lat="49.33909" lon="1.35295">
        <ele>135</ele>
        <time>2017-10-10T17:29:20Z</time>
      </trkpt>
      <trkpt lat="49.33913" lon="1.35291">
        <ele>125</ele>
        <time>2017-10-10T17:29:21Z</time>
      </trkpt>
      <trkpt lat="49.33917" lon="1.35289">
        <ele>125</ele>
        <time>2017-10-10T17:29:21Z</time>
      </trkpt>
      <trkpt lat="49.33922" lon="1.35288">
        <ele>125</ele>
        <time>2017-10-10T17:29:21Z</time>
      </trkpt>
      <trkpt lat="49.33927" lon="1.35289">
        <ele>125</ele>
        <time>2017-10-10T17:29:36Z</time>
      </trkpt>
      <trkpt lat="49.3393" lon="1.35286">
        <ele>125</ele>
        <time>2017-10-10T17:29:37Z</time>
      </trkpt>
      <trkpt lat="49.33935" lon="1.35286">
        <ele>125</ele>
        <time>2017-10-10T17:29:37Z</time>
      </trkpt>
      <trkpt lat="49.3394" lon="1.35285">
        <ele>125</ele>
        <time>2017-10-10T17:29:37Z</time>
      </trkpt>
      <trkpt lat="49.33945" lon="1.3528">
        <ele>125</ele>
        <time>2017-10-10T17:29:52Z</time>
      </trkpt>
      <trkpt lat="49.33949" lon="1.35275">
        <ele>125</ele>
        <time>2017-10-10T17:29:53Z</time>
      </trkpt>
      <trkpt lat="49.33952" lon="1.35268">
        <ele>125</ele>
        <time>2017-10-10T17:29:53Z</time>
      </trkpt>
      <trkpt lat="49.33953" lon="1.35259">
        <ele>125</ele>
        <time>2017-10-10T17:29:53Z</time>
      </trkpt>
      <trkpt lat="49.33954" lon="1.3525">
        <ele>125</ele>
        <time>2017-10-10T17:30:08Z</time>
      </trkpt>
      <trkpt lat="49.33955" lon="1.35244">
        <ele>125</ele>
        <time>2017-10-10T17:30:09Z</time>
      </trkpt>
      <trkpt lat="49.33957" lon="1.35237">
        <ele>125</ele>
        <time>2017-10-10T17:30:09Z</time>
      </trkpt>
      <trkpt lat="49.33959" lon="1.35232">
        <ele>130</ele>
        <time>2017-10-10T17:30:09Z</time>
      </trkpt>
      <trkpt lat="49.3396" lon="1.35225">
        <ele>130</ele>
        <time>2017-10-10T17:30:24Z</time>
      </trkpt>
      <trkpt lat="49.33962" lon="1.3522">
        <ele>130</ele>
        <time>2017-10-10T17:30:25Z</time>
      </trkpt>
      <trkpt lat="49.33966" lon="1.35217">
        <ele>130</ele>
        <time>2017-10-10T17:30:25Z</time>
      </trkpt>
      <trkpt lat="49.33969" lon="1.35214">
        <ele>130</ele>
        <time>2017-10-10T17:30:25Z</time>
      </trkpt>
      <trkpt lat="49.33972" lon="1.35209">
        <ele>130</ele>
        <time>2017-10-10T17:30:40Z</time>
      </trkpt>
      <trkpt lat="49.33973" lon="1.35203">
        <ele>126</ele>
        <time>2017-10-10T17:30:41Z</time>
      </trkpt>
      <trkpt lat="49.33976" lon="1.352">
        <ele>126</ele>
        <time>2017-10-10T17:30:41Z</time>
      </trkpt>
      <trkpt lat="49.33979" lon="1.35197">
        <ele>126</ele>
        <time>2017-10-10T17:30:41Z</time>
      </trkpt>
      <trkpt lat="49.33983" lon="1.35191">
        <ele>126</ele>
        <time>2017-10-10T17:30:56Z</time>
      </trkpt>
      <trkpt lat="49.33987" lon="1.35187">
        <ele>126</ele>
        <time>2017-10-10T17:30:57Z</time>
      </trkpt>
      <trkpt lat="49.33992" lon="1.35184">
        <ele>126</ele>
        <time>2017-10-10T17:30:57Z</time>
      </trkpt>
      <trkpt lat="49.33994" lon="1.35178">
        <ele>126</ele>
        <time>2017-10-10T17:30:57Z</time>
      </trkpt>
      <trkpt lat="49.33997" lon="1.35173">
        <ele>126</ele>
        <time>2017-10-10T17:31:12Z</time>
      </trkpt>
      <trkpt lat="49.34" lon="1.3517">
        <ele>126</ele>
        <time>2017-10-10T17:31:13Z</time>
      </trkpt>
      <trkpt lat="49.34003" lon="1.35165">
        <ele>126</ele>
        <time>2017-10-10T17:31:13Z</time>
      </trkpt>
      <trkpt lat="49.34005" lon="1.3516">
        <ele>126</ele>
        <time>2017-10-10T17:31:13Z</time>
      </trkpt>
      <trkpt lat="49.34" lon="1.3516">
        <ele>126</ele>
        <time>2017-10-10T17:33:08Z</time>
      </trkpt>
      <trkpt lat="49.33999" lon="1.3516">
        <ele>126</ele>
        <time>2017-10-10T17:33:09Z</time>
      </trkpt>
      <trkpt lat="49.33996" lon="1.35161">
        <ele>126</ele>
        <time>2017-10-10T17:33:09Z</time>
      </trkpt>
      <trkpt lat="49.33994" lon="1.35165">
        <ele>126</ele>
        <time>2017-10-10T17:33:09Z</time>
      </trkpt>
      <trkpt lat="49.33991" lon="1.3517">
        <ele>126</ele>
        <time>2017-10-10T17:33:09Z</time>
      </trkpt>
      <trkpt lat="49.33988" lon="1.35175">
        <ele>126</ele>
        <time>2017-10-10T17:33:24Z</time>
      </trkpt>
      <trkpt lat="49.33984" lon="1.3518">
        <ele>126</ele>
        <time>2017-10-10T17:33:25Z</time>
      </trkpt>
      <trkpt lat="49.33981" lon="1.35183">
        <ele>126</ele>
        <time>2017-10-10T17:33:25Z</time>
      </trkpt>
      <trkpt lat="49.33977" lon="1.35183">
        <ele>126</ele>
        <time>2017-10-10T17:33:25Z</time>
      </trkpt>
      <trkpt lat="49.33974" lon="1.35182">
        <ele>126</ele>
        <time>2017-10-10T17:33:40Z</time>
      </trkpt>
      <trkpt lat="49.3397" lon="1.35182">
        <ele>126</ele>
        <time>2017-10-10T17:33:41Z</time>
      </trkpt>
      <trkpt lat="49.33966" lon="1.35181">
        <ele>126</ele>
        <time>2017-10-10T17:33:41Z</time>
      </trkpt>
      <trkpt lat="49.33961" lon="1.35178">
        <ele>126</ele>
        <time>2017-10-10T17:33:41Z</time>
      </trkpt>
      <trkpt lat="49.33956" lon="1.35176">
        <ele>114</ele>
        <time>2017-10-10T17:33:56Z</time>
      </trkpt>
      <trkpt lat="49.33951" lon="1.35173">
        <ele>114</ele>
        <time>2017-10-10T17:33:57Z</time>
      </trkpt>
      <trkpt lat="49.33946" lon="1.35173">
        <ele>114</ele>
        <time>2017-10-10T17:33:57Z</time>
      </trkpt>
      <trkpt lat="49.33942" lon="1.35169">
        <ele>114</ele>
        <time>2017-10-10T17:33:57Z</time>
      </trkpt>
      <trkpt lat="49.33938" lon="1.35165">
        <ele>114</ele>
        <time>2017-10-10T17:34:12Z</time>
      </trkpt>
      <trkpt lat="49.33933" lon="1.35162">
        <ele>114</ele>
        <time>2017-10-10T17:34:13Z</time>
      </trkpt>
      <trkpt lat="49.33927" lon="1.35159">
        <ele>114</ele>
        <time>2017-10-10T17:34:13Z</time>
      </trkpt>
      <trkpt lat="49.33923" lon="1.35155">
        <ele>114</ele>
        <time>2017-10-10T17:34:13Z</time>
      </trkpt>
      <trkpt lat="49.3392" lon="1.3515">
        <ele>114</ele>
        <time>2017-10-10T17:34:28Z</time>
      </trkpt>
      <trkpt lat="49.33916" lon="1.35147">
        <ele>114</ele>
        <time>2017-10-10T17:34:29Z</time>
      </trkpt>
      <trkpt lat="49.33911" lon="1.35145">
        <ele>114</ele>
        <time>2017-10-10T17:34:29Z</time>
      </trkpt>
      <trkpt lat="49.33907" lon="1.35142">
        <ele>114</ele>
        <time>2017-10-10T17:34:29Z</time>
      </trkpt>
      <trkpt lat="49.33898" lon="1.35135">
        <ele>114</ele>
        <time>2017-10-10T17:35:20Z</time>
      </trkpt>
      <trkpt lat="49.33898" lon="1.35135">
        <ele>114</ele>
        <time>2017-10-10T17:35:21Z</time>
      </trkpt>
      <trkpt lat="49.33895" lon="1.35129">
        <ele>114</ele>
        <time>2017-10-10T17:35:21Z</time>
      </trkpt>
      <trkpt lat="49.3389" lon="1.35127">
        <ele>114</ele>
        <time>2017-10-10T17:35:21Z</time>
      </trkpt>
      <trkpt lat="49.33886" lon="1.35125">
        <ele>114</ele>
        <time>2017-10-10T17:35:21Z</time>
      </trkpt>
      <trkpt lat="49.33884" lon="1.35123">
        <ele>114</ele>
        <time>2017-10-10T17:35:40Z</time>
      </trkpt>
      <trkpt lat="49.33883" lon="1.35123">
        <ele>114</ele>
        <time>2017-10-10T17:35:41Z</time>
      </trkpt>
      <trkpt lat="49.33881" lon="1.35122">
        <ele>114</ele>
        <time>2017-10-10T17:35:41Z</time>
      </trkpt>
      <trkpt lat="49.33877" lon="1.3512">
        <ele>114</ele>
        <time>2017-10-10T17:35:41Z</time>
      </trkpt>
      <trkpt lat="49.33873" lon="1.35117">
        <ele>97</ele>
        <time>2017-10-10T17:35:41Z</time>
      </trkpt>
      <trkpt lat="49.33867" lon="1.35116">
        <ele>97</ele>
        <time>2017-10-10T17:35:56Z</time>
      </trkpt>
      <trkpt lat="49.33862" lon="1.35112">
        <ele>97</ele>
        <time>2017-10-10T17:35:57Z</time>
      </trkpt>
      <trkpt lat="49.33857" lon="1.35114">
        <ele>97</ele>
        <time>2017-10-10T17:35:57Z</time>
      </trkpt>
      <trkpt lat="49.33856" lon="1.35118">
        <ele>97</ele>
        <time>2017-10-10T17:35:57Z</time>
      </trkpt>
      <trkpt lat="49.33854" lon="1.35116">
        <ele>97</ele>
        <time>2017-10-10T17:36:12Z</time>
      </trkpt>
      <trkpt lat="49.33851" lon="1.35111">
        <ele>97</ele>
        <time>2017-10-10T17:36:13Z</time>
      </trkpt>
      <trkpt lat="49.33847" lon="1.35109">
        <ele>97</ele>
        <time>2017-10-10T17:36:13Z</time>
      </trkpt>
      <trkpt lat="49.33845" lon="1.35107">
        <ele>97</ele>
        <time>2017-10-10T17:36:13Z</time>
      </trkpt>
      <trkpt lat="49.33842" lon="1.35106">
        <ele>97</ele>
        <time>2017-10-10T17:36:28Z</time>
      </trkpt>
      <trkpt lat="49.33837" lon="1.35107">
        <ele>97</ele>
        <time>2017-10-10T17:36:29Z</time>
      </trkpt>
      <trkpt lat="49.3383" lon="1.3511">
        <ele>97</ele>
        <time>2017-10-10T17:36:29Z</time>
      </trkpt>
      <trkpt lat="49.33827" lon="1.35113">
        <ele>97</ele>
        <time>2017-10-10T17:36:29Z</time>
      </trkpt>
      <trkpt lat="49.33826" lon="1.35111">
        <ele>97</ele>
        <time>2017-10-10T17:37:12Z</time>
      </trkpt>
      <trkpt lat="49.33823" lon="1.35112">
        <ele>97</ele>
        <time>2017-10-10T17:37:13Z</time>
      </trkpt>
      <trkpt lat="49.33819" lon="1.35111">
        <ele>97</ele>
        <time>2017-10-10T17:37:13Z</time>
      </trkpt>
      <trkpt lat="49.33814" lon="1.35109">
        <ele>97</ele>
        <time>2017-10-10T17:37:13Z</time>
      </trkpt>
      <trkpt lat="49.33807" lon="1.35108">
        <ele>97</ele>
        <time>2017-10-10T17:37:13Z</time>
      </trkpt>
      <trkpt lat="49.33802" lon="1.35107">
        <ele>97</ele>
        <time>2017-10-10T17:37:28Z</time>
      </trkpt>
      <trkpt lat="49.33797" lon="1.35105">
        <ele>97</ele>
        <time>2017-10-10T17:37:29Z</time>
      </trkpt>
      <trkpt lat="49.33793" lon="1.35105">
        <ele>97</ele>
        <time>2017-10-10T17:37:29Z</time>
      </trkpt>
      <trkpt lat="49.3379" lon="1.35106">
        <ele>92</ele>
        <time>2017-10-10T17:37:29Z</time>
      </trkpt>
      <trkpt lat="49.33791" lon="1.35102">
        <ele>92</ele>
        <time>2017-10-10T17:39:20Z</time>
      </trkpt>
      <trkpt lat="49.33785" lon="1.35098">
        <ele>92</ele>
        <time>2017-10-10T17:39:21Z</time>
      </trkpt>
      <trkpt lat="49.3378" lon="1.35095">
        <ele>92</ele>
        <time>2017-10-10T17:39:21Z</time>
      </trkpt>
      <trkpt lat="49.33776" lon="1.3509">
        <ele>92</ele>
        <time>2017-10-10T17:39:21Z</time>
      </trkpt>
      <trkpt lat="49.33771" lon="1.35091">
        <ele>92</ele>
        <time>2017-10-10T17:39:21Z</time>
      </trkpt>
      <trkpt lat="49.33767" lon="1.35089">
        <ele>92</ele>
        <time>2017-10-10T17:39:36Z</time>
      </trkpt>
      <trkpt lat="49.33764" lon="1.35086">
        <ele>92</ele>
        <time>2017-10-10T17:39:37Z</time>
      </trkpt>
      <trkpt lat="49.33762" lon="1.35083">
        <ele>92</ele>
        <time>2017-10-10T17:39:37Z</time>
      </trkpt>
      <trkpt lat="49.33758" lon="1.3508">
        <ele>92</ele>
        <time>2017-10-10T17:39:37Z</time>
      </trkpt>
      <trkpt lat="49.33754" lon="1.35078">
        <ele>92</ele>
        <time>2017-10-10T17:39:52Z</time>
      </trkpt>
      <trkpt lat="49.33751" lon="1.35078">
        <ele>92</ele>
        <time>2017-10-10T17:39:53Z</time>
      </trkpt>
      <trkpt lat="49.33747" lon="1.35076">
        <ele>92</ele>
        <time>2017-10-10T17:39:53Z</time>
      </trkpt>
      <trkpt lat="49.33743" lon="1.35075">
        <ele>92</ele>
        <time>2017-10-10T17:39:53Z</time>
      </trkpt>
      <trkpt lat="49.33738" lon="1.35073">
        <ele>92</ele>
        <time>2017-10-10T17:40:08Z</time>
      </trkpt>
      <trkpt lat="49.33735" lon="1.35067">
        <ele>92</ele>
        <time>2017-10-10T17:40:09Z</time>
      </trkpt>
      <trkpt lat="49.33735" lon="1.3506">
        <ele>92</ele>
        <time>2017-10-10T17:40:09Z</time>
      </trkpt>
      <trkpt lat="49.33736" lon="1.35053">
        <ele>92</ele>
        <time>2017-10-10T17:40:09Z</time>
      </trkpt>
      <trkpt lat="49.33737" lon="1.35046">
        <ele>92</ele>
        <time>2017-10-10T17:40:24Z</time>
      </trkpt>
      <trkpt lat="49.33738" lon="1.3504">
        <ele>86</ele>
        <time>2017-10-10T17:40:25Z</time>
      </trkpt>
      <trkpt lat="49.33737" lon="1.35033">
        <ele>86</ele>
        <time>2017-10-10T17:40:25Z</time>
      </trkpt>
      <trkpt lat="49.33737" lon="1.35024">
        <ele>86</ele>
        <time>2017-10-10T17:40:25Z</time>
      </trkpt>
      <trkpt lat="49.33738" lon="1.35016">
        <ele>86</ele>
        <time>2017-10-10T17:40:40Z</time>
      </trkpt>
      <trkpt lat="49.33739" lon="1.35007">
        <ele>86</ele>
        <time>2017-10-10T17:40:41Z</time>
      </trkpt>
      <trkpt lat="49.3374" lon="1.35">
        <ele>86</ele>
        <time>2017-10-10T17:40:41Z</time>
      </trkpt>
      <trkpt lat="49.33741" lon="1.34992">
        <ele>86</ele>
        <time>2017-10-10T17:40:41Z</time>
      </trkpt>
      <trkpt lat="49.33742" lon="1.34983">
        <ele>86</ele>
        <time>2017-10-10T17:40:56Z</time>
      </trkpt>
      <trkpt lat="49.33744" lon="1.34975">
        <ele>86</ele>
        <time>2017-10-10T17:40:57Z</time>
      </trkpt>
      <trkpt lat="49.33746" lon="1.34968">
        <ele>86</ele>
        <time>2017-10-10T17:40:57Z</time>
      </trkpt>
      <trkpt lat="49.33747" lon="1.3496">
        <ele>86</ele>
        <time>2017-10-10T17:40:57Z</time>
      </trkpt>
      <trkpt lat="49.33747" lon="1.34953">
        <ele>81</ele>
        <time>2017-10-10T17:41:12Z</time>
      </trkpt>
      <trkpt lat="49.33748" lon="1.34945">
        <ele>81</ele>
        <time>2017-10-10T17:41:13Z</time>
      </trkpt>
      <trkpt lat="49.3375" lon="1.34936">
        <ele>81</ele>
        <time>2017-10-10T17:41:13Z</time>
      </trkpt>
      <trkpt lat="49.33754" lon="1.34929">
        <ele>81</ele>
        <time>2017-10-10T17:41:13Z</time>
      </trkpt>
      <trkpt lat="49.33755" lon="1.3492">
        <ele>81</ele>
        <time>2017-10-10T17:41:28Z</time>
      </trkpt>
      <trkpt lat="49.33755" lon="1.34912">
        <ele>81</ele>
        <time>2017-10-10T17:41:29Z</time>
      </trkpt>
      <trkpt lat="49.33756" lon="1.34904">
        <ele>81</ele>
        <time>2017-10-10T17:41:29Z</time>
      </trkpt>
      <trkpt lat="49.33757" lon="1.34896">
        <ele>81</ele>
        <time>2017-10-10T17:41:29Z</time>
      </trkpt>
      <trkpt lat="49.33758" lon="1.34888">
        <ele>81</ele>
        <time>2017-10-10T17:41:44Z</time>
      </trkpt>
      <trkpt lat="49.33758" lon="1.34881">
        <ele>81</ele>
        <time>2017-10-10T17:41:45Z</time>
      </trkpt>
      <trkpt lat="49.33758" lon="1.34874">
        <ele>82</ele>
        <time>2017-10-10T17:41:45Z</time>
      </trkpt>
      <trkpt lat="49.33758" lon="1.34866">
        <ele>82</ele>
        <time>2017-10-10T17:41:45Z</time>
      </trkpt>
      <trkpt lat="49.33758" lon="1.34858">
        <ele>82</ele>
        <time>2017-10-10T17:42:00Z</time>
      </trkpt>
      <trkpt lat="49.33758" lon="1.3485">
        <ele>82</ele>
        <time>2017-10-10T17:42:01Z</time>
      </trkpt>
      <trkpt lat="49.33758" lon="1.34842">
        <ele>82</ele>
        <time>2017-10-10T17:42:01Z</time>
      </trkpt>
      <trkpt lat="49.33758" lon="1.34835">
        <ele>82</ele>
        <time>2017-10-10T17:42:01Z</time>
      </trkpt>
      <trkpt lat="49.33759" lon="1.34828">
        <ele>82</ele>
        <time>2017-10-10T17:42:16Z</time>
      </trkpt>
      <trkpt lat="49.33761" lon="1.34821">
        <ele>82</ele>
        <time>2017-10-10T17:42:17Z</time>
      </trkpt>
      <trkpt lat="49.33761" lon="1.34814">
        <ele>82</ele>
        <time>2017-10-10T17:42:17Z</time>
      </trkpt>
      <trkpt lat="49.33762" lon="1.34808">
        <ele>82</ele>
        <time>2017-10-10T17:42:17Z</time>
      </trkpt>
      <trkpt lat="49.33763" lon="1.348">
        <ele>82</ele>
        <time>2017-10-10T17:42:32Z</time>
      </trkpt>
      <trkpt lat="49.33762" lon="1.34793">
        <ele>82</ele>
        <time>2017-10-10T17:42:33Z</time>
      </trkpt>
      <trkpt lat="49.33764" lon="1.34786">
        <ele>86</ele>
        <time>2017-10-10T17:42:33Z</time>
      </trkpt>
      <trkpt lat="49.33765" lon="1.34779">
        <ele>86</ele>
        <time>2017-10-10T17:42:33Z</time>
      </trkpt>
      <trkpt lat="49.33768" lon="1.34772">
        <ele>86</ele>
        <time>2017-10-10T17:42:48Z</time>
      </trkpt>
      <trkpt lat="49.3377" lon="1.34764">
        <ele>86</ele>
        <time>2017-10-10T17:42:49Z</time>
      </trkpt>
      <trkpt lat="49.33773" lon="1.34758">
        <ele>86</ele>
        <time>2017-10-10T17:42:49Z</time>
      </trkpt>
      <trkpt lat="49.33776" lon="1.34751">
        <ele>86</ele>
        <time>2017-10-10T17:42:49Z</time>
      </trkpt>
      <trkpt lat="49.33778" lon="1.34745">
        <ele>86</ele>
        <time>2017-10-10T17:43:04Z</time>
      </trkpt>
      <trkpt lat="49.33779" lon="1.34737">
        <ele>86</ele>
        <time>2017-10-10T17:43:05Z</time>
      </trkpt>
      <trkpt lat="49.33781" lon="1.3473">
        <ele>86</ele>
        <time>2017-10-10T17:43:05Z</time>
      </trkpt>
      <trkpt lat="49.33785" lon="1.34724">
        <ele>86</ele>
        <time>2017-10-10T17:43:05Z</time>
      </trkpt>
      <trkpt lat="49.33789" lon="1.34718">
        <ele>86</ele>
        <time>2017-10-10T17:43:20Z</time>
      </trkpt>
      <trkpt lat="49.33793" lon="1.34712">
        <ele>85</ele>
        <time>2017-10-10T17:43:21Z</time>
      </trkpt>
      <trkpt lat="49.33797" lon="1.34707">
        <ele>80</ele>
        <time>2017-10-10T17:43:21Z</time>
      </trkpt>
      <trkpt lat="49.338" lon="1.34699">
        <ele>80</ele>
        <time>2017-10-10T17:43:21Z</time>
      </trkpt>
      <trkpt lat="49.33803" lon="1.34691">
        <ele>80</ele>
        <time>2017-10-10T17:43:36Z</time>
      </trkpt>
      <trkpt lat="49.33808" lon="1.34687">
        <ele>80</ele>
        <time>2017-10-10T17:43:37Z</time>
      </trkpt>
      <trkpt lat="49.33811" lon="1.3468">
        <ele>80</ele>
        <time>2017-10-10T17:43:37Z</time>
      </trkpt>
      <trkpt lat="49.33815" lon="1.34675">
        <ele>80</ele>
        <time>2017-10-10T17:43:37Z</time>
      </trkpt>
      <trkpt lat="49.33818" lon="1.34668">
        <ele>80</ele>
        <time>2017-10-10T17:43:52Z</time>
      </trkpt>
      <trkpt lat="49.33821" lon="1.34663">
        <ele>80</ele>
        <time>2017-10-10T17:43:53Z</time>
      </trkpt>
      <trkpt lat="49.33825" lon="1.34662">
        <ele>80</ele>
        <time>2017-10-10T17:43:53Z</time>
      </trkpt>
      <trkpt lat="49.33828" lon="1.34658">
        <ele>80</ele>
        <time>2017-10-10T17:43:53Z</time>
      </trkpt>
      <trkpt lat="49.33831" lon="1.3465">
        <ele>80</ele>
        <time>2017-10-10T17:44:08Z</time>
      </trkpt>
      <trkpt lat="49.33834" lon="1.34644">
        <ele>80</ele>
        <time>2017-10-10T17:44:09Z</time>
      </trkpt>
      <trkpt lat="49.33837" lon="1.34638">
        <ele>80</ele>
        <time>2017-10-10T17:44:09Z</time>
      </trkpt>
      <trkpt lat="49.3384" lon="1.34631">
        <ele>80</ele>
        <time>2017-10-10T17:44:09Z</time>
      </trkpt>
      <trkpt lat="49.33844" lon="1.34624">
        <ele>83</ele>
        <time>2017-10-10T17:44:24Z</time>
      </trkpt>
      <trkpt lat="49.33847" lon="1.34618">
        <ele>83</ele>
        <time>2017-10-10T17:44:25Z</time>
      </trkpt>
      <trkpt lat="49.33848" lon="1.3461">
        <ele>83</ele>
        <time>2017-10-10T17:44:25Z</time>
      </trkpt>
      <trkpt lat="49.3385" lon="1.34602">
        <ele>83</ele>
        <time>2017-10-10T17:44:25Z</time>
      </trkpt>
      <trkpt lat="49.33851" lon="1.34595">
        <ele>83</ele>
        <time>2017-10-10T17:44:40Z</time>
      </trkpt>
      <trkpt lat="49.33852" lon="1.34589">
        <ele>83</ele>
        <time>2017-10-10T17:44:41Z</time>
      </trkpt>
      <trkpt lat="49.33854" lon="1.34582">
        <ele>83</ele>
        <time>2017-10-10T17:44:41Z</time>
      </trkpt>
      <trkpt lat="49.33857" lon="1.34575">
        <ele>83</ele>
        <time>2017-10-10T17:44:41Z</time>
      </trkpt>
      <trkpt lat="49.33859" lon="1.34568">
        <ele>83</ele>
        <time>2017-10-10T17:44:56Z</time>
      </trkpt>
      <trkpt lat="49.33862" lon="1.34562">
        <ele>83</ele>
        <time>2017-10-10T17:44:57Z</time>
      </trkpt>
      <trkpt lat="49.33864" lon="1.34554">
        <ele>83</ele>
        <time>2017-10-10T17:44:57Z</time>
      </trkpt>
      <trkpt lat="49.33867" lon="1.34548">
        <ele>83</ele>
        <time>2017-10-10T17:44:57Z</time>
      </trkpt>
      <trkpt lat="49.33868" lon="1.34541">
        <ele>84</ele>
        <time>2017-10-10T17:45:12Z</time>
      </trkpt>
      <trkpt lat="49.3387" lon="1.34534">
        <ele>84</ele>
        <time>2017-10-10T17:45:13Z</time>
      </trkpt>
      <trkpt lat="49.33872" lon="1.34528">
        <ele>84</ele>
        <time>2017-10-10T17:45:13Z</time>
      </trkpt>
      <trkpt lat="49.33875" lon="1.34522">
        <ele>84</ele>
        <time>2017-10-10T17:45:13Z</time>
      </trkpt>
      <trkpt lat="49.33877" lon="1.34515">
        <ele>82</ele>
        <time>2017-10-10T17:45:28Z</time>
      </trkpt>
      <trkpt lat="49.33879" lon="1.34509">
        <ele>82</ele>
        <time>2017-10-10T17:45:29Z</time>
      </trkpt>
      <trkpt lat="49.33882" lon="1.34503">
        <ele>82</ele>
        <time>2017-10-10T17:45:29Z</time>
      </trkpt>
      <trkpt lat="49.33883" lon="1.34497">
        <ele>82</ele>
        <time>2017-10-10T17:45:29Z</time>
      </trkpt>
      <trkpt lat="49.33886" lon="1.34491">
        <ele>82</ele>
        <time>2017-10-10T17:45:44Z</time>
      </trkpt>
      <trkpt lat="49.33888" lon="1.34484">
        <ele>82</ele>
        <time>2017-10-10T17:45:45Z</time>
      </trkpt>
      <trkpt lat="49.33891" lon="1.34478">
        <ele>82</ele>
        <time>2017-10-10T17:45:45Z</time>
      </trkpt>
      <trkpt lat="49.33894" lon="1.34473">
        <ele>82</ele>
        <time>2017-10-10T17:45:45Z</time>
      </trkpt>
      <trkpt lat="49.33897" lon="1.34469">
        <ele>82</ele>
        <time>2017-10-10T17:46:00Z</time>
      </trkpt>
      <trkpt lat="49.33899" lon="1.34464">
        <ele>82</ele>
        <time>2017-10-10T17:46:00Z</time>
      </trkpt>
      <trkpt lat="49.33901" lon="1.34458">
        <ele>82</ele>
        <time>2017-10-10T17:46:01Z</time>
      </trkpt>
      <trkpt lat="49.33904" lon="1.34453">
        <ele>76</ele>
        <time>2017-10-10T17:46:01Z</time>
      </trkpt>
      <trkpt lat="49.33909" lon="1.34445">
        <ele>76</ele>
        <time>2017-10-10T17:46:24Z</time>
      </trkpt>
      <trkpt lat="49.33909" lon="1.34444">
        <ele>76</ele>
        <time>2017-10-10T17:46:25Z</time>
      </trkpt>
      <trkpt lat="49.33912" lon="1.34445">
        <ele>76</ele>
        <time>2017-10-10T17:46:25Z</time>
      </trkpt>
      <trkpt lat="49.33915" lon="1.34444">
        <ele>76</ele>
        <time>2017-10-10T17:46:25Z</time>
      </trkpt>
      <trkpt lat="49.33919" lon="1.34441">
        <ele>76</ele>
        <time>2017-10-10T17:46:25Z</time>
      </trkpt>
      <trkpt lat="49.33922" lon="1.34437">
        <ele>76</ele>
        <time>2017-10-10T17:46:40Z</time>
      </trkpt>
      <trkpt lat="49.33926" lon="1.34433">
        <ele>76</ele>
        <time>2017-10-10T17:46:41Z</time>
      </trkpt>
      <trkpt lat="49.3393" lon="1.34427">
        <ele>76</ele>
        <time>2017-10-10T17:46:41Z</time>
      </trkpt>
      <trkpt lat="49.33935" lon="1.3442">
        <ele>76</ele>
        <time>2017-10-10T17:46:41Z</time>
      </trkpt>
      <trkpt lat="49.3394" lon="1.34415">
        <ele>76</ele>
        <time>2017-10-10T17:46:56Z</time>
      </trkpt>
      <trkpt lat="49.33945" lon="1.34412">
        <ele>76</ele>
        <time>2017-10-10T17:46:57Z</time>
      </trkpt>
      <trkpt lat="49.33949" lon="1.34409">
        <ele>76</ele>
        <time>2017-10-10T17:46:57Z</time>
      </trkpt>
      <trkpt lat="49.33954" lon="1.34405">
        <ele>76</ele>
        <time>2017-10-10T17:46:57Z</time>
      </trkpt>
      <trkpt lat="49.33958" lon="1.34401">
        <ele>76</ele>
        <time>2017-10-10T17:47:12Z</time>
      </trkpt>
      <trkpt lat="49.33963" lon="1.34397">
        <ele>75</ele>
        <time>2017-10-10T17:47:13Z</time>
      </trkpt>
      <trkpt lat="49.33968" lon="1.34395">
        <ele>75</ele>
        <time>2017-10-10T17:47:13Z</time>
      </trkpt>
      <trkpt lat="49.33973" lon="1.34392">
        <ele>75</ele>
        <time>2017-10-10T17:47:13Z</time>
      </trkpt>
      <trkpt lat="49.33978" lon="1.3439">
        <ele>75</ele>
        <time>2017-10-10T17:47:28Z</time>
      </trkpt>
      <trkpt lat="49.33984" lon="1.34387">
        <ele>75</ele>
        <time>2017-10-10T17:47:29Z</time>
      </trkpt>
      <trkpt lat="49.33989" lon="1.34385">
        <ele>75</ele>
        <time>2017-10-10T17:47:29Z</time>
      </trkpt>
      <trkpt lat="49.33994" lon="1.34383">
        <ele>75</ele>
        <time>2017-10-10T17:47:29Z</time>
      </trkpt>
      <trkpt lat="49.34" lon="1.34382">
        <ele>75</ele>
        <time>2017-10-10T17:47:44Z</time>
      </trkpt>
      <trkpt lat="49.34004" lon="1.34378">
        <ele>75</ele>
        <time>2017-10-10T17:47:45Z</time>
      </trkpt>
      <trkpt lat="49.34009" lon="1.34375">
        <ele>75</ele>
        <time>2017-10-10T17:47:45Z</time>
      </trkpt>
      <trkpt lat="49.34015" lon="1.34375">
        <ele>66</ele>
        <time>2017-10-10T17:47:45Z</time>
      </trkpt>
      <trkpt lat="49.3402" lon="1.34375">
        <ele>75</ele>
        <time>2017-10-10T17:48:00Z</time>
      </trkpt>
      <trkpt lat="49.34025" lon="1.34375">
        <ele>75</ele>
        <time>2017-10-10T17:48:01Z</time>
      </trkpt>
      <trkpt lat="49.34028" lon="1.34371">
        <ele>66</ele>
        <time>2017-10-10T17:48:01Z</time>
      </trkpt>
      <trkpt lat="49.34028" lon="1.34368">
        <ele>66</ele>
        <time>2017-10-10T17:48:01Z</time>
      </trkpt>
      <trkpt lat="49.3403" lon="1.34369">
        <ele>66</ele>
        <time>2017-10-10T17:48:16Z</time>
      </trkpt>
      <trkpt lat="49.34032" lon="1.34369">
        <ele>66</ele>
        <time>2017-10-10T17:48:17Z</time>
      </trkpt>
      <trkpt lat="49.34034" lon="1.34368">
        <ele>66</ele>
        <time>2017-10-10T17:48:17Z</time>
      </trkpt>
      <trkpt lat="49.34039" lon="1.34371">
        <ele>66</ele>
        <time>2017-10-10T17:48:17Z</time>
      </trkpt>
      <trkpt lat="49.34046" lon="1.34376">
        <ele>85</ele>
        <time>2017-10-10T17:48:36Z</time>
      </trkpt>
      <trkpt lat="49.3405" lon="1.34378">
        <ele>85</ele>
        <time>2017-10-10T17:48:37Z</time>
      </trkpt>
      <trkpt lat="49.34051" lon="1.34381">
        <ele>85</ele>
        <time>2017-10-10T17:48:37Z</time>
      </trkpt>
      <trkpt lat="49.34052" lon="1.34381">
        <ele>85</ele>
        <time>2017-10-10T17:48:37Z</time>
      </trkpt>
      <trkpt lat="49.34056" lon="1.3438">
        <ele>85</ele>
        <time>2017-10-10T17:48:37Z</time>
      </trkpt>
      <trkpt lat="49.3406" lon="1.34379">
        <ele>85</ele>
        <time>2017-10-10T17:48:52Z</time>
      </trkpt>
      <trkpt lat="49.34065" lon="1.34376">
        <ele>85</ele>
        <time>2017-10-10T17:48:53Z</time>
      </trkpt>
      <trkpt lat="49.34069" lon="1.34372">
        <ele>74</ele>
        <time>2017-10-10T17:48:53Z</time>
      </trkpt>
      <trkpt lat="49.34073" lon="1.34368">
        <ele>74</ele>
        <time>2017-10-10T17:48:53Z</time>
      </trkpt>
      <trkpt lat="49.34076" lon="1.34363">
        <ele>74</ele>
        <time>2017-10-10T17:49:08Z</time>
      </trkpt>
      <trkpt lat="49.3408" lon="1.34359">
        <ele>74</ele>
        <time>2017-10-10T17:49:09Z</time>
      </trkpt>
      <trkpt lat="49.34083" lon="1.34354">
        <ele>74</ele>
        <time>2017-10-10T17:49:09Z</time>
      </trkpt>
      <trkpt lat="49.34085" lon="1.34348">
        <ele>74</ele>
        <time>2017-10-10T17:49:09Z</time>
      </trkpt>
      <trkpt lat="49.3409" lon="1.34345">
        <ele>74</ele>
        <time>2017-10-10T17:49:24Z</time>
      </trkpt>
      <trkpt lat="49.34091" lon="1.34337">
        <ele>74</ele>
        <time>2017-10-10T17:49:25Z</time>
      </trkpt>
      <trkpt lat="49.34091" lon="1.34326">
        <ele>74</ele>
        <time>2017-10-10T17:49:25Z</time>
      </trkpt>
      <trkpt lat="49.34089" lon="1.34316">
        <ele>74</ele>
        <time>2017-10-10T17:49:25Z</time>
      </trkpt>
      <trkpt lat="49.34087" lon="1.34308">
        <ele>74</ele>
        <time>2017-10-10T17:49:40Z</time>
      </trkpt>
      <trkpt lat="49.34085" lon="1.34302">
        <ele>74</ele>
        <time>2017-10-10T17:49:41Z</time>
      </trkpt>
      <trkpt lat="49.34084" lon="1.34294">
        <ele>74</ele>
        <time>2017-10-10T17:49:41Z</time>
      </trkpt>
      <trkpt lat="49.34082" lon="1.34287">
        <ele>73</ele>
        <time>2017-10-10T17:49:41Z</time>
      </trkpt>
      <trkpt lat="49.3408" lon="1.34281">
        <ele>73</ele>
        <time>2017-10-10T17:49:56Z</time>
      </trkpt>
      <trkpt lat="49.34078" lon="1.34274">
        <ele>73</ele>
        <time>2017-10-10T17:49:57Z</time>
      </trkpt>
      <trkpt lat="49.34077" lon="1.34268">
        <ele>73</ele>
        <time>2017-10-10T17:49:57Z</time>
      </trkpt>
      <trkpt lat="49.34076" lon="1.34261">
        <ele>73</ele>
        <time>2017-10-10T17:49:57Z</time>
      </trkpt>
      <trkpt lat="49.34076" lon="1.34255">
        <ele>73</ele>
        <time>2017-10-10T17:50:12Z</time>
      </trkpt>
      <trkpt lat="49.34075" lon="1.34249">
        <ele>73</ele>
        <time>2017-10-10T17:50:13Z</time>
      </trkpt>
      <trkpt lat="49.34072" lon="1.34242">
        <ele>73</ele>
        <time>2017-10-10T17:50:13Z</time>
      </trkpt>
      <trkpt lat="49.34073" lon="1.34233">
        <ele>73</ele>
        <time>2017-10-10T17:50:13Z</time>
      </trkpt>
      <trkpt lat="49.34075" lon="1.34226">
        <ele>73</ele>
        <time>2017-10-10T17:50:28Z</time>
      </trkpt>
      <trkpt lat="49.34077" lon="1.3422">
        <ele>73</ele>
        <time>2017-10-10T17:50:29Z</time>
      </trkpt>
      <trkpt lat="49.34078" lon="1.34215">
        <ele>73</ele>
        <time>2017-10-10T17:50:29Z</time>
      </trkpt>
      <trkpt lat="49.34079" lon="1.34208">
        <ele>67</ele>
        <time>2017-10-10T17:50:29Z</time>
      </trkpt>
      <trkpt lat="49.34081" lon="1.342">
        <ele>67</ele>
        <time>2017-10-10T17:50:44Z</time>
      </trkpt>
      <trkpt lat="49.34083" lon="1.34191">
        <ele>67</ele>
        <time>2017-10-10T17:50:45Z</time>
      </trkpt>
      <trkpt lat="49.34085" lon="1.34183">
        <ele>67</ele>
        <time>2017-10-10T17:50:45Z</time>
      </trkpt>
      <trkpt lat="49.34087" lon="1.34176">
        <ele>67</ele>
        <time>2017-10-10T17:50:45Z</time>
      </trkpt>
      <trkpt lat="49.3409" lon="1.34171">
        <ele>67</ele>
        <time>2017-10-10T17:51:00Z</time>
      </trkpt>
      <trkpt lat="49.34093" lon="1.34165">
        <ele>67</ele>
        <time>2017-10-10T17:51:01Z</time>
      </trkpt>
      <trkpt lat="49.34095" lon="1.34158">
        <ele>67</ele>
        <time>2017-10-10T17:51:01Z</time>
      </trkpt>
      <trkpt lat="49.34098" lon="1.34151">
        <ele>67</ele>
        <time>2017-10-10T17:51:01Z</time>
      </trkpt>
      <trkpt lat="49.341" lon="1.34145">
        <ele>67</ele>
        <time>2017-10-10T17:51:17Z</time>
      </trkpt>
      <trkpt lat="49.34101" lon="1.34139">
        <ele>67</ele>
        <time>2017-10-10T17:51:17Z</time>
      </trkpt>
      <trkpt lat="49.34103" lon="1.34133">
        <ele>67</ele>
        <time>2017-10-10T17:51:17Z</time>
      </trkpt>
      <trkpt lat="49.34107" lon="1.34127">
        <ele>67</ele>
        <time>2017-10-10T17:51:17Z</time>
      </trkpt>
      <trkpt lat="49.34108" lon="1.34121">
        <ele>64</ele>
        <time>2017-10-10T17:51:32Z</time>
      </trkpt>
      <trkpt lat="49.34109" lon="1.34115">
        <ele>64</ele>
        <time>2017-10-10T17:51:33Z</time>
      </trkpt>
      <trkpt lat="49.34111" lon="1.3411">
        <ele>64</ele>
        <time>2017-10-10T17:51:33Z</time>
      </trkpt>
      <trkpt lat="49.34111" lon="1.34104">
        <ele>64</ele>
        <time>2017-10-10T17:51:33Z</time>
      </trkpt>
      <trkpt lat="49.3411" lon="1.34099">
        <ele>64</ele>
        <time>2017-10-10T17:51:48Z</time>
      </trkpt>
      <trkpt lat="49.34113" lon="1.34095">
        <ele>64</ele>
        <time>2017-10-10T17:51:49Z</time>
      </trkpt>
      <trkpt lat="49.34116" lon="1.34089">
        <ele>64</ele>
        <time>2017-10-10T17:51:49Z</time>
      </trkpt>
      <trkpt lat="49.34117" lon="1.34082">
        <ele>64</ele>
        <time>2017-10-10T17:51:49Z</time>
      </trkpt>
      <trkpt lat="49.34118" lon="1.34076">
        <ele>64</ele>
        <time>2017-10-10T17:52:04Z</time>
      </trkpt>
      <trkpt lat="49.3412" lon="1.3407">
        <ele>64</ele>
        <time>2017-10-10T17:52:05Z</time>
      </trkpt>
      <trkpt lat="49.34122" lon="1.34062">
        <ele>64</ele>
        <time>2017-10-10T17:52:05Z</time>
      </trkpt>
      <trkpt lat="49.34123" lon="1.34052">
        <ele>64</ele>
        <time>2017-10-10T17:52:05Z</time>
      </trkpt>
      <trkpt lat="49.34123" lon="1.34042">
        <ele>64</ele>
        <time>2017-10-10T17:52:20Z</time>
      </trkpt>
      <trkpt lat="49.34122" lon="1.34032">
        <ele>64</ele>
        <time>2017-10-10T17:52:21Z</time>
      </trkpt>
      <trkpt lat="49.34124" lon="1.34024">
        <ele>64</ele>
        <time>2017-10-10T17:52:21Z</time>
      </trkpt>
      <trkpt lat="49.34126" lon="1.34018">
        <ele>77</ele>
        <time>2017-10-10T17:52:21Z</time>
      </trkpt>
      <trkpt lat="49.34128" lon="1.34011">
        <ele>77</ele>
        <time>2017-10-10T17:52:36Z</time>
      </trkpt>
      <trkpt lat="49.34129" lon="1.34004">
        <ele>77</ele>
        <time>2017-10-10T17:52:37Z</time>
      </trkpt>
      <trkpt lat="49.34131" lon="1.33997">
        <ele>77</ele>
        <time>2017-10-10T17:52:37Z</time>
      </trkpt>
      <trkpt lat="49.34132" lon="1.3399">
        <ele>77</ele>
        <time>2017-10-10T17:52:37Z</time>
      </trkpt>
      <trkpt lat="49.34132" lon="1.33985">
        <ele>77</ele>
        <time>2017-10-10T17:52:52Z</time>
      </trkpt>
      <trkpt lat="49.34133" lon="1.33979">
        <ele>77</ele>
        <time>2017-10-10T17:52:53Z</time>
      </trkpt>
      <trkpt lat="49.34133" lon="1.33972">
        <ele>77</ele>
        <time>2017-10-10T17:52:53Z</time>
      </trkpt>
      <trkpt lat="49.34136" lon="1.33966">
        <ele>77</ele>
        <time>2017-10-10T17:52:53Z</time>
      </trkpt>
      <trkpt lat="49.34139" lon="1.33961">
        <ele>77</ele>
        <time>2017-10-10T17:53:08Z</time>
      </trkpt>
      <trkpt lat="49.3414" lon="1.33954">
        <ele>75</ele>
        <time>2017-10-10T17:53:09Z</time>
      </trkpt>
      <trkpt lat="49.34141" lon="1.33947">
        <ele>75</ele>
        <time>2017-10-10T17:53:09Z</time>
      </trkpt>
      <trkpt lat="49.34143" lon="1.33939">
        <ele>75</ele>
        <time>2017-10-10T17:53:09Z</time>
      </trkpt>
      <trkpt lat="49.34144" lon="1.33931">
        <ele>75</ele>
        <time>2017-10-10T17:53:24Z</time>
      </trkpt>
      <trkpt lat="49.34147" lon="1.33923">
        <ele>75</ele>
        <time>2017-10-10T17:53:25Z</time>
      </trkpt>
      <trkpt lat="49.34151" lon="1.33916">
        <ele>75</ele>
        <time>2017-10-10T17:53:25Z</time>
      </trkpt>
      <trkpt lat="49.34153" lon="1.33909">
        <ele>75</ele>
        <time>2017-10-10T17:53:25Z</time>
      </trkpt>
      <trkpt lat="49.34155" lon="1.339">
        <ele>75</ele>
        <time>2017-10-10T17:53:48Z</time>
      </trkpt>
      <trkpt lat="49.34153" lon="1.33896">
        <ele>75</ele>
        <time>2017-10-10T17:53:49Z</time>
      </trkpt>
      <trkpt lat="49.34151" lon="1.33894">
        <ele>75</ele>
        <time>2017-10-10T17:53:49Z</time>
      </trkpt>
      <trkpt lat="49.34152" lon="1.33891">
        <ele>75</ele>
        <time>2017-10-10T17:53:49Z</time>
      </trkpt>
      <trkpt lat="49.34155" lon="1.33884">
        <ele>75</ele>
        <time>2017-10-10T17:53:49Z</time>
      </trkpt>
      <trkpt lat="49.34158" lon="1.33876">
        <ele>75</ele>
        <time>2017-10-10T17:54:04Z</time>
      </trkpt>
      <trkpt lat="49.3416" lon="1.33867">
        <ele>70</ele>
        <time>2017-10-10T17:54:05Z</time>
      </trkpt>
      <trkpt lat="49.34163" lon="1.3386">
        <ele>70</ele>
        <time>2017-10-10T17:54:05Z</time>
      </trkpt>
      <trkpt lat="49.34166" lon="1.33854">
        <ele>70</ele>
        <time>2017-10-10T17:54:05Z</time>
      </trkpt>
      <trkpt lat="49.34168" lon="1.33848">
        <ele>70</ele>
        <time>2017-10-10T17:54:20Z</time>
      </trkpt>
      <trkpt lat="49.3417" lon="1.33841">
        <ele>70</ele>
        <time>2017-10-10T17:54:21Z</time>
      </trkpt>
      <trkpt lat="49.34173" lon="1.33834">
        <ele>70</ele>
        <time>2017-10-10T17:54:21Z</time>
      </trkpt>
      <trkpt lat="49.34174" lon="1.33826">
        <ele>70</ele>
        <time>2017-10-10T17:54:21Z</time>
      </trkpt>
      <trkpt lat="49.34171" lon="1.33816">
        <ele>70</ele>
        <time>2017-10-10T17:54:36Z</time>
      </trkpt>
      <trkpt lat="49.34169" lon="1.33806">
        <ele>70</ele>
        <time>2017-10-10T17:54:37Z</time>
      </trkpt>
      <trkpt lat="49.34167" lon="1.33798">
        <ele>70</ele>
        <time>2017-10-10T17:54:37Z</time>
      </trkpt>
      <trkpt lat="49.34166" lon="1.33791">
        <ele>67</ele>
        <time>2017-10-10T17:54:37Z</time>
      </trkpt>
      <trkpt lat="49.34166" lon="1.33783">
        <ele>67</ele>
        <time>2017-10-10T17:54:52Z</time>
      </trkpt>
      <trkpt lat="49.34166" lon="1.33775">
        <ele>67</ele>
        <time>2017-10-10T17:54:53Z</time>
      </trkpt>
      <trkpt lat="49.34166" lon="1.33767">
        <ele>67</ele>
        <time>2017-10-10T17:54:53Z</time>
      </trkpt>
      <trkpt lat="49.34165" lon="1.33759">
        <ele>67</ele>
        <time>2017-10-10T17:54:53Z</time>
      </trkpt>
      <trkpt lat="49.34164" lon="1.33752">
        <ele>67</ele>
        <time>2017-10-10T17:55:08Z</time>
      </trkpt>
      <trkpt lat="49.34162" lon="1.33745">
        <ele>67</ele>
        <time>2017-10-10T17:55:09Z</time>
      </trkpt>
      <trkpt lat="49.34161" lon="1.33738">
        <ele>67</ele>
        <time>2017-10-10T17:55:09Z</time>
      </trkpt>
      <trkpt lat="49.34159" lon="1.33731">
        <ele>67</ele>
        <time>2017-10-10T17:55:09Z</time>
      </trkpt>
      <trkpt lat="49.34157" lon="1.33724">
        <ele>67</ele>
        <time>2017-10-10T17:55:24Z</time>
      </trkpt>
      <trkpt lat="49.34155" lon="1.33719">
        <ele>67</ele>
        <time>2017-10-10T17:55:25Z</time>
      </trkpt>
      <trkpt lat="49.34153" lon="1.33714">
        <ele>67</ele>
        <time>2017-10-10T17:55:25Z</time>
      </trkpt>
      <trkpt lat="49.34151" lon="1.33707">
        <ele>69</ele>
        <time>2017-10-10T17:55:25Z</time>
      </trkpt>
      <trkpt lat="49.34149" lon="1.33699">
        <ele>69</ele>
        <time>2017-10-10T17:55:40Z</time>
      </trkpt>
      <trkpt lat="49.34146" lon="1.33693">
        <ele>69</ele>
        <time>2017-10-10T17:55:41Z</time>
      </trkpt>
      <trkpt lat="49.34143" lon="1.33687">
        <ele>69</ele>
        <time>2017-10-10T17:55:41Z</time>
      </trkpt>
      <trkpt lat="49.34139" lon="1.33682">
        <ele>69</ele>
        <time>2017-10-10T17:55:41Z</time>
      </trkpt>
      <trkpt lat="49.34135" lon="1.33676">
        <ele>69</ele>
        <time>2017-10-10T17:55:56Z</time>
      </trkpt>
      <trkpt lat="49.34133" lon="1.33668">
        <ele>69</ele>
        <time>2017-10-10T17:55:57Z</time>
      </trkpt>
      <trkpt lat="49.34129" lon="1.33663">
        <ele>69</ele>
        <time>2017-10-10T17:55:57Z</time>
      </trkpt>
      <trkpt lat="49.34125" lon="1.33657">
        <ele>69</ele>
        <time>2017-10-10T17:55:57Z</time>
      </trkpt>
      <trkpt lat="49.34121" lon="1.33638">
        <ele>62</ele>
        <time>2017-10-10T17:58:00Z</time>
      </trkpt>
      <trkpt lat="49.34123" lon="1.33636">
        <ele>62</ele>
        <time>2017-10-10T17:58:01Z</time>
      </trkpt>
      <trkpt lat="49.34123" lon="1.33635">
        <ele>62</ele>
        <time>2017-10-10T17:58:01Z</time>
      </trkpt>
      <trkpt lat="49.34124" lon="1.33635">
        <ele>62</ele>
        <time>2017-10-10T17:58:01Z</time>
      </trkpt>
      <trkpt lat="49.34124" lon="1.33634">
        <ele>62</ele>
        <time>2017-10-10T17:58:01Z</time>
      </trkpt>
      <trkpt lat="49.34125" lon="1.33634">
        <ele>62</ele>
        <time>2017-10-10T17:58:16Z</time>
      </trkpt>
      <trkpt lat="49.34128" lon="1.33634">
        <ele>69</ele>
        <time>2017-10-10T17:58:17Z</time>
      </trkpt>
      <trkpt lat="49.34132" lon="1.33631">
        <ele>69</ele>
        <time>2017-10-10T17:58:17Z</time>
      </trkpt>
      <trkpt lat="49.34135" lon="1.33625">
        <ele>69</ele>
        <time>2017-10-10T17:58:17Z</time>
      </trkpt>
      <trkpt lat="49.34138" lon="1.33621">
        <ele>65</ele>
        <time>2017-10-10T17:58:32Z</time>
      </trkpt>
      <trkpt lat="49.34142" lon="1.33618">
        <ele>65</ele>
        <time>2017-10-10T17:58:33Z</time>
      </trkpt>
      <trkpt lat="49.34145" lon="1.33615">
        <ele>65</ele>
        <time>2017-10-10T17:58:33Z</time>
      </trkpt>
      <trkpt lat="49.34146" lon="1.33609">
        <ele>65</ele>
        <time>2017-10-10T17:58:33Z</time>
      </trkpt>
      <trkpt lat="49.34148" lon="1.33604">
        <ele>65</ele>
        <time>2017-10-10T17:58:48Z</time>
      </trkpt>
      <trkpt lat="49.34151" lon="1.336">
        <ele>65</ele>
        <time>2017-10-10T17:58:49Z</time>
      </trkpt>
      <trkpt lat="49.34155" lon="1.33596">
        <ele>65</ele>
        <time>2017-10-10T17:58:49Z</time>
      </trkpt>
      <trkpt lat="49.34158" lon="1.3359">
        <ele>65</ele>
        <time>2017-10-10T17:58:49Z</time>
      </trkpt>
      <trkpt lat="49.3416" lon="1.33583">
        <ele>65</ele>
        <time>2017-10-10T17:59:04Z</time>
      </trkpt>
      <trkpt lat="49.34163" lon="1.33576">
        <ele>65</ele>
        <time>2017-10-10T17:59:05Z</time>
      </trkpt>
      <trkpt lat="49.34166" lon="1.33571">
        <ele>65</ele>
        <time>2017-10-10T17:59:05Z</time>
      </trkpt>
      <trkpt lat="49.34169" lon="1.33566">
        <ele>65</ele>
        <time>2017-10-10T17:59:05Z</time>
      </trkpt>
      <trkpt lat="49.34173" lon="1.33561">
        <ele>65</ele>
        <time>2017-10-10T17:59:20Z</time>
      </trkpt>
      <trkpt lat="49.34176" lon="1.33556">
        <ele>65</ele>
        <time>2017-10-10T17:59:21Z</time>
      </trkpt>
      <trkpt lat="49.34179" lon="1.33551">
        <ele>65</ele>
        <time>2017-10-10T17:59:21Z</time>
      </trkpt>
      <trkpt lat="49.34184" lon="1.33547">
        <ele>65</ele>
        <time>2017-10-10T17:59:21Z</time>
      </trkpt>
      <trkpt lat="49.34187" lon="1.33542">
        <ele>65</ele>
        <time>2017-10-10T17:59:36Z</time>
      </trkpt>
      <trkpt lat="49.34189" lon="1.33537">
        <ele>60</ele>
        <time>2017-10-10T17:59:37Z</time>
      </trkpt>
      <trkpt lat="49.34192" lon="1.33535">
        <ele>60</ele>
        <time>2017-10-10T17:59:37Z</time>
      </trkpt>
      <trkpt lat="49.34195" lon="1.33528">
        <ele>60</ele>
        <time>2017-10-10T17:59:37Z</time>
      </trkpt>
      <trkpt lat="49.34198" lon="1.33524">
        <ele>60</ele>
        <time>2017-10-10T17:59:52Z</time>
      </trkpt>
      <trkpt lat="49.34201" lon="1.3352">
        <ele>60</ele>
        <time>2017-10-10T17:59:53Z</time>
      </trkpt>
      <trkpt lat="49.34204" lon="1.33518">
        <ele>60</ele>
        <time>2017-10-10T17:59:53Z</time>
      </trkpt>
      <trkpt lat="49.34207" lon="1.33514">
        <ele>60</ele>
        <time>2017-10-10T17:59:53Z</time>
      </trkpt>
      <trkpt lat="49.34209" lon="1.33507">
        <ele>80</ele>
        <time>2017-10-10T18:00:08Z</time>
      </trkpt>
      <trkpt lat="49.34209" lon="1.33501">
        <ele>80</ele>
        <time>2017-10-10T18:00:09Z</time>
      </trkpt>
      <trkpt lat="49.34209" lon="1.33494">
        <ele>80</ele>
        <time>2017-10-10T18:00:09Z</time>
      </trkpt>
      <trkpt lat="49.34211" lon="1.33487">
        <ele>80</ele>
        <time>2017-10-10T18:00:09Z</time>
      </trkpt>
      <trkpt lat="49.34212" lon="1.3348">
        <ele>80</ele>
        <time>2017-10-10T18:00:24Z</time>
      </trkpt>
      <trkpt lat="49.34211" lon="1.33472">
        <ele>80</ele>
        <time>2017-10-10T18:00:25Z</time>
      </trkpt>
      <trkpt lat="49.34212" lon="1.33464">
        <ele>80</ele>
        <time>2017-10-10T18:00:25Z</time>
      </trkpt>
      <trkpt lat="49.34213" lon="1.33458">
        <ele>68</ele>
        <time>2017-10-10T18:00:25Z</time>
      </trkpt>
      <trkpt lat="49.34215" lon="1.33452">
        <ele>68</ele>
        <time>2017-10-10T18:00:40Z</time>
      </trkpt>
      <trkpt lat="49.34216" lon="1.33446">
        <ele>68</ele>
        <time>2017-10-10T18:00:41Z</time>
      </trkpt>
      <trkpt lat="49.34219" lon="1.33441">
        <ele>68</ele>
        <time>2017-10-10T18:00:41Z</time>
      </trkpt>
      <trkpt lat="49.34219" lon="1.33434">
        <ele>68</ele>
        <time>2017-10-10T18:00:41Z</time>
      </trkpt>
      <trkpt lat="49.34222" lon="1.33426">
        <ele>68</ele>
        <time>2017-10-10T18:00:56Z</time>
      </trkpt>
      <trkpt lat="49.34225" lon="1.33419">
        <ele>68</ele>
        <time>2017-10-10T18:00:57Z</time>
      </trkpt>
      <trkpt lat="49.34227" lon="1.33411">
        <ele>68</ele>
        <time>2017-10-10T18:00:57Z</time>
      </trkpt>
      <trkpt lat="49.34228" lon="1.33403">
        <ele>68</ele>
        <time>2017-10-10T18:00:57Z</time>
      </trkpt>
      <trkpt lat="49.34228" lon="1.33396">
        <ele>68</ele>
        <time>2017-10-10T18:01:12Z</time>
      </trkpt>
      <trkpt lat="49.34227" lon="1.3339">
        <ele>68</ele>
        <time>2017-10-10T18:01:13Z</time>
      </trkpt>
      <trkpt lat="49.34229" lon="1.33383">
        <ele>68</ele>
        <time>2017-10-10T18:01:13Z</time>
      </trkpt>
      <trkpt lat="49.34232" lon="1.33377">
        <ele>68</ele>
        <time>2017-10-10T18:01:13Z</time>
      </trkpt>
      <trkpt lat="49.34234" lon="1.33371">
        <ele>60</ele>
        <time>2017-10-10T18:01:28Z</time>
      </trkpt>
      <trkpt lat="49.34236" lon="1.33367">
        <ele>60</ele>
        <time>2017-10-10T18:01:29Z</time>
      </trkpt>
      <trkpt lat="49.34238" lon="1.33362">
        <ele>60</ele>
        <time>2017-10-10T18:01:29Z</time>
      </trkpt>
      <trkpt lat="49.34241" lon="1.33358">
        <ele>60</ele>
        <time>2017-10-10T18:01:29Z</time>
      </trkpt>
      <trkpt lat="49.34243" lon="1.33352">
        <ele>60</ele>
        <time>2017-10-10T18:01:44Z</time>
      </trkpt>
      <trkpt lat="49.34246" lon="1.33345">
        <ele>60</ele>
        <time>2017-10-10T18:01:45Z</time>
      </trkpt>
      <trkpt lat="49.3425" lon="1.3334">
        <ele>60</ele>
        <time>2017-10-10T18:01:45Z</time>
      </trkpt>
      <trkpt lat="49.34253" lon="1.33335">
        <ele>60</ele>
        <time>2017-10-10T18:01:45Z</time>
      </trkpt>
      <trkpt lat="49.34256" lon="1.33329">
        <ele>60</ele>
        <time>2017-10-10T18:02:00Z</time>
      </trkpt>
      <trkpt lat="49.34257" lon="1.33322">
        <ele>60</ele>
        <time>2017-10-10T18:02:01Z</time>
      </trkpt>
      <trkpt lat="49.3426" lon="1.33316">
        <ele>60</ele>
        <time>2017-10-10T18:02:01Z</time>
      </trkpt>
      <trkpt lat="49.34262" lon="1.3331">
        <ele>60</ele>
        <time>2017-10-10T18:02:01Z</time>
      </trkpt>
      <trkpt lat="49.34264" lon="1.33303">
        <ele>60</ele>
        <time>2017-10-10T18:02:16Z</time>
      </trkpt>
      <trkpt lat="49.34268" lon="1.33298">
        <ele>60</ele>
        <time>2017-10-10T18:02:17Z</time>
      </trkpt>
      <trkpt lat="49.34271" lon="1.33292">
        <ele>60</ele>
        <time>2017-10-10T18:02:17Z</time>
      </trkpt>
      <trkpt lat="49.34273" lon="1.33287">
        <ele>56</ele>
        <time>2017-10-10T18:02:17Z</time>
      </trkpt>
      <trkpt lat="49.34276" lon="1.33281">
        <ele>56</ele>
        <time>2017-10-10T18:02:32Z</time>
      </trkpt>
      <trkpt lat="49.3428" lon="1.33276">
        <ele>56</ele>
        <time>2017-10-10T18:02:33Z</time>
      </trkpt>
      <trkpt lat="49.34285" lon="1.33273">
        <ele>56</ele>
        <time>2017-10-10T18:02:33Z</time>
      </trkpt>
      <trkpt lat="49.34289" lon="1.33268">
        <ele>56</ele>
        <time>2017-10-10T18:02:33Z</time>
      </trkpt>
      <trkpt lat="49.34292" lon="1.33262">
        <ele>65</ele>
        <time>2017-10-10T18:02:48Z</time>
      </trkpt>
      <trkpt lat="49.34295" lon="1.33255">
        <ele>65</ele>
        <time>2017-10-10T18:02:49Z</time>
      </trkpt>
      <trkpt lat="49.34299" lon="1.33249">
        <ele>65</ele>
        <time>2017-10-10T18:02:49Z</time>
      </trkpt>
      <trkpt lat="49.34303" lon="1.33245">
        <ele>65</ele>
        <time>2017-10-10T18:02:49Z</time>
      </trkpt>
      <trkpt lat="49.34307" lon="1.33238">
        <ele>65</ele>
        <time>2017-10-10T18:03:04Z</time>
      </trkpt>
      <trkpt lat="49.34312" lon="1.33235">
        <ele>65</ele>
        <time>2017-10-10T18:03:05Z</time>
      </trkpt>
      <trkpt lat="49.34316" lon="1.3323">
        <ele>65</ele>
        <time>2017-10-10T18:03:05Z</time>
      </trkpt>
      <trkpt lat="49.34319" lon="1.33223">
        <ele>65</ele>
        <time>2017-10-10T18:03:05Z</time>
      </trkpt>
      <trkpt lat="49.34321" lon="1.33219">
        <ele>65</ele>
        <time>2017-10-10T18:03:20Z</time>
      </trkpt>
      <trkpt lat="49.34326" lon="1.33217">
        <ele>65</ele>
        <time>2017-10-10T18:03:21Z</time>
      </trkpt>
      <trkpt lat="49.34331" lon="1.33214">
        <ele>65</ele>
        <time>2017-10-10T18:03:21Z</time>
      </trkpt>
      <trkpt lat="49.34335" lon="1.33212">
        <ele>65</ele>
        <time>2017-10-10T18:03:21Z</time>
      </trkpt>
      <trkpt lat="49.3434" lon="1.3321">
        <ele>65</ele>
        <time>2017-10-10T18:03:36Z</time>
      </trkpt>
      <trkpt lat="49.34344" lon="1.33207">
        <ele>59</ele>
        <time>2017-10-10T18:03:37Z</time>
      </trkpt>
      <trkpt lat="49.34347" lon="1.33202">
        <ele>59</ele>
        <time>2017-10-10T18:03:37Z</time>
      </trkpt>
      <trkpt lat="49.34352" lon="1.33197">
        <ele>59</ele>
        <time>2017-10-10T18:03:37Z</time>
      </trkpt>
      <trkpt lat="49.34358" lon="1.33193">
        <ele>59</ele>
        <time>2017-10-10T18:03:52Z</time>
      </trkpt>
      <trkpt lat="49.34363" lon="1.33189">
        <ele>59</ele>
        <time>2017-10-10T18:03:53Z</time>
      </trkpt>
      <trkpt lat="49.34368" lon="1.33184">
        <ele>59</ele>
        <time>2017-10-10T18:03:53Z</time>
      </trkpt>
      <trkpt lat="49.34372" lon="1.33182">
        <ele>59</ele>
        <time>2017-10-10T18:03:53Z</time>
      </trkpt>
      <trkpt lat="49.34376" lon="1.33179">
        <ele>59</ele>
        <time>2017-10-10T18:04:08Z</time>
      </trkpt>
      <trkpt lat="49.3438" lon="1.33181">
        <ele>59</ele>
        <time>2017-10-10T18:04:09Z</time>
      </trkpt>
      <trkpt lat="49.34384" lon="1.33182">
        <ele>59</ele>
        <time>2017-10-10T18:04:09Z</time>
      </trkpt>
      <trkpt lat="49.34388" lon="1.33182">
        <ele>59</ele>
        <time>2017-10-10T18:04:09Z</time>
      </trkpt>
      <trkpt lat="49.34392" lon="1.33181">
        <ele>59</ele>
        <time>2017-10-10T18:04:24Z</time>
      </trkpt>
      <trkpt lat="49.34396" lon="1.33177">
        <ele>59</ele>
        <time>2017-10-10T18:04:25Z</time>
      </trkpt>
      <trkpt lat="49.34401" lon="1.33173">
        <ele>59</ele>
        <time>2017-10-10T18:04:25Z</time>
      </trkpt>
      <trkpt lat="49.34406" lon="1.33171">
        <ele>59</ele>
        <time>2017-10-10T18:04:25Z</time>
      </trkpt>
      <trkpt lat="49.3441" lon="1.33167">
        <ele>59</ele>
        <time>2017-10-10T18:04:40Z</time>
      </trkpt>
      <trkpt lat="49.34414" lon="1.33163">
        <ele>59</ele>
        <time>2017-10-10T18:04:41Z</time>
      </trkpt>
      <trkpt lat="49.34418" lon="1.33157">
        <ele>59</ele>
        <time>2017-10-10T18:04:41Z</time>
      </trkpt>
      <trkpt lat="49.34421" lon="1.33152">
        <ele>59</ele>
        <time>2017-10-10T18:04:41Z</time>
      </trkpt>
      <trkpt lat="49.34425" lon="1.33146">
        <ele>59</ele>
        <time>2017-10-10T18:04:56Z</time>
      </trkpt>
      <trkpt lat="49.34427" lon="1.33139">
        <ele>59</ele>
        <time>2017-10-10T18:04:57Z</time>
      </trkpt>
      <trkpt lat="49.3443" lon="1.33133">
        <ele>59</ele>
        <time>2017-10-10T18:04:57Z</time>
      </trkpt>
      <trkpt lat="49.34431" lon="1.33126">
        <ele>59</ele>
        <time>2017-10-10T18:04:57Z</time>
      </trkpt>
      <trkpt lat="49.34431" lon="1.3312">
        <ele>52</ele>
        <time>2017-10-10T18:05:12Z</time>
      </trkpt>
      <trkpt lat="49.34433" lon="1.33114">
        <ele>52</ele>
        <time>2017-10-10T18:05:13Z</time>
      </trkpt>
      <trkpt lat="49.34435" lon="1.33106">
        <ele>52</ele>
        <time>2017-10-10T18:05:13Z</time>
      </trkpt>
      <trkpt lat="49.34436" lon="1.331">
        <ele>52</ele>
        <time>2017-10-10T18:05:13Z</time>
      </trkpt>
      <trkpt lat="49.34437" lon="1.33093">
        <ele>52</ele>
        <time>2017-10-10T18:05:28Z</time>
      </trkpt>
      <trkpt lat="49.3444" lon="1.33087">
        <ele>52</ele>
        <time>2017-10-10T18:05:29Z</time>
      </trkpt>
      <trkpt lat="49.34442" lon="1.33081">
        <ele>52</ele>
        <time>2017-10-10T18:05:29Z</time>
      </trkpt>
      <trkpt lat="49.34444" lon="1.33076">
        <ele>52</ele>
        <time>2017-10-10T18:05:29Z</time>
      </trkpt>
      <trkpt lat="49.34445" lon="1.33071">
        <ele>52</ele>
        <time>2017-10-10T18:05:44Z</time>
      </trkpt>
      <trkpt lat="49.34446" lon="1.33063">
        <ele>52</ele>
        <time>2017-10-10T18:05:45Z</time>
      </trkpt>
      <trkpt lat="49.34448" lon="1.33056">
        <ele>52</ele>
        <time>2017-10-10T18:05:45Z</time>
      </trkpt>
      <trkpt lat="49.34451" lon="1.33051">
        <ele>52</ele>
        <time>2017-10-10T18:05:45Z</time>
      </trkpt>
      <trkpt lat="49.34453" lon="1.33045">
        <ele>52</ele>
        <time>2017-10-10T18:06:00Z</time>
      </trkpt>
      <trkpt lat="49.34453" lon="1.33038">
        <ele>49</ele>
        <time>2017-10-10T18:06:01Z</time>
      </trkpt>
      <trkpt lat="49.34452" lon="1.33031">
        <ele>49</ele>
        <time>2017-10-10T18:06:01Z</time>
      </trkpt>
      <trkpt lat="49.34451" lon="1.33024">
        <ele>49</ele>
        <time>2017-10-10T18:06:01Z</time>
      </trkpt>
      <trkpt lat="49.34454" lon="1.3301">
        <ele>49</ele>
        <time>2017-10-10T18:06:24Z</time>
      </trkpt>
      <trkpt lat="49.34453" lon="1.33005">
        <ele>49</ele>
        <time>2017-10-10T18:06:25Z</time>
      </trkpt>
      <trkpt lat="49.34452" lon="1.33004">
        <ele>49</ele>
        <time>2017-10-10T18:06:25Z</time>
      </trkpt>
      <trkpt lat="49.34452" lon="1.33004">
        <ele>49</ele>
        <time>2017-10-10T18:06:25Z</time>
      </trkpt>
      <trkpt lat="49.34452" lon="1.33003">
        <ele>49</ele>
        <time>2017-10-10T18:06:25Z</time>
      </trkpt>
      <trkpt lat="49.34453" lon="1.33003">
        <ele>49</ele>
        <time>2017-10-10T18:06:40Z</time>
      </trkpt>
      <trkpt lat="49.34456" lon="1.33003">
        <ele>49</ele>
        <time>2017-10-10T18:06:41Z</time>
      </trkpt>
      <trkpt lat="49.34459" lon="1.33">
        <ele>61</ele>
        <time>2017-10-10T18:06:41Z</time>
      </trkpt>
      <trkpt lat="49.34461" lon="1.32997">
        <ele>61</ele>
        <time>2017-10-10T18:06:41Z</time>
      </trkpt>
      <trkpt lat="49.34463" lon="1.32994">
        <ele>61</ele>
        <time>2017-10-10T18:06:56Z</time>
      </trkpt>
      <trkpt lat="49.34465" lon="1.32989">
        <ele>61</ele>
        <time>2017-10-10T18:06:57Z</time>
      </trkpt>
      <trkpt lat="49.34467" lon="1.32982">
        <ele>61</ele>
        <time>2017-10-10T18:06:57Z</time>
      </trkpt>
      <trkpt lat="49.3447" lon="1.32978">
        <ele>61</ele>
        <time>2017-10-10T18:06:57Z</time>
      </trkpt>
      <trkpt lat="49.34474" lon="1.32977">
        <ele>61</ele>
        <time>2017-10-10T18:07:12Z</time>
      </trkpt>
      <trkpt lat="49.34478" lon="1.32976">
        <ele>61</ele>
        <time>2017-10-10T18:07:13Z</time>
      </trkpt>
      <trkpt lat="49.34482" lon="1.32973">
        <ele>61</ele>
        <time>2017-10-10T18:07:13Z</time>
      </trkpt>
      <trkpt lat="49.34486" lon="1.32969">
        <ele>61</ele>
        <time>2017-10-10T18:07:13Z</time>
      </trkpt>
      <trkpt lat="49.34489" lon="1.32964">
        <ele>61</ele>
        <time>2017-10-10T18:07:28Z</time>
      </trkpt>
      <trkpt lat="49.34491" lon="1.3296">
        <ele>61</ele>
        <time>2017-10-10T18:07:29Z</time>
      </trkpt>
      <trkpt lat="49.34494" lon="1.32958">
        <ele>53</ele>
        <time>2017-10-10T18:07:29Z</time>
      </trkpt>
      <trkpt lat="49.34498" lon="1.32955">
        <ele>53</ele>
        <time>2017-10-10T18:07:29Z</time>
      </trkpt>
      <trkpt lat="49.34502" lon="1.32953">
        <ele>53</ele>
        <time>2017-10-10T18:07:48Z</time>
      </trkpt>
      <trkpt lat="49.34505" lon="1.32949">
        <ele>53</ele>
        <time>2017-10-10T18:07:49Z</time>
      </trkpt>
      <trkpt lat="49.34506" lon="1.32946">
        <ele>53</ele>
        <time>2017-10-10T18:07:49Z</time>
      </trkpt>
      <trkpt lat="49.34508" lon="1.32942">
        <ele>53</ele>
        <time>2017-10-10T18:07:49Z</time>
      </trkpt>
      <trkpt lat="49.34511" lon="1.32939">
        <ele>53</ele>
        <time>2017-10-10T18:07:49Z</time>
      </trkpt>
      <trkpt lat="49.34513" lon="1.32935">
        <ele>53</ele>
        <time>2017-10-10T18:08:04Z</time>
      </trkpt>
      <trkpt lat="49.34516" lon="1.32931">
        <ele>53</ele>
        <time>2017-10-10T18:08:05Z</time>
      </trkpt>
      <trkpt lat="49.34519" lon="1.32928">
        <ele>53</ele>
        <time>2017-10-10T18:08:05Z</time>
      </trkpt>
      <trkpt lat="49.34523" lon="1.32928">
        <ele>53</ele>
        <time>2017-10-10T18:08:05Z</time>
      </trkpt>
      <trkpt lat="49.34526" lon="1.32926">
        <ele>53</ele>
        <time>2017-10-10T18:08:20Z</time>
      </trkpt>
      <trkpt lat="49.34529" lon="1.32924">
        <ele>53</ele>
        <time>2017-10-10T18:08:21Z</time>
      </trkpt>
      <trkpt lat="49.34532" lon="1.3292">
        <ele>53</ele>
        <time>2017-10-10T18:08:21Z</time>
      </trkpt>
      <trkpt lat="49.34534" lon="1.32916">
        <ele>53</ele>
        <time>2017-10-10T18:08:21Z</time>
      </trkpt>
      <trkpt lat="49.34537" lon="1.32913">
        <ele>53</ele>
        <time>2017-10-10T18:08:36Z</time>
      </trkpt>
      <trkpt lat="49.3454" lon="1.3291">
        <ele>53</ele>
        <time>2017-10-10T18:08:37Z</time>
      </trkpt>
      <trkpt lat="49.34543" lon="1.32907">
        <ele>70</ele>
        <time>2017-10-10T18:08:37Z</time>
      </trkpt>
      <trkpt lat="49.34547" lon="1.32904">
        <ele>70</ele>
        <time>2017-10-10T18:08:37Z</time>
      </trkpt>
      <trkpt lat="49.34549" lon="1.32901">
        <ele>70</ele>
        <time>2017-10-10T18:08:52Z</time>
      </trkpt>
      <trkpt lat="49.34552" lon="1.32897">
        <ele>70</ele>
        <time>2017-10-10T18:08:53Z</time>
      </trkpt>
      <trkpt lat="49.34555" lon="1.32893">
        <ele>70</ele>
        <time>2017-10-10T18:08:53Z</time>
      </trkpt>
      <trkpt lat="49.34558" lon="1.32889">
        <ele>70</ele>
        <time>2017-10-10T18:08:53Z</time>
      </trkpt>
      <trkpt lat="49.34561" lon="1.32886">
        <ele>70</ele>
        <time>2017-10-10T18:09:08Z</time>
      </trkpt>
      <trkpt lat="49.34564" lon="1.32883">
        <ele>70</ele>
        <time>2017-10-10T18:09:09Z</time>
      </trkpt>
      <trkpt lat="49.34566" lon="1.3288">
        <ele>70</ele>
        <time>2017-10-10T18:09:09Z</time>
      </trkpt>
      <trkpt lat="49.34569" lon="1.32877">
        <ele>70</ele>
        <time>2017-10-10T18:09:09Z</time>
      </trkpt>
      <trkpt lat="49.34572" lon="1.32873">
        <ele>62</ele>
        <time>2017-10-10T18:09:24Z</time>
      </trkpt>
      <trkpt lat="49.34574" lon="1.3287">
        <ele>62</ele>
        <time>2017-10-10T18:09:25Z</time>
      </trkpt>
      <trkpt lat="49.34577" lon="1.32866">
        <ele>62</ele>
        <time>2017-10-10T18:09:25Z</time>
      </trkpt>
      <trkpt lat="49.3458" lon="1.32863">
        <ele>62</ele>
        <time>2017-10-10T18:09:25Z</time>
      </trkpt>
      <trkpt lat="49.34584" lon="1.32861">
        <ele>62</ele>
        <time>2017-10-10T18:09:40Z</time>
      </trkpt>
      <trkpt lat="49.34586" lon="1.32858">
        <ele>62</ele>
        <time>2017-10-10T18:09:41Z</time>
      </trkpt>
      <trkpt lat="49.34589" lon="1.32854">
        <ele>62</ele>
        <time>2017-10-10T18:09:41Z</time>
      </trkpt>
      <trkpt lat="49.34591" lon="1.3285">
        <ele>62</ele>
        <time>2017-10-10T18:09:41Z</time>
      </trkpt>
      <trkpt lat="49.34594" lon="1.32848">
        <ele>62</ele>
        <time>2017-10-10T18:09:56Z</time>
      </trkpt>
      <trkpt lat="49.34597" lon="1.32845">
        <ele>62</ele>
        <time>2017-10-10T18:09:57Z</time>
      </trkpt>
      <trkpt lat="49.34601" lon="1.32843">
        <ele>62</ele>
        <time>2017-10-10T18:09:57Z</time>
      </trkpt>
      <trkpt lat="49.34604" lon="1.3284">
        <ele>62</ele>
        <time>2017-10-10T18:09:57Z</time>
      </trkpt>
      <trkpt lat="49.34607" lon="1.32838">
        <ele>62</ele>
        <time>2017-10-10T18:10:12Z</time>
      </trkpt>
      <trkpt lat="49.34609" lon="1.32836">
        <ele>62</ele>
        <time>2017-10-10T18:10:13Z</time>
      </trkpt>
      <trkpt lat="49.34613" lon="1.32834">
        <ele>62</ele>
        <time>2017-10-10T18:10:13Z</time>
      </trkpt>
      <trkpt lat="49.34615" lon="1.32832">
        <ele>62</ele>
        <time>2017-10-10T18:10:13Z</time>
      </trkpt>
      <trkpt lat="49.34619" lon="1.3283">
        <ele>62</ele>
        <time>2017-10-10T18:10:28Z</time>
      </trkpt>
      <trkpt lat="49.34622" lon="1.32829">
        <ele>62</ele>
        <time>2017-10-10T18:10:29Z</time>
      </trkpt>
      <trkpt lat="49.34626" lon="1.32827">
        <ele>79</ele>
        <time>2017-10-10T18:10:29Z</time>
      </trkpt>
      <trkpt lat="49.34629" lon="1.32824">
        <ele>79</ele>
        <time>2017-10-10T18:10:29Z</time>
      </trkpt>
      <trkpt lat="49.34633" lon="1.3282">
        <ele>79</ele>
        <time>2017-10-10T18:10:44Z</time>
      </trkpt>
      <trkpt lat="49.34636" lon="1.32817">
        <ele>79</ele>
        <time>2017-10-10T18:10:45Z</time>
      </trkpt>
      <trkpt lat="49.34638" lon="1.32814">
        <ele>79</ele>
        <time>2017-10-10T18:10:45Z</time>
      </trkpt>
      <trkpt lat="49.34641" lon="1.32811">
        <ele>79</ele>
        <time>2017-10-10T18:10:45Z</time>
      </trkpt>
      <trkpt lat="49.34644" lon="1.32808">
        <ele>79</ele>
        <time>2017-10-10T18:11:00Z</time>
      </trkpt>
      <trkpt lat="49.34648" lon="1.32805">
        <ele>79</ele>
        <time>2017-10-10T18:11:01Z</time>
      </trkpt>
      <trkpt lat="49.34652" lon="1.32802">
        <ele>79</ele>
        <time>2017-10-10T18:11:01Z</time>
      </trkpt>
      <trkpt lat="49.34654" lon="1.32799">
        <ele>79</ele>
        <time>2017-10-10T18:11:01Z</time>
      </trkpt>
      <trkpt lat="49.34657" lon="1.32797">
        <ele>79</ele>
        <time>2017-10-10T18:11:16Z</time>
      </trkpt>
      <trkpt lat="49.3466" lon="1.32794">
        <ele>79</ele>
        <time>2017-10-10T18:11:16Z</time>
      </trkpt>
      <trkpt lat="49.34663" lon="1.3279">
        <ele>73</ele>
        <time>2017-10-10T18:11:17Z</time>
      </trkpt>
      <trkpt lat="49.34665" lon="1.32785">
        <ele>73</ele>
        <time>2017-10-10T18:11:17Z</time>
      </trkpt>
      <trkpt lat="49.34665" lon="1.32781">
        <ele>73</ele>
        <time>2017-10-10T18:11:36Z</time>
      </trkpt>
      <trkpt lat="49.34665" lon="1.3278">
        <ele>73</ele>
        <time>2017-10-10T18:11:37Z</time>
      </trkpt>
      <trkpt lat="49.34666" lon="1.32779">
        <ele>73</ele>
        <time>2017-10-10T18:11:37Z</time>
      </trkpt>
      <trkpt lat="49.3467" lon="1.32775">
        <ele>73</ele>
        <time>2017-10-10T18:11:37Z</time>
      </trkpt>
      <trkpt lat="49.34674" lon="1.32773">
        <ele>73</ele>
        <time>2017-10-10T18:11:37Z</time>
      </trkpt>
      <trkpt lat="49.34678" lon="1.32773">
        <ele>73</ele>
        <time>2017-10-10T18:11:52Z</time>
      </trkpt>
      <trkpt lat="49.34683" lon="1.32773">
        <ele>73</ele>
        <time>2017-10-10T18:11:53Z</time>
      </trkpt>
      <trkpt lat="49.34688" lon="1.32772">
        <ele>73</ele>
        <time>2017-10-10T18:11:53Z</time>
      </trkpt>
      <trkpt lat="49.34692" lon="1.32771">
        <ele>73</ele>
        <time>2017-10-10T18:11:53Z</time>
      </trkpt>
      <trkpt lat="49.34696" lon="1.32768">
        <ele>73</ele>
        <time>2017-10-10T18:12:08Z</time>
      </trkpt>
      <trkpt lat="49.347" lon="1.32766">
        <ele>73</ele>
        <time>2017-10-10T18:12:09Z</time>
      </trkpt>
      <trkpt lat="49.34705" lon="1.32765">
        <ele>73</ele>
        <time>2017-10-10T18:12:09Z</time>
      </trkpt>
      <trkpt lat="49.34709" lon="1.32763">
        <ele>75</ele>
        <time>2017-10-10T18:12:09Z</time>
      </trkpt>
      <trkpt lat="49.34714" lon="1.32761">
        <ele>75</ele>
        <time>2017-10-10T18:12:24Z</time>
      </trkpt>
      <trkpt lat="49.34719" lon="1.3276">
        <ele>75</ele>
        <time>2017-10-10T18:12:25Z</time>
      </trkpt>
      <trkpt lat="49.34723" lon="1.32757">
        <ele>75</ele>
        <time>2017-10-10T18:12:25Z</time>
      </trkpt>
      <trkpt lat="49.34727" lon="1.32755">
        <ele>75</ele>
        <time>2017-10-10T18:12:25Z</time>
      </trkpt>
      <trkpt lat="49.34731" lon="1.32753">
        <ele>75</ele>
        <time>2017-10-10T18:12:40Z</time>
      </trkpt>
      <trkpt lat="49.34733" lon="1.3275">
        <ele>75</ele>
        <time>2017-10-10T18:12:41Z</time>
      </trkpt>
      <trkpt lat="49.34737" lon="1.3275">
        <ele>75</ele>
        <time>2017-10-10T18:12:41Z</time>
      </trkpt>
      <trkpt lat="49.34743" lon="1.32747">
        <ele>75</ele>
        <time>2017-10-10T18:12:41Z</time>
      </trkpt>
      <trkpt lat="49.34747" lon="1.32746">
        <ele>75</ele>
        <time>2017-10-10T18:12:56Z</time>
      </trkpt>
      <trkpt lat="49.34752" lon="1.32744">
        <ele>75</ele>
        <time>2017-10-10T18:12:57Z</time>
      </trkpt>
      <trkpt lat="49.34757" lon="1.32742">
        <ele>75</ele>
        <time>2017-10-10T18:12:57Z</time>
      </trkpt>
      <trkpt lat="49.34761" lon="1.32742">
        <ele>75</ele>
        <time>2017-10-10T18:12:57Z</time>
      </trkpt>
      <trkpt lat="49.34767" lon="1.32743">
        <ele>75</ele>
        <time>2017-10-10T18:13:12Z</time>
      </trkpt>
      <trkpt lat="49.34772" lon="1.32746">
        <ele>75</ele>
        <time>2017-10-10T18:13:13Z</time>
      </trkpt>
      <trkpt lat="49.34777" lon="1.32749">
        <ele>75</ele>
        <time>2017-10-10T18:13:13Z</time>
      </trkpt>
      <trkpt lat="49.34781" lon="1.32752">
        <ele>75</ele>
        <time>2017-10-10T18:13:13Z</time>
      </trkpt>
      <trkpt lat="49.34785" lon="1.32754">
        <ele>75</ele>
        <time>2017-10-10T18:13:28Z</time>
      </trkpt>
      <trkpt lat="49.34789" lon="1.32754">
        <ele>75</ele>
        <time>2017-10-10T18:13:29Z</time>
      </trkpt>
      <trkpt lat="49.34792" lon="1.32754">
        <ele>63</ele>
        <time>2017-10-10T18:13:29Z</time>
      </trkpt>
      <trkpt lat="49.34795" lon="1.32754">
        <ele>63</ele>
        <time>2017-10-10T18:13:29Z</time>
      </trkpt>
      <trkpt lat="49.34799" lon="1.32754">
        <ele>63</ele>
        <time>2017-10-10T18:13:48Z</time>
      </trkpt>
      <trkpt lat="49.34802" lon="1.32753">
        <ele>63</ele>
        <time>2017-10-10T18:13:49Z</time>
      </trkpt>
      <trkpt lat="49.34804" lon="1.32753">
        <ele>63</ele>
        <time>2017-10-10T18:13:49Z</time>
      </trkpt>
      <trkpt lat="49.34807" lon="1.32754">
        <ele>63</ele>
        <time>2017-10-10T18:13:49Z</time>
      </trkpt>
      <trkpt lat="49.34809" lon="1.32755">
        <ele>63</ele>
        <time>2017-10-10T18:13:49Z</time>
      </trkpt>
      <trkpt lat="49.34814" lon="1.32756">
        <ele>63</ele>
        <time>2017-10-10T18:14:04Z</time>
      </trkpt>
      <trkpt lat="49.34819" lon="1.32758">
        <ele>63</ele>
        <time>2017-10-10T18:14:05Z</time>
      </trkpt>
      <trkpt lat="49.34824" lon="1.32758">
        <ele>63</ele>
        <time>2017-10-10T18:14:05Z</time>
      </trkpt>
      <trkpt lat="49.34829" lon="1.32759">
        <ele>63</ele>
        <time>2017-10-10T18:14:05Z</time>
      </trkpt>
      <trkpt lat="49.34834" lon="1.32759">
        <ele>63</ele>
        <time>2017-10-10T18:14:20Z</time>
      </trkpt>
      <trkpt lat="49.34838" lon="1.3276">
        <ele>63</ele>
        <time>2017-10-10T18:14:21Z</time>
      </trkpt>
      <trkpt lat="49.34842" lon="1.32762">
        <ele>63</ele>
        <time>2017-10-10T18:14:21Z</time>
      </trkpt>
      <trkpt lat="49.34847" lon="1.32762">
        <ele>63</ele>
        <time>2017-10-10T18:14:21Z</time>
      </trkpt>
      <trkpt lat="49.34851" lon="1.32763">
        <ele>63</ele>
        <time>2017-10-10T18:14:36Z</time>
      </trkpt>
      <trkpt lat="49.34855" lon="1.32765">
        <ele>63</ele>
        <time>2017-10-10T18:14:37Z</time>
      </trkpt>
      <trkpt lat="49.34859" lon="1.32767">
        <ele>63</ele>
        <time>2017-10-10T18:14:37Z</time>
      </trkpt>
      <trkpt lat="49.34862" lon="1.32768">
        <ele>63</ele>
        <time>2017-10-10T18:14:37Z</time>
      </trkpt>
      <trkpt lat="49.34866" lon="1.32769">
        <ele>63</ele>
        <time>2017-10-10T18:14:52Z</time>
      </trkpt>
      <trkpt lat="49.34869" lon="1.3277">
        <ele>63</ele>
        <time>2017-10-10T18:14:53Z</time>
      </trkpt>
      <trkpt lat="49.34874" lon="1.32771">
        <ele>63</ele>
        <time>2017-10-10T18:14:53Z</time>
      </trkpt>
      <trkpt lat="49.34879" lon="1.32772">
        <ele>49</ele>
        <time>2017-10-10T18:14:53Z</time>
      </trkpt>
      <trkpt lat="49.34883" lon="1.32772">
        <ele>49</ele>
        <time>2017-10-10T18:15:08Z</time>
      </trkpt>
      <trkpt lat="49.34886" lon="1.32773">
        <ele>49</ele>
        <time>2017-10-10T18:15:09Z</time>
      </trkpt>
      <trkpt lat="49.3489" lon="1.32775">
        <ele>49</ele>
        <time>2017-10-10T18:15:09Z</time>
      </trkpt>
      <trkpt lat="49.34893" lon="1.32777">
        <ele>49</ele>
        <time>2017-10-10T18:15:09Z</time>
      </trkpt>
      <trkpt lat="49.34897" lon="1.32777">
        <ele>49</ele>
        <time>2017-10-10T18:15:24Z</time>
      </trkpt>
      <trkpt lat="49.34901" lon="1.32777">
        <ele>49</ele>
        <time>2017-10-10T18:15:25Z</time>
      </trkpt>
      <trkpt lat="49.34904" lon="1.32779">
        <ele>49</ele>
        <time>2017-10-10T18:15:25Z</time>
      </trkpt>
      <trkpt lat="49.34908" lon="1.3278">
        <ele>49</ele>
        <time>2017-10-10T18:15:25Z</time>
      </trkpt>
      <trkpt lat="49.34912" lon="1.32782">
        <ele>49</ele>
        <time>2017-10-10T18:15:40Z</time>
      </trkpt>
      <trkpt lat="49.34915" lon="1.32783">
        <ele>49</ele>
        <time>2017-10-10T18:15:41Z</time>
      </trkpt>
      <trkpt lat="49.34919" lon="1.32785">
        <ele>49</ele>
        <time>2017-10-10T18:15:41Z</time>
      </trkpt>
      <trkpt lat="49.34923" lon="1.32786">
        <ele>49</ele>
        <time>2017-10-10T18:15:41Z</time>
      </trkpt>
      <trkpt lat="49.34928" lon="1.32788">
        <ele>49</ele>
        <time>2017-10-10T18:15:56Z</time>
      </trkpt>
      <trkpt lat="49.34932" lon="1.32791">
        <ele>49</ele>
        <time>2017-10-10T18:15:57Z</time>
      </trkpt>
      <trkpt lat="49.34936" lon="1.32794">
        <ele>47</ele>
        <time>2017-10-10T18:15:57Z</time>
      </trkpt>
      <trkpt lat="49.3494" lon="1.32797">
        <ele>47</ele>
        <time>2017-10-10T18:15:57Z</time>
      </trkpt>
      <trkpt lat="49.34944" lon="1.32799">
        <ele>47</ele>
        <time>2017-10-10T18:16:12Z</time>
      </trkpt>
      <trkpt lat="49.34948" lon="1.32801">
        <ele>47</ele>
        <time>2017-10-10T18:16:13Z</time>
      </trkpt>
      <trkpt lat="49.34952" lon="1.32802">
        <ele>47</ele>
        <time>2017-10-10T18:16:13Z</time>
      </trkpt>
      <trkpt lat="49.34955" lon="1.32804">
        <ele>47</ele>
        <time>2017-10-10T18:16:13Z</time>
      </trkpt>
      <trkpt lat="49.34958" lon="1.32806">
        <ele>47</ele>
        <time>2017-10-10T18:16:29Z</time>
      </trkpt>
      <trkpt lat="49.34962" lon="1.32808">
        <ele>35</ele>
        <time>2017-10-10T18:16:29Z</time>
      </trkpt>
      <trkpt lat="49.34966" lon="1.32811">
        <ele>35</ele>
        <time>2017-10-10T18:16:29Z</time>
      </trkpt>
      <trkpt lat="49.3497" lon="1.32813">
        <ele>35</ele>
        <time>2017-10-10T18:16:29Z</time>
      </trkpt>
      <trkpt lat="49.34974" lon="1.32816">
        <ele>35</ele>
        <time>2017-10-10T18:16:44Z</time>
      </trkpt>
      <trkpt lat="49.34979" lon="1.32817">
        <ele>35</ele>
        <time>2017-10-10T18:16:45Z</time>
      </trkpt>
      <trkpt lat="49.34983" lon="1.3282">
        <ele>35</ele>
        <time>2017-10-10T18:16:45Z</time>
      </trkpt>
      <trkpt lat="49.34987" lon="1.32821">
        <ele>35</ele>
        <time>2017-10-10T18:16:45Z</time>
      </trkpt>
      <trkpt lat="49.34992" lon="1.32821">
        <ele>35</ele>
        <time>2017-10-10T18:17:00Z</time>
      </trkpt>
      <trkpt lat="49.34996" lon="1.32819">
        <ele>35</ele>
        <time>2017-10-10T18:17:01Z</time>
      </trkpt>
      <trkpt lat="49.35" lon="1.32817">
        <ele>35</ele>
        <time>2017-10-10T18:17:01Z</time>
      </trkpt>
      <trkpt lat="49.35004" lon="1.32817">
        <ele>35</ele>
        <time>2017-10-10T18:17:01Z</time>
      </trkpt>
      <trkpt lat="49.35008" lon="1.32814">
        <ele>35</ele>
        <time>2017-10-10T18:17:16Z</time>
      </trkpt>
      <trkpt lat="49.35012" lon="1.32812">
        <ele>35</ele>
        <time>2017-10-10T18:17:17Z</time>
      </trkpt>
      <trkpt lat="49.35014" lon="1.3281">
        <ele>35</ele>
        <time>2017-10-10T18:17:17Z</time>
      </trkpt>
      <trkpt lat="49.35016" lon="1.32809">
        <ele>35</ele>
        <time>2017-10-10T18:17:17Z</time>
      </trkpt>
      <trkpt lat="49.3502" lon="1.32808">
        <ele>35</ele>
        <time>2017-10-10T18:17:32Z</time>
      </trkpt>
      <trkpt lat="49.35022" lon="1.32811">
        <ele>35</ele>
        <time>2017-10-10T18:17:33Z</time>
      </trkpt>
      <trkpt lat="49.35025" lon="1.32815">
        <ele>35</ele>
        <time>2017-10-10T18:17:33Z</time>
      </trkpt>
      <trkpt lat="49.35027" lon="1.3282">
        <ele>35</ele>
        <time>2017-10-10T18:17:33Z</time>
      </trkpt>
      <trkpt lat="49.3503" lon="1.32825">
        <ele>35</ele>
        <time>2017-10-10T18:17:48Z</time>
      </trkpt>
      <trkpt lat="49.35033" lon="1.32829">
        <ele>35</ele>
        <time>2017-10-10T18:17:49Z</time>
      </trkpt>
      <trkpt lat="49.35036" lon="1.32836">
        <ele>35</ele>
        <time>2017-10-10T18:17:49Z</time>
      </trkpt>
      <trkpt lat="49.3504" lon="1.32841">
        <ele>35</ele>
        <time>2017-10-10T18:17:49Z</time>
      </trkpt>
      <trkpt lat="49.35046" lon="1.3285">
        <ele>28</ele>
        <time>2017-10-10T18:18:41Z</time>
      </trkpt>
      <trkpt lat="49.35047" lon="1.3285">
        <ele>28</ele>
        <time>2017-10-10T18:18:41Z</time>
      </trkpt>
      <trkpt lat="49.35049" lon="1.3285">
        <ele>28</ele>
        <time>2017-10-10T18:18:41Z</time>
      </trkpt>
      <trkpt lat="49.35053" lon="1.32848">
        <ele>28</ele>
        <time>2017-10-10T18:18:41Z</time>
      </trkpt>
      <trkpt lat="49.35058" lon="1.32846">
        <ele>28</ele>
        <time>2017-10-10T18:18:41Z</time>
      </trkpt>
      <trkpt lat="49.35063" lon="1.32844">
        <ele>28</ele>
        <time>2017-10-10T18:18:56Z</time>
      </trkpt>
      <trkpt lat="49.35068" lon="1.32839">
        <ele>28</ele>
        <time>2017-10-10T18:18:57Z</time>
      </trkpt>
      <trkpt lat="49.35071" lon="1.32833">
        <ele>28</ele>
        <time>2017-10-10T18:18:57Z</time>
      </trkpt>
      <trkpt lat="49.35071" lon="1.32832">
        <ele>28</ele>
        <time>2017-10-10T18:18:57Z</time>
      </trkpt>
      <trkpt lat="49.3507" lon="1.32832">
        <ele>28</ele>
        <time>2017-10-10T18:19:40Z</time>
      </trkpt>
      <trkpt lat="49.3507" lon="1.32832">
        <ele>28</ele>
        <time>2017-10-10T18:19:41Z</time>
      </trkpt>
      <trkpt lat="49.35071" lon="1.32831">
        <ele>28</ele>
        <time>2017-10-10T18:19:41Z</time>
      </trkpt>
      <trkpt lat="49.35073" lon="1.32828">
        <ele>28</ele>
        <time>2017-10-10T18:19:41Z</time>
      </trkpt>
      <trkpt lat="49.35077" lon="1.32824">
        <ele>28</ele>
        <time>2017-10-10T18:19:41Z</time>
      </trkpt>
      <trkpt lat="49.35081" lon="1.3282">
        <ele>28</ele>
        <time>2017-10-10T18:19:56Z</time>
      </trkpt>
      <trkpt lat="49.35085" lon="1.32817">
        <ele>28</ele>
        <time>2017-10-10T18:19:57Z</time>
      </trkpt>
      <trkpt lat="49.35089" lon="1.32814">
        <ele>28</ele>
        <time>2017-10-10T18:19:57Z</time>
      </trkpt>
      <trkpt lat="49.35093" lon="1.3281">
        <ele>28</ele>
        <time>2017-10-10T18:19:57Z</time>
      </trkpt>
      <trkpt lat="49.35097" lon="1.32807">
        <ele>28</ele>
        <time>2017-10-10T18:20:13Z</time>
      </trkpt>
      <trkpt lat="49.35101" lon="1.32803">
        <ele>28</ele>
        <time>2017-10-10T18:20:13Z</time>
      </trkpt>
      <trkpt lat="49.35105" lon="1.32799">
        <ele>28</ele>
        <time>2017-10-10T18:20:13Z</time>
      </trkpt>
      <trkpt lat="49.3511" lon="1.32796">
        <ele>28</ele>
        <time>2017-10-10T18:20:13Z</time>
      </trkpt>
      <trkpt lat="49.35114" lon="1.32793">
        <ele>28</ele>
        <time>2017-10-10T18:20:29Z</time>
      </trkpt>
      <trkpt lat="49.35119" lon="1.3279">
        <ele>26</ele>
        <time>2017-10-10T18:20:29Z</time>
      </trkpt>
      <trkpt lat="49.35123" lon="1.32787">
        <ele>26</ele>
        <time>2017-10-10T18:20:29Z</time>
      </trkpt>
      <trkpt lat="49.35128" lon="1.32785">
        <ele>24</ele>
        <time>2017-10-10T18:20:29Z</time>
      </trkpt>
      <trkpt lat="49.35132" lon="1.32782">
        <ele>24</ele>
        <time>2017-10-10T18:20:44Z</time>
      </trkpt>
      <trkpt lat="49.35136" lon="1.32777">
        <ele>24</ele>
        <time>2017-10-10T18:20:45Z</time>
      </trkpt>
      <trkpt lat="49.35141" lon="1.32775">
        <ele>24</ele>
        <time>2017-10-10T18:20:45Z</time>
      </trkpt>
      <trkpt lat="49.35146" lon="1.32775">
        <ele>24</ele>
        <time>2017-10-10T18:20:45Z</time>
      </trkpt>
      <trkpt lat="49.3515" lon="1.3277">
        <ele>24</ele>
        <time>2017-10-10T18:21:00Z</time>
      </trkpt>
      <trkpt lat="49.35154" lon="1.32766">
        <ele>24</ele>
        <time>2017-10-10T18:21:01Z</time>
      </trkpt>
      <trkpt lat="49.35158" lon="1.32763">
        <ele>24</ele>
        <time>2017-10-10T18:21:01Z</time>
      </trkpt>
      <trkpt lat="49.35163" lon="1.3276">
        <ele>24</ele>
        <time>2017-10-10T18:21:01Z</time>
      </trkpt>
      <trkpt lat="49.35168" lon="1.32756">
        <ele>24</ele>
        <time>2017-10-10T18:21:16Z</time>
      </trkpt>
      <trkpt lat="49.35173" lon="1.32754">
        <ele>24</ele>
        <time>2017-10-10T18:21:17Z</time>
      </trkpt>
      <trkpt lat="49.35177" lon="1.32751">
        <ele>24</ele>
        <time>2017-10-10T18:21:17Z</time>
      </trkpt>
      <trkpt lat="49.35182" lon="1.32747">
        <ele>24</ele>
        <time>2017-10-10T18:21:17Z</time>
      </trkpt>
      <trkpt lat="49.35186" lon="1.32744">
        <ele>24</ele>
        <time>2017-10-10T18:21:32Z</time>
      </trkpt>
      <trkpt lat="49.35191" lon="1.32742">
        <ele>24</ele>
        <time>2017-10-10T18:21:33Z</time>
      </trkpt>
      <trkpt lat="49.35195" lon="1.32738">
        <ele>24</ele>
        <time>2017-10-10T18:21:33Z</time>
      </trkpt>
      <trkpt lat="49.352" lon="1.32736">
        <ele>24</ele>
        <time>2017-10-10T18:21:33Z</time>
      </trkpt>
      <trkpt lat="49.35206" lon="1.32733">
        <ele>24</ele>
        <time>2017-10-10T18:21:48Z</time>
      </trkpt>
      <trkpt lat="49.3521" lon="1.32731">
        <ele>24</ele>
        <time>2017-10-10T18:21:49Z</time>
      </trkpt>
      <trkpt lat="49.35215" lon="1.32727">
        <ele>24</ele>
        <time>2017-10-10T18:21:49Z</time>
      </trkpt>
      <trkpt lat="49.35219" lon="1.32723">
        <ele>24</ele>
        <time>2017-10-10T18:21:49Z</time>
      </trkpt>
      <trkpt lat="49.35223" lon="1.3272">
        <ele>24</ele>
        <time>2017-10-10T18:22:04Z</time>
      </trkpt>
      <trkpt lat="49.35227" lon="1.32717">
        <ele>24</ele>
        <time>2017-10-10T18:22:05Z</time>
      </trkpt>
      <trkpt lat="49.35231" lon="1.32713">
        <ele>24</ele>
        <time>2017-10-10T18:22:05Z</time>
      </trkpt>
      <trkpt lat="49.35236" lon="1.3271">
        <ele>24</ele>
        <time>2017-10-10T18:22:05Z</time>
      </trkpt>
      <trkpt lat="49.3524" lon="1.32707">
        <ele>24</ele>
        <time>2017-10-10T18:22:20Z</time>
      </trkpt>
      <trkpt lat="49.35245" lon="1.32704">
        <ele>24</ele>
        <time>2017-10-10T18:22:21Z</time>
      </trkpt>
      <trkpt lat="49.35249" lon="1.327">
        <ele>24</ele>
        <time>2017-10-10T18:22:21Z</time>
      </trkpt>
      <trkpt lat="49.35253" lon="1.32696">
        <ele>24</ele>
        <time>2017-10-10T18:22:21Z</time>
      </trkpt>
      <trkpt lat="49.35257" lon="1.32694">
        <ele>24</ele>
        <time>2017-10-10T18:22:36Z</time>
      </trkpt>
      <trkpt lat="49.35261" lon="1.32691">
        <ele>24</ele>
        <time>2017-10-10T18:22:37Z</time>
      </trkpt>
      <trkpt lat="49.35266" lon="1.32688">
        <ele>24</ele>
        <time>2017-10-10T18:22:37Z</time>
      </trkpt>
      <trkpt lat="49.3527" lon="1.32686">
        <ele>24</ele>
        <time>2017-10-10T18:22:37Z</time>
      </trkpt>
      <trkpt lat="49.35275" lon="1.32683">
        <ele>24</ele>
        <time>2017-10-10T18:22:52Z</time>
      </trkpt>
      <trkpt lat="49.35279" lon="1.3268">
        <ele>24</ele>
        <time>2017-10-10T18:22:53Z</time>
      </trkpt>
      <trkpt lat="49.35284" lon="1.32676">
        <ele>24</ele>
        <time>2017-10-10T18:22:53Z</time>
      </trkpt>
      <trkpt lat="49.35288" lon="1.32672">
        <ele>24</ele>
        <time>2017-10-10T18:22:53Z</time>
      </trkpt>
      <trkpt lat="49.35292" lon="1.3267">
        <ele>23</ele>
        <time>2017-10-10T18:23:08Z</time>
      </trkpt>
      <trkpt lat="49.35297" lon="1.32667">
        <ele>23</ele>
        <time>2017-10-10T18:23:09Z</time>
      </trkpt>
      <trkpt lat="49.35302" lon="1.32664">
        <ele>23</ele>
        <time>2017-10-10T18:23:09Z</time>
      </trkpt>
      <trkpt lat="49.35307" lon="1.32662">
        <ele>23</ele>
        <time>2017-10-10T18:23:09Z</time>
      </trkpt>
      <trkpt lat="49.35312" lon="1.32659">
        <ele>23</ele>
        <time>2017-10-10T18:23:25Z</time>
      </trkpt>
      <trkpt lat="49.35316" lon="1.32655">
        <ele>23</ele>
        <time>2017-10-10T18:23:25Z</time>
      </trkpt>
      <trkpt lat="49.35321" lon="1.32653">
        <ele>23</ele>
        <time>2017-10-10T18:23:25Z</time>
      </trkpt>
      <trkpt lat="49.35325" lon="1.3265">
        <ele>23</ele>
        <time>2017-10-10T18:23:25Z</time>
      </trkpt>
      <trkpt lat="49.35329" lon="1.32646">
        <ele>23</ele>
        <time>2017-10-10T18:23:40Z</time>
      </trkpt>
      <trkpt lat="49.35333" lon="1.32643">
        <ele>23</ele>
        <time>2017-10-10T18:23:41Z</time>
      </trkpt>
      <trkpt lat="49.35337" lon="1.32642">
        <ele>23</ele>
        <time>2017-10-10T18:23:41Z</time>
      </trkpt>
      <trkpt lat="49.35342" lon="1.32639">
        <ele>23</ele>
        <time>2017-10-10T18:23:41Z</time>
      </trkpt>
      <trkpt lat="49.35346" lon="1.32637">
        <ele>23</ele>
        <time>2017-10-10T18:23:56Z</time>
      </trkpt>
      <trkpt lat="49.3535" lon="1.32634">
        <ele>23</ele>
        <time>2017-10-10T18:23:57Z</time>
      </trkpt>
      <trkpt lat="49.35354" lon="1.3263">
        <ele>23</ele>
        <time>2017-10-10T18:23:57Z</time>
      </trkpt>
      <trkpt lat="49.35358" lon="1.32626">
        <ele>23</ele>
        <time>2017-10-10T18:23:57Z</time>
      </trkpt>
      <trkpt lat="49.35362" lon="1.32622">
        <ele>25</ele>
        <time>2017-10-10T18:24:12Z</time>
      </trkpt>
      <trkpt lat="49.35366" lon="1.32618">
        <ele>25</ele>
        <time>2017-10-10T18:24:13Z</time>
      </trkpt>
      <trkpt lat="49.3537" lon="1.32613">
        <ele>25</ele>
        <time>2017-10-10T18:24:13Z</time>
      </trkpt>
      <trkpt lat="49.35374" lon="1.3261">
        <ele>25</ele>
        <time>2017-10-10T18:24:13Z</time>
      </trkpt>
      <trkpt lat="49.35378" lon="1.32606">
        <ele>25</ele>
        <time>2017-10-10T18:24:29Z</time>
      </trkpt>
      <trkpt lat="49.35383" lon="1.32605">
        <ele>25</ele>
        <time>2017-10-10T18:24:29Z</time>
      </trkpt>
      <trkpt lat="49.35388" lon="1.32603">
        <ele>25</ele>
        <time>2017-10-10T18:24:29Z</time>
      </trkpt>
      <trkpt lat="49.35393" lon="1.32599">
        <ele>25</ele>
        <time>2017-10-10T18:24:29Z</time>
      </trkpt>
      <trkpt lat="49.35397" lon="1.32596">
        <ele>25</ele>
        <time>2017-10-10T18:24:44Z</time>
      </trkpt>
      <trkpt lat="49.35401" lon="1.32591">
        <ele>25</ele>
        <time>2017-10-10T18:24:45Z</time>
      </trkpt>
      <trkpt lat="49.35405" lon="1.32588">
        <ele>25</ele>
        <time>2017-10-10T18:24:45Z</time>
      </trkpt>
      <trkpt lat="49.35409" lon="1.32583">
        <ele>25</ele>
        <time>2017-10-10T18:24:45Z</time>
      </trkpt>
      <trkpt lat="49.35413" lon="1.32577">
        <ele>25</ele>
        <time>2017-10-10T18:25:01Z</time>
      </trkpt>
      <trkpt lat="49.35416" lon="1.32572">
        <ele>25</ele>
        <time>2017-10-10T18:25:01Z</time>
      </trkpt>
      <trkpt lat="49.3542" lon="1.32568">
        <ele>25</ele>
        <time>2017-10-10T18:25:01Z</time>
      </trkpt>
      <trkpt lat="49.35424" lon="1.32563">
        <ele>25</ele>
        <time>2017-10-10T18:25:01Z</time>
      </trkpt>
      <trkpt lat="49.35428" lon="1.32559">
        <ele>25</ele>
        <time>2017-10-10T18:25:16Z</time>
      </trkpt>
      <trkpt lat="49.35432" lon="1.32555">
        <ele>25</ele>
        <time>2017-10-10T18:25:17Z</time>
      </trkpt>
      <trkpt lat="49.35436" lon="1.32552">
        <ele>25</ele>
        <time>2017-10-10T18:25:17Z</time>
      </trkpt>
      <trkpt lat="49.3544" lon="1.32548">
        <ele>25</ele>
        <time>2017-10-10T18:25:17Z</time>
      </trkpt>
      <trkpt lat="49.35444" lon="1.32545">
        <ele>25</ele>
        <time>2017-10-10T18:25:32Z</time>
      </trkpt>
      <trkpt lat="49.35448" lon="1.32542">
        <ele>25</ele>
        <time>2017-10-10T18:25:33Z</time>
      </trkpt>
      <trkpt lat="49.35452" lon="1.32538">
        <ele>29</ele>
        <time>2017-10-10T18:25:33Z</time>
      </trkpt>
      <trkpt lat="49.35456" lon="1.32534">
        <ele>29</ele>
        <time>2017-10-10T18:25:33Z</time>
      </trkpt>
      <trkpt lat="49.3546" lon="1.3253">
        <ele>30</ele>
        <time>2017-10-10T18:25:49Z</time>
      </trkpt>
      <trkpt lat="49.35464" lon="1.32526">
        <ele>30</ele>
        <time>2017-10-10T18:25:49Z</time>
      </trkpt>
      <trkpt lat="49.35468" lon="1.32522">
        <ele>30</ele>
        <time>2017-10-10T18:25:49Z</time>
      </trkpt>
      <trkpt lat="49.35472" lon="1.32518">
        <ele>30</ele>
        <time>2017-10-10T18:25:49Z</time>
      </trkpt>
      <trkpt lat="49.35476" lon="1.32514">
        <ele>30</ele>
        <time>2017-10-10T18:26:05Z</time>
      </trkpt>
      <trkpt lat="49.3548" lon="1.32511">
        <ele>30</ele>
        <time>2017-10-10T18:26:05Z</time>
      </trkpt>
      <trkpt lat="49.35484" lon="1.32507">
        <ele>30</ele>
        <time>2017-10-10T18:26:05Z</time>
      </trkpt>
      <trkpt lat="49.35488" lon="1.32504">
        <ele>30</ele>
        <time>2017-10-10T18:26:05Z</time>
      </trkpt>
      <trkpt lat="49.35493" lon="1.325">
        <ele>30</ele>
        <time>2017-10-10T18:26:21Z</time>
      </trkpt>
      <trkpt lat="49.35494" lon="1.32493">
        <ele>30</ele>
        <time>2017-10-10T18:26:21Z</time>
      </trkpt>
      <trkpt lat="49.35497" lon="1.32488">
        <ele>30</ele>
        <time>2017-10-10T18:26:21Z</time>
      </trkpt>
      <trkpt lat="49.35501" lon="1.32484">
        <ele>30</ele>
        <time>2017-10-10T18:26:21Z</time>
      </trkpt>
      <trkpt lat="49.35506" lon="1.32482">
        <ele>30</ele>
        <time>2017-10-10T18:26:36Z</time>
      </trkpt>
      <trkpt lat="49.3551" lon="1.32478">
        <ele>30</ele>
        <time>2017-10-10T18:26:37Z</time>
      </trkpt>
      <trkpt lat="49.35514" lon="1.32475">
        <ele>30</ele>
        <time>2017-10-10T18:26:37Z</time>
      </trkpt>
      <trkpt lat="49.35518" lon="1.32473">
        <ele>30</ele>
        <time>2017-10-10T18:26:37Z</time>
      </trkpt>
      <trkpt lat="49.35522" lon="1.32469">
        <ele>30</ele>
        <time>2017-10-10T18:26:53Z</time>
      </trkpt>
      <trkpt lat="49.35526" lon="1.32467">
        <ele>30</ele>
        <time>2017-10-10T18:26:53Z</time>
      </trkpt>
      <trkpt lat="49.3553" lon="1.32467">
        <ele>30</ele>
        <time>2017-10-10T18:26:53Z</time>
      </trkpt>
      <trkpt lat="49.35535" lon="1.32469">
        <ele>30</ele>
        <time>2017-10-10T18:26:53Z</time>
      </trkpt>
      <trkpt lat="49.35539" lon="1.32473">
        <ele>30</ele>
        <time>2017-10-10T18:27:08Z</time>
      </trkpt>
      <trkpt lat="49.35542" lon="1.32477">
        <ele>37</ele>
        <time>2017-10-10T18:27:09Z</time>
      </trkpt>
      <trkpt lat="49.35545" lon="1.3248">
        <ele>37</ele>
        <time>2017-10-10T18:27:09Z</time>
      </trkpt>
      <trkpt lat="49.35547" lon="1.32484">
        <ele>37</ele>
        <time>2017-10-10T18:27:09Z</time>
      </trkpt>
      <trkpt lat="49.35549" lon="1.32488">
        <ele>37</ele>
        <time>2017-10-10T18:27:25Z</time>
      </trkpt>
      <trkpt lat="49.35551" lon="1.32493">
        <ele>37</ele>
        <time>2017-10-10T18:27:25Z</time>
      </trkpt>
      <trkpt lat="49.35553" lon="1.32498">
        <ele>37</ele>
        <time>2017-10-10T18:27:25Z</time>
      </trkpt>
      <trkpt lat="49.35555" lon="1.32502">
        <ele>37</ele>
        <time>2017-10-10T18:27:25Z</time>
      </trkpt>
    </trkseg>
  </trk>
</gpx>